<?xml version="1.0" encoding="UTF-8" standalone="no" ?>
<gpx xmlns="http://www.topografix.com/GPX/1/1" xmlns:xsi="http://www.w3.org/2001/XMLSchema-instance" xsi:schemaLocation="http://www.topografix.com/GPX/1/1 http://www.topografix.com/GPX/1/1/gpx.xsd" version="1.1" creator="VisuGPX - https://www.visugpx.com">
  <metadata>
    <name>Au pays du Cresson</name>
    <desc><![CDATA[Promenade d'une rive à l'autre le long de la Juine.]]></desc>
  </metadata>
  <trk>
    <name><![CDATA[26-SEP-20 06:11:02 PM]]></name>
    <extensions>
      <line xmlns="http://www.topografix.com/GPX/gpx_style/0/2">
        <color>0000FF</color>
        <width>4</width>
      </line>
    </extensions>
    <trkseg>
      <trkpt lat="48.27539" lon="2.10096">
        <ele>113.57</ele>
        <time>2020-09-26T08:10:26Z</time>
      </trkpt>
      <trkpt lat="48.27538" lon="2.10096">
        <ele>112.61</ele>
        <time>2020-09-26T08:10:48Z</time>
      </trkpt>
      <trkpt lat="48.27539" lon="2.10098">
        <ele>113.09</ele>
        <time>2020-09-26T08:11:24Z</time>
      </trkpt>
      <trkpt lat="48.2754" lon="2.10093">
        <ele>113.09</ele>
        <time>2020-09-26T08:11:36Z</time>
      </trkpt>
      <trkpt lat="48.27546" lon="2.10093">
        <ele>113.09</ele>
        <time>2020-09-26T08:11:58Z</time>
      </trkpt>
      <trkpt lat="48.27546" lon="2.10092">
        <ele>113.09</ele>
        <time>2020-09-26T08:12:21Z</time>
      </trkpt>
      <trkpt lat="48.27541" lon="2.10091">
        <ele>113.57</ele>
        <time>2020-09-26T08:12:38Z</time>
      </trkpt>
      <trkpt lat="48.2754" lon="2.1009">
        <ele>114.53</ele>
        <time>2020-09-26T08:12:39Z</time>
      </trkpt>
      <trkpt lat="48.27545" lon="2.10085">
        <ele>113.57</ele>
        <time>2020-09-26T08:12:49Z</time>
      </trkpt>
      <trkpt lat="48.2755" lon="2.10085">
        <ele>114.53</ele>
        <time>2020-09-26T08:13:01Z</time>
      </trkpt>
      <trkpt lat="48.27543" lon="2.10086">
        <ele>113.57</ele>
        <time>2020-09-26T08:13:14Z</time>
      </trkpt>
      <trkpt lat="48.27542" lon="2.10086">
        <ele>113.57</ele>
        <time>2020-09-26T08:13:28Z</time>
      </trkpt>
      <trkpt lat="48.27541" lon="2.10078">
        <ele>114.05</ele>
        <time>2020-09-26T08:13:47Z</time>
      </trkpt>
      <trkpt lat="48.27541" lon="2.10078">
        <ele>114.05</ele>
        <time>2020-09-26T08:13:48Z</time>
      </trkpt>
      <trkpt lat="48.27538" lon="2.10074">
        <ele>114.53</ele>
        <time>2020-09-26T08:13:57Z</time>
      </trkpt>
      <trkpt lat="48.27534" lon="2.10058">
        <ele>114.05</ele>
        <time>2020-09-26T08:14:07Z</time>
      </trkpt>
      <trkpt lat="48.27534" lon="2.10041">
        <ele>114.05</ele>
        <time>2020-09-26T08:14:19Z</time>
      </trkpt>
      <trkpt lat="48.27533" lon="2.10022">
        <ele>115.01</ele>
        <time>2020-09-26T08:14:32Z</time>
      </trkpt>
      <trkpt lat="48.27532" lon="2.10012">
        <ele>115.5</ele>
        <time>2020-09-26T08:14:37Z</time>
      </trkpt>
      <trkpt lat="48.27531" lon="2.09999">
        <ele>115.5</ele>
        <time>2020-09-26T08:14:48Z</time>
      </trkpt>
      <trkpt lat="48.27534" lon="2.09999">
        <ele>116.46</ele>
        <time>2020-09-26T08:15:00Z</time>
      </trkpt>
      <trkpt lat="48.27535" lon="2.09998">
        <ele>115.01</ele>
        <time>2020-09-26T08:15:06Z</time>
      </trkpt>
      <trkpt lat="48.27539" lon="2.09986">
        <ele>117.42</ele>
        <time>2020-09-26T08:15:14Z</time>
      </trkpt>
      <trkpt lat="48.27539" lon="2.09984">
        <ele>117.9</ele>
        <time>2020-09-26T08:15:15Z</time>
      </trkpt>
      <trkpt lat="48.27539" lon="2.09982">
        <ele>119.34</ele>
        <time>2020-09-26T08:15:16Z</time>
      </trkpt>
      <trkpt lat="48.27539" lon="2.09979">
        <ele>118.38</ele>
        <time>2020-09-26T08:15:17Z</time>
      </trkpt>
      <trkpt lat="48.27542" lon="2.09963">
        <ele>116.46</ele>
        <time>2020-09-26T08:15:25Z</time>
      </trkpt>
      <trkpt lat="48.27544" lon="2.09962">
        <ele>115.5</ele>
        <time>2020-09-26T08:15:26Z</time>
      </trkpt>
      <trkpt lat="48.27545" lon="2.09962">
        <ele>115.98</ele>
        <time>2020-09-26T08:15:27Z</time>
      </trkpt>
      <trkpt lat="48.27547" lon="2.09962">
        <ele>115.01</ele>
        <time>2020-09-26T08:15:28Z</time>
      </trkpt>
      <trkpt lat="48.27554" lon="2.09963">
        <ele>115.5</ele>
        <time>2020-09-26T08:15:37Z</time>
      </trkpt>
      <trkpt lat="48.27555" lon="2.0996">
        <ele>115.98</ele>
        <time>2020-09-26T08:15:39Z</time>
      </trkpt>
      <trkpt lat="48.27556" lon="2.09959">
        <ele>115.98</ele>
        <time>2020-09-26T08:15:40Z</time>
      </trkpt>
      <trkpt lat="48.27557" lon="2.09957">
        <ele>115.98</ele>
        <time>2020-09-26T08:15:41Z</time>
      </trkpt>
      <trkpt lat="48.27558" lon="2.09955">
        <ele>115.98</ele>
        <time>2020-09-26T08:15:42Z</time>
      </trkpt>
      <trkpt lat="48.27559" lon="2.09954">
        <ele>115.5</ele>
        <time>2020-09-26T08:15:43Z</time>
      </trkpt>
      <trkpt lat="48.27563" lon="2.09954">
        <ele>115.5</ele>
        <time>2020-09-26T08:15:47Z</time>
      </trkpt>
      <trkpt lat="48.27564" lon="2.09954">
        <ele>116.46</ele>
        <time>2020-09-26T08:15:48Z</time>
      </trkpt>
      <trkpt lat="48.2757" lon="2.09955">
        <ele>115.5</ele>
        <time>2020-09-26T08:15:54Z</time>
      </trkpt>
      <trkpt lat="48.27571" lon="2.09956">
        <ele>115.98</ele>
        <time>2020-09-26T08:15:55Z</time>
      </trkpt>
      <trkpt lat="48.27573" lon="2.09957">
        <ele>115.5</ele>
        <time>2020-09-26T08:15:56Z</time>
      </trkpt>
      <trkpt lat="48.27587" lon="2.09962">
        <ele>115.01</ele>
        <time>2020-09-26T08:16:10Z</time>
      </trkpt>
      <trkpt lat="48.27604" lon="2.09972">
        <ele>115.01</ele>
        <time>2020-09-26T08:16:21Z</time>
      </trkpt>
      <trkpt lat="48.27618" lon="2.09978">
        <ele>115.01</ele>
        <time>2020-09-26T08:16:34Z</time>
      </trkpt>
      <trkpt lat="48.27624" lon="2.09979">
        <ele>115.01</ele>
        <time>2020-09-26T08:16:40Z</time>
      </trkpt>
      <trkpt lat="48.27633" lon="2.09976">
        <ele>115.5</ele>
        <time>2020-09-26T08:16:45Z</time>
      </trkpt>
      <trkpt lat="48.27635" lon="2.09973">
        <ele>115.5</ele>
        <time>2020-09-26T08:16:46Z</time>
      </trkpt>
      <trkpt lat="48.27647" lon="2.09963">
        <ele>114.05</ele>
        <time>2020-09-26T08:16:56Z</time>
      </trkpt>
      <trkpt lat="48.27649" lon="2.09962">
        <ele>114.53</ele>
        <time>2020-09-26T08:16:58Z</time>
      </trkpt>
      <trkpt lat="48.27651" lon="2.09962">
        <ele>114.53</ele>
        <time>2020-09-26T08:16:59Z</time>
      </trkpt>
      <trkpt lat="48.27652" lon="2.0996">
        <ele>114.53</ele>
        <time>2020-09-26T08:17:00Z</time>
      </trkpt>
      <trkpt lat="48.2766" lon="2.09952">
        <ele>114.05</ele>
        <time>2020-09-26T08:17:07Z</time>
      </trkpt>
      <trkpt lat="48.27661" lon="2.09951">
        <ele>114.05</ele>
        <time>2020-09-26T08:17:08Z</time>
      </trkpt>
      <trkpt lat="48.27662" lon="2.0995">
        <ele>113.57</ele>
        <time>2020-09-26T08:17:09Z</time>
      </trkpt>
      <trkpt lat="48.27663" lon="2.09949">
        <ele>114.53</ele>
        <time>2020-09-26T08:17:10Z</time>
      </trkpt>
      <trkpt lat="48.27674" lon="2.09935">
        <ele>113.09</ele>
        <time>2020-09-26T08:17:22Z</time>
      </trkpt>
      <trkpt lat="48.27683" lon="2.09934">
        <ele>112.13</ele>
        <time>2020-09-26T08:17:31Z</time>
      </trkpt>
      <trkpt lat="48.27684" lon="2.09933">
        <ele>111.65</ele>
        <time>2020-09-26T08:17:32Z</time>
      </trkpt>
      <trkpt lat="48.27685" lon="2.09931">
        <ele>112.13</ele>
        <time>2020-09-26T08:17:33Z</time>
      </trkpt>
      <trkpt lat="48.27687" lon="2.0993">
        <ele>112.13</ele>
        <time>2020-09-26T08:17:34Z</time>
      </trkpt>
      <trkpt lat="48.27688" lon="2.09928">
        <ele>111.17</ele>
        <time>2020-09-26T08:17:35Z</time>
      </trkpt>
      <trkpt lat="48.27689" lon="2.09926">
        <ele>111.17</ele>
        <time>2020-09-26T08:17:36Z</time>
      </trkpt>
      <trkpt lat="48.2769" lon="2.09924">
        <ele>111.17</ele>
        <time>2020-09-26T08:17:37Z</time>
      </trkpt>
      <trkpt lat="48.27693" lon="2.09923">
        <ele>111.65</ele>
        <time>2020-09-26T08:17:39Z</time>
      </trkpt>
      <trkpt lat="48.27694" lon="2.09923">
        <ele>111.17</ele>
        <time>2020-09-26T08:17:40Z</time>
      </trkpt>
      <trkpt lat="48.27699" lon="2.09923">
        <ele>111.17</ele>
        <time>2020-09-26T08:17:43Z</time>
      </trkpt>
      <trkpt lat="48.277" lon="2.09922">
        <ele>110.69</ele>
        <time>2020-09-26T08:17:44Z</time>
      </trkpt>
      <trkpt lat="48.27701" lon="2.09921">
        <ele>110.21</ele>
        <time>2020-09-26T08:17:45Z</time>
      </trkpt>
      <trkpt lat="48.27713" lon="2.09911">
        <ele>111.17</ele>
        <time>2020-09-26T08:17:57Z</time>
      </trkpt>
      <trkpt lat="48.27716" lon="2.09908">
        <ele>110.21</ele>
        <time>2020-09-26T08:18:00Z</time>
      </trkpt>
      <trkpt lat="48.27717" lon="2.09908">
        <ele>110.21</ele>
        <time>2020-09-26T08:18:01Z</time>
      </trkpt>
      <trkpt lat="48.27732" lon="2.09896">
        <ele>109.25</ele>
        <time>2020-09-26T08:18:13Z</time>
      </trkpt>
      <trkpt lat="48.27749" lon="2.09881">
        <ele>109.73</ele>
        <time>2020-09-26T08:18:28Z</time>
      </trkpt>
      <trkpt lat="48.27768" lon="2.09867">
        <ele>110.21</ele>
        <time>2020-09-26T08:18:43Z</time>
      </trkpt>
      <trkpt lat="48.27779" lon="2.09857">
        <ele>108.77</ele>
        <time>2020-09-26T08:18:52Z</time>
      </trkpt>
      <trkpt lat="48.27787" lon="2.0985">
        <ele>109.25</ele>
        <time>2020-09-26T08:18:59Z</time>
      </trkpt>
      <trkpt lat="48.27788" lon="2.09849">
        <ele>109.25</ele>
        <time>2020-09-26T08:19:00Z</time>
      </trkpt>
      <trkpt lat="48.27791" lon="2.09844">
        <ele>109.25</ele>
        <time>2020-09-26T08:19:03Z</time>
      </trkpt>
      <trkpt lat="48.27792" lon="2.09844">
        <ele>108.77</ele>
        <time>2020-09-26T08:19:04Z</time>
      </trkpt>
      <trkpt lat="48.27793" lon="2.09843">
        <ele>109.25</ele>
        <time>2020-09-26T08:19:05Z</time>
      </trkpt>
      <trkpt lat="48.27794" lon="2.09843">
        <ele>108.77</ele>
        <time>2020-09-26T08:19:06Z</time>
      </trkpt>
      <trkpt lat="48.27795" lon="2.09842">
        <ele>108.77</ele>
        <time>2020-09-26T08:19:07Z</time>
      </trkpt>
      <trkpt lat="48.27797" lon="2.09841">
        <ele>108.29</ele>
        <time>2020-09-26T08:19:08Z</time>
      </trkpt>
      <trkpt lat="48.27804" lon="2.09837">
        <ele>109.25</ele>
        <time>2020-09-26T08:19:14Z</time>
      </trkpt>
      <trkpt lat="48.27805" lon="2.09835">
        <ele>109.25</ele>
        <time>2020-09-26T08:19:15Z</time>
      </trkpt>
      <trkpt lat="48.27826" lon="2.09814">
        <ele>108.29</ele>
        <time>2020-09-26T08:19:34Z</time>
      </trkpt>
      <trkpt lat="48.27843" lon="2.09793">
        <ele>108.77</ele>
        <time>2020-09-26T08:19:50Z</time>
      </trkpt>
      <trkpt lat="48.27856" lon="2.09773">
        <ele>109.25</ele>
        <time>2020-09-26T08:20:05Z</time>
      </trkpt>
      <trkpt lat="48.27868" lon="2.09748">
        <ele>109.25</ele>
        <time>2020-09-26T08:20:19Z</time>
      </trkpt>
      <trkpt lat="48.27874" lon="2.09732">
        <ele>108.77</ele>
        <time>2020-09-26T08:20:29Z</time>
      </trkpt>
      <trkpt lat="48.27875" lon="2.09732">
        <ele>108.77</ele>
        <time>2020-09-26T08:20:30Z</time>
      </trkpt>
      <trkpt lat="48.27876" lon="2.0973">
        <ele>108.29</ele>
        <time>2020-09-26T08:20:31Z</time>
      </trkpt>
      <trkpt lat="48.27885" lon="2.09714">
        <ele>108.29</ele>
        <time>2020-09-26T08:20:44Z</time>
      </trkpt>
      <trkpt lat="48.27886" lon="2.09712">
        <ele>108.29</ele>
        <time>2020-09-26T08:20:45Z</time>
      </trkpt>
      <trkpt lat="48.27892" lon="2.09698">
        <ele>107.81</ele>
        <time>2020-09-26T08:20:53Z</time>
      </trkpt>
      <trkpt lat="48.27903" lon="2.09668">
        <ele>107.81</ele>
        <time>2020-09-26T08:21:09Z</time>
      </trkpt>
      <trkpt lat="48.27907" lon="2.09651">
        <ele>107.81</ele>
        <time>2020-09-26T08:21:22Z</time>
      </trkpt>
      <trkpt lat="48.27909" lon="2.09646">
        <ele>109.25</ele>
        <time>2020-09-26T08:21:25Z</time>
      </trkpt>
      <trkpt lat="48.27915" lon="2.09621">
        <ele>108.77</ele>
        <time>2020-09-26T08:21:39Z</time>
      </trkpt>
      <trkpt lat="48.27918" lon="2.09599">
        <ele>107.81</ele>
        <time>2020-09-26T08:21:49Z</time>
      </trkpt>
      <trkpt lat="48.2792" lon="2.09576">
        <ele>107.81</ele>
        <time>2020-09-26T08:22:03Z</time>
      </trkpt>
      <trkpt lat="48.2792" lon="2.09574">
        <ele>107.81</ele>
        <time>2020-09-26T08:22:04Z</time>
      </trkpt>
      <trkpt lat="48.27921" lon="2.09573">
        <ele>107.81</ele>
        <time>2020-09-26T08:22:05Z</time>
      </trkpt>
      <trkpt lat="48.27924" lon="2.09559">
        <ele>108.29</ele>
        <time>2020-09-26T08:22:12Z</time>
      </trkpt>
      <trkpt lat="48.27924" lon="2.09557">
        <ele>108.77</ele>
        <time>2020-09-26T08:22:13Z</time>
      </trkpt>
      <trkpt lat="48.27929" lon="2.09532">
        <ele>105.88</ele>
        <time>2020-09-26T08:22:26Z</time>
      </trkpt>
      <trkpt lat="48.27939" lon="2.09511">
        <ele>105.4</ele>
        <time>2020-09-26T08:22:38Z</time>
      </trkpt>
      <trkpt lat="48.27944" lon="2.09505">
        <ele>104.92</ele>
        <time>2020-09-26T08:22:44Z</time>
      </trkpt>
      <trkpt lat="48.27964" lon="2.09495">
        <ele>103.48</ele>
        <time>2020-09-26T08:23:00Z</time>
      </trkpt>
      <trkpt lat="48.27983" lon="2.09501">
        <ele>103.48</ele>
        <time>2020-09-26T08:23:15Z</time>
      </trkpt>
      <trkpt lat="48.28" lon="2.09504">
        <ele>103.48</ele>
        <time>2020-09-26T08:23:29Z</time>
      </trkpt>
      <trkpt lat="48.28022" lon="2.09504">
        <ele>102.04</ele>
        <time>2020-09-26T08:23:41Z</time>
      </trkpt>
      <trkpt lat="48.2803" lon="2.09501">
        <ele>101.08</ele>
        <time>2020-09-26T08:23:48Z</time>
      </trkpt>
      <trkpt lat="48.28039" lon="2.09491">
        <ele>100.11</ele>
        <time>2020-09-26T08:23:58Z</time>
      </trkpt>
      <trkpt lat="48.2804" lon="2.0949">
        <ele>101.08</ele>
        <time>2020-09-26T08:23:59Z</time>
      </trkpt>
      <trkpt lat="48.28041" lon="2.09488">
        <ele>100.6</ele>
        <time>2020-09-26T08:24:00Z</time>
      </trkpt>
      <trkpt lat="48.28041" lon="2.09486">
        <ele>101.08</ele>
        <time>2020-09-26T08:24:01Z</time>
      </trkpt>
      <trkpt lat="48.28042" lon="2.09485">
        <ele>102.04</ele>
        <time>2020-09-26T08:24:02Z</time>
      </trkpt>
      <trkpt lat="48.28052" lon="2.09452">
        <ele>101.08</ele>
        <time>2020-09-26T08:24:19Z</time>
      </trkpt>
      <trkpt lat="48.28056" lon="2.0944">
        <ele>101.56</ele>
        <time>2020-09-26T08:24:27Z</time>
      </trkpt>
      <trkpt lat="48.28058" lon="2.09434">
        <ele>100.6</ele>
        <time>2020-09-26T08:24:31Z</time>
      </trkpt>
      <trkpt lat="48.28066" lon="2.09413">
        <ele>100.6</ele>
        <time>2020-09-26T08:24:46Z</time>
      </trkpt>
      <trkpt lat="48.28068" lon="2.09408">
        <ele>103.48</ele>
        <time>2020-09-26T08:24:49Z</time>
      </trkpt>
      <trkpt lat="48.2807" lon="2.09399">
        <ele>101.56</ele>
        <time>2020-09-26T08:24:54Z</time>
      </trkpt>
      <trkpt lat="48.28071" lon="2.09397">
        <ele>102.04</ele>
        <time>2020-09-26T08:24:55Z</time>
      </trkpt>
      <trkpt lat="48.28072" lon="2.09395">
        <ele>103</ele>
        <time>2020-09-26T08:24:56Z</time>
      </trkpt>
      <trkpt lat="48.28072" lon="2.09392">
        <ele>102.52</ele>
        <time>2020-09-26T08:24:57Z</time>
      </trkpt>
      <trkpt lat="48.28073" lon="2.0939">
        <ele>102.52</ele>
        <time>2020-09-26T08:24:58Z</time>
      </trkpt>
      <trkpt lat="48.28074" lon="2.09388">
        <ele>102.52</ele>
        <time>2020-09-26T08:24:59Z</time>
      </trkpt>
      <trkpt lat="48.28075" lon="2.09386">
        <ele>102.52</ele>
        <time>2020-09-26T08:25:00Z</time>
      </trkpt>
      <trkpt lat="48.28075" lon="2.09384">
        <ele>103</ele>
        <time>2020-09-26T08:25:01Z</time>
      </trkpt>
      <trkpt lat="48.28076" lon="2.09382">
        <ele>103</ele>
        <time>2020-09-26T08:25:02Z</time>
      </trkpt>
      <trkpt lat="48.28077" lon="2.09375">
        <ele>103</ele>
        <time>2020-09-26T08:25:07Z</time>
      </trkpt>
      <trkpt lat="48.28078" lon="2.09372">
        <ele>102.04</ele>
        <time>2020-09-26T08:25:09Z</time>
      </trkpt>
      <trkpt lat="48.28079" lon="2.0937">
        <ele>102.52</ele>
        <time>2020-09-26T08:25:10Z</time>
      </trkpt>
      <trkpt lat="48.28079" lon="2.09368">
        <ele>102.52</ele>
        <time>2020-09-26T08:25:11Z</time>
      </trkpt>
      <trkpt lat="48.28082" lon="2.09347">
        <ele>103</ele>
        <time>2020-09-26T08:25:23Z</time>
      </trkpt>
      <trkpt lat="48.28083" lon="2.09346">
        <ele>103.96</ele>
        <time>2020-09-26T08:25:24Z</time>
      </trkpt>
      <trkpt lat="48.28084" lon="2.09346">
        <ele>103</ele>
        <time>2020-09-26T08:25:25Z</time>
      </trkpt>
      <trkpt lat="48.28087" lon="2.09344">
        <ele>103</ele>
        <time>2020-09-26T08:25:28Z</time>
      </trkpt>
      <trkpt lat="48.28102" lon="2.09346">
        <ele>102.52</ele>
        <time>2020-09-26T08:25:41Z</time>
      </trkpt>
      <trkpt lat="48.28113" lon="2.09346">
        <ele>103</ele>
        <time>2020-09-26T08:25:55Z</time>
      </trkpt>
      <trkpt lat="48.28115" lon="2.09345">
        <ele>103.96</ele>
        <time>2020-09-26T08:26:11Z</time>
      </trkpt>
      <trkpt lat="48.28118" lon="2.09346">
        <ele>103.48</ele>
        <time>2020-09-26T08:26:19Z</time>
      </trkpt>
      <trkpt lat="48.28128" lon="2.0935">
        <ele>103</ele>
        <time>2020-09-26T08:26:29Z</time>
      </trkpt>
      <trkpt lat="48.28134" lon="2.0935">
        <ele>103.48</ele>
        <time>2020-09-26T08:26:33Z</time>
      </trkpt>
      <trkpt lat="48.28156" lon="2.09354">
        <ele>102.52</ele>
        <time>2020-09-26T08:26:51Z</time>
      </trkpt>
      <trkpt lat="48.28168" lon="2.09353">
        <ele>102.52</ele>
        <time>2020-09-26T08:27:02Z</time>
      </trkpt>
      <trkpt lat="48.28176" lon="2.09353">
        <ele>102.52</ele>
        <time>2020-09-26T08:27:14Z</time>
      </trkpt>
      <trkpt lat="48.28194" lon="2.0935">
        <ele>102.04</ele>
        <time>2020-09-26T08:27:30Z</time>
      </trkpt>
      <trkpt lat="48.2821" lon="2.09345">
        <ele>101.56</ele>
        <time>2020-09-26T08:27:45Z</time>
      </trkpt>
      <trkpt lat="48.28234" lon="2.09335">
        <ele>99.63</ele>
        <time>2020-09-26T08:28:05Z</time>
      </trkpt>
      <trkpt lat="48.28247" lon="2.0933">
        <ele>100.11</ele>
        <time>2020-09-26T08:28:17Z</time>
      </trkpt>
      <trkpt lat="48.28262" lon="2.09326">
        <ele>100.11</ele>
        <time>2020-09-26T08:28:31Z</time>
      </trkpt>
      <trkpt lat="48.28279" lon="2.09323">
        <ele>99.15</ele>
        <time>2020-09-26T08:28:45Z</time>
      </trkpt>
      <trkpt lat="48.28291" lon="2.09319">
        <ele>98.67</ele>
        <time>2020-09-26T08:28:57Z</time>
      </trkpt>
      <trkpt lat="48.28304" lon="2.09311">
        <ele>98.67</ele>
        <time>2020-09-26T08:29:08Z</time>
      </trkpt>
      <trkpt lat="48.28311" lon="2.09305">
        <ele>98.67</ele>
        <time>2020-09-26T08:29:15Z</time>
      </trkpt>
      <trkpt lat="48.28315" lon="2.09303">
        <ele>98.19</ele>
        <time>2020-09-26T08:29:19Z</time>
      </trkpt>
      <trkpt lat="48.28326" lon="2.0929">
        <ele>98.67</ele>
        <time>2020-09-26T08:29:30Z</time>
      </trkpt>
      <trkpt lat="48.28335" lon="2.09278">
        <ele>99.15</ele>
        <time>2020-09-26T08:29:41Z</time>
      </trkpt>
      <trkpt lat="48.28343" lon="2.09266">
        <ele>98.67</ele>
        <time>2020-09-26T08:29:51Z</time>
      </trkpt>
      <trkpt lat="48.28353" lon="2.0925">
        <ele>98.19</ele>
        <time>2020-09-26T08:30:02Z</time>
      </trkpt>
      <trkpt lat="48.28363" lon="2.09236">
        <ele>97.23</ele>
        <time>2020-09-26T08:30:14Z</time>
      </trkpt>
      <trkpt lat="48.28373" lon="2.09223">
        <ele>97.23</ele>
        <time>2020-09-26T08:30:26Z</time>
      </trkpt>
      <trkpt lat="48.28384" lon="2.09208">
        <ele>98.19</ele>
        <time>2020-09-26T08:30:38Z</time>
      </trkpt>
      <trkpt lat="48.28395" lon="2.09191">
        <ele>98.19</ele>
        <time>2020-09-26T08:30:51Z</time>
      </trkpt>
      <trkpt lat="48.28406" lon="2.09176">
        <ele>98.67</ele>
        <time>2020-09-26T08:31:04Z</time>
      </trkpt>
      <trkpt lat="48.28419" lon="2.09161">
        <ele>98.19</ele>
        <time>2020-09-26T08:31:18Z</time>
      </trkpt>
      <trkpt lat="48.28435" lon="2.09148">
        <ele>98.67</ele>
        <time>2020-09-26T08:31:33Z</time>
      </trkpt>
      <trkpt lat="48.28447" lon="2.09141">
        <ele>98.67</ele>
        <time>2020-09-26T08:31:44Z</time>
      </trkpt>
      <trkpt lat="48.28459" lon="2.09137">
        <ele>98.19</ele>
        <time>2020-09-26T08:31:55Z</time>
      </trkpt>
      <trkpt lat="48.28474" lon="2.09136">
        <ele>98.19</ele>
        <time>2020-09-26T08:32:09Z</time>
      </trkpt>
      <trkpt lat="48.28492" lon="2.09137">
        <ele>97.23</ele>
        <time>2020-09-26T08:32:22Z</time>
      </trkpt>
      <trkpt lat="48.2851" lon="2.09139">
        <ele>98.19</ele>
        <time>2020-09-26T08:32:38Z</time>
      </trkpt>
      <trkpt lat="48.2853" lon="2.09147">
        <ele>97.71</ele>
        <time>2020-09-26T08:32:54Z</time>
      </trkpt>
      <trkpt lat="48.28542" lon="2.09147">
        <ele>98.19</ele>
        <time>2020-09-26T08:33:05Z</time>
      </trkpt>
      <trkpt lat="48.28557" lon="2.0914">
        <ele>98.19</ele>
        <time>2020-09-26T08:33:18Z</time>
      </trkpt>
      <trkpt lat="48.28568" lon="2.0914">
        <ele>100.11</ele>
        <time>2020-09-26T08:33:28Z</time>
      </trkpt>
      <trkpt lat="48.28572" lon="2.09142">
        <ele>99.63</ele>
        <time>2020-09-26T08:33:31Z</time>
      </trkpt>
      <trkpt lat="48.28583" lon="2.09148">
        <ele>99.63</ele>
        <time>2020-09-26T08:33:39Z</time>
      </trkpt>
      <trkpt lat="48.28594" lon="2.09154">
        <ele>99.63</ele>
        <time>2020-09-26T08:33:49Z</time>
      </trkpt>
      <trkpt lat="48.28604" lon="2.09166">
        <ele>99.63</ele>
        <time>2020-09-26T08:34:00Z</time>
      </trkpt>
      <trkpt lat="48.28606" lon="2.09167">
        <ele>100.11</ele>
        <time>2020-09-26T08:34:01Z</time>
      </trkpt>
      <trkpt lat="48.28607" lon="2.09168">
        <ele>99.63</ele>
        <time>2020-09-26T08:34:02Z</time>
      </trkpt>
      <trkpt lat="48.28609" lon="2.09169">
        <ele>100.11</ele>
        <time>2020-09-26T08:34:03Z</time>
      </trkpt>
      <trkpt lat="48.2861" lon="2.0917">
        <ele>100.11</ele>
        <time>2020-09-26T08:34:04Z</time>
      </trkpt>
      <trkpt lat="48.28611" lon="2.09171">
        <ele>100.11</ele>
        <time>2020-09-26T08:34:05Z</time>
      </trkpt>
      <trkpt lat="48.28612" lon="2.09172">
        <ele>99.63</ele>
        <time>2020-09-26T08:34:06Z</time>
      </trkpt>
      <trkpt lat="48.28628" lon="2.09188">
        <ele>99.63</ele>
        <time>2020-09-26T08:34:22Z</time>
      </trkpt>
      <trkpt lat="48.28643" lon="2.09203">
        <ele>99.63</ele>
        <time>2020-09-26T08:34:37Z</time>
      </trkpt>
      <trkpt lat="48.28655" lon="2.0922">
        <ele>99.63</ele>
        <time>2020-09-26T08:34:50Z</time>
      </trkpt>
      <trkpt lat="48.28667" lon="2.09241">
        <ele>100.11</ele>
        <time>2020-09-26T08:35:04Z</time>
      </trkpt>
      <trkpt lat="48.28678" lon="2.09262">
        <ele>99.63</ele>
        <time>2020-09-26T08:35:18Z</time>
      </trkpt>
      <trkpt lat="48.28681" lon="2.09267">
        <ele>99.63</ele>
        <time>2020-09-26T08:35:21Z</time>
      </trkpt>
      <trkpt lat="48.28681" lon="2.09269">
        <ele>99.63</ele>
        <time>2020-09-26T08:35:22Z</time>
      </trkpt>
      <trkpt lat="48.28682" lon="2.0927">
        <ele>99.63</ele>
        <time>2020-09-26T08:35:23Z</time>
      </trkpt>
      <trkpt lat="48.28682" lon="2.09271">
        <ele>99.63</ele>
        <time>2020-09-26T08:35:24Z</time>
      </trkpt>
      <trkpt lat="48.28683" lon="2.09273">
        <ele>99.63</ele>
        <time>2020-09-26T08:35:25Z</time>
      </trkpt>
      <trkpt lat="48.28693" lon="2.09293">
        <ele>99.63</ele>
        <time>2020-09-26T08:35:39Z</time>
      </trkpt>
      <trkpt lat="48.28699" lon="2.09314">
        <ele>99.63</ele>
        <time>2020-09-26T08:35:52Z</time>
      </trkpt>
      <trkpt lat="48.28703" lon="2.09335">
        <ele>100.11</ele>
        <time>2020-09-26T08:36:06Z</time>
      </trkpt>
      <trkpt lat="48.28704" lon="2.09334">
        <ele>100.6</ele>
        <time>2020-09-26T08:36:21Z</time>
      </trkpt>
      <trkpt lat="48.28706" lon="2.09329">
        <ele>100.11</ele>
        <time>2020-09-26T08:36:34Z</time>
      </trkpt>
      <trkpt lat="48.28706" lon="2.09327">
        <ele>100.11</ele>
        <time>2020-09-26T08:37:03Z</time>
      </trkpt>
      <trkpt lat="48.28706" lon="2.09326">
        <ele>100.6</ele>
        <time>2020-09-26T08:37:39Z</time>
      </trkpt>
      <trkpt lat="48.28705" lon="2.09328">
        <ele>99.15</ele>
        <time>2020-09-26T08:38:13Z</time>
      </trkpt>
      <trkpt lat="48.28708" lon="2.0933">
        <ele>99.15</ele>
        <time>2020-09-26T08:38:26Z</time>
      </trkpt>
      <trkpt lat="48.28707" lon="2.09335">
        <ele>100.6</ele>
        <time>2020-09-26T08:38:36Z</time>
      </trkpt>
      <trkpt lat="48.28709" lon="2.09341">
        <ele>100.6</ele>
        <time>2020-09-26T08:38:39Z</time>
      </trkpt>
      <trkpt lat="48.28714" lon="2.09362">
        <ele>104</ele>
      </trkpt>
      <trkpt lat="48.28714" lon="2.09369">
        <ele>104</ele>
      </trkpt>
      <trkpt lat="48.28717" lon="2.09379">
        <ele>104</ele>
      </trkpt>
      <trkpt lat="48.28721" lon="2.09389">
        <ele>100.11</ele>
        <time>2020-09-26T08:39:08Z</time>
      </trkpt>
      <trkpt lat="48.28726" lon="2.09412">
        <ele>100.6</ele>
        <time>2020-09-26T08:39:21Z</time>
      </trkpt>
      <trkpt lat="48.28729" lon="2.09437">
        <ele>101.08</ele>
        <time>2020-09-26T08:39:35Z</time>
      </trkpt>
      <trkpt lat="48.28731" lon="2.09445">
        <ele>100.6</ele>
        <time>2020-09-26T08:39:41Z</time>
      </trkpt>
      <trkpt lat="48.28731" lon="2.09447">
        <ele>100.6</ele>
        <time>2020-09-26T08:39:42Z</time>
      </trkpt>
      <trkpt lat="48.28732" lon="2.09455">
        <ele>100.6</ele>
        <time>2020-09-26T08:39:50Z</time>
      </trkpt>
      <trkpt lat="48.28732" lon="2.09457">
        <ele>100.6</ele>
        <time>2020-09-26T08:39:51Z</time>
      </trkpt>
      <trkpt lat="48.28732" lon="2.09461">
        <ele>101.56</ele>
        <time>2020-09-26T08:39:54Z</time>
      </trkpt>
      <trkpt lat="48.28733" lon="2.09463">
        <ele>100.6</ele>
        <time>2020-09-26T08:39:55Z</time>
      </trkpt>
      <trkpt lat="48.28735" lon="2.09485">
        <ele>100.6</ele>
        <time>2020-09-26T08:40:08Z</time>
      </trkpt>
      <trkpt lat="48.28735" lon="2.09487">
        <ele>100.6</ele>
        <time>2020-09-26T08:40:09Z</time>
      </trkpt>
      <trkpt lat="48.28735" lon="2.0949">
        <ele>99.63</ele>
        <time>2020-09-26T08:40:10Z</time>
      </trkpt>
      <trkpt lat="48.28735" lon="2.09492">
        <ele>100.11</ele>
        <time>2020-09-26T08:40:11Z</time>
      </trkpt>
      <trkpt lat="48.28736" lon="2.09495">
        <ele>100.11</ele>
        <time>2020-09-26T08:40:12Z</time>
      </trkpt>
      <trkpt lat="48.28736" lon="2.09497">
        <ele>100.11</ele>
        <time>2020-09-26T08:40:13Z</time>
      </trkpt>
      <trkpt lat="48.28736" lon="2.09499">
        <ele>100.11</ele>
        <time>2020-09-26T08:40:14Z</time>
      </trkpt>
      <trkpt lat="48.28737" lon="2.095">
        <ele>100.11</ele>
        <time>2020-09-26T08:40:15Z</time>
      </trkpt>
      <trkpt lat="48.28741" lon="2.09523">
        <ele>100.11</ele>
        <time>2020-09-26T08:40:27Z</time>
      </trkpt>
      <trkpt lat="48.28748" lon="2.0954">
        <ele>100.6</ele>
        <time>2020-09-26T08:40:39Z</time>
      </trkpt>
      <trkpt lat="48.28752" lon="2.09559">
        <ele>100.6</ele>
        <time>2020-09-26T08:42:32Z</time>
      </trkpt>
      <trkpt lat="48.28765" lon="2.09576">
        <ele>101.56</ele>
        <time>2020-09-26T08:42:47Z</time>
      </trkpt>
      <trkpt lat="48.2878" lon="2.0958">
        <ele>103.48</ele>
        <time>2020-09-26T08:43:01Z</time>
      </trkpt>
      <trkpt lat="48.28781" lon="2.0958">
        <ele>103.48</ele>
        <time>2020-09-26T08:43:02Z</time>
      </trkpt>
      <trkpt lat="48.28782" lon="2.09581">
        <ele>103.48</ele>
        <time>2020-09-26T08:43:03Z</time>
      </trkpt>
      <trkpt lat="48.28796" lon="2.09582">
        <ele>104.44</ele>
        <time>2020-09-26T08:43:17Z</time>
      </trkpt>
      <trkpt lat="48.28798" lon="2.09583">
        <ele>104.92</ele>
        <time>2020-09-26T08:43:28Z</time>
      </trkpt>
      <trkpt lat="48.288" lon="2.09594">
        <ele>104.44</ele>
        <time>2020-09-26T08:43:41Z</time>
      </trkpt>
      <trkpt lat="48.28801" lon="2.09598">
        <ele>104.44</ele>
        <time>2020-09-26T08:43:51Z</time>
      </trkpt>
      <trkpt lat="48.288" lon="2.09589">
        <ele>104.44</ele>
        <time>2020-09-26T08:44:01Z</time>
      </trkpt>
      <trkpt lat="48.288" lon="2.09583">
        <ele>104.44</ele>
        <time>2020-09-26T08:44:08Z</time>
      </trkpt>
      <trkpt lat="48.28801" lon="2.09582">
        <ele>103.96</ele>
        <time>2020-09-26T08:44:09Z</time>
      </trkpt>
      <trkpt lat="48.28801" lon="2.09579">
        <ele>104.44</ele>
        <time>2020-09-26T08:44:10Z</time>
      </trkpt>
      <trkpt lat="48.28801" lon="2.09574">
        <ele>103.96</ele>
        <time>2020-09-26T08:44:14Z</time>
      </trkpt>
      <trkpt lat="48.28806" lon="2.09569">
        <ele>104.44</ele>
        <time>2020-09-26T08:44:19Z</time>
      </trkpt>
      <trkpt lat="48.28807" lon="2.09569">
        <ele>104.44</ele>
        <time>2020-09-26T08:44:20Z</time>
      </trkpt>
      <trkpt lat="48.28812" lon="2.09565">
        <ele>106.7</ele>
      </trkpt>
      <trkpt lat="48.28819" lon="2.09559">
        <ele>106.8</ele>
      </trkpt>
      <trkpt lat="48.28823" lon="2.09555">
        <ele>106.9</ele>
      </trkpt>
      <trkpt lat="48.28827" lon="2.0955">
        <ele>107</ele>
      </trkpt>
      <trkpt lat="48.28834" lon="2.09547">
        <ele>108.5</ele>
      </trkpt>
      <trkpt lat="48.28838" lon="2.09543">
        <ele>108.6</ele>
      </trkpt>
      <trkpt lat="48.28842" lon="2.0954">
        <ele>108.7</ele>
      </trkpt>
      <trkpt lat="48.28845" lon="2.09537">
        <ele>108.8</ele>
      </trkpt>
      <trkpt lat="48.28848" lon="2.09534">
        <ele>108.8</ele>
      </trkpt>
      <trkpt lat="48.28852" lon="2.09532">
        <ele>108.8</ele>
      </trkpt>
      <trkpt lat="48.28857" lon="2.0953">
        <ele>108.9</ele>
      </trkpt>
      <trkpt lat="48.28861" lon="2.09526">
        <ele>108.9</ele>
      </trkpt>
      <trkpt lat="48.28868" lon="2.09522">
        <ele>108.9</ele>
      </trkpt>
      <trkpt lat="48.28877" lon="2.09514">
        <ele>108.8</ele>
      </trkpt>
      <trkpt lat="48.28883" lon="2.09511">
        <ele>108.7</ele>
      </trkpt>
      <trkpt lat="48.2889" lon="2.09511">
        <ele>108.7</ele>
      </trkpt>
      <trkpt lat="48.28899" lon="2.09511">
        <ele>108.5</ele>
      </trkpt>
      <trkpt lat="48.28907" lon="2.09514">
        <ele>108.5</ele>
      </trkpt>
      <trkpt lat="48.28918" lon="2.0952">
        <ele>108.3</ele>
      </trkpt>
      <trkpt lat="48.28931" lon="2.09525">
        <ele>108.4</ele>
      </trkpt>
      <trkpt lat="48.28942" lon="2.0953">
        <ele>108.4</ele>
      </trkpt>
      <trkpt lat="48.28953" lon="2.09533">
        <ele>108.4</ele>
      </trkpt>
      <trkpt lat="48.28965" lon="2.09532">
        <ele>108.3</ele>
      </trkpt>
      <trkpt lat="48.28976" lon="2.09527">
        <ele>103.48</ele>
        <time>2020-09-26T08:58:07Z</time>
      </trkpt>
      <trkpt lat="48.28985" lon="2.09512">
        <ele>107</ele>
      </trkpt>
      <trkpt lat="48.28995" lon="2.09497">
        <ele>106</ele>
      </trkpt>
      <trkpt lat="48.29008" lon="2.0947">
        <ele>106</ele>
      </trkpt>
      <trkpt lat="48.29018" lon="2.0947">
        <ele>106.5</ele>
      </trkpt>
      <trkpt lat="48.29025" lon="2.09477">
        <ele>106.6</ele>
      </trkpt>
      <trkpt lat="48.2903" lon="2.09496">
        <ele>106.7</ele>
      </trkpt>
      <trkpt lat="48.29035" lon="2.09501">
        <ele>107.5</ele>
      </trkpt>
      <trkpt lat="48.29041" lon="2.09511">
        <ele>101.56</ele>
        <time>2020-09-26T08:59:17Z</time>
      </trkpt>
      <trkpt lat="48.29042" lon="2.09512">
        <ele>101.08</ele>
        <time>2020-09-26T08:59:18Z</time>
      </trkpt>
      <trkpt lat="48.29044" lon="2.09514">
        <ele>101.56</ele>
        <time>2020-09-26T08:59:19Z</time>
      </trkpt>
      <trkpt lat="48.29045" lon="2.09515">
        <ele>101.08</ele>
        <time>2020-09-26T08:59:20Z</time>
      </trkpt>
      <trkpt lat="48.29048" lon="2.09528">
        <ele>107.9</ele>
      </trkpt>
      <trkpt lat="48.29055" lon="2.09543">
        <ele>108</ele>
      </trkpt>
      <trkpt lat="48.29059" lon="2.09562">
        <ele>108.1</ele>
      </trkpt>
      <trkpt lat="48.29066" lon="2.09578">
        <ele>108.1</ele>
      </trkpt>
      <trkpt lat="48.29073" lon="2.09588">
        <ele>109</ele>
      </trkpt>
      <trkpt lat="48.29083" lon="2.09595">
        <ele>108.6</ele>
      </trkpt>
      <trkpt lat="48.29093" lon="2.09602">
        <ele>107.5</ele>
      </trkpt>
      <trkpt lat="48.29102" lon="2.0961">
        <ele>107.4</ele>
      </trkpt>
      <trkpt lat="48.29111" lon="2.09614">
        <ele>107.2</ele>
      </trkpt>
      <trkpt lat="48.29121" lon="2.09618">
        <ele>107.1</ele>
      </trkpt>
      <trkpt lat="48.29131" lon="2.09624">
        <ele>106.9</ele>
      </trkpt>
      <trkpt lat="48.29146" lon="2.09626">
        <ele>106.6</ele>
      </trkpt>
      <trkpt lat="48.29155" lon="2.09628">
        <ele>106.5</ele>
      </trkpt>
      <trkpt lat="48.29164" lon="2.09631">
        <ele>106.4</ele>
      </trkpt>
      <trkpt lat="48.29171" lon="2.09636">
        <ele>105</ele>
      </trkpt>
      <trkpt lat="48.29179" lon="2.09641">
        <ele>105</ele>
      </trkpt>
      <trkpt lat="48.29183" lon="2.09645">
        <ele>104.9</ele>
      </trkpt>
      <trkpt lat="48.29191" lon="2.0965">
        <ele>104.8</ele>
      </trkpt>
      <trkpt lat="48.29194" lon="2.09649">
        <ele>104.7</ele>
      </trkpt>
      <trkpt lat="48.29197" lon="2.09649">
        <ele>104.7</ele>
      </trkpt>
      <trkpt lat="48.292" lon="2.09646">
        <ele>104.7</ele>
      </trkpt>
      <trkpt lat="48.29203" lon="2.09644">
        <ele>101.08</ele>
        <time>2020-09-26T09:03:07Z</time>
      </trkpt>
      <trkpt lat="48.29206" lon="2.09675">
        <ele>98.19</ele>
        <time>2020-09-26T09:03:23Z</time>
      </trkpt>
      <trkpt lat="48.29208" lon="2.09677">
        <ele>97.71</ele>
        <time>2020-09-26T09:03:34Z</time>
      </trkpt>
      <trkpt lat="48.29209" lon="2.09676">
        <ele>98.67</ele>
        <time>2020-09-26T09:03:49Z</time>
      </trkpt>
      <trkpt lat="48.29211" lon="2.09705">
        <ele>96.75</ele>
        <time>2020-09-26T09:04:05Z</time>
      </trkpt>
      <trkpt lat="48.29212" lon="2.09713">
        <ele>97.23</ele>
        <time>2020-09-26T09:04:09Z</time>
      </trkpt>
      <trkpt lat="48.29213" lon="2.09716">
        <ele>96.75</ele>
        <time>2020-09-26T09:04:10Z</time>
      </trkpt>
      <trkpt lat="48.29214" lon="2.09717">
        <ele>96.75</ele>
        <time>2020-09-26T09:04:11Z</time>
      </trkpt>
      <trkpt lat="48.29227" lon="2.09724">
        <ele>96.75</ele>
        <time>2020-09-26T09:04:22Z</time>
      </trkpt>
      <trkpt lat="48.29245" lon="2.09717">
        <ele>97.71</ele>
        <time>2020-09-26T09:04:39Z</time>
      </trkpt>
      <trkpt lat="48.29258" lon="2.09713">
        <ele>98.67</ele>
        <time>2020-09-26T09:04:53Z</time>
      </trkpt>
      <trkpt lat="48.29276" lon="2.09706">
        <ele>97.71</ele>
        <time>2020-09-26T09:05:09Z</time>
      </trkpt>
      <trkpt lat="48.29298" lon="2.09702">
        <ele>99.63</ele>
        <time>2020-09-26T09:05:25Z</time>
      </trkpt>
      <trkpt lat="48.293" lon="2.09701">
        <ele>100.6</ele>
        <time>2020-09-26T09:05:28Z</time>
      </trkpt>
      <trkpt lat="48.29318" lon="2.09697">
        <ele>101.08</ele>
        <time>2020-09-26T09:05:41Z</time>
      </trkpt>
      <trkpt lat="48.29324" lon="2.09694">
        <ele>98.67</ele>
        <time>2020-09-26T09:05:45Z</time>
      </trkpt>
      <trkpt lat="48.29336" lon="2.09691">
        <ele>101.08</ele>
        <time>2020-09-26T09:05:54Z</time>
      </trkpt>
      <trkpt lat="48.29351" lon="2.09686">
        <ele>100.6</ele>
        <time>2020-09-26T09:06:06Z</time>
      </trkpt>
      <trkpt lat="48.29355" lon="2.09683">
        <ele>100.6</ele>
        <time>2020-09-26T09:06:10Z</time>
      </trkpt>
      <trkpt lat="48.2936" lon="2.0968">
        <ele>99.15</ele>
        <time>2020-09-26T09:06:14Z</time>
      </trkpt>
      <trkpt lat="48.29376" lon="2.09672">
        <ele>102.04</ele>
        <time>2020-09-26T09:06:26Z</time>
      </trkpt>
      <trkpt lat="48.29377" lon="2.09669">
        <ele>98.67</ele>
        <time>2020-09-26T09:06:28Z</time>
      </trkpt>
      <trkpt lat="48.29378" lon="2.09668">
        <ele>100.11</ele>
        <time>2020-09-26T09:06:29Z</time>
      </trkpt>
      <trkpt lat="48.29396" lon="2.09662">
        <ele>100.6</ele>
        <time>2020-09-26T09:06:43Z</time>
      </trkpt>
      <trkpt lat="48.29412" lon="2.09651">
        <ele>99.63</ele>
        <time>2020-09-26T09:06:56Z</time>
      </trkpt>
      <trkpt lat="48.29429" lon="2.09636">
        <ele>100.6</ele>
        <time>2020-09-26T09:07:12Z</time>
      </trkpt>
      <trkpt lat="48.2943" lon="2.09635">
        <ele>101.08</ele>
        <time>2020-09-26T09:07:13Z</time>
      </trkpt>
      <trkpt lat="48.29446" lon="2.09622">
        <ele>97.71</ele>
        <time>2020-09-26T09:07:27Z</time>
      </trkpt>
      <trkpt lat="48.29447" lon="2.09621">
        <ele>101.56</ele>
        <time>2020-09-26T09:07:28Z</time>
      </trkpt>
      <trkpt lat="48.29448" lon="2.0962">
        <ele>101.08</ele>
        <time>2020-09-26T09:07:29Z</time>
      </trkpt>
      <trkpt lat="48.29462" lon="2.09609">
        <ele>102.52</ele>
        <time>2020-09-26T09:07:42Z</time>
      </trkpt>
      <trkpt lat="48.29474" lon="2.09603">
        <ele>102.52</ele>
        <time>2020-09-26T09:07:51Z</time>
      </trkpt>
      <trkpt lat="48.29475" lon="2.09602">
        <ele>99.63</ele>
        <time>2020-09-26T09:07:53Z</time>
      </trkpt>
      <trkpt lat="48.29477" lon="2.09601">
        <ele>101.56</ele>
        <time>2020-09-26T09:07:55Z</time>
      </trkpt>
      <trkpt lat="48.29484" lon="2.09597">
        <ele>103.48</ele>
        <time>2020-09-26T09:08:00Z</time>
      </trkpt>
      <trkpt lat="48.29503" lon="2.09586">
        <ele>101.08</ele>
        <time>2020-09-26T09:08:16Z</time>
      </trkpt>
      <trkpt lat="48.2951" lon="2.09581">
        <ele>100.6</ele>
        <time>2020-09-26T09:08:21Z</time>
      </trkpt>
      <trkpt lat="48.29513" lon="2.09578">
        <ele>100.11</ele>
        <time>2020-09-26T09:08:23Z</time>
      </trkpt>
      <trkpt lat="48.29532" lon="2.09568">
        <ele>102.04</ele>
        <time>2020-09-26T09:08:40Z</time>
      </trkpt>
      <trkpt lat="48.2955" lon="2.09559">
        <ele>99.15</ele>
        <time>2020-09-26T09:08:54Z</time>
      </trkpt>
      <trkpt lat="48.29568" lon="2.09553">
        <ele>99.63</ele>
        <time>2020-09-26T09:09:09Z</time>
      </trkpt>
      <trkpt lat="48.29581" lon="2.09548">
        <ele>99.15</ele>
        <time>2020-09-26T09:09:19Z</time>
      </trkpt>
      <trkpt lat="48.29589" lon="2.09543">
        <ele>99.63</ele>
        <time>2020-09-26T09:09:25Z</time>
      </trkpt>
      <trkpt lat="48.29592" lon="2.09535">
        <ele>99.15</ele>
        <time>2020-09-26T09:09:30Z</time>
      </trkpt>
      <trkpt lat="48.29589" lon="2.0952">
        <ele>99.15</ele>
        <time>2020-09-26T09:09:38Z</time>
      </trkpt>
      <trkpt lat="48.29581" lon="2.09495">
        <ele>99.63</ele>
        <time>2020-09-26T09:09:52Z</time>
      </trkpt>
      <trkpt lat="48.29579" lon="2.09488">
        <ele>99.15</ele>
        <time>2020-09-26T09:09:57Z</time>
      </trkpt>
      <trkpt lat="48.29574" lon="2.09468">
        <ele>100.11</ele>
        <time>2020-09-26T09:10:09Z</time>
      </trkpt>
      <trkpt lat="48.29565" lon="2.0944">
        <ele>98.67</ele>
        <time>2020-09-26T09:10:26Z</time>
      </trkpt>
      <trkpt lat="48.29557" lon="2.09412">
        <ele>99.15</ele>
        <time>2020-09-26T09:10:42Z</time>
      </trkpt>
      <trkpt lat="48.2955" lon="2.09382">
        <ele>100.11</ele>
        <time>2020-09-26T09:10:59Z</time>
      </trkpt>
      <trkpt lat="48.29551" lon="2.09375">
        <ele>100.11</ele>
        <time>2020-09-26T09:11:03Z</time>
      </trkpt>
      <trkpt lat="48.29569" lon="2.09356">
        <ele>97.71</ele>
        <time>2020-09-26T09:11:20Z</time>
      </trkpt>
      <trkpt lat="48.29581" lon="2.09345">
        <ele>97.23</ele>
        <time>2020-09-26T09:11:32Z</time>
      </trkpt>
      <trkpt lat="48.29594" lon="2.09331">
        <ele>97.23</ele>
        <time>2020-09-26T09:11:45Z</time>
      </trkpt>
      <trkpt lat="48.29613" lon="2.09316">
        <ele>96.27</ele>
        <time>2020-09-26T09:12:01Z</time>
      </trkpt>
      <trkpt lat="48.29628" lon="2.09303">
        <ele>97.71</ele>
        <time>2020-09-26T09:12:14Z</time>
      </trkpt>
      <trkpt lat="48.29649" lon="2.09288">
        <ele>96.27</ele>
        <time>2020-09-26T09:12:32Z</time>
      </trkpt>
      <trkpt lat="48.29664" lon="2.09277">
        <ele>96.27</ele>
        <time>2020-09-26T09:12:46Z</time>
      </trkpt>
      <trkpt lat="48.29665" lon="2.09277">
        <ele>96.27</ele>
        <time>2020-09-26T09:12:47Z</time>
      </trkpt>
      <trkpt lat="48.29679" lon="2.09273">
        <ele>96.27</ele>
        <time>2020-09-26T09:13:01Z</time>
      </trkpt>
      <trkpt lat="48.29687" lon="2.09268">
        <ele>96.27</ele>
        <time>2020-09-26T09:13:10Z</time>
      </trkpt>
      <trkpt lat="48.29691" lon="2.09268">
        <ele>97.23</ele>
        <time>2020-09-26T09:13:26Z</time>
      </trkpt>
      <trkpt lat="48.29693" lon="2.09265">
        <ele>96.75</ele>
        <time>2020-09-26T09:13:28Z</time>
      </trkpt>
      <trkpt lat="48.29696" lon="2.09255">
        <ele>97.23</ele>
        <time>2020-09-26T09:13:33Z</time>
      </trkpt>
      <trkpt lat="48.29687" lon="2.09228">
        <ele>97.23</ele>
        <time>2020-09-26T09:13:48Z</time>
      </trkpt>
      <trkpt lat="48.29685" lon="2.09221">
        <ele>97.71</ele>
        <time>2020-09-26T09:13:52Z</time>
      </trkpt>
      <trkpt lat="48.29687" lon="2.09213">
        <ele>98.19</ele>
        <time>2020-09-26T09:13:56Z</time>
      </trkpt>
      <trkpt lat="48.29697" lon="2.09185">
        <ele>98.67</ele>
        <time>2020-09-26T09:14:13Z</time>
      </trkpt>
      <trkpt lat="48.29701" lon="2.0918">
        <ele>98.19</ele>
        <time>2020-09-26T09:14:16Z</time>
      </trkpt>
      <trkpt lat="48.29706" lon="2.09176">
        <ele>98.19</ele>
        <time>2020-09-26T09:14:21Z</time>
      </trkpt>
      <trkpt lat="48.29721" lon="2.09176">
        <ele>99.63</ele>
        <time>2020-09-26T09:14:36Z</time>
      </trkpt>
      <trkpt lat="48.29739" lon="2.0918">
        <ele>100.11</ele>
        <time>2020-09-26T09:14:52Z</time>
      </trkpt>
      <trkpt lat="48.29753" lon="2.09185">
        <ele>102.04</ele>
        <time>2020-09-26T09:15:04Z</time>
      </trkpt>
      <trkpt lat="48.29766" lon="2.09189">
        <ele>101.56</ele>
        <time>2020-09-26T09:15:13Z</time>
      </trkpt>
      <trkpt lat="48.29773" lon="2.09189">
        <ele>101.56</ele>
        <time>2020-09-26T09:15:18Z</time>
      </trkpt>
      <trkpt lat="48.29791" lon="2.0919">
        <ele>101.08</ele>
        <time>2020-09-26T09:15:33Z</time>
      </trkpt>
      <trkpt lat="48.29812" lon="2.09193">
        <ele>100.11</ele>
        <time>2020-09-26T09:15:49Z</time>
      </trkpt>
      <trkpt lat="48.29816" lon="2.09194">
        <ele>100.6</ele>
        <time>2020-09-26T09:15:54Z</time>
      </trkpt>
      <trkpt lat="48.29835" lon="2.09199">
        <ele>100.11</ele>
        <time>2020-09-26T09:16:09Z</time>
      </trkpt>
      <trkpt lat="48.29856" lon="2.09212">
        <ele>100.6</ele>
        <time>2020-09-26T09:16:26Z</time>
      </trkpt>
      <trkpt lat="48.29876" lon="2.09226">
        <ele>100.6</ele>
        <time>2020-09-26T09:16:42Z</time>
      </trkpt>
      <trkpt lat="48.29895" lon="2.09242">
        <ele>99.63</ele>
        <time>2020-09-26T09:16:58Z</time>
      </trkpt>
      <trkpt lat="48.29906" lon="2.09248">
        <ele>97.71</ele>
        <time>2020-09-26T09:17:09Z</time>
      </trkpt>
      <trkpt lat="48.29915" lon="2.09254">
        <ele>97.23</ele>
        <time>2020-09-26T09:17:15Z</time>
      </trkpt>
      <trkpt lat="48.29931" lon="2.09263">
        <ele>95.31</ele>
        <time>2020-09-26T09:17:31Z</time>
      </trkpt>
      <trkpt lat="48.29947" lon="2.09281">
        <ele>94.35</ele>
        <time>2020-09-26T09:17:43Z</time>
      </trkpt>
      <trkpt lat="48.29948" lon="2.09303">
        <ele>93.87</ele>
        <time>2020-09-26T09:17:55Z</time>
      </trkpt>
      <trkpt lat="48.29949" lon="2.09307">
        <ele>93.87</ele>
        <time>2020-09-26T09:17:57Z</time>
      </trkpt>
      <trkpt lat="48.29954" lon="2.09317">
        <ele>93.39</ele>
        <time>2020-09-26T09:18:05Z</time>
      </trkpt>
      <trkpt lat="48.29971" lon="2.09339">
        <ele>93.39</ele>
        <time>2020-09-26T09:18:22Z</time>
      </trkpt>
      <trkpt lat="48.29985" lon="2.09368">
        <ele>93.87</ele>
        <time>2020-09-26T09:18:39Z</time>
      </trkpt>
      <trkpt lat="48.29991" lon="2.09395">
        <ele>93.87</ele>
        <time>2020-09-26T09:18:53Z</time>
      </trkpt>
      <trkpt lat="48.29997" lon="2.09411">
        <ele>93.39</ele>
        <time>2020-09-26T09:19:04Z</time>
      </trkpt>
      <trkpt lat="48.30004" lon="2.09447">
        <ele>92.9</ele>
        <time>2020-09-26T09:19:20Z</time>
      </trkpt>
      <trkpt lat="48.30012" lon="2.0947">
        <ele>92.9</ele>
        <time>2020-09-26T09:19:35Z</time>
      </trkpt>
      <trkpt lat="48.3002" lon="2.09488">
        <ele>93.39</ele>
        <time>2020-09-26T09:19:51Z</time>
      </trkpt>
      <trkpt lat="48.30022" lon="2.09485">
        <ele>93.39</ele>
        <time>2020-09-26T09:20:07Z</time>
      </trkpt>
      <trkpt lat="48.3002" lon="2.09484">
        <ele>92.42</ele>
        <time>2020-09-26T09:20:13Z</time>
      </trkpt>
      <trkpt lat="48.30021" lon="2.09489">
        <ele>92.9</ele>
        <time>2020-09-26T09:20:29Z</time>
      </trkpt>
      <trkpt lat="48.30024" lon="2.09507">
        <ele>93.39</ele>
        <time>2020-09-26T09:20:39Z</time>
      </trkpt>
      <trkpt lat="48.30032" lon="2.09534">
        <ele>92.42</ele>
        <time>2020-09-26T09:20:57Z</time>
      </trkpt>
      <trkpt lat="48.30033" lon="2.09537">
        <ele>92.9</ele>
        <time>2020-09-26T09:20:59Z</time>
      </trkpt>
      <trkpt lat="48.30041" lon="2.0956">
        <ele>93.87</ele>
        <time>2020-09-26T09:21:16Z</time>
      </trkpt>
      <trkpt lat="48.30045" lon="2.09579">
        <ele>92.9</ele>
        <time>2020-09-26T09:21:27Z</time>
      </trkpt>
      <trkpt lat="48.30056" lon="2.09604">
        <ele>92.9</ele>
        <time>2020-09-26T09:21:45Z</time>
      </trkpt>
      <trkpt lat="48.30066" lon="2.09627">
        <ele>93.39</ele>
        <time>2020-09-26T09:22:01Z</time>
      </trkpt>
      <trkpt lat="48.30076" lon="2.09643">
        <ele>92.9</ele>
        <time>2020-09-26T09:22:18Z</time>
      </trkpt>
      <trkpt lat="48.30087" lon="2.09672">
        <ele>92.42</ele>
        <time>2020-09-26T09:22:33Z</time>
      </trkpt>
      <trkpt lat="48.301" lon="2.09693">
        <ele>93.87</ele>
        <time>2020-09-26T09:22:47Z</time>
      </trkpt>
      <trkpt lat="48.30109" lon="2.09715">
        <ele>92.9</ele>
        <time>2020-09-26T09:23:01Z</time>
      </trkpt>
      <trkpt lat="48.30116" lon="2.09725">
        <ele>93.39</ele>
        <time>2020-09-26T09:23:16Z</time>
      </trkpt>
      <trkpt lat="48.30118" lon="2.09727">
        <ele>92.9</ele>
        <time>2020-09-26T09:23:21Z</time>
      </trkpt>
      <trkpt lat="48.30124" lon="2.09735">
        <ele>92.9</ele>
        <time>2020-09-26T09:23:33Z</time>
      </trkpt>
      <trkpt lat="48.30135" lon="2.0976">
        <ele>92.9</ele>
        <time>2020-09-26T09:23:50Z</time>
      </trkpt>
      <trkpt lat="48.30143" lon="2.09778">
        <ele>92.42</ele>
        <time>2020-09-26T09:24:03Z</time>
      </trkpt>
      <trkpt lat="48.30154" lon="2.098">
        <ele>93.39</ele>
        <time>2020-09-26T09:24:18Z</time>
      </trkpt>
      <trkpt lat="48.30165" lon="2.09811">
        <ele>93.39</ele>
        <time>2020-09-26T09:24:29Z</time>
      </trkpt>
      <trkpt lat="48.3018" lon="2.09833">
        <ele>94.35</ele>
        <time>2020-09-26T09:24:45Z</time>
      </trkpt>
      <trkpt lat="48.3019" lon="2.09847">
        <ele>93.39</ele>
        <time>2020-09-26T09:24:59Z</time>
      </trkpt>
      <trkpt lat="48.30204" lon="2.09863">
        <ele>93.87</ele>
        <time>2020-09-26T09:25:13Z</time>
      </trkpt>
      <trkpt lat="48.3021" lon="2.09863">
        <ele>93.39</ele>
        <time>2020-09-26T09:25:30Z</time>
      </trkpt>
      <trkpt lat="48.30221" lon="2.09869">
        <ele>94.35</ele>
        <time>2020-09-26T09:25:43Z</time>
      </trkpt>
      <trkpt lat="48.30224" lon="2.09874">
        <ele>92.9</ele>
        <time>2020-09-26T09:25:53Z</time>
      </trkpt>
      <trkpt lat="48.30236" lon="2.09886">
        <ele>92.9</ele>
        <time>2020-09-26T09:26:07Z</time>
      </trkpt>
      <trkpt lat="48.30246" lon="2.09894">
        <ele>93.87</ele>
        <time>2020-09-26T09:26:18Z</time>
      </trkpt>
      <trkpt lat="48.30252" lon="2.09898">
        <ele>92.9</ele>
        <time>2020-09-26T09:26:23Z</time>
      </trkpt>
      <trkpt lat="48.30272" lon="2.09914">
        <ele>92.42</ele>
        <time>2020-09-26T09:26:38Z</time>
      </trkpt>
      <trkpt lat="48.30286" lon="2.09929">
        <ele>92.9</ele>
        <time>2020-09-26T09:26:53Z</time>
      </trkpt>
      <trkpt lat="48.30301" lon="2.09945">
        <ele>92.9</ele>
        <time>2020-09-26T09:27:08Z</time>
      </trkpt>
      <trkpt lat="48.30317" lon="2.0996">
        <ele>92.9</ele>
        <time>2020-09-26T09:27:23Z</time>
      </trkpt>
      <trkpt lat="48.30329" lon="2.09969">
        <ele>93.39</ele>
        <time>2020-09-26T09:27:36Z</time>
      </trkpt>
      <trkpt lat="48.30348" lon="2.09978">
        <ele>94.35</ele>
        <time>2020-09-26T09:27:52Z</time>
      </trkpt>
      <trkpt lat="48.30362" lon="2.09981">
        <ele>94.35</ele>
        <time>2020-09-26T09:28:03Z</time>
      </trkpt>
      <trkpt lat="48.3038" lon="2.09977">
        <ele>94.35</ele>
        <time>2020-09-26T09:28:18Z</time>
      </trkpt>
      <trkpt lat="48.30399" lon="2.0997">
        <ele>94.35</ele>
        <time>2020-09-26T09:28:33Z</time>
      </trkpt>
      <trkpt lat="48.30412" lon="2.09964">
        <ele>94.83</ele>
        <time>2020-09-26T09:28:42Z</time>
      </trkpt>
      <trkpt lat="48.30421" lon="2.09954">
        <ele>93.87</ele>
        <time>2020-09-26T09:28:51Z</time>
      </trkpt>
      <trkpt lat="48.30425" lon="2.0995">
        <ele>93.39</ele>
        <time>2020-09-26T09:28:56Z</time>
      </trkpt>
      <trkpt lat="48.30426" lon="2.09949">
        <ele>93.39</ele>
        <time>2020-09-26T09:28:57Z</time>
      </trkpt>
      <trkpt lat="48.30427" lon="2.09947">
        <ele>93.39</ele>
        <time>2020-09-26T09:28:58Z</time>
      </trkpt>
      <trkpt lat="48.30429" lon="2.09937">
        <ele>93.87</ele>
        <time>2020-09-26T09:29:04Z</time>
      </trkpt>
      <trkpt lat="48.30428" lon="2.09934">
        <ele>93.87</ele>
        <time>2020-09-26T09:29:05Z</time>
      </trkpt>
      <trkpt lat="48.30428" lon="2.09933">
        <ele>93.87</ele>
        <time>2020-09-26T09:29:06Z</time>
      </trkpt>
      <trkpt lat="48.3042" lon="2.09906">
        <ele>92.9</ele>
        <time>2020-09-26T09:29:21Z</time>
      </trkpt>
      <trkpt lat="48.30417" lon="2.09898">
        <ele>92.42</ele>
        <time>2020-09-26T09:29:25Z</time>
      </trkpt>
      <trkpt lat="48.30417" lon="2.09887">
        <ele>92.42</ele>
        <time>2020-09-26T09:29:38Z</time>
      </trkpt>
      <trkpt lat="48.30415" lon="2.09881">
        <ele>92.9</ele>
        <time>2020-09-26T09:29:43Z</time>
      </trkpt>
      <trkpt lat="48.3041" lon="2.09862">
        <ele>93.39</ele>
        <time>2020-09-26T09:29:58Z</time>
      </trkpt>
      <trkpt lat="48.30409" lon="2.09856">
        <ele>93.87</ele>
        <time>2020-09-26T09:30:15Z</time>
      </trkpt>
      <trkpt lat="48.30406" lon="2.0986">
        <ele>92.9</ele>
        <time>2020-09-26T09:30:32Z</time>
      </trkpt>
      <trkpt lat="48.30406" lon="2.09858">
        <ele>93.87</ele>
        <time>2020-09-26T09:30:49Z</time>
      </trkpt>
      <trkpt lat="48.30411" lon="2.09856">
        <ele>93.39</ele>
        <time>2020-09-26T09:31:06Z</time>
      </trkpt>
      <trkpt lat="48.3041" lon="2.09856">
        <ele>92.9</ele>
        <time>2020-09-26T09:31:28Z</time>
      </trkpt>
      <trkpt lat="48.30405" lon="2.09851">
        <ele>93.87</ele>
        <time>2020-09-26T09:31:45Z</time>
      </trkpt>
      <trkpt lat="48.30404" lon="2.0985">
        <ele>92.9</ele>
        <time>2020-09-26T09:31:57Z</time>
      </trkpt>
      <trkpt lat="48.304" lon="2.0985">
        <ele>92.9</ele>
        <time>2020-09-26T09:32:21Z</time>
      </trkpt>
      <trkpt lat="48.30401" lon="2.09848">
        <ele>92.42</ele>
        <time>2020-09-26T09:32:48Z</time>
      </trkpt>
      <trkpt lat="48.30408" lon="2.09845">
        <ele>93.39</ele>
        <time>2020-09-26T09:33:11Z</time>
      </trkpt>
      <trkpt lat="48.30407" lon="2.09836">
        <ele>92.9</ele>
        <time>2020-09-26T09:33:26Z</time>
      </trkpt>
      <trkpt lat="48.30407" lon="2.09821">
        <ele>93.39</ele>
        <time>2020-09-26T09:33:38Z</time>
      </trkpt>
      <trkpt lat="48.30405" lon="2.09799">
        <ele>92.42</ele>
        <time>2020-09-26T09:33:52Z</time>
      </trkpt>
      <trkpt lat="48.30402" lon="2.09791">
        <ele>91.94</ele>
        <time>2020-09-26T09:34:02Z</time>
      </trkpt>
      <trkpt lat="48.30402" lon="2.09793">
        <ele>91.94</ele>
        <time>2020-09-26T09:34:13Z</time>
      </trkpt>
      <trkpt lat="48.30403" lon="2.09789">
        <ele>92.42</ele>
        <time>2020-09-26T09:34:16Z</time>
      </trkpt>
      <trkpt lat="48.30403" lon="2.09787">
        <ele>91.94</ele>
        <time>2020-09-26T09:34:17Z</time>
      </trkpt>
      <trkpt lat="48.30399" lon="2.09759">
        <ele>91.94</ele>
        <time>2020-09-26T09:34:33Z</time>
      </trkpt>
      <trkpt lat="48.30398" lon="2.09752">
        <ele>92.9</ele>
        <time>2020-09-26T09:34:38Z</time>
      </trkpt>
      <trkpt lat="48.30396" lon="2.09747">
        <ele>92.42</ele>
        <time>2020-09-26T09:34:42Z</time>
      </trkpt>
      <trkpt lat="48.30395" lon="2.09745">
        <ele>91.94</ele>
        <time>2020-09-26T09:34:43Z</time>
      </trkpt>
      <trkpt lat="48.30395" lon="2.09743">
        <ele>91.94</ele>
        <time>2020-09-26T09:34:44Z</time>
      </trkpt>
      <trkpt lat="48.30394" lon="2.09741">
        <ele>91.94</ele>
        <time>2020-09-26T09:34:45Z</time>
      </trkpt>
      <trkpt lat="48.30393" lon="2.09736">
        <ele>91.46</ele>
        <time>2020-09-26T09:34:59Z</time>
      </trkpt>
      <trkpt lat="48.30393" lon="2.09736">
        <ele>91.46</ele>
        <time>2020-09-26T09:35:07Z</time>
      </trkpt>
      <trkpt lat="48.30393" lon="2.09734">
        <ele>91.46</ele>
        <time>2020-09-26T09:35:13Z</time>
      </trkpt>
      <trkpt lat="48.3039" lon="2.09731">
        <ele>91.94</ele>
        <time>2020-09-26T09:35:20Z</time>
      </trkpt>
      <trkpt lat="48.30388" lon="2.09727">
        <ele>92.42</ele>
        <time>2020-09-26T09:35:28Z</time>
      </trkpt>
      <trkpt lat="48.30387" lon="2.09726">
        <ele>91.94</ele>
        <time>2020-09-26T09:35:29Z</time>
      </trkpt>
      <trkpt lat="48.30387" lon="2.09725">
        <ele>92.42</ele>
        <time>2020-09-26T09:35:30Z</time>
      </trkpt>
      <trkpt lat="48.30384" lon="2.09721">
        <ele>92.42</ele>
        <time>2020-09-26T09:35:33Z</time>
      </trkpt>
      <trkpt lat="48.30383" lon="2.09719">
        <ele>92.42</ele>
        <time>2020-09-26T09:35:34Z</time>
      </trkpt>
      <trkpt lat="48.30382" lon="2.09718">
        <ele>92.42</ele>
        <time>2020-09-26T09:35:35Z</time>
      </trkpt>
      <trkpt lat="48.30381" lon="2.09716">
        <ele>92.42</ele>
        <time>2020-09-26T09:35:36Z</time>
      </trkpt>
      <trkpt lat="48.3038" lon="2.09714">
        <ele>92.42</ele>
        <time>2020-09-26T09:35:37Z</time>
      </trkpt>
      <trkpt lat="48.30372" lon="2.09697">
        <ele>92.42</ele>
        <time>2020-09-26T09:35:49Z</time>
      </trkpt>
      <trkpt lat="48.30371" lon="2.09696">
        <ele>92.42</ele>
        <time>2020-09-26T09:35:50Z</time>
      </trkpt>
      <trkpt lat="48.30369" lon="2.09693">
        <ele>93.39</ele>
        <time>2020-09-26T09:36:07Z</time>
      </trkpt>
      <trkpt lat="48.30371" lon="2.09695">
        <ele>93.39</ele>
        <time>2020-09-26T09:36:14Z</time>
      </trkpt>
      <trkpt lat="48.30372" lon="2.09696">
        <ele>93.39</ele>
        <time>2020-09-26T09:36:15Z</time>
      </trkpt>
      <trkpt lat="48.30376" lon="2.09691">
        <ele>92.42</ele>
        <time>2020-09-26T09:36:22Z</time>
      </trkpt>
      <trkpt lat="48.3038" lon="2.09683">
        <ele>91.94</ele>
        <time>2020-09-26T09:36:25Z</time>
      </trkpt>
      <trkpt lat="48.30384" lon="2.09676">
        <ele>91.94</ele>
        <time>2020-09-26T09:36:38Z</time>
      </trkpt>
      <trkpt lat="48.30392" lon="2.09664">
        <ele>92.42</ele>
        <time>2020-09-26T09:36:49Z</time>
      </trkpt>
      <trkpt lat="48.30397" lon="2.09652">
        <ele>91.46</ele>
        <time>2020-09-26T09:36:56Z</time>
      </trkpt>
      <trkpt lat="48.30402" lon="2.09644">
        <ele>92.42</ele>
        <time>2020-09-26T09:37:04Z</time>
      </trkpt>
      <trkpt lat="48.30411" lon="2.09622">
        <ele>92.42</ele>
        <time>2020-09-26T09:37:20Z</time>
      </trkpt>
      <trkpt lat="48.30417" lon="2.09609">
        <ele>91.94</ele>
        <time>2020-09-26T09:37:29Z</time>
      </trkpt>
      <trkpt lat="48.30429" lon="2.09585">
        <ele>92.42</ele>
        <time>2020-09-26T09:37:45Z</time>
      </trkpt>
      <trkpt lat="48.30441" lon="2.09568">
        <ele>91.46</ele>
        <time>2020-09-26T09:37:59Z</time>
      </trkpt>
      <trkpt lat="48.30446" lon="2.09563">
        <ele>91.46</ele>
        <time>2020-09-26T09:38:10Z</time>
      </trkpt>
      <trkpt lat="48.30451" lon="2.09551">
        <ele>91.94</ele>
        <time>2020-09-26T09:38:16Z</time>
      </trkpt>
      <trkpt lat="48.30464" lon="2.09528">
        <ele>91.46</ele>
        <time>2020-09-26T09:38:31Z</time>
      </trkpt>
      <trkpt lat="48.30474" lon="2.09517">
        <ele>91.94</ele>
        <time>2020-09-26T09:38:45Z</time>
      </trkpt>
      <trkpt lat="48.30477" lon="2.09514">
        <ele>92.42</ele>
        <time>2020-09-26T09:38:55Z</time>
      </trkpt>
      <trkpt lat="48.30481" lon="2.09513">
        <ele>91.94</ele>
        <time>2020-09-26T09:38:59Z</time>
      </trkpt>
      <trkpt lat="48.30486" lon="2.09513">
        <ele>91.94</ele>
        <time>2020-09-26T09:39:03Z</time>
      </trkpt>
      <trkpt lat="48.30499" lon="2.09493">
        <ele>91.94</ele>
        <time>2020-09-26T09:39:17Z</time>
      </trkpt>
      <trkpt lat="48.30501" lon="2.09465">
        <ele>91.94</ele>
        <time>2020-09-26T09:39:33Z</time>
      </trkpt>
      <trkpt lat="48.30505" lon="2.09434">
        <ele>91.46</ele>
        <time>2020-09-26T09:39:48Z</time>
      </trkpt>
      <trkpt lat="48.3051" lon="2.09409">
        <ele>91.46</ele>
        <time>2020-09-26T09:40:02Z</time>
      </trkpt>
      <trkpt lat="48.30509" lon="2.09386">
        <ele>91.46</ele>
        <time>2020-09-26T09:40:14Z</time>
      </trkpt>
      <trkpt lat="48.3051" lon="2.09362">
        <ele>91.46</ele>
        <time>2020-09-26T09:40:28Z</time>
      </trkpt>
      <trkpt lat="48.30512" lon="2.09353">
        <ele>91.94</ele>
        <time>2020-09-26T09:40:40Z</time>
      </trkpt>
      <trkpt lat="48.30513" lon="2.09354">
        <ele>92.42</ele>
        <time>2020-09-26T09:40:42Z</time>
      </trkpt>
      <trkpt lat="48.30517" lon="2.09353">
        <ele>92.42</ele>
        <time>2020-09-26T09:40:52Z</time>
      </trkpt>
      <trkpt lat="48.30516" lon="2.09353">
        <ele>92.42</ele>
        <time>2020-09-26T09:41:06Z</time>
      </trkpt>
      <trkpt lat="48.30514" lon="2.09349">
        <ele>92.42</ele>
        <time>2020-09-26T09:41:34Z</time>
      </trkpt>
      <trkpt lat="48.30518" lon="2.09351">
        <ele>91.94</ele>
        <time>2020-09-26T09:41:48Z</time>
      </trkpt>
      <trkpt lat="48.30522" lon="2.09349">
        <ele>92.42</ele>
        <time>2020-09-26T09:42:07Z</time>
      </trkpt>
      <trkpt lat="48.30523" lon="2.09332">
        <ele>92.42</ele>
        <time>2020-09-26T09:42:17Z</time>
      </trkpt>
      <trkpt lat="48.30527" lon="2.09315">
        <ele>92.9</ele>
        <time>2020-09-26T09:42:27Z</time>
      </trkpt>
      <trkpt lat="48.30532" lon="2.09294">
        <ele>92.9</ele>
        <time>2020-09-26T09:42:40Z</time>
      </trkpt>
      <trkpt lat="48.30535" lon="2.09272">
        <ele>92.42</ele>
        <time>2020-09-26T09:42:50Z</time>
      </trkpt>
      <trkpt lat="48.30539" lon="2.09252">
        <ele>92.9</ele>
        <time>2020-09-26T09:43:01Z</time>
      </trkpt>
      <trkpt lat="48.30541" lon="2.09239">
        <ele>92.9</ele>
        <time>2020-09-26T09:43:07Z</time>
      </trkpt>
      <trkpt lat="48.30545" lon="2.09211">
        <ele>93.39</ele>
        <time>2020-09-26T09:43:22Z</time>
      </trkpt>
      <trkpt lat="48.30553" lon="2.09187">
        <ele>93.39</ele>
        <time>2020-09-26T09:43:37Z</time>
      </trkpt>
      <trkpt lat="48.30557" lon="2.09167">
        <ele>93.87</ele>
        <time>2020-09-26T09:43:49Z</time>
      </trkpt>
      <trkpt lat="48.30569" lon="2.0915">
        <ele>95.31</ele>
        <time>2020-09-26T09:44:06Z</time>
      </trkpt>
      <trkpt lat="48.30575" lon="2.09143">
        <ele>97.23</ele>
        <time>2020-09-26T09:44:14Z</time>
      </trkpt>
      <trkpt lat="48.30587" lon="2.09134">
        <ele>99.15</ele>
        <time>2020-09-26T09:44:28Z</time>
      </trkpt>
      <trkpt lat="48.30595" lon="2.09129">
        <ele>99.15</ele>
        <time>2020-09-26T09:44:36Z</time>
      </trkpt>
      <trkpt lat="48.30611" lon="2.09132">
        <ele>100.11</ele>
        <time>2020-09-26T09:44:49Z</time>
      </trkpt>
      <trkpt lat="48.30614" lon="2.09132">
        <ele>100.11</ele>
        <time>2020-09-26T09:44:51Z</time>
      </trkpt>
      <trkpt lat="48.30615" lon="2.09132">
        <ele>100.6</ele>
        <time>2020-09-26T09:44:52Z</time>
      </trkpt>
      <trkpt lat="48.30631" lon="2.0913">
        <ele>100.11</ele>
        <time>2020-09-26T09:45:04Z</time>
      </trkpt>
      <trkpt lat="48.30647" lon="2.09132">
        <ele>100.11</ele>
        <time>2020-09-26T09:45:17Z</time>
      </trkpt>
      <trkpt lat="48.30665" lon="2.09128">
        <ele>97.23</ele>
        <time>2020-09-26T09:45:32Z</time>
      </trkpt>
      <trkpt lat="48.3068" lon="2.0914">
        <ele>97.71</ele>
        <time>2020-09-26T09:45:48Z</time>
      </trkpt>
      <trkpt lat="48.30681" lon="2.09143">
        <ele>98.19</ele>
        <time>2020-09-26T09:45:50Z</time>
      </trkpt>
      <trkpt lat="48.30686" lon="2.09158">
        <ele>99.15</ele>
        <time>2020-09-26T09:45:58Z</time>
      </trkpt>
      <trkpt lat="48.30689" lon="2.09167">
        <ele>99.63</ele>
        <time>2020-09-26T09:46:05Z</time>
      </trkpt>
      <trkpt lat="48.3069" lon="2.09168">
        <ele>100.11</ele>
        <time>2020-09-26T09:46:06Z</time>
      </trkpt>
      <trkpt lat="48.30702" lon="2.09178">
        <ele>99.15</ele>
        <time>2020-09-26T09:46:20Z</time>
      </trkpt>
      <trkpt lat="48.30703" lon="2.09179">
        <ele>99.15</ele>
        <time>2020-09-26T09:46:21Z</time>
      </trkpt>
      <trkpt lat="48.30707" lon="2.09181">
        <ele>100.6</ele>
        <time>2020-09-26T09:46:25Z</time>
      </trkpt>
      <trkpt lat="48.30708" lon="2.09182">
        <ele>100.6</ele>
        <time>2020-09-26T09:46:26Z</time>
      </trkpt>
      <trkpt lat="48.30724" lon="2.09193">
        <ele>100.6</ele>
        <time>2020-09-26T09:46:41Z</time>
      </trkpt>
      <trkpt lat="48.30736" lon="2.09208">
        <ele>100.11</ele>
        <time>2020-09-26T09:46:55Z</time>
      </trkpt>
      <trkpt lat="48.30747" lon="2.0922">
        <ele>101.08</ele>
        <time>2020-09-26T09:47:06Z</time>
      </trkpt>
      <trkpt lat="48.30752" lon="2.09227">
        <ele>100.11</ele>
        <time>2020-09-26T09:47:14Z</time>
      </trkpt>
      <trkpt lat="48.30753" lon="2.09229">
        <ele>100.6</ele>
        <time>2020-09-26T09:47:15Z</time>
      </trkpt>
      <trkpt lat="48.30754" lon="2.09231">
        <ele>100.6</ele>
        <time>2020-09-26T09:47:16Z</time>
      </trkpt>
      <trkpt lat="48.30755" lon="2.09232">
        <ele>100.6</ele>
        <time>2020-09-26T09:47:17Z</time>
      </trkpt>
      <trkpt lat="48.30755" lon="2.09234">
        <ele>101.56</ele>
        <time>2020-09-26T09:47:18Z</time>
      </trkpt>
      <trkpt lat="48.30756" lon="2.09235">
        <ele>101.56</ele>
        <time>2020-09-26T09:47:19Z</time>
      </trkpt>
      <trkpt lat="48.30757" lon="2.09236">
        <ele>102.04</ele>
        <time>2020-09-26T09:47:20Z</time>
      </trkpt>
      <trkpt lat="48.30765" lon="2.09254">
        <ele>101.08</ele>
        <time>2020-09-26T09:47:33Z</time>
      </trkpt>
      <trkpt lat="48.30773" lon="2.09268">
        <ele>101.08</ele>
        <time>2020-09-26T09:47:43Z</time>
      </trkpt>
      <trkpt lat="48.30781" lon="2.09281">
        <ele>102.52</ele>
        <time>2020-09-26T09:47:53Z</time>
      </trkpt>
      <trkpt lat="48.30791" lon="2.09296">
        <ele>102.52</ele>
        <time>2020-09-26T09:48:04Z</time>
      </trkpt>
      <trkpt lat="48.30803" lon="2.09311">
        <ele>103</ele>
        <time>2020-09-26T09:48:17Z</time>
      </trkpt>
      <trkpt lat="48.30811" lon="2.09318">
        <ele>103</ele>
        <time>2020-09-26T09:48:24Z</time>
      </trkpt>
      <trkpt lat="48.30824" lon="2.09335">
        <ele>102.52</ele>
        <time>2020-09-26T09:48:37Z</time>
      </trkpt>
      <trkpt lat="48.30835" lon="2.09343">
        <ele>102.52</ele>
        <time>2020-09-26T09:48:53Z</time>
      </trkpt>
      <trkpt lat="48.30836" lon="2.09343">
        <ele>102.04</ele>
        <time>2020-09-26T09:48:55Z</time>
      </trkpt>
      <trkpt lat="48.30848" lon="2.09339">
        <ele>99.15</ele>
        <time>2020-09-26T09:49:04Z</time>
      </trkpt>
      <trkpt lat="48.3085" lon="2.09339">
        <ele>99.15</ele>
        <time>2020-09-26T09:49:05Z</time>
      </trkpt>
      <trkpt lat="48.30851" lon="2.09338">
        <ele>99.15</ele>
        <time>2020-09-26T09:49:06Z</time>
      </trkpt>
      <trkpt lat="48.30859" lon="2.09335">
        <ele>97.71</ele>
        <time>2020-09-26T09:49:17Z</time>
      </trkpt>
      <trkpt lat="48.30862" lon="2.09333">
        <ele>97.23</ele>
        <time>2020-09-26T09:49:21Z</time>
      </trkpt>
      <trkpt lat="48.30864" lon="2.09332">
        <ele>95.79</ele>
        <time>2020-09-26T09:49:22Z</time>
      </trkpt>
      <trkpt lat="48.30866" lon="2.09331">
        <ele>96.27</ele>
        <time>2020-09-26T09:49:23Z</time>
      </trkpt>
      <trkpt lat="48.3087" lon="2.0933">
        <ele>96.27</ele>
        <time>2020-09-26T09:49:25Z</time>
      </trkpt>
      <trkpt lat="48.30874" lon="2.0933">
        <ele>94.83</ele>
        <time>2020-09-26T09:49:32Z</time>
      </trkpt>
      <trkpt lat="48.30876" lon="2.0933">
        <ele>95.31</ele>
        <time>2020-09-26T09:49:33Z</time>
      </trkpt>
      <trkpt lat="48.30877" lon="2.0933">
        <ele>95.31</ele>
        <time>2020-09-26T09:49:34Z</time>
      </trkpt>
      <trkpt lat="48.30883" lon="2.09331">
        <ele>94.35</ele>
        <time>2020-09-26T09:49:42Z</time>
      </trkpt>
      <trkpt lat="48.30887" lon="2.09333">
        <ele>94.35</ele>
        <time>2020-09-26T09:49:46Z</time>
      </trkpt>
      <trkpt lat="48.30889" lon="2.09334">
        <ele>94.35</ele>
        <time>2020-09-26T09:49:47Z</time>
      </trkpt>
      <trkpt lat="48.3089" lon="2.09335">
        <ele>94.35</ele>
        <time>2020-09-26T09:49:48Z</time>
      </trkpt>
      <trkpt lat="48.30892" lon="2.09336">
        <ele>94.35</ele>
        <time>2020-09-26T09:49:49Z</time>
      </trkpt>
      <trkpt lat="48.30893" lon="2.09337">
        <ele>94.35</ele>
        <time>2020-09-26T09:49:50Z</time>
      </trkpt>
      <trkpt lat="48.30905" lon="2.09344">
        <ele>93.87</ele>
        <time>2020-09-26T09:50:03Z</time>
      </trkpt>
      <trkpt lat="48.3092" lon="2.09354">
        <ele>93.39</ele>
        <time>2020-09-26T09:50:16Z</time>
      </trkpt>
      <trkpt lat="48.30936" lon="2.09366">
        <ele>93.39</ele>
        <time>2020-09-26T09:50:29Z</time>
      </trkpt>
      <trkpt lat="48.3095" lon="2.0937">
        <ele>92.42</ele>
        <time>2020-09-26T09:50:42Z</time>
      </trkpt>
      <trkpt lat="48.30968" lon="2.09367">
        <ele>92.9</ele>
        <time>2020-09-26T09:50:56Z</time>
      </trkpt>
      <trkpt lat="48.30985" lon="2.09375">
        <ele>92.42</ele>
        <time>2020-09-26T09:51:10Z</time>
      </trkpt>
      <trkpt lat="48.31001" lon="2.09387">
        <ele>91.46</ele>
        <time>2020-09-26T09:51:22Z</time>
      </trkpt>
      <trkpt lat="48.31013" lon="2.09394">
        <ele>91.46</ele>
        <time>2020-09-26T09:51:38Z</time>
      </trkpt>
      <trkpt lat="48.31017" lon="2.09393">
        <ele>91.46</ele>
        <time>2020-09-26T09:52:03Z</time>
      </trkpt>
      <trkpt lat="48.31031" lon="2.09403">
        <ele>90.02</ele>
        <time>2020-09-26T09:52:16Z</time>
      </trkpt>
      <trkpt lat="48.31047" lon="2.09414">
        <ele>90.98</ele>
        <time>2020-09-26T09:52:30Z</time>
      </trkpt>
      <trkpt lat="48.31068" lon="2.09422">
        <ele>90.98</ele>
        <time>2020-09-26T09:52:47Z</time>
      </trkpt>
      <trkpt lat="48.3108" lon="2.09427">
        <ele>90.02</ele>
        <time>2020-09-26T09:52:59Z</time>
      </trkpt>
      <trkpt lat="48.31095" lon="2.09436">
        <ele>90.98</ele>
        <time>2020-09-26T09:53:14Z</time>
      </trkpt>
      <trkpt lat="48.3111" lon="2.09442">
        <ele>90.02</ele>
        <time>2020-09-26T09:53:28Z</time>
      </trkpt>
      <trkpt lat="48.31114" lon="2.09443">
        <ele>90.02</ele>
        <time>2020-09-26T09:53:31Z</time>
      </trkpt>
      <trkpt lat="48.31135" lon="2.09451">
        <ele>89.54</ele>
        <time>2020-09-26T09:53:49Z</time>
      </trkpt>
      <trkpt lat="48.3115" lon="2.0946">
        <ele>89.06</ele>
        <time>2020-09-26T09:54:03Z</time>
      </trkpt>
      <trkpt lat="48.31167" lon="2.09459">
        <ele>90.02</ele>
        <time>2020-09-26T09:54:17Z</time>
      </trkpt>
      <trkpt lat="48.31181" lon="2.09467">
        <ele>90.02</ele>
        <time>2020-09-26T09:54:28Z</time>
      </trkpt>
      <trkpt lat="48.31197" lon="2.09475">
        <ele>90.02</ele>
        <time>2020-09-26T09:54:43Z</time>
      </trkpt>
      <trkpt lat="48.31219" lon="2.09482">
        <ele>89.54</ele>
        <time>2020-09-26T09:54:58Z</time>
      </trkpt>
      <trkpt lat="48.31232" lon="2.09485">
        <ele>90.02</ele>
        <time>2020-09-26T09:55:09Z</time>
      </trkpt>
      <trkpt lat="48.31233" lon="2.09485">
        <ele>89.54</ele>
        <time>2020-09-26T09:55:10Z</time>
      </trkpt>
      <trkpt lat="48.31251" lon="2.09476">
        <ele>88.1</ele>
        <time>2020-09-26T09:55:25Z</time>
      </trkpt>
      <trkpt lat="48.31264" lon="2.09479">
        <ele>89.06</ele>
        <time>2020-09-26T09:55:38Z</time>
      </trkpt>
      <trkpt lat="48.31276" lon="2.09477">
        <ele>88.58</ele>
        <time>2020-09-26T09:55:46Z</time>
      </trkpt>
      <trkpt lat="48.3128" lon="2.09477">
        <ele>88.58</ele>
        <time>2020-09-26T09:55:49Z</time>
      </trkpt>
      <trkpt lat="48.31284" lon="2.09478">
        <ele>88.58</ele>
        <time>2020-09-26T09:55:53Z</time>
      </trkpt>
      <trkpt lat="48.31301" lon="2.09472">
        <ele>90.5</ele>
        <time>2020-09-26T09:56:06Z</time>
      </trkpt>
      <trkpt lat="48.31319" lon="2.09468">
        <ele>90.02</ele>
        <time>2020-09-26T09:56:22Z</time>
      </trkpt>
      <trkpt lat="48.31338" lon="2.09465">
        <ele>90.02</ele>
        <time>2020-09-26T09:56:39Z</time>
      </trkpt>
      <trkpt lat="48.3136" lon="2.09454">
        <ele>90.5</ele>
        <time>2020-09-26T09:56:56Z</time>
      </trkpt>
      <trkpt lat="48.31361" lon="2.09453">
        <ele>90.5</ele>
        <time>2020-09-26T09:56:57Z</time>
      </trkpt>
      <trkpt lat="48.31363" lon="2.09452">
        <ele>90.5</ele>
        <time>2020-09-26T09:56:58Z</time>
      </trkpt>
      <trkpt lat="48.31381" lon="2.09446">
        <ele>91.46</ele>
        <time>2020-09-26T09:57:14Z</time>
      </trkpt>
      <trkpt lat="48.31399" lon="2.09433">
        <ele>91.46</ele>
        <time>2020-09-26T09:57:27Z</time>
      </trkpt>
      <trkpt lat="48.31402" lon="2.09433">
        <ele>91.46</ele>
        <time>2020-09-26T09:57:30Z</time>
      </trkpt>
      <trkpt lat="48.31422" lon="2.09429">
        <ele>92.42</ele>
        <time>2020-09-26T09:57:47Z</time>
      </trkpt>
      <trkpt lat="48.3144" lon="2.09421">
        <ele>92.42</ele>
        <time>2020-09-26T09:58:01Z</time>
      </trkpt>
      <trkpt lat="48.31447" lon="2.0942">
        <ele>92.42</ele>
        <time>2020-09-26T09:58:07Z</time>
      </trkpt>
      <trkpt lat="48.31467" lon="2.09421">
        <ele>92.9</ele>
        <time>2020-09-26T09:58:23Z</time>
      </trkpt>
      <trkpt lat="48.31484" lon="2.09422">
        <ele>93.87</ele>
        <time>2020-09-26T09:58:37Z</time>
      </trkpt>
      <trkpt lat="48.31486" lon="2.09422">
        <ele>94.83</ele>
        <time>2020-09-26T09:58:38Z</time>
      </trkpt>
      <trkpt lat="48.31488" lon="2.09422">
        <ele>93.87</ele>
        <time>2020-09-26T09:58:39Z</time>
      </trkpt>
      <trkpt lat="48.315" lon="2.09419">
        <ele>94.35</ele>
        <time>2020-09-26T09:58:52Z</time>
      </trkpt>
      <trkpt lat="48.31508" lon="2.09419">
        <ele>95.79</ele>
        <time>2020-09-26T09:59:05Z</time>
      </trkpt>
      <trkpt lat="48.31514" lon="2.09426">
        <ele>97.23</ele>
        <time>2020-09-26T09:59:19Z</time>
      </trkpt>
      <trkpt lat="48.31519" lon="2.09428">
        <ele>99.15</ele>
        <time>2020-09-26T09:59:24Z</time>
      </trkpt>
      <trkpt lat="48.3152" lon="2.09429">
        <ele>98.67</ele>
        <time>2020-09-26T09:59:25Z</time>
      </trkpt>
      <trkpt lat="48.31517" lon="2.09432">
        <ele>101.56</ele>
        <time>2020-09-26T09:59:39Z</time>
      </trkpt>
      <trkpt lat="48.31514" lon="2.0943">
        <ele>98.19</ele>
        <time>2020-09-26T10:00:07Z</time>
      </trkpt>
      <trkpt lat="48.31521" lon="2.09425">
        <ele>98.19</ele>
        <time>2020-09-26T10:00:32Z</time>
      </trkpt>
      <trkpt lat="48.31525" lon="2.09426">
        <ele>97.71</ele>
        <time>2020-09-26T10:00:34Z</time>
      </trkpt>
      <trkpt lat="48.31537" lon="2.09432">
        <ele>99.63</ele>
        <time>2020-09-26T10:00:45Z</time>
      </trkpt>
      <trkpt lat="48.31539" lon="2.09433">
        <ele>100.11</ele>
        <time>2020-09-26T10:00:47Z</time>
      </trkpt>
      <trkpt lat="48.31553" lon="2.09446">
        <ele>101.56</ele>
        <time>2020-09-26T10:01:02Z</time>
      </trkpt>
      <trkpt lat="48.31575" lon="2.09447">
        <ele>101.08</ele>
        <time>2020-09-26T10:01:19Z</time>
      </trkpt>
      <trkpt lat="48.3159" lon="2.09447">
        <ele>100.11</ele>
        <time>2020-09-26T10:01:31Z</time>
      </trkpt>
      <trkpt lat="48.31608" lon="2.09452">
        <ele>98.19</ele>
        <time>2020-09-26T10:01:47Z</time>
      </trkpt>
      <trkpt lat="48.31626" lon="2.09448">
        <ele>96.75</ele>
        <time>2020-09-26T10:02:01Z</time>
      </trkpt>
      <trkpt lat="48.31628" lon="2.09449">
        <ele>96.75</ele>
        <time>2020-09-26T10:02:03Z</time>
      </trkpt>
      <trkpt lat="48.31645" lon="2.09448">
        <ele>94.35</ele>
        <time>2020-09-26T10:02:16Z</time>
      </trkpt>
      <trkpt lat="48.31654" lon="2.09444">
        <ele>94.35</ele>
        <time>2020-09-26T10:02:25Z</time>
      </trkpt>
      <trkpt lat="48.31655" lon="2.09445">
        <ele>93.87</ele>
        <time>2020-09-26T10:02:26Z</time>
      </trkpt>
      <trkpt lat="48.31656" lon="2.09446">
        <ele>93.39</ele>
        <time>2020-09-26T10:02:27Z</time>
      </trkpt>
      <trkpt lat="48.31658" lon="2.09446">
        <ele>93.87</ele>
        <time>2020-09-26T10:02:28Z</time>
      </trkpt>
      <trkpt lat="48.31659" lon="2.09446">
        <ele>93.87</ele>
        <time>2020-09-26T10:02:29Z</time>
      </trkpt>
      <trkpt lat="48.31672" lon="2.09448">
        <ele>92.42</ele>
        <time>2020-09-26T10:02:44Z</time>
      </trkpt>
      <trkpt lat="48.3169" lon="2.09463">
        <ele>92.42</ele>
        <time>2020-09-26T10:02:59Z</time>
      </trkpt>
      <trkpt lat="48.31703" lon="2.09469">
        <ele>90.98</ele>
        <time>2020-09-26T10:03:12Z</time>
      </trkpt>
      <trkpt lat="48.31713" lon="2.09452">
        <ele>90.5</ele>
        <time>2020-09-26T10:03:24Z</time>
      </trkpt>
      <trkpt lat="48.3172" lon="2.09419">
        <ele>90.5</ele>
        <time>2020-09-26T10:03:41Z</time>
      </trkpt>
      <trkpt lat="48.31727" lon="2.09393">
        <ele>90.02</ele>
        <time>2020-09-26T10:03:56Z</time>
      </trkpt>
      <trkpt lat="48.31728" lon="2.09391">
        <ele>90.02</ele>
        <time>2020-09-26T10:03:57Z</time>
      </trkpt>
      <trkpt lat="48.31727" lon="2.09388">
        <ele>89.54</ele>
        <time>2020-09-26T10:03:58Z</time>
      </trkpt>
      <trkpt lat="48.31728" lon="2.09387">
        <ele>89.54</ele>
        <time>2020-09-26T10:03:59Z</time>
      </trkpt>
      <trkpt lat="48.31728" lon="2.09385">
        <ele>89.54</ele>
        <time>2020-09-26T10:04:00Z</time>
      </trkpt>
      <trkpt lat="48.31729" lon="2.09383">
        <ele>90.02</ele>
        <time>2020-09-26T10:04:01Z</time>
      </trkpt>
      <trkpt lat="48.3173" lon="2.09381">
        <ele>89.54</ele>
        <time>2020-09-26T10:04:02Z</time>
      </trkpt>
      <trkpt lat="48.31734" lon="2.09363">
        <ele>89.54</ele>
        <time>2020-09-26T10:04:16Z</time>
      </trkpt>
      <trkpt lat="48.31736" lon="2.09361">
        <ele>90.98</ele>
        <time>2020-09-26T10:04:33Z</time>
      </trkpt>
      <trkpt lat="48.31737" lon="2.09351">
        <ele>90.5</ele>
        <time>2020-09-26T10:04:42Z</time>
      </trkpt>
      <trkpt lat="48.31733" lon="2.09351">
        <ele>90.5</ele>
        <time>2020-09-26T10:04:56Z</time>
      </trkpt>
      <trkpt lat="48.31734" lon="2.0935">
        <ele>90.5</ele>
        <time>2020-09-26T10:05:01Z</time>
      </trkpt>
      <trkpt lat="48.31735" lon="2.09349">
        <ele>90.98</ele>
        <time>2020-09-26T10:05:02Z</time>
      </trkpt>
      <trkpt lat="48.31739" lon="2.09341">
        <ele>90.02</ele>
        <time>2020-09-26T10:05:16Z</time>
      </trkpt>
      <trkpt lat="48.31747" lon="2.09325">
        <ele>90.02</ele>
        <time>2020-09-26T10:05:28Z</time>
      </trkpt>
      <trkpt lat="48.3175" lon="2.09316">
        <ele>89.54</ele>
        <time>2020-09-26T10:05:44Z</time>
      </trkpt>
      <trkpt lat="48.31759" lon="2.09299">
        <ele>88.58</ele>
        <time>2020-09-26T10:05:56Z</time>
      </trkpt>
      <trkpt lat="48.31767" lon="2.09284">
        <ele>88.58</ele>
        <time>2020-09-26T10:06:07Z</time>
      </trkpt>
      <trkpt lat="48.31771" lon="2.09266">
        <ele>88.58</ele>
        <time>2020-09-26T10:06:19Z</time>
      </trkpt>
      <trkpt lat="48.31778" lon="2.09244">
        <ele>88.1</ele>
        <time>2020-09-26T10:06:32Z</time>
      </trkpt>
      <trkpt lat="48.31789" lon="2.09213">
        <ele>87.62</ele>
        <time>2020-09-26T10:06:48Z</time>
      </trkpt>
      <trkpt lat="48.31796" lon="2.09186">
        <ele>88.1</ele>
        <time>2020-09-26T10:07:04Z</time>
      </trkpt>
      <trkpt lat="48.31806" lon="2.09158">
        <ele>88.58</ele>
        <time>2020-09-26T10:07:21Z</time>
      </trkpt>
      <trkpt lat="48.31814" lon="2.09131">
        <ele>88.58</ele>
        <time>2020-09-26T10:07:35Z</time>
      </trkpt>
      <trkpt lat="48.31821" lon="2.09117">
        <ele>89.06</ele>
        <time>2020-09-26T10:07:51Z</time>
      </trkpt>
      <trkpt lat="48.31825" lon="2.09111">
        <ele>89.54</ele>
        <time>2020-09-26T10:07:56Z</time>
      </trkpt>
      <trkpt lat="48.31827" lon="2.09104">
        <ele>90.02</ele>
        <time>2020-09-26T10:08:01Z</time>
      </trkpt>
      <trkpt lat="48.31827" lon="2.09103">
        <ele>89.54</ele>
        <time>2020-09-26T10:08:02Z</time>
      </trkpt>
      <trkpt lat="48.31832" lon="2.09091">
        <ele>89.54</ele>
        <time>2020-09-26T10:08:10Z</time>
      </trkpt>
      <trkpt lat="48.31834" lon="2.09085">
        <ele>90.02</ele>
        <time>2020-09-26T10:08:14Z</time>
      </trkpt>
      <trkpt lat="48.31838" lon="2.09079">
        <ele>90.5</ele>
        <time>2020-09-26T10:08:19Z</time>
      </trkpt>
      <trkpt lat="48.31843" lon="2.0907">
        <ele>90.5</ele>
        <time>2020-09-26T10:08:26Z</time>
      </trkpt>
      <trkpt lat="48.31842" lon="2.09069">
        <ele>90.98</ele>
        <time>2020-09-26T10:08:27Z</time>
      </trkpt>
      <trkpt lat="48.3185" lon="2.0905">
        <ele>91.46</ele>
        <time>2020-09-26T10:08:41Z</time>
      </trkpt>
      <trkpt lat="48.31855" lon="2.0904">
        <ele>92.42</ele>
        <time>2020-09-26T10:08:48Z</time>
      </trkpt>
      <trkpt lat="48.31856" lon="2.09039">
        <ele>92.42</ele>
        <time>2020-09-26T10:08:49Z</time>
      </trkpt>
      <trkpt lat="48.31856" lon="2.09037">
        <ele>92.9</ele>
        <time>2020-09-26T10:08:50Z</time>
      </trkpt>
      <trkpt lat="48.31857" lon="2.09035">
        <ele>92.9</ele>
        <time>2020-09-26T10:08:51Z</time>
      </trkpt>
      <trkpt lat="48.31858" lon="2.09033">
        <ele>92.9</ele>
        <time>2020-09-26T10:08:52Z</time>
      </trkpt>
      <trkpt lat="48.31858" lon="2.0903">
        <ele>92.9</ele>
        <time>2020-09-26T10:08:53Z</time>
      </trkpt>
      <trkpt lat="48.31859" lon="2.09028">
        <ele>92.9</ele>
        <time>2020-09-26T10:08:54Z</time>
      </trkpt>
      <trkpt lat="48.31861" lon="2.09018">
        <ele>93.39</ele>
        <time>2020-09-26T10:09:05Z</time>
      </trkpt>
      <trkpt lat="48.31862" lon="2.09017">
        <ele>93.39</ele>
        <time>2020-09-26T10:09:06Z</time>
      </trkpt>
      <trkpt lat="48.31863" lon="2.09016">
        <ele>93.87</ele>
        <time>2020-09-26T10:09:07Z</time>
      </trkpt>
      <trkpt lat="48.31863" lon="2.09014">
        <ele>93.87</ele>
        <time>2020-09-26T10:09:08Z</time>
      </trkpt>
      <trkpt lat="48.31864" lon="2.09011">
        <ele>93.87</ele>
        <time>2020-09-26T10:09:09Z</time>
      </trkpt>
      <trkpt lat="48.31868" lon="2.09002">
        <ele>94.83</ele>
        <time>2020-09-26T10:09:18Z</time>
      </trkpt>
      <trkpt lat="48.3188" lon="2.09">
        <ele>95.79</ele>
        <time>2020-09-26T10:09:30Z</time>
      </trkpt>
      <trkpt lat="48.3189" lon="2.08995">
        <ele>98.19</ele>
        <time>2020-09-26T10:09:42Z</time>
      </trkpt>
      <trkpt lat="48.31899" lon="2.08987">
        <ele>99.15</ele>
        <time>2020-09-26T10:09:55Z</time>
      </trkpt>
      <trkpt lat="48.31904" lon="2.08984">
        <ele>100.11</ele>
        <time>2020-09-26T10:10:03Z</time>
      </trkpt>
      <trkpt lat="48.31905" lon="2.08984">
        <ele>100.11</ele>
        <time>2020-09-26T10:10:04Z</time>
      </trkpt>
      <trkpt lat="48.31907" lon="2.08984">
        <ele>100.11</ele>
        <time>2020-09-26T10:10:05Z</time>
      </trkpt>
      <trkpt lat="48.31909" lon="2.08984">
        <ele>100.11</ele>
        <time>2020-09-26T10:10:06Z</time>
      </trkpt>
      <trkpt lat="48.31911" lon="2.08983">
        <ele>99.63</ele>
        <time>2020-09-26T10:10:07Z</time>
      </trkpt>
      <trkpt lat="48.3192" lon="2.0898">
        <ele>100.6</ele>
        <time>2020-09-26T10:10:18Z</time>
      </trkpt>
      <trkpt lat="48.31923" lon="2.08973">
        <ele>101.08</ele>
        <time>2020-09-26T10:10:25Z</time>
      </trkpt>
      <trkpt lat="48.31923" lon="2.08965">
        <ele>100.6</ele>
        <time>2020-09-26T10:10:38Z</time>
      </trkpt>
      <trkpt lat="48.31924" lon="2.08962">
        <ele>101.08</ele>
        <time>2020-09-26T10:10:50Z</time>
      </trkpt>
      <trkpt lat="48.31927" lon="2.08959">
        <ele>101.08</ele>
        <time>2020-09-26T10:11:02Z</time>
      </trkpt>
      <trkpt lat="48.31924" lon="2.08964">
        <ele>101.08</ele>
        <time>2020-09-26T10:11:18Z</time>
      </trkpt>
      <trkpt lat="48.31928" lon="2.08957">
        <ele>101.08</ele>
        <time>2020-09-26T10:11:42Z</time>
      </trkpt>
      <trkpt lat="48.31929" lon="2.0895">
        <ele>100.11</ele>
        <time>2020-09-26T10:11:48Z</time>
      </trkpt>
      <trkpt lat="48.31933" lon="2.08948">
        <ele>101.08</ele>
        <time>2020-09-26T10:12:04Z</time>
      </trkpt>
      <trkpt lat="48.31934" lon="2.08947">
        <ele>102.04</ele>
        <time>2020-09-26T10:12:21Z</time>
      </trkpt>
      <trkpt lat="48.3194" lon="2.08941">
        <ele>101.56</ele>
        <time>2020-09-26T10:12:34Z</time>
      </trkpt>
      <trkpt lat="48.31938" lon="2.08938">
        <ele>101.56</ele>
        <time>2020-09-26T10:12:44Z</time>
      </trkpt>
      <trkpt lat="48.31938" lon="2.08935">
        <ele>101.56</ele>
        <time>2020-09-26T10:12:54Z</time>
      </trkpt>
      <trkpt lat="48.31937" lon="2.08935">
        <ele>100.6</ele>
        <time>2020-09-26T10:13:03Z</time>
      </trkpt>
      <trkpt lat="48.3194" lon="2.08937">
        <ele>101.56</ele>
        <time>2020-09-26T10:13:19Z</time>
      </trkpt>
      <trkpt lat="48.31939" lon="2.08936">
        <ele>101.08</ele>
        <time>2020-09-26T10:13:35Z</time>
      </trkpt>
      <trkpt lat="48.31937" lon="2.08945">
        <ele>101.08</ele>
        <time>2020-09-26T10:13:47Z</time>
      </trkpt>
      <trkpt lat="48.31937" lon="2.08952">
        <ele>100.6</ele>
        <time>2020-09-26T10:14:00Z</time>
      </trkpt>
      <trkpt lat="48.31937" lon="2.08949">
        <ele>101.56</ele>
        <time>2020-09-26T10:14:24Z</time>
      </trkpt>
      <trkpt lat="48.3193" lon="2.08949">
        <ele>100.6</ele>
        <time>2020-09-26T10:14:38Z</time>
      </trkpt>
      <trkpt lat="48.31931" lon="2.08947">
        <ele>101.08</ele>
        <time>2020-09-26T10:14:45Z</time>
      </trkpt>
      <trkpt lat="48.31929" lon="2.08947">
        <ele>98.19</ele>
        <time>2020-09-26T10:18:26Z</time>
      </trkpt>
      <trkpt lat="48.31948" lon="2.08867">
        <ele>97.71</ele>
        <time>2020-09-26T10:18:39Z</time>
      </trkpt>
      <trkpt lat="48.31948" lon="2.08868">
        <ele>98.19</ele>
        <time>2020-09-26T10:18:57Z</time>
      </trkpt>
      <trkpt lat="48.31952" lon="2.08865">
        <ele>97.71</ele>
        <time>2020-09-26T10:19:10Z</time>
      </trkpt>
      <trkpt lat="48.31957" lon="2.0886">
        <ele>97.71</ele>
        <time>2020-09-26T10:19:23Z</time>
      </trkpt>
      <trkpt lat="48.31965" lon="2.08843">
        <ele>95.79</ele>
        <time>2020-09-26T10:19:33Z</time>
      </trkpt>
      <trkpt lat="48.31973" lon="2.0883">
        <ele>94.83</ele>
        <time>2020-09-26T10:19:44Z</time>
      </trkpt>
      <trkpt lat="48.31976" lon="2.08834">
        <ele>95.31</ele>
        <time>2020-09-26T10:19:48Z</time>
      </trkpt>
      <trkpt lat="48.31985" lon="2.08849">
        <ele>95.31</ele>
        <time>2020-09-26T10:20:00Z</time>
      </trkpt>
      <trkpt lat="48.31992" lon="2.08855">
        <ele>95.79</ele>
        <time>2020-09-26T10:20:12Z</time>
      </trkpt>
      <trkpt lat="48.31993" lon="2.08856">
        <ele>95.79</ele>
        <time>2020-09-26T10:20:14Z</time>
      </trkpt>
      <trkpt lat="48.31999" lon="2.0886">
        <ele>96.27</ele>
        <time>2020-09-26T10:20:20Z</time>
      </trkpt>
      <trkpt lat="48.32003" lon="2.08861">
        <ele>95.79</ele>
        <time>2020-09-26T10:20:32Z</time>
      </trkpt>
      <trkpt lat="48.32007" lon="2.08861">
        <ele>96.27</ele>
        <time>2020-09-26T10:20:44Z</time>
      </trkpt>
      <trkpt lat="48.32006" lon="2.08865">
        <ele>96.75</ele>
        <time>2020-09-26T10:20:57Z</time>
      </trkpt>
      <trkpt lat="48.32006" lon="2.08866">
        <ele>96.27</ele>
        <time>2020-09-26T10:21:10Z</time>
      </trkpt>
      <trkpt lat="48.32005" lon="2.08869">
        <ele>96.75</ele>
        <time>2020-09-26T10:21:24Z</time>
      </trkpt>
      <trkpt lat="48.32005" lon="2.08862">
        <ele>96.27</ele>
        <time>2020-09-26T10:21:44Z</time>
      </trkpt>
      <trkpt lat="48.32003" lon="2.08861">
        <ele>96.75</ele>
        <time>2020-09-26T10:21:49Z</time>
      </trkpt>
      <trkpt lat="48.31996" lon="2.08855">
        <ele>96.75</ele>
        <time>2020-09-26T10:22:00Z</time>
      </trkpt>
      <trkpt lat="48.31995" lon="2.08854">
        <ele>96.75</ele>
        <time>2020-09-26T10:22:02Z</time>
      </trkpt>
      <trkpt lat="48.31994" lon="2.08853">
        <ele>96.27</ele>
        <time>2020-09-26T10:22:03Z</time>
      </trkpt>
      <trkpt lat="48.31989" lon="2.08847">
        <ele>95.79</ele>
        <time>2020-09-26T10:22:09Z</time>
      </trkpt>
      <trkpt lat="48.31986" lon="2.08842">
        <ele>95.31</ele>
        <time>2020-09-26T10:22:21Z</time>
      </trkpt>
      <trkpt lat="48.31982" lon="2.08838">
        <ele>95.31</ele>
        <time>2020-09-26T10:22:31Z</time>
      </trkpt>
      <trkpt lat="48.31979" lon="2.08835">
        <ele>94.83</ele>
        <time>2020-09-26T10:22:34Z</time>
      </trkpt>
      <trkpt lat="48.31978" lon="2.08832">
        <ele>94.35</ele>
        <time>2020-09-26T10:22:36Z</time>
      </trkpt>
      <trkpt lat="48.31977" lon="2.0883">
        <ele>95.31</ele>
        <time>2020-09-26T10:22:37Z</time>
      </trkpt>
      <trkpt lat="48.31968" lon="2.08813">
        <ele>94.83</ele>
        <time>2020-09-26T10:22:49Z</time>
      </trkpt>
      <trkpt lat="48.31967" lon="2.0881">
        <ele>94.35</ele>
        <time>2020-09-26T10:22:51Z</time>
      </trkpt>
      <trkpt lat="48.31965" lon="2.0881">
        <ele>95.31</ele>
        <time>2020-09-26T10:22:52Z</time>
      </trkpt>
      <trkpt lat="48.31964" lon="2.08809">
        <ele>94.83</ele>
        <time>2020-09-26T10:22:53Z</time>
      </trkpt>
      <trkpt lat="48.31962" lon="2.08809">
        <ele>95.79</ele>
        <time>2020-09-26T10:22:58Z</time>
      </trkpt>
      <trkpt lat="48.31947" lon="2.08797">
        <ele>93.39</ele>
        <time>2020-09-26T10:23:12Z</time>
      </trkpt>
      <trkpt lat="48.31945" lon="2.08796">
        <ele>94.83</ele>
        <time>2020-09-26T10:23:14Z</time>
      </trkpt>
      <trkpt lat="48.31922" lon="2.08786">
        <ele>93.87</ele>
        <time>2020-09-26T10:23:33Z</time>
      </trkpt>
      <trkpt lat="48.31905" lon="2.08782">
        <ele>94.83</ele>
        <time>2020-09-26T10:23:47Z</time>
      </trkpt>
      <trkpt lat="48.31899" lon="2.08779">
        <ele>92.9</ele>
        <time>2020-09-26T10:23:55Z</time>
      </trkpt>
      <trkpt lat="48.31891" lon="2.08757">
        <ele>92.9</ele>
        <time>2020-09-26T10:24:10Z</time>
      </trkpt>
      <trkpt lat="48.31891" lon="2.08756">
        <ele>92.42</ele>
        <time>2020-09-26T10:24:11Z</time>
      </trkpt>
      <trkpt lat="48.31891" lon="2.08754">
        <ele>92.9</ele>
        <time>2020-09-26T10:24:12Z</time>
      </trkpt>
      <trkpt lat="48.31892" lon="2.08752">
        <ele>92.42</ele>
        <time>2020-09-26T10:24:13Z</time>
      </trkpt>
      <trkpt lat="48.31892" lon="2.08749">
        <ele>92.42</ele>
        <time>2020-09-26T10:24:14Z</time>
      </trkpt>
      <trkpt lat="48.31891" lon="2.08746">
        <ele>92.9</ele>
        <time>2020-09-26T10:24:15Z</time>
      </trkpt>
      <trkpt lat="48.31891" lon="2.08744">
        <ele>92.42</ele>
        <time>2020-09-26T10:24:16Z</time>
      </trkpt>
      <trkpt lat="48.31887" lon="2.08724">
        <ele>92.42</ele>
        <time>2020-09-26T10:24:29Z</time>
      </trkpt>
      <trkpt lat="48.31886" lon="2.08719">
        <ele>92.42</ele>
        <time>2020-09-26T10:24:32Z</time>
      </trkpt>
      <trkpt lat="48.31883" lon="2.08693">
        <ele>92.42</ele>
        <time>2020-09-26T10:24:46Z</time>
      </trkpt>
      <trkpt lat="48.31883" lon="2.08691">
        <ele>92.42</ele>
        <time>2020-09-26T10:24:47Z</time>
      </trkpt>
      <trkpt lat="48.31883" lon="2.0869">
        <ele>92.42</ele>
        <time>2020-09-26T10:24:48Z</time>
      </trkpt>
      <trkpt lat="48.31883" lon="2.08684">
        <ele>92.42</ele>
        <time>2020-09-26T10:24:52Z</time>
      </trkpt>
      <trkpt lat="48.31883" lon="2.08683">
        <ele>92.42</ele>
        <time>2020-09-26T10:24:53Z</time>
      </trkpt>
      <trkpt lat="48.31883" lon="2.08681">
        <ele>92.42</ele>
        <time>2020-09-26T10:24:54Z</time>
      </trkpt>
      <trkpt lat="48.31883" lon="2.0868">
        <ele>92.42</ele>
        <time>2020-09-26T10:24:55Z</time>
      </trkpt>
      <trkpt lat="48.31882" lon="2.08678">
        <ele>92.42</ele>
        <time>2020-09-26T10:24:56Z</time>
      </trkpt>
      <trkpt lat="48.31879" lon="2.08661">
        <ele>92.42</ele>
        <time>2020-09-26T10:25:07Z</time>
      </trkpt>
      <trkpt lat="48.31876" lon="2.08646">
        <ele>92.9</ele>
        <time>2020-09-26T10:25:15Z</time>
      </trkpt>
      <trkpt lat="48.31875" lon="2.08643">
        <ele>92.9</ele>
        <time>2020-09-26T10:25:16Z</time>
      </trkpt>
      <trkpt lat="48.31874" lon="2.08634">
        <ele>92.9</ele>
        <time>2020-09-26T10:25:21Z</time>
      </trkpt>
      <trkpt lat="48.31874" lon="2.08613">
        <ele>92.9</ele>
        <time>2020-09-26T10:25:32Z</time>
      </trkpt>
      <trkpt lat="48.31871" lon="2.08602">
        <ele>93.87</ele>
        <time>2020-09-26T10:25:39Z</time>
      </trkpt>
      <trkpt lat="48.31865" lon="2.08571">
        <ele>94.35</ele>
        <time>2020-09-26T10:25:54Z</time>
      </trkpt>
      <trkpt lat="48.31865" lon="2.08566">
        <ele>94.35</ele>
        <time>2020-09-26T10:25:57Z</time>
      </trkpt>
      <trkpt lat="48.31866" lon="2.08548">
        <ele>95.31</ele>
        <time>2020-09-26T10:26:12Z</time>
      </trkpt>
      <trkpt lat="48.31871" lon="2.08546">
        <ele>95.31</ele>
        <time>2020-09-26T10:26:16Z</time>
      </trkpt>
      <trkpt lat="48.31882" lon="2.0855">
        <ele>97.23</ele>
        <time>2020-09-26T10:26:25Z</time>
      </trkpt>
      <trkpt lat="48.31895" lon="2.08547">
        <ele>97.71</ele>
        <time>2020-09-26T10:26:39Z</time>
      </trkpt>
      <trkpt lat="48.31912" lon="2.08543">
        <ele>99.15</ele>
        <time>2020-09-26T10:26:54Z</time>
      </trkpt>
      <trkpt lat="48.31935" lon="2.08542">
        <ele>100.11</ele>
        <time>2020-09-26T10:27:10Z</time>
      </trkpt>
      <trkpt lat="48.31936" lon="2.08542">
        <ele>100.6</ele>
        <time>2020-09-26T10:27:11Z</time>
      </trkpt>
      <trkpt lat="48.31951" lon="2.08538">
        <ele>101.08</ele>
        <time>2020-09-26T10:27:25Z</time>
      </trkpt>
      <trkpt lat="48.31964" lon="2.08532">
        <ele>102.52</ele>
        <time>2020-09-26T10:27:43Z</time>
      </trkpt>
      <trkpt lat="48.31982" lon="2.08523">
        <ele>104.44</ele>
        <time>2020-09-26T10:28:01Z</time>
      </trkpt>
      <trkpt lat="48.31999" lon="2.08521">
        <ele>104.44</ele>
        <time>2020-09-26T10:28:15Z</time>
      </trkpt>
      <trkpt lat="48.32018" lon="2.08512">
        <ele>106.36</ele>
        <time>2020-09-26T10:28:29Z</time>
      </trkpt>
      <trkpt lat="48.32028" lon="2.08522">
        <ele>107.32</ele>
        <time>2020-09-26T10:28:37Z</time>
      </trkpt>
      <trkpt lat="48.32029" lon="2.08522">
        <ele>107.81</ele>
        <time>2020-09-26T10:28:38Z</time>
      </trkpt>
      <trkpt lat="48.32046" lon="2.08526">
        <ele>108.77</ele>
        <time>2020-09-26T10:28:54Z</time>
      </trkpt>
      <trkpt lat="48.32061" lon="2.08534">
        <ele>109.25</ele>
        <time>2020-09-26T10:29:09Z</time>
      </trkpt>
      <trkpt lat="48.32077" lon="2.0854">
        <ele>110.69</ele>
        <time>2020-09-26T10:29:22Z</time>
      </trkpt>
      <trkpt lat="48.32093" lon="2.08537">
        <ele>112.13</ele>
        <time>2020-09-26T10:29:35Z</time>
      </trkpt>
      <trkpt lat="48.32106" lon="2.08535">
        <ele>113.57</ele>
        <time>2020-09-26T10:29:49Z</time>
      </trkpt>
      <trkpt lat="48.3212" lon="2.08537">
        <ele>115.98</ele>
        <time>2020-09-26T10:30:02Z</time>
      </trkpt>
      <trkpt lat="48.32132" lon="2.08539">
        <ele>117.42</ele>
        <time>2020-09-26T10:30:15Z</time>
      </trkpt>
      <trkpt lat="48.32145" lon="2.0854">
        <ele>118.38</ele>
        <time>2020-09-26T10:30:29Z</time>
      </trkpt>
      <trkpt lat="48.32152" lon="2.0854">
        <ele>118.86</ele>
        <time>2020-09-26T10:30:36Z</time>
      </trkpt>
      <trkpt lat="48.32164" lon="2.08543">
        <ele>120.78</ele>
        <time>2020-09-26T10:30:49Z</time>
      </trkpt>
      <trkpt lat="48.32176" lon="2.08543">
        <ele>122.22</ele>
        <time>2020-09-26T10:31:01Z</time>
      </trkpt>
      <trkpt lat="48.32188" lon="2.08549">
        <ele>122.22</ele>
        <time>2020-09-26T10:31:09Z</time>
      </trkpt>
      <trkpt lat="48.32189" lon="2.0855">
        <ele>123.19</ele>
        <time>2020-09-26T10:31:10Z</time>
      </trkpt>
      <trkpt lat="48.3219" lon="2.08551">
        <ele>123.19</ele>
        <time>2020-09-26T10:31:11Z</time>
      </trkpt>
      <trkpt lat="48.32196" lon="2.08557">
        <ele>124.15</ele>
        <time>2020-09-26T10:31:13Z</time>
      </trkpt>
      <trkpt lat="48.32212" lon="2.08567">
        <ele>122.22</ele>
        <time>2020-09-26T10:31:26Z</time>
      </trkpt>
      <trkpt lat="48.32214" lon="2.08569">
        <ele>123.67</ele>
        <time>2020-09-26T10:31:28Z</time>
      </trkpt>
      <trkpt lat="48.32216" lon="2.0857">
        <ele>123.67</ele>
        <time>2020-09-26T10:31:29Z</time>
      </trkpt>
      <trkpt lat="48.32217" lon="2.0857">
        <ele>123.19</ele>
        <time>2020-09-26T10:31:30Z</time>
      </trkpt>
      <trkpt lat="48.32218" lon="2.08571">
        <ele>122.22</ele>
        <time>2020-09-26T10:31:31Z</time>
      </trkpt>
      <trkpt lat="48.32219" lon="2.08571">
        <ele>122.22</ele>
        <time>2020-09-26T10:31:32Z</time>
      </trkpt>
      <trkpt lat="48.32227" lon="2.08575">
        <ele>123.19</ele>
        <time>2020-09-26T10:31:40Z</time>
      </trkpt>
      <trkpt lat="48.3223" lon="2.08577">
        <ele>125.59</ele>
        <time>2020-09-26T10:31:42Z</time>
      </trkpt>
      <trkpt lat="48.32242" lon="2.08587">
        <ele>126.55</ele>
        <time>2020-09-26T10:31:56Z</time>
      </trkpt>
      <trkpt lat="48.32242" lon="2.08587">
        <ele>126.55</ele>
        <time>2020-09-26T10:31:57Z</time>
      </trkpt>
      <trkpt lat="48.32245" lon="2.08589">
        <ele>126.55</ele>
        <time>2020-09-26T10:32:00Z</time>
      </trkpt>
      <trkpt lat="48.32246" lon="2.08589">
        <ele>127.03</ele>
        <time>2020-09-26T10:32:01Z</time>
      </trkpt>
      <trkpt lat="48.32261" lon="2.086">
        <ele>127.51</ele>
        <time>2020-09-26T10:32:16Z</time>
      </trkpt>
      <trkpt lat="48.32269" lon="2.08603">
        <ele>126.55</ele>
        <time>2020-09-26T10:32:23Z</time>
      </trkpt>
      <trkpt lat="48.32272" lon="2.08605">
        <ele>127.99</ele>
        <time>2020-09-26T10:32:26Z</time>
      </trkpt>
      <trkpt lat="48.32287" lon="2.08615">
        <ele>128.95</ele>
        <time>2020-09-26T10:32:39Z</time>
      </trkpt>
      <trkpt lat="48.32293" lon="2.08619">
        <ele>128.47</ele>
        <time>2020-09-26T10:32:45Z</time>
      </trkpt>
      <trkpt lat="48.32294" lon="2.0862">
        <ele>127.99</ele>
        <time>2020-09-26T10:32:46Z</time>
      </trkpt>
      <trkpt lat="48.32295" lon="2.08621">
        <ele>128.47</ele>
        <time>2020-09-26T10:32:47Z</time>
      </trkpt>
      <trkpt lat="48.32303" lon="2.08626">
        <ele>128.95</ele>
        <time>2020-09-26T10:32:55Z</time>
      </trkpt>
      <trkpt lat="48.32306" lon="2.08628">
        <ele>128.47</ele>
        <time>2020-09-26T10:32:58Z</time>
      </trkpt>
      <trkpt lat="48.32307" lon="2.08628">
        <ele>128.95</ele>
        <time>2020-09-26T10:32:59Z</time>
      </trkpt>
      <trkpt lat="48.32323" lon="2.08635">
        <ele>128.47</ele>
        <time>2020-09-26T10:33:13Z</time>
      </trkpt>
      <trkpt lat="48.32323" lon="2.08637">
        <ele>128.95</ele>
        <time>2020-09-26T10:33:14Z</time>
      </trkpt>
      <trkpt lat="48.32324" lon="2.08638">
        <ele>128.95</ele>
        <time>2020-09-26T10:33:15Z</time>
      </trkpt>
      <trkpt lat="48.32326" lon="2.08639">
        <ele>128.95</ele>
        <time>2020-09-26T10:33:16Z</time>
      </trkpt>
      <trkpt lat="48.32329" lon="2.08641">
        <ele>129.43</ele>
        <time>2020-09-26T10:33:26Z</time>
      </trkpt>
      <trkpt lat="48.32329" lon="2.08641">
        <ele>130.4</ele>
        <time>2020-09-26T10:33:49Z</time>
      </trkpt>
      <trkpt lat="48.32331" lon="2.08655">
        <ele>129.92</ele>
        <time>2020-09-26T10:34:02Z</time>
      </trkpt>
      <trkpt lat="48.32334" lon="2.0866">
        <ele>130.88</ele>
        <time>2020-09-26T10:34:11Z</time>
      </trkpt>
      <trkpt lat="48.32339" lon="2.08693">
        <ele>129.92</ele>
        <time>2020-09-26T10:34:28Z</time>
      </trkpt>
      <trkpt lat="48.32345" lon="2.08714">
        <ele>129.43</ele>
        <time>2020-09-26T10:34:41Z</time>
      </trkpt>
      <trkpt lat="48.32349" lon="2.08735">
        <ele>128.95</ele>
        <time>2020-09-26T10:34:54Z</time>
      </trkpt>
      <trkpt lat="48.32352" lon="2.08755">
        <ele>128.95</ele>
        <time>2020-09-26T10:35:04Z</time>
      </trkpt>
      <trkpt lat="48.32356" lon="2.08778">
        <ele>128.95</ele>
        <time>2020-09-26T10:35:18Z</time>
      </trkpt>
      <trkpt lat="48.32361" lon="2.08805">
        <ele>128.47</ele>
        <time>2020-09-26T10:35:34Z</time>
      </trkpt>
      <trkpt lat="48.32366" lon="2.08833">
        <ele>127.99</ele>
        <time>2020-09-26T10:35:48Z</time>
      </trkpt>
      <trkpt lat="48.32372" lon="2.08859">
        <ele>127.51</ele>
        <time>2020-09-26T10:36:01Z</time>
      </trkpt>
      <trkpt lat="48.32377" lon="2.08884">
        <ele>127.99</ele>
        <time>2020-09-26T10:36:15Z</time>
      </trkpt>
      <trkpt lat="48.32382" lon="2.08903">
        <ele>127.99</ele>
        <time>2020-09-26T10:36:27Z</time>
      </trkpt>
      <trkpt lat="48.32384" lon="2.08906">
        <ele>127.99</ele>
        <time>2020-09-26T10:36:29Z</time>
      </trkpt>
      <trkpt lat="48.32387" lon="2.08922">
        <ele>127.03</ele>
        <time>2020-09-26T10:36:39Z</time>
      </trkpt>
      <trkpt lat="48.32394" lon="2.08944">
        <ele>125.11</ele>
        <time>2020-09-26T10:36:51Z</time>
      </trkpt>
      <trkpt lat="48.32398" lon="2.08953">
        <ele>125.59</ele>
        <time>2020-09-26T10:36:57Z</time>
      </trkpt>
      <trkpt lat="48.32399" lon="2.08954">
        <ele>125.59</ele>
        <time>2020-09-26T10:36:58Z</time>
      </trkpt>
      <trkpt lat="48.32401" lon="2.08958">
        <ele>126.07</ele>
        <time>2020-09-26T10:37:01Z</time>
      </trkpt>
      <trkpt lat="48.32401" lon="2.0896">
        <ele>126.07</ele>
        <time>2020-09-26T10:37:02Z</time>
      </trkpt>
      <trkpt lat="48.32402" lon="2.08962">
        <ele>126.07</ele>
        <time>2020-09-26T10:37:03Z</time>
      </trkpt>
      <trkpt lat="48.32409" lon="2.08984">
        <ele>126.55</ele>
        <time>2020-09-26T10:37:17Z</time>
      </trkpt>
      <trkpt lat="48.32409" lon="2.08989">
        <ele>127.03</ele>
        <time>2020-09-26T10:37:21Z</time>
      </trkpt>
      <trkpt lat="48.32402" lon="2.09007">
        <ele>127.03</ele>
        <time>2020-09-26T10:37:32Z</time>
      </trkpt>
      <trkpt lat="48.32393" lon="2.09036">
        <ele>126.55</ele>
        <time>2020-09-26T10:37:49Z</time>
      </trkpt>
      <trkpt lat="48.32385" lon="2.09061">
        <ele>125.59</ele>
        <time>2020-09-26T10:38:03Z</time>
      </trkpt>
      <trkpt lat="48.3238" lon="2.09074">
        <ele>125.11</ele>
        <time>2020-09-26T10:38:11Z</time>
      </trkpt>
      <trkpt lat="48.32372" lon="2.09097">
        <ele>124.15</ele>
        <time>2020-09-26T10:38:25Z</time>
      </trkpt>
      <trkpt lat="48.32369" lon="2.09104">
        <ele>124.63</ele>
        <time>2020-09-26T10:38:31Z</time>
      </trkpt>
      <trkpt lat="48.32368" lon="2.09108">
        <ele>124.15</ele>
        <time>2020-09-26T10:38:33Z</time>
      </trkpt>
      <trkpt lat="48.32361" lon="2.09125">
        <ele>123.19</ele>
        <time>2020-09-26T10:38:44Z</time>
      </trkpt>
      <trkpt lat="48.3236" lon="2.09128">
        <ele>122.71</ele>
        <time>2020-09-26T10:38:45Z</time>
      </trkpt>
      <trkpt lat="48.32352" lon="2.09143">
        <ele>121.74</ele>
        <time>2020-09-26T10:38:57Z</time>
      </trkpt>
      <trkpt lat="48.32346" lon="2.0916">
        <ele>120.78</ele>
        <time>2020-09-26T10:39:07Z</time>
      </trkpt>
      <trkpt lat="48.3234" lon="2.09177">
        <ele>120.3</ele>
        <time>2020-09-26T10:39:18Z</time>
      </trkpt>
      <trkpt lat="48.32338" lon="2.09181">
        <ele>120.3</ele>
        <time>2020-09-26T10:39:20Z</time>
      </trkpt>
      <trkpt lat="48.32337" lon="2.09183">
        <ele>119.82</ele>
        <time>2020-09-26T10:39:21Z</time>
      </trkpt>
      <trkpt lat="48.32336" lon="2.09189">
        <ele>119.82</ele>
        <time>2020-09-26T10:39:23Z</time>
      </trkpt>
      <trkpt lat="48.32335" lon="2.09191">
        <ele>119.82</ele>
        <time>2020-09-26T10:39:24Z</time>
      </trkpt>
      <trkpt lat="48.3233" lon="2.09209">
        <ele>118.38</ele>
        <time>2020-09-26T10:39:35Z</time>
      </trkpt>
      <trkpt lat="48.32325" lon="2.09228">
        <ele>116.46</ele>
        <time>2020-09-26T10:39:47Z</time>
      </trkpt>
      <trkpt lat="48.32325" lon="2.0923">
        <ele>116.94</ele>
        <time>2020-09-26T10:39:48Z</time>
      </trkpt>
      <trkpt lat="48.32327" lon="2.0925">
        <ele>115.5</ele>
        <time>2020-09-26T10:40:01Z</time>
      </trkpt>
      <trkpt lat="48.32328" lon="2.09255">
        <ele>115.01</ele>
        <time>2020-09-26T10:40:28Z</time>
      </trkpt>
      <trkpt lat="48.3233" lon="2.09253">
        <ele>114.05</ele>
        <time>2020-09-26T10:41:27Z</time>
      </trkpt>
      <trkpt lat="48.32331" lon="2.09253">
        <ele>113.57</ele>
        <time>2020-09-26T10:41:28Z</time>
      </trkpt>
      <trkpt lat="48.32337" lon="2.09254">
        <ele>113.09</ele>
        <time>2020-09-26T10:41:35Z</time>
      </trkpt>
      <trkpt lat="48.32343" lon="2.09253">
        <ele>113.09</ele>
        <time>2020-09-26T10:41:47Z</time>
      </trkpt>
      <trkpt lat="48.32351" lon="2.09255">
        <ele>112.61</ele>
        <time>2020-09-26T10:41:53Z</time>
      </trkpt>
      <trkpt lat="48.32354" lon="2.09255">
        <ele>112.13</ele>
        <time>2020-09-26T10:41:55Z</time>
      </trkpt>
      <trkpt lat="48.32373" lon="2.09264">
        <ele>110.69</ele>
        <time>2020-09-26T10:42:09Z</time>
      </trkpt>
      <trkpt lat="48.32383" lon="2.09266">
        <ele>110.21</ele>
        <time>2020-09-26T10:42:22Z</time>
      </trkpt>
      <trkpt lat="48.32394" lon="2.09267">
        <ele>110.21</ele>
        <time>2020-09-26T10:42:29Z</time>
      </trkpt>
      <trkpt lat="48.32396" lon="2.09267">
        <ele>110.69</ele>
        <time>2020-09-26T10:42:30Z</time>
      </trkpt>
      <trkpt lat="48.32414" lon="2.09269">
        <ele>109.25</ele>
        <time>2020-09-26T10:42:44Z</time>
      </trkpt>
      <trkpt lat="48.32427" lon="2.09275">
        <ele>108.29</ele>
        <time>2020-09-26T10:42:56Z</time>
      </trkpt>
      <trkpt lat="48.32432" lon="2.09277">
        <ele>108.29</ele>
        <time>2020-09-26T10:43:01Z</time>
      </trkpt>
      <trkpt lat="48.32434" lon="2.09278">
        <ele>107.81</ele>
        <time>2020-09-26T10:43:02Z</time>
      </trkpt>
      <trkpt lat="48.32447" lon="2.09278">
        <ele>107.81</ele>
        <time>2020-09-26T10:43:13Z</time>
      </trkpt>
      <trkpt lat="48.32448" lon="2.09277">
        <ele>107.32</ele>
        <time>2020-09-26T10:43:14Z</time>
      </trkpt>
      <trkpt lat="48.3245" lon="2.09278">
        <ele>107.32</ele>
        <time>2020-09-26T10:43:15Z</time>
      </trkpt>
      <trkpt lat="48.32462" lon="2.0928">
        <ele>107.32</ele>
        <time>2020-09-26T10:43:26Z</time>
      </trkpt>
      <trkpt lat="48.32464" lon="2.0928">
        <ele>107.81</ele>
        <time>2020-09-26T10:43:27Z</time>
      </trkpt>
      <trkpt lat="48.32465" lon="2.0928">
        <ele>107.32</ele>
        <time>2020-09-26T10:43:28Z</time>
      </trkpt>
      <trkpt lat="48.32466" lon="2.0928">
        <ele>107.32</ele>
        <time>2020-09-26T10:43:29Z</time>
      </trkpt>
      <trkpt lat="48.3248" lon="2.09283">
        <ele>106.36</ele>
        <time>2020-09-26T10:43:42Z</time>
      </trkpt>
      <trkpt lat="48.3249" lon="2.09288">
        <ele>106.36</ele>
        <time>2020-09-26T10:43:49Z</time>
      </trkpt>
      <trkpt lat="48.32503" lon="2.09293">
        <ele>106.36</ele>
        <time>2020-09-26T10:44:04Z</time>
      </trkpt>
      <trkpt lat="48.32521" lon="2.09293">
        <ele>105.88</ele>
        <time>2020-09-26T10:44:19Z</time>
      </trkpt>
      <trkpt lat="48.32526" lon="2.09291">
        <ele>106.84</ele>
        <time>2020-09-26T10:44:24Z</time>
      </trkpt>
      <trkpt lat="48.32541" lon="2.0929">
        <ele>106.84</ele>
        <time>2020-09-26T10:44:37Z</time>
      </trkpt>
      <trkpt lat="48.32554" lon="2.09293">
        <ele>107.32</ele>
        <time>2020-09-26T10:44:50Z</time>
      </trkpt>
      <trkpt lat="48.32557" lon="2.09293">
        <ele>107.32</ele>
        <time>2020-09-26T10:44:52Z</time>
      </trkpt>
      <trkpt lat="48.32559" lon="2.09293">
        <ele>107.32</ele>
        <time>2020-09-26T10:44:53Z</time>
      </trkpt>
      <trkpt lat="48.32561" lon="2.09293">
        <ele>107.32</ele>
        <time>2020-09-26T10:44:54Z</time>
      </trkpt>
      <trkpt lat="48.32573" lon="2.09292">
        <ele>107.81</ele>
        <time>2020-09-26T10:45:05Z</time>
      </trkpt>
      <trkpt lat="48.32574" lon="2.09292">
        <ele>107.81</ele>
        <time>2020-09-26T10:45:06Z</time>
      </trkpt>
      <trkpt lat="48.32576" lon="2.09293">
        <ele>108.29</ele>
        <time>2020-09-26T10:45:08Z</time>
      </trkpt>
      <trkpt lat="48.32591" lon="2.0929">
        <ele>109.25</ele>
        <time>2020-09-26T10:45:22Z</time>
      </trkpt>
      <trkpt lat="48.32607" lon="2.09285">
        <ele>110.21</ele>
        <time>2020-09-26T10:45:39Z</time>
      </trkpt>
      <trkpt lat="48.3263" lon="2.09279">
        <ele>111.17</ele>
        <time>2020-09-26T10:45:57Z</time>
      </trkpt>
      <trkpt lat="48.32635" lon="2.0928">
        <ele>111.17</ele>
        <time>2020-09-26T10:45:59Z</time>
      </trkpt>
      <trkpt lat="48.32652" lon="2.09284">
        <ele>111.17</ele>
        <time>2020-09-26T10:46:13Z</time>
      </trkpt>
      <trkpt lat="48.32665" lon="2.09289">
        <ele>110.69</ele>
        <time>2020-09-26T10:46:25Z</time>
      </trkpt>
      <trkpt lat="48.32684" lon="2.09294">
        <ele>109.25</ele>
        <time>2020-09-26T10:46:40Z</time>
      </trkpt>
      <trkpt lat="48.32687" lon="2.09295">
        <ele>109.25</ele>
        <time>2020-09-26T10:46:43Z</time>
      </trkpt>
      <trkpt lat="48.32708" lon="2.09296">
        <ele>108.77</ele>
        <time>2020-09-26T10:47:00Z</time>
      </trkpt>
      <trkpt lat="48.32709" lon="2.09296">
        <ele>109.25</ele>
        <time>2020-09-26T10:47:01Z</time>
      </trkpt>
      <trkpt lat="48.32724" lon="2.09297">
        <ele>107.81</ele>
        <time>2020-09-26T10:47:17Z</time>
      </trkpt>
      <trkpt lat="48.32727" lon="2.09297">
        <ele>108.29</ele>
        <time>2020-09-26T10:47:19Z</time>
      </trkpt>
      <trkpt lat="48.32748" lon="2.09304">
        <ele>106.84</ele>
        <time>2020-09-26T10:47:36Z</time>
      </trkpt>
      <trkpt lat="48.32755" lon="2.09305">
        <ele>106.84</ele>
        <time>2020-09-26T10:47:43Z</time>
      </trkpt>
      <trkpt lat="48.32756" lon="2.09305">
        <ele>106.84</ele>
        <time>2020-09-26T10:47:44Z</time>
      </trkpt>
      <trkpt lat="48.32778" lon="2.09312">
        <ele>107.32</ele>
        <time>2020-09-26T10:48:01Z</time>
      </trkpt>
      <trkpt lat="48.32808" lon="2.09323">
        <ele>107.81</ele>
        <time>2020-09-26T10:48:22Z</time>
      </trkpt>
      <trkpt lat="48.32831" lon="2.09328">
        <ele>108.29</ele>
        <time>2020-09-26T10:48:43Z</time>
      </trkpt>
      <trkpt lat="48.32851" lon="2.09341">
        <ele>108.77</ele>
        <time>2020-09-26T10:49:04Z</time>
      </trkpt>
      <trkpt lat="48.32869" lon="2.09355">
        <ele>109.25</ele>
        <time>2020-09-26T10:49:20Z</time>
      </trkpt>
      <trkpt lat="48.3287" lon="2.09355">
        <ele>109.73</ele>
        <time>2020-09-26T10:49:21Z</time>
      </trkpt>
      <trkpt lat="48.3288" lon="2.09359">
        <ele>109.73</ele>
        <time>2020-09-26T10:49:31Z</time>
      </trkpt>
      <trkpt lat="48.32885" lon="2.09359">
        <ele>110.21</ele>
        <time>2020-09-26T10:49:34Z</time>
      </trkpt>
      <trkpt lat="48.32888" lon="2.09361">
        <ele>110.21</ele>
        <time>2020-09-26T10:49:38Z</time>
      </trkpt>
      <trkpt lat="48.32889" lon="2.09361">
        <ele>109.73</ele>
        <time>2020-09-26T10:49:39Z</time>
      </trkpt>
      <trkpt lat="48.32891" lon="2.09361">
        <ele>110.69</ele>
        <time>2020-09-26T10:49:40Z</time>
      </trkpt>
      <trkpt lat="48.32898" lon="2.09361">
        <ele>110.69</ele>
        <time>2020-09-26T10:49:46Z</time>
      </trkpt>
      <trkpt lat="48.32912" lon="2.09371">
        <ele>109.73</ele>
        <time>2020-09-26T10:49:58Z</time>
      </trkpt>
      <trkpt lat="48.32914" lon="2.09371">
        <ele>110.21</ele>
        <time>2020-09-26T10:50:00Z</time>
      </trkpt>
      <trkpt lat="48.32915" lon="2.09371">
        <ele>109.73</ele>
        <time>2020-09-26T10:50:01Z</time>
      </trkpt>
      <trkpt lat="48.3292" lon="2.09372">
        <ele>109.73</ele>
        <time>2020-09-26T10:50:05Z</time>
      </trkpt>
      <trkpt lat="48.32922" lon="2.09374">
        <ele>109.25</ele>
        <time>2020-09-26T10:50:06Z</time>
      </trkpt>
      <trkpt lat="48.32936" lon="2.09383">
        <ele>108.77</ele>
        <time>2020-09-26T10:50:18Z</time>
      </trkpt>
      <trkpt lat="48.32944" lon="2.09387">
        <ele>108.77</ele>
        <time>2020-09-26T10:50:25Z</time>
      </trkpt>
      <trkpt lat="48.3296" lon="2.09395">
        <ele>108.29</ele>
        <time>2020-09-26T10:50:39Z</time>
      </trkpt>
      <trkpt lat="48.32976" lon="2.09404">
        <ele>108.29</ele>
        <time>2020-09-26T10:50:55Z</time>
      </trkpt>
      <trkpt lat="48.32991" lon="2.09411">
        <ele>108.29</ele>
        <time>2020-09-26T10:51:12Z</time>
      </trkpt>
      <trkpt lat="48.33008" lon="2.09421">
        <ele>108.77</ele>
        <time>2020-09-26T10:51:29Z</time>
      </trkpt>
      <trkpt lat="48.33018" lon="2.09429">
        <ele>108.29</ele>
        <time>2020-09-26T10:51:44Z</time>
      </trkpt>
      <trkpt lat="48.33043" lon="2.09454">
        <ele>108.77</ele>
        <time>2020-09-26T10:51:59Z</time>
      </trkpt>
      <trkpt lat="48.33062" lon="2.09474">
        <ele>108.77</ele>
        <time>2020-09-26T10:52:17Z</time>
      </trkpt>
      <trkpt lat="48.33077" lon="2.09489">
        <ele>108.29</ele>
        <time>2020-09-26T10:52:33Z</time>
      </trkpt>
      <trkpt lat="48.3308" lon="2.09491">
        <ele>108.29</ele>
        <time>2020-09-26T10:52:36Z</time>
      </trkpt>
      <trkpt lat="48.33081" lon="2.09492">
        <ele>108.29</ele>
        <time>2020-09-26T10:52:37Z</time>
      </trkpt>
      <trkpt lat="48.33101" lon="2.09506">
        <ele>109.25</ele>
        <time>2020-09-26T10:52:53Z</time>
      </trkpt>
      <trkpt lat="48.3311" lon="2.09513">
        <ele>108.29</ele>
        <time>2020-09-26T10:53:05Z</time>
      </trkpt>
      <trkpt lat="48.33122" lon="2.09522">
        <ele>107.81</ele>
        <time>2020-09-26T10:53:15Z</time>
      </trkpt>
      <trkpt lat="48.33139" lon="2.09538">
        <ele>108.77</ele>
        <time>2020-09-26T10:53:33Z</time>
      </trkpt>
      <trkpt lat="48.33145" lon="2.09546">
        <ele>109.25</ele>
        <time>2020-09-26T10:53:40Z</time>
      </trkpt>
      <trkpt lat="48.33154" lon="2.09558">
        <ele>110.21</ele>
        <time>2020-09-26T10:53:52Z</time>
      </trkpt>
      <trkpt lat="48.33166" lon="2.09568">
        <ele>110.21</ele>
        <time>2020-09-26T10:54:05Z</time>
      </trkpt>
      <trkpt lat="48.33179" lon="2.09593">
        <ele>109.73</ele>
        <time>2020-09-26T10:54:22Z</time>
      </trkpt>
      <trkpt lat="48.3319" lon="2.09612">
        <ele>109.25</ele>
        <time>2020-09-26T10:54:36Z</time>
      </trkpt>
      <trkpt lat="48.33198" lon="2.09635">
        <ele>108.29</ele>
        <time>2020-09-26T10:54:51Z</time>
      </trkpt>
      <trkpt lat="48.33206" lon="2.09658">
        <ele>108.29</ele>
        <time>2020-09-26T10:55:05Z</time>
      </trkpt>
      <trkpt lat="48.33212" lon="2.09668">
        <ele>108.29</ele>
        <time>2020-09-26T10:55:14Z</time>
      </trkpt>
      <trkpt lat="48.33223" lon="2.09687">
        <ele>108.77</ele>
        <time>2020-09-26T10:55:29Z</time>
      </trkpt>
      <trkpt lat="48.33228" lon="2.09703">
        <ele>108.77</ele>
        <time>2020-09-26T10:55:41Z</time>
      </trkpt>
      <trkpt lat="48.3324" lon="2.09725">
        <ele>110.21</ele>
        <time>2020-09-26T10:55:55Z</time>
      </trkpt>
      <trkpt lat="48.33247" lon="2.09749">
        <ele>110.21</ele>
        <time>2020-09-26T10:56:07Z</time>
      </trkpt>
      <trkpt lat="48.33247" lon="2.09752">
        <ele>110.69</ele>
        <time>2020-09-26T10:56:09Z</time>
      </trkpt>
      <trkpt lat="48.33248" lon="2.09755">
        <ele>110.69</ele>
        <time>2020-09-26T10:56:10Z</time>
      </trkpt>
      <trkpt lat="48.3325" lon="2.09764">
        <ele>111.17</ele>
        <time>2020-09-26T10:56:16Z</time>
      </trkpt>
      <trkpt lat="48.33257" lon="2.09787">
        <ele>110.21</ele>
        <time>2020-09-26T10:56:31Z</time>
      </trkpt>
      <trkpt lat="48.33265" lon="2.09815">
        <ele>110.69</ele>
        <time>2020-09-26T10:56:44Z</time>
      </trkpt>
      <trkpt lat="48.33268" lon="2.09827">
        <ele>111.17</ele>
        <time>2020-09-26T10:56:52Z</time>
      </trkpt>
      <trkpt lat="48.33268" lon="2.09829">
        <ele>111.65</ele>
        <time>2020-09-26T10:56:53Z</time>
      </trkpt>
      <trkpt lat="48.33274" lon="2.09846">
        <ele>111.17</ele>
        <time>2020-09-26T10:57:05Z</time>
      </trkpt>
      <trkpt lat="48.3328" lon="2.09862">
        <ele>111.17</ele>
        <time>2020-09-26T10:57:18Z</time>
      </trkpt>
      <trkpt lat="48.33284" lon="2.09876">
        <ele>110.69</ele>
        <time>2020-09-26T10:57:27Z</time>
      </trkpt>
      <trkpt lat="48.33284" lon="2.09878">
        <ele>110.21</ele>
        <time>2020-09-26T10:57:28Z</time>
      </trkpt>
      <trkpt lat="48.33289" lon="2.09901">
        <ele>110.21</ele>
        <time>2020-09-26T10:57:41Z</time>
      </trkpt>
      <trkpt lat="48.33291" lon="2.09894">
        <ele>110.21</ele>
        <time>2020-09-26T10:58:08Z</time>
      </trkpt>
      <trkpt lat="48.33296" lon="2.09922">
        <ele>110.69</ele>
        <time>2020-09-26T10:58:34Z</time>
      </trkpt>
      <trkpt lat="48.33301" lon="2.09942">
        <ele>111.17</ele>
        <time>2020-09-26T10:58:46Z</time>
      </trkpt>
      <trkpt lat="48.333" lon="2.09948">
        <ele>111.17</ele>
        <time>2020-09-26T10:58:54Z</time>
      </trkpt>
      <trkpt lat="48.33302" lon="2.09958">
        <ele>110.21</ele>
        <time>2020-09-26T10:59:01Z</time>
      </trkpt>
      <trkpt lat="48.33301" lon="2.09966">
        <ele>109.73</ele>
        <time>2020-09-26T10:59:06Z</time>
      </trkpt>
      <trkpt lat="48.33306" lon="2.09987">
        <ele>110.21</ele>
        <time>2020-09-26T10:59:17Z</time>
      </trkpt>
      <trkpt lat="48.3331" lon="2.10009">
        <ele>109.73</ele>
        <time>2020-09-26T10:59:29Z</time>
      </trkpt>
      <trkpt lat="48.33311" lon="2.10011">
        <ele>110.21</ele>
        <time>2020-09-26T10:59:30Z</time>
      </trkpt>
      <trkpt lat="48.33312" lon="2.10021">
        <ele>109.73</ele>
        <time>2020-09-26T10:59:37Z</time>
      </trkpt>
      <trkpt lat="48.33313" lon="2.10026">
        <ele>109.73</ele>
        <time>2020-09-26T10:59:40Z</time>
      </trkpt>
      <trkpt lat="48.33314" lon="2.10029">
        <ele>109.73</ele>
        <time>2020-09-26T10:59:41Z</time>
      </trkpt>
      <trkpt lat="48.33314" lon="2.10031">
        <ele>109.25</ele>
        <time>2020-09-26T10:59:42Z</time>
      </trkpt>
      <trkpt lat="48.33319" lon="2.10056">
        <ele>108.29</ele>
        <time>2020-09-26T10:59:55Z</time>
      </trkpt>
      <trkpt lat="48.3332" lon="2.10074">
        <ele>107.32</ele>
        <time>2020-09-26T11:00:04Z</time>
      </trkpt>
      <trkpt lat="48.3332" lon="2.10076">
        <ele>106.36</ele>
        <time>2020-09-26T11:00:07Z</time>
      </trkpt>
      <trkpt lat="48.3332" lon="2.10078">
        <ele>106.84</ele>
        <time>2020-09-26T11:00:08Z</time>
      </trkpt>
      <trkpt lat="48.33319" lon="2.10081">
        <ele>106.36</ele>
        <time>2020-09-26T11:00:09Z</time>
      </trkpt>
      <trkpt lat="48.3332" lon="2.10084">
        <ele>106.84</ele>
        <time>2020-09-26T11:00:10Z</time>
      </trkpt>
      <trkpt lat="48.3332" lon="2.10086">
        <ele>106.36</ele>
        <time>2020-09-26T11:00:11Z</time>
      </trkpt>
      <trkpt lat="48.3332" lon="2.10088">
        <ele>106.36</ele>
        <time>2020-09-26T11:00:12Z</time>
      </trkpt>
      <trkpt lat="48.3332" lon="2.1009">
        <ele>106.36</ele>
        <time>2020-09-26T11:00:13Z</time>
      </trkpt>
      <trkpt lat="48.33322" lon="2.10097">
        <ele>105.4</ele>
        <time>2020-09-26T11:00:18Z</time>
      </trkpt>
      <trkpt lat="48.33323" lon="2.10099">
        <ele>105.88</ele>
        <time>2020-09-26T11:00:19Z</time>
      </trkpt>
      <trkpt lat="48.33323" lon="2.10109">
        <ele>105.88</ele>
        <time>2020-09-26T11:00:23Z</time>
      </trkpt>
      <trkpt lat="48.33328" lon="2.10133">
        <ele>104.92</ele>
        <time>2020-09-26T11:00:35Z</time>
      </trkpt>
      <trkpt lat="48.33332" lon="2.10158">
        <ele>103.96</ele>
        <time>2020-09-26T11:00:47Z</time>
      </trkpt>
      <trkpt lat="48.33339" lon="2.10178">
        <ele>102.52</ele>
        <time>2020-09-26T11:01:01Z</time>
      </trkpt>
      <trkpt lat="48.33345" lon="2.10187">
        <ele>102.52</ele>
        <time>2020-09-26T11:01:08Z</time>
      </trkpt>
      <trkpt lat="48.33346" lon="2.10189">
        <ele>102.52</ele>
        <time>2020-09-26T11:01:09Z</time>
      </trkpt>
      <trkpt lat="48.33356" lon="2.10207">
        <ele>102.52</ele>
        <time>2020-09-26T11:01:22Z</time>
      </trkpt>
      <trkpt lat="48.33359" lon="2.10212">
        <ele>102.04</ele>
        <time>2020-09-26T11:01:32Z</time>
      </trkpt>
      <trkpt lat="48.33368" lon="2.10218">
        <ele>102.04</ele>
        <time>2020-09-26T11:01:47Z</time>
      </trkpt>
      <trkpt lat="48.33379" lon="2.10225">
        <ele>101.56</ele>
        <time>2020-09-26T11:01:59Z</time>
      </trkpt>
      <trkpt lat="48.33388" lon="2.10232">
        <ele>101.56</ele>
        <time>2020-09-26T11:02:05Z</time>
      </trkpt>
      <trkpt lat="48.33389" lon="2.10234">
        <ele>101.56</ele>
        <time>2020-09-26T11:02:06Z</time>
      </trkpt>
      <trkpt lat="48.3339" lon="2.10235">
        <ele>102.04</ele>
        <time>2020-09-26T11:02:07Z</time>
      </trkpt>
      <trkpt lat="48.33393" lon="2.10238">
        <ele>101.56</ele>
        <time>2020-09-26T11:02:10Z</time>
      </trkpt>
      <trkpt lat="48.33394" lon="2.10239">
        <ele>102.04</ele>
        <time>2020-09-26T11:02:11Z</time>
      </trkpt>
      <trkpt lat="48.33396" lon="2.10239">
        <ele>102.04</ele>
        <time>2020-09-26T11:02:12Z</time>
      </trkpt>
      <trkpt lat="48.33397" lon="2.1024">
        <ele>102.52</ele>
        <time>2020-09-26T11:02:13Z</time>
      </trkpt>
      <trkpt lat="48.33398" lon="2.10241">
        <ele>102.04</ele>
        <time>2020-09-26T11:02:14Z</time>
      </trkpt>
      <trkpt lat="48.33399" lon="2.10241">
        <ele>101.56</ele>
        <time>2020-09-26T11:02:15Z</time>
      </trkpt>
      <trkpt lat="48.33402" lon="2.10243">
        <ele>102.04</ele>
        <time>2020-09-26T11:02:19Z</time>
      </trkpt>
      <trkpt lat="48.33413" lon="2.10245">
        <ele>102.52</ele>
        <time>2020-09-26T11:02:30Z</time>
      </trkpt>
      <trkpt lat="48.33421" lon="2.10246">
        <ele>103</ele>
        <time>2020-09-26T11:02:41Z</time>
      </trkpt>
      <trkpt lat="48.33428" lon="2.10245">
        <ele>103</ele>
        <time>2020-09-26T11:02:46Z</time>
      </trkpt>
      <trkpt lat="48.33437" lon="2.10242">
        <ele>103.96</ele>
        <time>2020-09-26T11:02:54Z</time>
      </trkpt>
      <trkpt lat="48.3344" lon="2.1024">
        <ele>104.44</ele>
        <time>2020-09-26T11:02:56Z</time>
      </trkpt>
      <trkpt lat="48.33441" lon="2.10239">
        <ele>104.92</ele>
        <time>2020-09-26T11:02:57Z</time>
      </trkpt>
      <trkpt lat="48.33447" lon="2.10236">
        <ele>103</ele>
        <time>2020-09-26T11:03:03Z</time>
      </trkpt>
      <trkpt lat="48.33454" lon="2.10236">
        <ele>102.52</ele>
        <time>2020-09-26T11:03:12Z</time>
      </trkpt>
      <trkpt lat="48.33457" lon="2.10235">
        <ele>101.08</ele>
        <time>2020-09-26T11:03:15Z</time>
      </trkpt>
      <trkpt lat="48.33458" lon="2.10234">
        <ele>99.63</ele>
        <time>2020-09-26T11:03:17Z</time>
      </trkpt>
      <trkpt lat="48.3346" lon="2.10235">
        <ele>99.15</ele>
        <time>2020-09-26T11:03:20Z</time>
      </trkpt>
      <trkpt lat="48.33462" lon="2.10236">
        <ele>98.67</ele>
        <time>2020-09-26T11:03:21Z</time>
      </trkpt>
      <trkpt lat="48.33479" lon="2.10243">
        <ele>96.75</ele>
        <time>2020-09-26T11:03:34Z</time>
      </trkpt>
      <trkpt lat="48.33485" lon="2.10244">
        <ele>95.79</ele>
        <time>2020-09-26T11:03:37Z</time>
      </trkpt>
      <trkpt lat="48.33489" lon="2.10247">
        <ele>93.87</ele>
        <time>2020-09-26T11:03:43Z</time>
      </trkpt>
      <trkpt lat="48.33492" lon="2.10246">
        <ele>93.39</ele>
        <time>2020-09-26T11:03:56Z</time>
      </trkpt>
      <trkpt lat="48.33496" lon="2.10248">
        <ele>93.87</ele>
        <time>2020-09-26T11:04:08Z</time>
      </trkpt>
      <trkpt lat="48.33496" lon="2.10249">
        <ele>93.39</ele>
        <time>2020-09-26T11:04:24Z</time>
      </trkpt>
      <trkpt lat="48.33496" lon="2.10249">
        <ele>92.9</ele>
        <time>2020-09-26T11:04:35Z</time>
      </trkpt>
      <trkpt lat="48.33496" lon="2.10248">
        <ele>92.9</ele>
        <time>2020-09-26T11:04:41Z</time>
      </trkpt>
      <trkpt lat="48.33518" lon="2.10251">
        <ele>91.94</ele>
        <time>2020-09-26T11:04:58Z</time>
      </trkpt>
      <trkpt lat="48.33521" lon="2.10251">
        <ele>92.42</ele>
        <time>2020-09-26T11:05:00Z</time>
      </trkpt>
      <trkpt lat="48.33522" lon="2.10251">
        <ele>91.94</ele>
        <time>2020-09-26T11:05:01Z</time>
      </trkpt>
      <trkpt lat="48.33528" lon="2.1025">
        <ele>92.9</ele>
        <time>2020-09-26T11:05:09Z</time>
      </trkpt>
      <trkpt lat="48.3353" lon="2.1025">
        <ele>92.42</ele>
        <time>2020-09-26T11:05:10Z</time>
      </trkpt>
      <trkpt lat="48.33532" lon="2.10249">
        <ele>92.9</ele>
        <time>2020-09-26T11:05:11Z</time>
      </trkpt>
      <trkpt lat="48.33533" lon="2.10249">
        <ele>93.39</ele>
        <time>2020-09-26T11:05:12Z</time>
      </trkpt>
      <trkpt lat="48.33544" lon="2.10251">
        <ele>95.31</ele>
        <time>2020-09-26T11:05:24Z</time>
      </trkpt>
      <trkpt lat="48.33546" lon="2.10251">
        <ele>95.79</ele>
        <time>2020-09-26T11:05:27Z</time>
      </trkpt>
      <trkpt lat="48.33547" lon="2.10251">
        <ele>95.79</ele>
        <time>2020-09-26T11:05:28Z</time>
      </trkpt>
      <trkpt lat="48.33551" lon="2.10252">
        <ele>96.27</ele>
        <time>2020-09-26T11:05:32Z</time>
      </trkpt>
      <trkpt lat="48.33552" lon="2.10252">
        <ele>96.27</ele>
        <time>2020-09-26T11:05:33Z</time>
      </trkpt>
      <trkpt lat="48.33565" lon="2.10252">
        <ele>97.71</ele>
        <time>2020-09-26T11:05:46Z</time>
      </trkpt>
      <trkpt lat="48.33568" lon="2.10248">
        <ele>98.19</ele>
        <time>2020-09-26T11:05:50Z</time>
      </trkpt>
      <trkpt lat="48.33573" lon="2.10235">
        <ele>98.67</ele>
        <time>2020-09-26T11:06:03Z</time>
      </trkpt>
      <trkpt lat="48.33573" lon="2.10235">
        <ele>98.67</ele>
        <time>2020-09-26T11:06:10Z</time>
      </trkpt>
      <trkpt lat="48.33579" lon="2.10234">
        <ele>99.15</ele>
        <time>2020-09-26T11:06:20Z</time>
      </trkpt>
      <trkpt lat="48.3358" lon="2.10233">
        <ele>99.63</ele>
        <time>2020-09-26T11:06:21Z</time>
      </trkpt>
      <trkpt lat="48.33581" lon="2.10232">
        <ele>99.15</ele>
        <time>2020-09-26T11:06:22Z</time>
      </trkpt>
      <trkpt lat="48.33587" lon="2.10221">
        <ele>102.52</ele>
        <time>2020-09-26T11:06:33Z</time>
      </trkpt>
      <trkpt lat="48.33594" lon="2.10211">
        <ele>104.44</ele>
        <time>2020-09-26T11:06:46Z</time>
      </trkpt>
      <trkpt lat="48.33597" lon="2.10201">
        <ele>104.92</ele>
        <time>2020-09-26T11:06:57Z</time>
      </trkpt>
      <trkpt lat="48.33599" lon="2.10202">
        <ele>104.44</ele>
        <time>2020-09-26T11:07:04Z</time>
      </trkpt>
      <trkpt lat="48.33598" lon="2.10194">
        <ele>105.88</ele>
        <time>2020-09-26T11:58:40Z</time>
      </trkpt>
      <trkpt lat="48.33597" lon="2.10195">
        <ele>105.88</ele>
        <time>2020-09-26T11:58:41Z</time>
      </trkpt>
      <trkpt lat="48.33606" lon="2.10204">
        <ele>105.88</ele>
        <time>2020-09-26T11:59:03Z</time>
      </trkpt>
      <trkpt lat="48.336" lon="2.10201">
        <ele>105.88</ele>
        <time>2020-09-26T11:59:20Z</time>
      </trkpt>
      <trkpt lat="48.33597" lon="2.10202">
        <ele>106.36</ele>
        <time>2020-09-26T11:59:33Z</time>
      </trkpt>
      <trkpt lat="48.33594" lon="2.10203">
        <ele>105.88</ele>
        <time>2020-09-26T11:59:48Z</time>
      </trkpt>
      <trkpt lat="48.33592" lon="2.10203">
        <ele>105.4</ele>
        <time>2020-09-26T11:59:53Z</time>
      </trkpt>
      <trkpt lat="48.33588" lon="2.10208">
        <ele>105.4</ele>
        <time>2020-09-26T12:00:01Z</time>
      </trkpt>
      <trkpt lat="48.33583" lon="2.10214">
        <ele>104.92</ele>
        <time>2020-09-26T12:00:14Z</time>
      </trkpt>
      <trkpt lat="48.33582" lon="2.10214">
        <ele>103.96</ele>
        <time>2020-09-26T12:00:29Z</time>
      </trkpt>
      <trkpt lat="48.3358" lon="2.10221">
        <ele>101.56</ele>
        <time>2020-09-26T12:00:37Z</time>
      </trkpt>
      <trkpt lat="48.33578" lon="2.10229">
        <ele>100.6</ele>
        <time>2020-09-26T12:00:48Z</time>
      </trkpt>
      <trkpt lat="48.33571" lon="2.10232">
        <ele>99.63</ele>
        <time>2020-09-26T12:00:58Z</time>
      </trkpt>
      <trkpt lat="48.33572" lon="2.10237">
        <ele>99.63</ele>
        <time>2020-09-26T12:01:12Z</time>
      </trkpt>
      <trkpt lat="48.33573" lon="2.10238">
        <ele>99.63</ele>
        <time>2020-09-26T12:01:29Z</time>
      </trkpt>
      <trkpt lat="48.33571" lon="2.10236">
        <ele>100.6</ele>
        <time>2020-09-26T12:01:42Z</time>
      </trkpt>
      <trkpt lat="48.33569" lon="2.10238">
        <ele>100.11</ele>
        <time>2020-09-26T12:01:46Z</time>
      </trkpt>
      <trkpt lat="48.33565" lon="2.10248">
        <ele>99.15</ele>
        <time>2020-09-26T12:01:51Z</time>
      </trkpt>
      <trkpt lat="48.33565" lon="2.1025">
        <ele>98.67</ele>
        <time>2020-09-26T12:01:52Z</time>
      </trkpt>
      <trkpt lat="48.33568" lon="2.1026">
        <ele>98.19</ele>
        <time>2020-09-26T12:02:02Z</time>
      </trkpt>
      <trkpt lat="48.33575" lon="2.10275">
        <ele>95.79</ele>
        <time>2020-09-26T12:02:15Z</time>
      </trkpt>
      <trkpt lat="48.33576" lon="2.10277">
        <ele>96.27</ele>
        <time>2020-09-26T12:02:16Z</time>
      </trkpt>
      <trkpt lat="48.33578" lon="2.1028">
        <ele>96.75</ele>
        <time>2020-09-26T12:02:17Z</time>
      </trkpt>
      <trkpt lat="48.33583" lon="2.10291">
        <ele>95.31</ele>
        <time>2020-09-26T12:02:25Z</time>
      </trkpt>
      <trkpt lat="48.33593" lon="2.10304">
        <ele>94.35</ele>
        <time>2020-09-26T12:02:36Z</time>
      </trkpt>
      <trkpt lat="48.33604" lon="2.10312">
        <ele>92.9</ele>
        <time>2020-09-26T12:02:46Z</time>
      </trkpt>
      <trkpt lat="48.33616" lon="2.10326">
        <ele>91.94</ele>
        <time>2020-09-26T12:02:58Z</time>
      </trkpt>
      <trkpt lat="48.33618" lon="2.10327">
        <ele>91.94</ele>
        <time>2020-09-26T12:02:59Z</time>
      </trkpt>
      <trkpt lat="48.33623" lon="2.10327">
        <ele>91.46</ele>
        <time>2020-09-26T12:03:03Z</time>
      </trkpt>
      <trkpt lat="48.33627" lon="2.10326">
        <ele>91.94</ele>
        <time>2020-09-26T12:03:06Z</time>
      </trkpt>
      <trkpt lat="48.33628" lon="2.10325">
        <ele>91.46</ele>
        <time>2020-09-26T12:03:07Z</time>
      </trkpt>
      <trkpt lat="48.3363" lon="2.10324">
        <ele>91.46</ele>
        <time>2020-09-26T12:03:08Z</time>
      </trkpt>
      <trkpt lat="48.33645" lon="2.10327">
        <ele>91.94</ele>
        <time>2020-09-26T12:03:21Z</time>
      </trkpt>
      <trkpt lat="48.3365" lon="2.10327">
        <ele>92.42</ele>
        <time>2020-09-26T12:03:27Z</time>
      </trkpt>
      <trkpt lat="48.33651" lon="2.10328">
        <ele>91.94</ele>
        <time>2020-09-26T12:03:28Z</time>
      </trkpt>
      <trkpt lat="48.33657" lon="2.10329">
        <ele>91.94</ele>
        <time>2020-09-26T12:03:33Z</time>
      </trkpt>
      <trkpt lat="48.33658" lon="2.10329">
        <ele>92.42</ele>
        <time>2020-09-26T12:03:34Z</time>
      </trkpt>
      <trkpt lat="48.33669" lon="2.10327">
        <ele>91.94</ele>
        <time>2020-09-26T12:03:43Z</time>
      </trkpt>
      <trkpt lat="48.3367" lon="2.10327">
        <ele>92.42</ele>
        <time>2020-09-26T12:03:44Z</time>
      </trkpt>
      <trkpt lat="48.33671" lon="2.10327">
        <ele>92.42</ele>
        <time>2020-09-26T12:03:45Z</time>
      </trkpt>
      <trkpt lat="48.33672" lon="2.10328">
        <ele>92.42</ele>
        <time>2020-09-26T12:03:46Z</time>
      </trkpt>
      <trkpt lat="48.33672" lon="2.10328">
        <ele>92.9</ele>
        <time>2020-09-26T12:03:47Z</time>
      </trkpt>
      <trkpt lat="48.33686" lon="2.10324">
        <ele>92.9</ele>
        <time>2020-09-26T12:04:00Z</time>
      </trkpt>
      <trkpt lat="48.33702" lon="2.10316">
        <ele>92.9</ele>
        <time>2020-09-26T12:04:15Z</time>
      </trkpt>
      <trkpt lat="48.33708" lon="2.10314">
        <ele>93.39</ele>
        <time>2020-09-26T12:04:25Z</time>
      </trkpt>
      <trkpt lat="48.33713" lon="2.10311">
        <ele>93.39</ele>
        <time>2020-09-26T12:04:38Z</time>
      </trkpt>
      <trkpt lat="48.33724" lon="2.10315">
        <ele>92.9</ele>
        <time>2020-09-26T12:04:51Z</time>
      </trkpt>
      <trkpt lat="48.33738" lon="2.10309">
        <ele>93.87</ele>
        <time>2020-09-26T12:05:04Z</time>
      </trkpt>
      <trkpt lat="48.33749" lon="2.10311">
        <ele>93.87</ele>
        <time>2020-09-26T12:05:18Z</time>
      </trkpt>
      <trkpt lat="48.3375" lon="2.1031">
        <ele>94.35</ele>
        <time>2020-09-26T12:05:49Z</time>
      </trkpt>
      <trkpt lat="48.3375" lon="2.10313">
        <ele>94.35</ele>
        <time>2020-09-26T12:06:23Z</time>
      </trkpt>
      <trkpt lat="48.33748" lon="2.10311">
        <ele>94.35</ele>
        <time>2020-09-26T12:06:54Z</time>
      </trkpt>
      <trkpt lat="48.33751" lon="2.10314">
        <ele>93.87</ele>
        <time>2020-09-26T12:07:15Z</time>
      </trkpt>
      <trkpt lat="48.33754" lon="2.1031">
        <ele>94.83</ele>
        <time>2020-09-26T12:07:19Z</time>
      </trkpt>
      <trkpt lat="48.33755" lon="2.1031">
        <ele>94.83</ele>
        <time>2020-09-26T12:07:20Z</time>
      </trkpt>
      <trkpt lat="48.33756" lon="2.1031">
        <ele>95.31</ele>
        <time>2020-09-26T12:07:21Z</time>
      </trkpt>
      <trkpt lat="48.33758" lon="2.10311">
        <ele>94.83</ele>
        <time>2020-09-26T12:07:22Z</time>
      </trkpt>
      <trkpt lat="48.33774" lon="2.10312">
        <ele>95.31</ele>
        <time>2020-09-26T12:07:36Z</time>
      </trkpt>
      <trkpt lat="48.33779" lon="2.10311">
        <ele>94.83</ele>
        <time>2020-09-26T12:07:42Z</time>
      </trkpt>
      <trkpt lat="48.33787" lon="2.10311">
        <ele>94.83</ele>
        <time>2020-09-26T12:07:46Z</time>
      </trkpt>
      <trkpt lat="48.33789" lon="2.10312">
        <ele>94.35</ele>
        <time>2020-09-26T12:07:47Z</time>
      </trkpt>
      <trkpt lat="48.3379" lon="2.10313">
        <ele>94.35</ele>
        <time>2020-09-26T12:07:48Z</time>
      </trkpt>
      <trkpt lat="48.33791" lon="2.10313">
        <ele>94.83</ele>
        <time>2020-09-26T12:07:49Z</time>
      </trkpt>
      <trkpt lat="48.33792" lon="2.10314">
        <ele>94.83</ele>
        <time>2020-09-26T12:07:50Z</time>
      </trkpt>
      <trkpt lat="48.33799" lon="2.10318">
        <ele>94.35</ele>
        <time>2020-09-26T12:07:57Z</time>
      </trkpt>
      <trkpt lat="48.338" lon="2.10319">
        <ele>94.35</ele>
        <time>2020-09-26T12:07:58Z</time>
      </trkpt>
      <trkpt lat="48.33802" lon="2.10319">
        <ele>94.83</ele>
        <time>2020-09-26T12:07:59Z</time>
      </trkpt>
      <trkpt lat="48.3382" lon="2.10321">
        <ele>93.39</ele>
        <time>2020-09-26T12:08:12Z</time>
      </trkpt>
      <trkpt lat="48.33822" lon="2.10321">
        <ele>93.39</ele>
        <time>2020-09-26T12:08:15Z</time>
      </trkpt>
      <trkpt lat="48.33824" lon="2.1032">
        <ele>93.39</ele>
        <time>2020-09-26T12:08:16Z</time>
      </trkpt>
      <trkpt lat="48.33837" lon="2.10331">
        <ele>91.94</ele>
        <time>2020-09-26T12:08:27Z</time>
      </trkpt>
      <trkpt lat="48.33848" lon="2.10338">
        <ele>91.46</ele>
        <time>2020-09-26T12:08:38Z</time>
      </trkpt>
      <trkpt lat="48.33849" lon="2.10338">
        <ele>91.46</ele>
        <time>2020-09-26T12:08:39Z</time>
      </trkpt>
      <trkpt lat="48.3385" lon="2.10339">
        <ele>90.98</ele>
        <time>2020-09-26T12:08:40Z</time>
      </trkpt>
      <trkpt lat="48.33866" lon="2.10348">
        <ele>91.94</ele>
        <time>2020-09-26T12:08:55Z</time>
      </trkpt>
      <trkpt lat="48.33884" lon="2.10354">
        <ele>91.94</ele>
        <time>2020-09-26T12:09:10Z</time>
      </trkpt>
      <trkpt lat="48.33888" lon="2.10351">
        <ele>91.46</ele>
        <time>2020-09-26T12:09:13Z</time>
      </trkpt>
      <trkpt lat="48.339" lon="2.10351">
        <ele>91.94</ele>
        <time>2020-09-26T12:09:23Z</time>
      </trkpt>
      <trkpt lat="48.33901" lon="2.10351">
        <ele>91.46</ele>
        <time>2020-09-26T12:09:24Z</time>
      </trkpt>
      <trkpt lat="48.33903" lon="2.10351">
        <ele>91.46</ele>
        <time>2020-09-26T12:09:25Z</time>
      </trkpt>
      <trkpt lat="48.33904" lon="2.10352">
        <ele>91.94</ele>
        <time>2020-09-26T12:09:26Z</time>
      </trkpt>
      <trkpt lat="48.33906" lon="2.10352">
        <ele>91.94</ele>
        <time>2020-09-26T12:09:27Z</time>
      </trkpt>
      <trkpt lat="48.33919" lon="2.10357">
        <ele>92.42</ele>
        <time>2020-09-26T12:09:40Z</time>
      </trkpt>
      <trkpt lat="48.33928" lon="2.1036">
        <ele>92.9</ele>
        <time>2020-09-26T12:09:52Z</time>
      </trkpt>
      <trkpt lat="48.33929" lon="2.1036">
        <ele>92.9</ele>
        <time>2020-09-26T12:09:53Z</time>
      </trkpt>
      <trkpt lat="48.33947" lon="2.10367">
        <ele>93.39</ele>
        <time>2020-09-26T12:10:09Z</time>
      </trkpt>
      <trkpt lat="48.3396" lon="2.10369">
        <ele>94.35</ele>
        <time>2020-09-26T12:10:21Z</time>
      </trkpt>
      <trkpt lat="48.33975" lon="2.10372">
        <ele>94.35</ele>
        <time>2020-09-26T12:10:36Z</time>
      </trkpt>
      <trkpt lat="48.34003" lon="2.10369">
        <ele>94.35</ele>
        <time>2020-09-26T12:10:55Z</time>
      </trkpt>
      <trkpt lat="48.3402" lon="2.10382">
        <ele>93.87</ele>
        <time>2020-09-26T12:11:13Z</time>
      </trkpt>
      <trkpt lat="48.3404" lon="2.10388">
        <ele>94.35</ele>
        <time>2020-09-26T12:11:28Z</time>
      </trkpt>
      <trkpt lat="48.3405" lon="2.104">
        <ele>94.83</ele>
        <time>2020-09-26T12:11:42Z</time>
      </trkpt>
      <trkpt lat="48.34063" lon="2.10412">
        <ele>92.9</ele>
        <time>2020-09-26T12:11:55Z</time>
      </trkpt>
      <trkpt lat="48.34086" lon="2.1042">
        <ele>91.94</ele>
        <time>2020-09-26T12:12:10Z</time>
      </trkpt>
      <trkpt lat="48.34099" lon="2.10433">
        <ele>91.46</ele>
        <time>2020-09-26T12:12:23Z</time>
      </trkpt>
      <trkpt lat="48.34117" lon="2.10439">
        <ele>91.94</ele>
        <time>2020-09-26T12:12:38Z</time>
      </trkpt>
      <trkpt lat="48.34126" lon="2.10442">
        <ele>91.94</ele>
        <time>2020-09-26T12:12:45Z</time>
      </trkpt>
      <trkpt lat="48.34128" lon="2.10441">
        <ele>91.94</ele>
        <time>2020-09-26T12:12:46Z</time>
      </trkpt>
      <trkpt lat="48.3413" lon="2.10441">
        <ele>91.94</ele>
        <time>2020-09-26T12:12:47Z</time>
      </trkpt>
      <trkpt lat="48.34131" lon="2.10441">
        <ele>91.94</ele>
        <time>2020-09-26T12:12:48Z</time>
      </trkpt>
      <trkpt lat="48.34132" lon="2.10441">
        <ele>91.46</ele>
        <time>2020-09-26T12:12:49Z</time>
      </trkpt>
      <trkpt lat="48.34153" lon="2.10444">
        <ele>91.46</ele>
        <time>2020-09-26T12:13:05Z</time>
      </trkpt>
      <trkpt lat="48.34155" lon="2.10443">
        <ele>91.46</ele>
        <time>2020-09-26T12:13:06Z</time>
      </trkpt>
      <trkpt lat="48.34156" lon="2.10443">
        <ele>91.46</ele>
        <time>2020-09-26T12:13:07Z</time>
      </trkpt>
      <trkpt lat="48.34157" lon="2.10443">
        <ele>91.94</ele>
        <time>2020-09-26T12:13:08Z</time>
      </trkpt>
      <trkpt lat="48.34159" lon="2.10443">
        <ele>91.94</ele>
        <time>2020-09-26T12:13:09Z</time>
      </trkpt>
      <trkpt lat="48.3416" lon="2.10443">
        <ele>91.46</ele>
        <time>2020-09-26T12:13:10Z</time>
      </trkpt>
      <trkpt lat="48.34177" lon="2.10447">
        <ele>91.94</ele>
        <time>2020-09-26T12:13:24Z</time>
      </trkpt>
      <trkpt lat="48.34197" lon="2.10445">
        <ele>91.94</ele>
        <time>2020-09-26T12:13:40Z</time>
      </trkpt>
      <trkpt lat="48.34211" lon="2.1044">
        <ele>92.42</ele>
        <time>2020-09-26T12:13:53Z</time>
      </trkpt>
      <trkpt lat="48.34231" lon="2.10427">
        <ele>92.42</ele>
        <time>2020-09-26T12:14:09Z</time>
      </trkpt>
      <trkpt lat="48.34248" lon="2.10423">
        <ele>91.94</ele>
        <time>2020-09-26T12:14:25Z</time>
      </trkpt>
      <trkpt lat="48.34266" lon="2.10416">
        <ele>92.9</ele>
        <time>2020-09-26T12:14:39Z</time>
      </trkpt>
      <trkpt lat="48.34281" lon="2.10418">
        <ele>93.87</ele>
        <time>2020-09-26T12:14:53Z</time>
      </trkpt>
      <trkpt lat="48.343" lon="2.10425">
        <ele>94.83</ele>
        <time>2020-09-26T12:15:09Z</time>
      </trkpt>
      <trkpt lat="48.34303" lon="2.10424">
        <ele>95.79</ele>
        <time>2020-09-26T12:15:21Z</time>
      </trkpt>
      <trkpt lat="48.34304" lon="2.10423">
        <ele>95.31</ele>
        <time>2020-09-26T12:15:43Z</time>
      </trkpt>
      <trkpt lat="48.34308" lon="2.10422">
        <ele>95.31</ele>
        <time>2020-09-26T12:15:55Z</time>
      </trkpt>
      <trkpt lat="48.34316" lon="2.10424">
        <ele>96.27</ele>
        <time>2020-09-26T12:16:02Z</time>
      </trkpt>
      <trkpt lat="48.3432" lon="2.10427">
        <ele>96.27</ele>
        <time>2020-09-26T12:16:08Z</time>
      </trkpt>
      <trkpt lat="48.34321" lon="2.10428">
        <ele>95.79</ele>
        <time>2020-09-26T12:16:09Z</time>
      </trkpt>
      <trkpt lat="48.34333" lon="2.10445">
        <ele>93.87</ele>
        <time>2020-09-26T12:16:22Z</time>
      </trkpt>
      <trkpt lat="48.34348" lon="2.10462">
        <ele>92.9</ele>
        <time>2020-09-26T12:16:35Z</time>
      </trkpt>
      <trkpt lat="48.34349" lon="2.10464">
        <ele>91.94</ele>
        <time>2020-09-26T12:16:37Z</time>
      </trkpt>
      <trkpt lat="48.34351" lon="2.10468">
        <ele>91.94</ele>
        <time>2020-09-26T12:16:40Z</time>
      </trkpt>
      <trkpt lat="48.34352" lon="2.10469">
        <ele>91.94</ele>
        <time>2020-09-26T12:16:41Z</time>
      </trkpt>
      <trkpt lat="48.34367" lon="2.10479">
        <ele>91.94</ele>
        <time>2020-09-26T12:16:54Z</time>
      </trkpt>
      <trkpt lat="48.34378" lon="2.10489">
        <ele>91.94</ele>
        <time>2020-09-26T12:17:09Z</time>
      </trkpt>
      <trkpt lat="48.34379" lon="2.1049">
        <ele>91.94</ele>
        <time>2020-09-26T12:17:10Z</time>
      </trkpt>
      <trkpt lat="48.34381" lon="2.10491">
        <ele>91.94</ele>
        <time>2020-09-26T12:17:11Z</time>
      </trkpt>
      <trkpt lat="48.34397" lon="2.10503">
        <ele>92.9</ele>
        <time>2020-09-26T12:17:26Z</time>
      </trkpt>
      <trkpt lat="48.34413" lon="2.10507">
        <ele>91.46</ele>
        <time>2020-09-26T12:17:38Z</time>
      </trkpt>
      <trkpt lat="48.34415" lon="2.10507">
        <ele>92.42</ele>
        <time>2020-09-26T12:17:39Z</time>
      </trkpt>
      <trkpt lat="48.34416" lon="2.10508">
        <ele>92.42</ele>
        <time>2020-09-26T12:17:40Z</time>
      </trkpt>
      <trkpt lat="48.34418" lon="2.10508">
        <ele>92.9</ele>
        <time>2020-09-26T12:17:41Z</time>
      </trkpt>
      <trkpt lat="48.34419" lon="2.10509">
        <ele>92.42</ele>
        <time>2020-09-26T12:17:42Z</time>
      </trkpt>
      <trkpt lat="48.34432" lon="2.10518">
        <ele>91.46</ele>
        <time>2020-09-26T12:17:57Z</time>
      </trkpt>
      <trkpt lat="48.34443" lon="2.10526">
        <ele>91.46</ele>
        <time>2020-09-26T12:18:08Z</time>
      </trkpt>
      <trkpt lat="48.34457" lon="2.10535">
        <ele>91.46</ele>
        <time>2020-09-26T12:18:21Z</time>
      </trkpt>
      <trkpt lat="48.34474" lon="2.10542">
        <ele>92.9</ele>
        <time>2020-09-26T12:18:37Z</time>
      </trkpt>
      <trkpt lat="48.34477" lon="2.10538">
        <ele>92.9</ele>
        <time>2020-09-26T12:18:44Z</time>
      </trkpt>
      <trkpt lat="48.3448" lon="2.10539">
        <ele>92.42</ele>
        <time>2020-09-26T12:18:51Z</time>
      </trkpt>
      <trkpt lat="48.3449" lon="2.1054">
        <ele>93.39</ele>
        <time>2020-09-26T12:19:03Z</time>
      </trkpt>
      <trkpt lat="48.34493" lon="2.1054">
        <ele>93.87</ele>
        <time>2020-09-26T12:19:14Z</time>
      </trkpt>
      <trkpt lat="48.34503" lon="2.10543">
        <ele>93.87</ele>
        <time>2020-09-26T12:19:42Z</time>
      </trkpt>
      <trkpt lat="48.34514" lon="2.10542">
        <ele>94.83</ele>
        <time>2020-09-26T12:19:57Z</time>
      </trkpt>
      <trkpt lat="48.34519" lon="2.10542">
        <ele>95.31</ele>
        <time>2020-09-26T12:20:04Z</time>
      </trkpt>
      <trkpt lat="48.34528" lon="2.1054">
        <ele>96.75</ele>
        <time>2020-09-26T12:20:11Z</time>
      </trkpt>
      <trkpt lat="48.34535" lon="2.10544">
        <ele>97.71</ele>
        <time>2020-09-26T12:20:18Z</time>
      </trkpt>
      <trkpt lat="48.34537" lon="2.10545">
        <ele>98.19</ele>
        <time>2020-09-26T12:20:19Z</time>
      </trkpt>
      <trkpt lat="48.34539" lon="2.10547">
        <ele>97.71</ele>
        <time>2020-09-26T12:20:20Z</time>
      </trkpt>
      <trkpt lat="48.34542" lon="2.10549">
        <ele>98.19</ele>
        <time>2020-09-26T12:20:21Z</time>
      </trkpt>
      <trkpt lat="48.34557" lon="2.10565">
        <ele>97.23</ele>
        <time>2020-09-26T12:20:36Z</time>
      </trkpt>
      <trkpt lat="48.34561" lon="2.10568">
        <ele>97.71</ele>
        <time>2020-09-26T12:20:44Z</time>
      </trkpt>
      <trkpt lat="48.34562" lon="2.10569">
        <ele>96.75</ele>
        <time>2020-09-26T12:20:45Z</time>
      </trkpt>
      <trkpt lat="48.34572" lon="2.10581">
        <ele>96.27</ele>
        <time>2020-09-26T12:20:57Z</time>
      </trkpt>
      <trkpt lat="48.34574" lon="2.10582">
        <ele>95.79</ele>
        <time>2020-09-26T12:20:58Z</time>
      </trkpt>
      <trkpt lat="48.34584" lon="2.10597">
        <ele>94.35</ele>
        <time>2020-09-26T12:21:10Z</time>
      </trkpt>
      <trkpt lat="48.34585" lon="2.10598">
        <ele>94.83</ele>
        <time>2020-09-26T12:21:11Z</time>
      </trkpt>
      <trkpt lat="48.34586" lon="2.106">
        <ele>94.83</ele>
        <time>2020-09-26T12:21:12Z</time>
      </trkpt>
      <trkpt lat="48.34587" lon="2.10602">
        <ele>93.87</ele>
        <time>2020-09-26T12:21:13Z</time>
      </trkpt>
      <trkpt lat="48.34596" lon="2.10613">
        <ele>92.9</ele>
        <time>2020-09-26T12:21:23Z</time>
      </trkpt>
      <trkpt lat="48.34605" lon="2.10628">
        <ele>92.9</ele>
        <time>2020-09-26T12:21:34Z</time>
      </trkpt>
      <trkpt lat="48.34616" lon="2.10646">
        <ele>92.42</ele>
        <time>2020-09-26T12:21:48Z</time>
      </trkpt>
      <trkpt lat="48.34621" lon="2.10653">
        <ele>91.46</ele>
        <time>2020-09-26T12:21:55Z</time>
      </trkpt>
      <trkpt lat="48.34622" lon="2.10654">
        <ele>91.94</ele>
        <time>2020-09-26T12:21:56Z</time>
      </trkpt>
      <trkpt lat="48.34623" lon="2.10655">
        <ele>91.94</ele>
        <time>2020-09-26T12:21:57Z</time>
      </trkpt>
      <trkpt lat="48.34631" lon="2.10662">
        <ele>91.94</ele>
        <time>2020-09-26T12:22:04Z</time>
      </trkpt>
      <trkpt lat="48.34633" lon="2.10663">
        <ele>91.94</ele>
        <time>2020-09-26T12:22:06Z</time>
      </trkpt>
      <trkpt lat="48.34649" lon="2.10672">
        <ele>91.94</ele>
        <time>2020-09-26T12:22:20Z</time>
      </trkpt>
      <trkpt lat="48.34664" lon="2.1069">
        <ele>91.94</ele>
        <time>2020-09-26T12:22:34Z</time>
      </trkpt>
      <trkpt lat="48.3468" lon="2.10705">
        <ele>91.46</ele>
        <time>2020-09-26T12:22:49Z</time>
      </trkpt>
      <trkpt lat="48.34691" lon="2.10723">
        <ele>91.94</ele>
        <time>2020-09-26T12:23:05Z</time>
      </trkpt>
      <trkpt lat="48.34703" lon="2.10742">
        <ele>91.46</ele>
        <time>2020-09-26T12:23:20Z</time>
      </trkpt>
      <trkpt lat="48.3471" lon="2.10754">
        <ele>91.46</ele>
        <time>2020-09-26T12:23:29Z</time>
      </trkpt>
      <trkpt lat="48.3471" lon="2.10755">
        <ele>91.46</ele>
        <time>2020-09-26T12:23:30Z</time>
      </trkpt>
      <trkpt lat="48.34711" lon="2.10757">
        <ele>91.46</ele>
        <time>2020-09-26T12:23:31Z</time>
      </trkpt>
      <trkpt lat="48.3472" lon="2.10772">
        <ele>90.98</ele>
        <time>2020-09-26T12:23:44Z</time>
      </trkpt>
      <trkpt lat="48.34724" lon="2.10788">
        <ele>90.98</ele>
        <time>2020-09-26T12:23:57Z</time>
      </trkpt>
      <trkpt lat="48.34725" lon="2.10789">
        <ele>90.98</ele>
        <time>2020-09-26T12:24:01Z</time>
      </trkpt>
      <trkpt lat="48.34726" lon="2.10795">
        <ele>90.98</ele>
        <time>2020-09-26T12:24:05Z</time>
      </trkpt>
      <trkpt lat="48.34733" lon="2.10813">
        <ele>91.46</ele>
        <time>2020-09-26T12:24:16Z</time>
      </trkpt>
      <trkpt lat="48.34742" lon="2.10827">
        <ele>90.98</ele>
        <time>2020-09-26T12:24:26Z</time>
      </trkpt>
      <trkpt lat="48.34743" lon="2.1083">
        <ele>90.98</ele>
        <time>2020-09-26T12:24:27Z</time>
      </trkpt>
      <trkpt lat="48.34744" lon="2.10833">
        <ele>91.46</ele>
        <time>2020-09-26T12:24:28Z</time>
      </trkpt>
      <trkpt lat="48.34748" lon="2.10848">
        <ele>90.5</ele>
        <time>2020-09-26T12:24:38Z</time>
      </trkpt>
      <trkpt lat="48.34755" lon="2.10875">
        <ele>90.98</ele>
        <time>2020-09-26T12:24:52Z</time>
      </trkpt>
      <trkpt lat="48.34769" lon="2.10899">
        <ele>91.46</ele>
        <time>2020-09-26T12:25:08Z</time>
      </trkpt>
      <trkpt lat="48.3478" lon="2.10917">
        <ele>90.98</ele>
        <time>2020-09-26T12:25:21Z</time>
      </trkpt>
      <trkpt lat="48.34783" lon="2.10922">
        <ele>90.98</ele>
        <time>2020-09-26T12:25:31Z</time>
      </trkpt>
      <trkpt lat="48.34784" lon="2.10923">
        <ele>90.98</ele>
        <time>2020-09-26T12:25:32Z</time>
      </trkpt>
      <trkpt lat="48.34785" lon="2.10924">
        <ele>91.46</ele>
        <time>2020-09-26T12:25:33Z</time>
      </trkpt>
      <trkpt lat="48.34793" lon="2.10933">
        <ele>90.98</ele>
        <time>2020-09-26T12:25:42Z</time>
      </trkpt>
      <trkpt lat="48.34803" lon="2.10947">
        <ele>90.98</ele>
        <time>2020-09-26T12:25:56Z</time>
      </trkpt>
      <trkpt lat="48.34807" lon="2.10952">
        <ele>90.98</ele>
        <time>2020-09-26T12:25:59Z</time>
      </trkpt>
      <trkpt lat="48.3481" lon="2.10954">
        <ele>90.98</ele>
        <time>2020-09-26T12:26:02Z</time>
      </trkpt>
      <trkpt lat="48.34814" lon="2.10958">
        <ele>90.98</ele>
        <time>2020-09-26T12:26:06Z</time>
      </trkpt>
      <trkpt lat="48.34815" lon="2.10959">
        <ele>91.46</ele>
        <time>2020-09-26T12:26:07Z</time>
      </trkpt>
      <trkpt lat="48.34817" lon="2.10959">
        <ele>90.98</ele>
        <time>2020-09-26T12:26:08Z</time>
      </trkpt>
      <trkpt lat="48.34831" lon="2.10964">
        <ele>92.42</ele>
        <time>2020-09-26T12:26:22Z</time>
      </trkpt>
      <trkpt lat="48.34848" lon="2.10967">
        <ele>92.9</ele>
        <time>2020-09-26T12:26:38Z</time>
      </trkpt>
      <trkpt lat="48.34857" lon="2.10972">
        <ele>91.94</ele>
        <time>2020-09-26T12:26:46Z</time>
      </trkpt>
      <trkpt lat="48.34859" lon="2.10973">
        <ele>91.46</ele>
        <time>2020-09-26T12:26:47Z</time>
      </trkpt>
      <trkpt lat="48.34871" lon="2.10982">
        <ele>91.94</ele>
        <time>2020-09-26T12:26:58Z</time>
      </trkpt>
      <trkpt lat="48.34872" lon="2.10982">
        <ele>91.94</ele>
        <time>2020-09-26T12:26:59Z</time>
      </trkpt>
      <trkpt lat="48.34873" lon="2.10982">
        <ele>92.42</ele>
        <time>2020-09-26T12:27:00Z</time>
      </trkpt>
      <trkpt lat="48.34879" lon="2.10984">
        <ele>92.42</ele>
        <time>2020-09-26T12:27:07Z</time>
      </trkpt>
      <trkpt lat="48.34881" lon="2.10984">
        <ele>92.42</ele>
        <time>2020-09-26T12:27:08Z</time>
      </trkpt>
      <trkpt lat="48.34898" lon="2.10983">
        <ele>93.39</ele>
        <time>2020-09-26T12:27:21Z</time>
      </trkpt>
      <trkpt lat="48.34917" lon="2.10988">
        <ele>92.9</ele>
        <time>2020-09-26T12:27:36Z</time>
      </trkpt>
      <trkpt lat="48.34919" lon="2.10987">
        <ele>93.87</ele>
        <time>2020-09-26T12:27:38Z</time>
      </trkpt>
      <trkpt lat="48.34933" lon="2.10995">
        <ele>93.39</ele>
        <time>2020-09-26T12:27:50Z</time>
      </trkpt>
      <trkpt lat="48.34937" lon="2.10994">
        <ele>92.9</ele>
        <time>2020-09-26T12:27:55Z</time>
      </trkpt>
      <trkpt lat="48.34939" lon="2.10992">
        <ele>92.9</ele>
        <time>2020-09-26T12:27:56Z</time>
      </trkpt>
      <trkpt lat="48.3494" lon="2.1099">
        <ele>92.9</ele>
        <time>2020-09-26T12:27:57Z</time>
      </trkpt>
      <trkpt lat="48.34941" lon="2.10989">
        <ele>93.39</ele>
        <time>2020-09-26T12:27:58Z</time>
      </trkpt>
      <trkpt lat="48.34948" lon="2.10972">
        <ele>94.83</ele>
        <time>2020-09-26T12:28:10Z</time>
      </trkpt>
      <trkpt lat="48.34951" lon="2.10955">
        <ele>96.27</ele>
        <time>2020-09-26T12:28:20Z</time>
      </trkpt>
      <trkpt lat="48.34953" lon="2.10946">
        <ele>96.27</ele>
        <time>2020-09-26T12:28:36Z</time>
      </trkpt>
      <trkpt lat="48.34954" lon="2.10941">
        <ele>95.79</ele>
        <time>2020-09-26T12:28:50Z</time>
      </trkpt>
      <trkpt lat="48.34954" lon="2.10939">
        <ele>95.79</ele>
        <time>2020-09-26T12:28:51Z</time>
      </trkpt>
      <trkpt lat="48.34962" lon="2.10922">
        <ele>97.71</ele>
        <time>2020-09-26T12:29:05Z</time>
      </trkpt>
      <trkpt lat="48.34963" lon="2.1092">
        <ele>97.71</ele>
        <time>2020-09-26T12:29:06Z</time>
      </trkpt>
      <trkpt lat="48.34967" lon="2.10916">
        <ele>98.19</ele>
        <time>2020-09-26T12:29:12Z</time>
      </trkpt>
      <trkpt lat="48.34968" lon="2.10914">
        <ele>98.67</ele>
        <time>2020-09-26T12:29:13Z</time>
      </trkpt>
      <trkpt lat="48.34973" lon="2.10902">
        <ele>99.63</ele>
        <time>2020-09-26T12:29:23Z</time>
      </trkpt>
      <trkpt lat="48.34975" lon="2.10901">
        <ele>100.11</ele>
        <time>2020-09-26T12:29:24Z</time>
      </trkpt>
      <trkpt lat="48.34976" lon="2.109">
        <ele>100.11</ele>
        <time>2020-09-26T12:29:25Z</time>
      </trkpt>
      <trkpt lat="48.34977" lon="2.10898">
        <ele>100.11</ele>
        <time>2020-09-26T12:29:26Z</time>
      </trkpt>
      <trkpt lat="48.34984" lon="2.10887">
        <ele>102.04</ele>
        <time>2020-09-26T12:29:38Z</time>
      </trkpt>
      <trkpt lat="48.34987" lon="2.10881">
        <ele>103</ele>
        <time>2020-09-26T12:29:45Z</time>
      </trkpt>
      <trkpt lat="48.34991" lon="2.10873">
        <ele>103.48</ele>
        <time>2020-09-26T12:29:51Z</time>
      </trkpt>
      <trkpt lat="48.34992" lon="2.10871">
        <ele>103.96</ele>
        <time>2020-09-26T12:29:52Z</time>
      </trkpt>
      <trkpt lat="48.34993" lon="2.10869">
        <ele>103.96</ele>
        <time>2020-09-26T12:29:53Z</time>
      </trkpt>
      <trkpt lat="48.34994" lon="2.10862">
        <ele>104.92</ele>
        <time>2020-09-26T12:29:58Z</time>
      </trkpt>
      <trkpt lat="48.34995" lon="2.10859">
        <ele>104.92</ele>
        <time>2020-09-26T12:29:59Z</time>
      </trkpt>
      <trkpt lat="48.35003" lon="2.10838">
        <ele>105.88</ele>
        <time>2020-09-26T12:30:12Z</time>
      </trkpt>
      <trkpt lat="48.35008" lon="2.10824">
        <ele>107.32</ele>
        <time>2020-09-26T12:30:23Z</time>
      </trkpt>
      <trkpt lat="48.35012" lon="2.10817">
        <ele>108.29</ele>
        <time>2020-09-26T12:30:29Z</time>
      </trkpt>
      <trkpt lat="48.35015" lon="2.10809">
        <ele>108.29</ele>
        <time>2020-09-26T12:30:35Z</time>
      </trkpt>
      <trkpt lat="48.35021" lon="2.10799">
        <ele>110.21</ele>
        <time>2020-09-26T12:30:45Z</time>
      </trkpt>
      <trkpt lat="48.35025" lon="2.10789">
        <ele>112.61</ele>
        <time>2020-09-26T12:30:55Z</time>
      </trkpt>
      <trkpt lat="48.35029" lon="2.1077">
        <ele>113.09</ele>
        <time>2020-09-26T12:31:07Z</time>
      </trkpt>
      <trkpt lat="48.35037" lon="2.10754">
        <ele>115.5</ele>
        <time>2020-09-26T12:31:21Z</time>
      </trkpt>
      <trkpt lat="48.3504" lon="2.10747">
        <ele>115.5</ele>
        <time>2020-09-26T12:31:26Z</time>
      </trkpt>
      <trkpt lat="48.35042" lon="2.10741">
        <ele>116.46</ele>
        <time>2020-09-26T12:31:30Z</time>
      </trkpt>
      <trkpt lat="48.35044" lon="2.10723">
        <ele>117.42</ele>
        <time>2020-09-26T12:31:43Z</time>
      </trkpt>
      <trkpt lat="48.35049" lon="2.10706">
        <ele>118.86</ele>
        <time>2020-09-26T12:31:55Z</time>
      </trkpt>
      <trkpt lat="48.35053" lon="2.10698">
        <ele>119.82</ele>
        <time>2020-09-26T12:32:02Z</time>
      </trkpt>
      <trkpt lat="48.35054" lon="2.10696">
        <ele>120.3</ele>
        <time>2020-09-26T12:32:03Z</time>
      </trkpt>
      <trkpt lat="48.35063" lon="2.10673">
        <ele>121.26</ele>
        <time>2020-09-26T12:32:16Z</time>
      </trkpt>
      <trkpt lat="48.35064" lon="2.10666">
        <ele>121.26</ele>
        <time>2020-09-26T12:32:20Z</time>
      </trkpt>
      <trkpt lat="48.35064" lon="2.10664">
        <ele>121.74</ele>
        <time>2020-09-26T12:32:21Z</time>
      </trkpt>
      <trkpt lat="48.35067" lon="2.1065">
        <ele>122.71</ele>
        <time>2020-09-26T12:32:34Z</time>
      </trkpt>
      <trkpt lat="48.35071" lon="2.1063">
        <ele>124.15</ele>
        <time>2020-09-26T12:32:47Z</time>
      </trkpt>
      <trkpt lat="48.35076" lon="2.10609">
        <ele>124.63</ele>
        <time>2020-09-26T12:33:01Z</time>
      </trkpt>
      <trkpt lat="48.35082" lon="2.10588">
        <ele>126.55</ele>
        <time>2020-09-26T12:33:15Z</time>
      </trkpt>
      <trkpt lat="48.35088" lon="2.10569">
        <ele>128.47</ele>
        <time>2020-09-26T12:33:28Z</time>
      </trkpt>
      <trkpt lat="48.35095" lon="2.10553">
        <ele>128.47</ele>
        <time>2020-09-26T12:33:39Z</time>
      </trkpt>
      <trkpt lat="48.35095" lon="2.10549">
        <ele>128.47</ele>
        <time>2020-09-26T12:33:43Z</time>
      </trkpt>
      <trkpt lat="48.35096" lon="2.10547">
        <ele>128.47</ele>
        <time>2020-09-26T12:33:44Z</time>
      </trkpt>
      <trkpt lat="48.35099" lon="2.1054">
        <ele>129.43</ele>
        <time>2020-09-26T12:33:50Z</time>
      </trkpt>
      <trkpt lat="48.35103" lon="2.10534">
        <ele>129.43</ele>
        <time>2020-09-26T12:33:56Z</time>
      </trkpt>
      <trkpt lat="48.35104" lon="2.1053">
        <ele>130.4</ele>
        <time>2020-09-26T12:33:58Z</time>
      </trkpt>
      <trkpt lat="48.35111" lon="2.1051">
        <ele>131.36</ele>
        <time>2020-09-26T12:34:12Z</time>
      </trkpt>
      <trkpt lat="48.3512" lon="2.10487">
        <ele>131.84</ele>
        <time>2020-09-26T12:34:29Z</time>
      </trkpt>
      <trkpt lat="48.35129" lon="2.10469">
        <ele>133.28</ele>
        <time>2020-09-26T12:34:42Z</time>
      </trkpt>
      <trkpt lat="48.35136" lon="2.10458">
        <ele>134.72</ele>
        <time>2020-09-26T12:34:52Z</time>
      </trkpt>
      <trkpt lat="48.35146" lon="2.10436">
        <ele>135.2</ele>
        <time>2020-09-26T12:35:07Z</time>
      </trkpt>
      <trkpt lat="48.35155" lon="2.10419">
        <ele>135.68</ele>
        <time>2020-09-26T12:35:20Z</time>
      </trkpt>
      <trkpt lat="48.35166" lon="2.10402">
        <ele>136.64</ele>
        <time>2020-09-26T12:35:33Z</time>
      </trkpt>
      <trkpt lat="48.35176" lon="2.10387">
        <ele>137.13</ele>
        <time>2020-09-26T12:35:45Z</time>
      </trkpt>
      <trkpt lat="48.35185" lon="2.10377">
        <ele>138.09</ele>
        <time>2020-09-26T12:35:55Z</time>
      </trkpt>
      <trkpt lat="48.35197" lon="2.10368">
        <ele>138.57</ele>
        <time>2020-09-26T12:36:08Z</time>
      </trkpt>
      <trkpt lat="48.35198" lon="2.10368">
        <ele>138.57</ele>
        <time>2020-09-26T12:36:09Z</time>
      </trkpt>
      <trkpt lat="48.352" lon="2.10371">
        <ele>139.53</ele>
        <time>2020-09-26T12:36:12Z</time>
      </trkpt>
      <trkpt lat="48.35202" lon="2.10376">
        <ele>139.05</ele>
        <time>2020-09-26T12:36:20Z</time>
      </trkpt>
      <trkpt lat="48.35203" lon="2.10394">
        <ele>139.53</ele>
        <time>2020-09-26T12:36:32Z</time>
      </trkpt>
      <trkpt lat="48.35204" lon="2.10407">
        <ele>139.53</ele>
        <time>2020-09-26T12:36:40Z</time>
      </trkpt>
      <trkpt lat="48.35208" lon="2.10423">
        <ele>139.53</ele>
        <time>2020-09-26T12:36:49Z</time>
      </trkpt>
      <trkpt lat="48.35208" lon="2.10424">
        <ele>139.53</ele>
        <time>2020-09-26T12:36:50Z</time>
      </trkpt>
      <trkpt lat="48.35209" lon="2.10426">
        <ele>140.01</ele>
        <time>2020-09-26T12:36:51Z</time>
      </trkpt>
      <trkpt lat="48.35214" lon="2.10447">
        <ele>139.53</ele>
        <time>2020-09-26T12:37:02Z</time>
      </trkpt>
      <trkpt lat="48.35221" lon="2.10469">
        <ele>139.53</ele>
        <time>2020-09-26T12:37:16Z</time>
      </trkpt>
      <trkpt lat="48.35228" lon="2.10498">
        <ele>140.97</ele>
        <time>2020-09-26T12:37:33Z</time>
      </trkpt>
      <trkpt lat="48.35233" lon="2.10515">
        <ele>140.97</ele>
        <time>2020-09-26T12:37:43Z</time>
      </trkpt>
      <trkpt lat="48.35239" lon="2.1054">
        <ele>141.93</ele>
        <time>2020-09-26T12:37:57Z</time>
      </trkpt>
      <trkpt lat="48.35245" lon="2.10563">
        <ele>140.97</ele>
        <time>2020-09-26T12:38:10Z</time>
      </trkpt>
      <trkpt lat="48.35248" lon="2.10573">
        <ele>140.97</ele>
        <time>2020-09-26T12:38:15Z</time>
      </trkpt>
      <trkpt lat="48.35256" lon="2.106">
        <ele>141.45</ele>
        <time>2020-09-26T12:38:31Z</time>
      </trkpt>
      <trkpt lat="48.35264" lon="2.10625">
        <ele>140.97</ele>
        <time>2020-09-26T12:38:46Z</time>
      </trkpt>
      <trkpt lat="48.35266" lon="2.10627">
        <ele>140.01</ele>
        <time>2020-09-26T12:38:48Z</time>
      </trkpt>
      <trkpt lat="48.35267" lon="2.1063">
        <ele>140.01</ele>
        <time>2020-09-26T12:38:49Z</time>
      </trkpt>
      <trkpt lat="48.35268" lon="2.10632">
        <ele>139.53</ele>
        <time>2020-09-26T12:38:50Z</time>
      </trkpt>
      <trkpt lat="48.35273" lon="2.10648">
        <ele>139.53</ele>
        <time>2020-09-26T12:39:00Z</time>
      </trkpt>
      <trkpt lat="48.35274" lon="2.1065">
        <ele>140.01</ele>
        <time>2020-09-26T12:39:01Z</time>
      </trkpt>
      <trkpt lat="48.35283" lon="2.10671">
        <ele>139.53</ele>
        <time>2020-09-26T12:39:14Z</time>
      </trkpt>
      <trkpt lat="48.35292" lon="2.10691">
        <ele>139.53</ele>
        <time>2020-09-26T12:39:26Z</time>
      </trkpt>
      <trkpt lat="48.35301" lon="2.10712">
        <ele>139.53</ele>
        <time>2020-09-26T12:39:39Z</time>
      </trkpt>
      <trkpt lat="48.3531" lon="2.10728">
        <ele>139.53</ele>
        <time>2020-09-26T12:39:51Z</time>
      </trkpt>
      <trkpt lat="48.35311" lon="2.1073">
        <ele>139.53</ele>
        <time>2020-09-26T12:39:52Z</time>
      </trkpt>
      <trkpt lat="48.35324" lon="2.10754">
        <ele>139.05</ele>
        <time>2020-09-26T12:40:08Z</time>
      </trkpt>
      <trkpt lat="48.35332" lon="2.10773">
        <ele>139.05</ele>
        <time>2020-09-26T12:40:21Z</time>
      </trkpt>
      <trkpt lat="48.35341" lon="2.10791">
        <ele>139.53</ele>
        <time>2020-09-26T12:40:33Z</time>
      </trkpt>
      <trkpt lat="48.35347" lon="2.1081">
        <ele>139.05</ele>
        <time>2020-09-26T12:40:44Z</time>
      </trkpt>
      <trkpt lat="48.35353" lon="2.1083">
        <ele>138.09</ele>
        <time>2020-09-26T12:40:57Z</time>
      </trkpt>
      <trkpt lat="48.3536" lon="2.10853">
        <ele>139.05</ele>
        <time>2020-09-26T12:41:10Z</time>
      </trkpt>
      <trkpt lat="48.35368" lon="2.10876">
        <ele>137.61</ele>
        <time>2020-09-26T12:41:23Z</time>
      </trkpt>
      <trkpt lat="48.35374" lon="2.10899">
        <ele>137.13</ele>
        <time>2020-09-26T12:41:36Z</time>
      </trkpt>
      <trkpt lat="48.35381" lon="2.10919">
        <ele>137.13</ele>
        <time>2020-09-26T12:41:48Z</time>
      </trkpt>
      <trkpt lat="48.35382" lon="2.10921">
        <ele>137.13</ele>
        <time>2020-09-26T12:41:49Z</time>
      </trkpt>
      <trkpt lat="48.35383" lon="2.10922">
        <ele>137.13</ele>
        <time>2020-09-26T12:41:50Z</time>
      </trkpt>
      <trkpt lat="48.35384" lon="2.10925">
        <ele>136.64</ele>
        <time>2020-09-26T12:41:51Z</time>
      </trkpt>
      <trkpt lat="48.35392" lon="2.10947">
        <ele>135.68</ele>
        <time>2020-09-26T12:42:04Z</time>
      </trkpt>
      <trkpt lat="48.35399" lon="2.10966">
        <ele>135.68</ele>
        <time>2020-09-26T12:42:16Z</time>
      </trkpt>
      <trkpt lat="48.35408" lon="2.10986">
        <ele>136.64</ele>
        <time>2020-09-26T12:42:28Z</time>
      </trkpt>
      <trkpt lat="48.35409" lon="2.10988">
        <ele>136.16</ele>
        <time>2020-09-26T12:42:30Z</time>
      </trkpt>
      <trkpt lat="48.3541" lon="2.1099">
        <ele>136.16</ele>
        <time>2020-09-26T12:42:31Z</time>
      </trkpt>
      <trkpt lat="48.35411" lon="2.10992">
        <ele>135.68</ele>
        <time>2020-09-26T12:42:32Z</time>
      </trkpt>
      <trkpt lat="48.35421" lon="2.11013">
        <ele>135.2</ele>
        <time>2020-09-26T12:42:45Z</time>
      </trkpt>
      <trkpt lat="48.35429" lon="2.1103">
        <ele>136.16</ele>
        <time>2020-09-26T12:42:57Z</time>
      </trkpt>
      <trkpt lat="48.35439" lon="2.11051">
        <ele>135.68</ele>
        <time>2020-09-26T12:43:10Z</time>
      </trkpt>
      <trkpt lat="48.35446" lon="2.11072">
        <ele>135.2</ele>
        <time>2020-09-26T12:43:23Z</time>
      </trkpt>
      <trkpt lat="48.35453" lon="2.1109">
        <ele>135.2</ele>
        <time>2020-09-26T12:43:34Z</time>
      </trkpt>
      <trkpt lat="48.35459" lon="2.11109">
        <ele>135.2</ele>
        <time>2020-09-26T12:43:46Z</time>
      </trkpt>
      <trkpt lat="48.35461" lon="2.11114">
        <ele>135.2</ele>
        <time>2020-09-26T12:43:49Z</time>
      </trkpt>
      <trkpt lat="48.35464" lon="2.11118">
        <ele>135.68</ele>
        <time>2020-09-26T12:43:51Z</time>
      </trkpt>
      <trkpt lat="48.35474" lon="2.11137">
        <ele>136.16</ele>
        <time>2020-09-26T12:44:04Z</time>
      </trkpt>
      <trkpt lat="48.3548" lon="2.11147">
        <ele>136.64</ele>
        <time>2020-09-26T12:44:16Z</time>
      </trkpt>
      <trkpt lat="48.35481" lon="2.1115">
        <ele>135.68</ele>
        <time>2020-09-26T12:44:19Z</time>
      </trkpt>
      <trkpt lat="48.35482" lon="2.11152">
        <ele>135.68</ele>
        <time>2020-09-26T12:44:20Z</time>
      </trkpt>
      <trkpt lat="48.35483" lon="2.11154">
        <ele>136.16</ele>
        <time>2020-09-26T12:44:21Z</time>
      </trkpt>
      <trkpt lat="48.35483" lon="2.11155">
        <ele>135.68</ele>
        <time>2020-09-26T12:44:22Z</time>
      </trkpt>
      <trkpt lat="48.35484" lon="2.11157">
        <ele>135.68</ele>
        <time>2020-09-26T12:44:23Z</time>
      </trkpt>
      <trkpt lat="48.35486" lon="2.11158">
        <ele>135.68</ele>
        <time>2020-09-26T12:44:24Z</time>
      </trkpt>
      <trkpt lat="48.35486" lon="2.1116">
        <ele>135.2</ele>
        <time>2020-09-26T12:44:25Z</time>
      </trkpt>
      <trkpt lat="48.35487" lon="2.11162">
        <ele>136.16</ele>
        <time>2020-09-26T12:44:26Z</time>
      </trkpt>
      <trkpt lat="48.35488" lon="2.11163">
        <ele>136.16</ele>
        <time>2020-09-26T12:44:27Z</time>
      </trkpt>
      <trkpt lat="48.35488" lon="2.11164">
        <ele>135.68</ele>
        <time>2020-09-26T12:44:28Z</time>
      </trkpt>
      <trkpt lat="48.35489" lon="2.11166">
        <ele>135.2</ele>
        <time>2020-09-26T12:44:29Z</time>
      </trkpt>
      <trkpt lat="48.3549" lon="2.11168">
        <ele>135.2</ele>
        <time>2020-09-26T12:44:30Z</time>
      </trkpt>
      <trkpt lat="48.3549" lon="2.11169">
        <ele>135.68</ele>
        <time>2020-09-26T12:44:31Z</time>
      </trkpt>
      <trkpt lat="48.35491" lon="2.11171">
        <ele>135.2</ele>
        <time>2020-09-26T12:44:32Z</time>
      </trkpt>
      <trkpt lat="48.35491" lon="2.11172">
        <ele>135.2</ele>
        <time>2020-09-26T12:44:33Z</time>
      </trkpt>
      <trkpt lat="48.35495" lon="2.11191">
        <ele>134.24</ele>
        <time>2020-09-26T12:44:45Z</time>
      </trkpt>
      <trkpt lat="48.35497" lon="2.11196">
        <ele>134.24</ele>
        <time>2020-09-26T12:44:50Z</time>
      </trkpt>
      <trkpt lat="48.35497" lon="2.11198">
        <ele>133.76</ele>
        <time>2020-09-26T12:44:51Z</time>
      </trkpt>
      <trkpt lat="48.35498" lon="2.112">
        <ele>134.24</ele>
        <time>2020-09-26T12:44:52Z</time>
      </trkpt>
      <trkpt lat="48.35498" lon="2.11203">
        <ele>133.76</ele>
        <time>2020-09-26T12:44:53Z</time>
      </trkpt>
      <trkpt lat="48.35498" lon="2.11206">
        <ele>133.76</ele>
        <time>2020-09-26T12:44:54Z</time>
      </trkpt>
      <trkpt lat="48.35499" lon="2.11208">
        <ele>133.76</ele>
        <time>2020-09-26T12:44:55Z</time>
      </trkpt>
      <trkpt lat="48.35499" lon="2.11209">
        <ele>134.24</ele>
        <time>2020-09-26T12:44:56Z</time>
      </trkpt>
      <trkpt lat="48.355" lon="2.11211">
        <ele>133.76</ele>
        <time>2020-09-26T12:45:00Z</time>
      </trkpt>
      <trkpt lat="48.35501" lon="2.11214">
        <ele>133.28</ele>
        <time>2020-09-26T12:45:01Z</time>
      </trkpt>
      <trkpt lat="48.35501" lon="2.11217">
        <ele>133.76</ele>
        <time>2020-09-26T12:45:02Z</time>
      </trkpt>
      <trkpt lat="48.35501" lon="2.1122">
        <ele>133.28</ele>
        <time>2020-09-26T12:45:03Z</time>
      </trkpt>
      <trkpt lat="48.35501" lon="2.11223">
        <ele>133.28</ele>
        <time>2020-09-26T12:45:04Z</time>
      </trkpt>
      <trkpt lat="48.35502" lon="2.11226">
        <ele>132.8</ele>
        <time>2020-09-26T12:45:08Z</time>
      </trkpt>
      <trkpt lat="48.35502" lon="2.11228">
        <ele>132.8</ele>
        <time>2020-09-26T12:45:09Z</time>
      </trkpt>
      <trkpt lat="48.35503" lon="2.11231">
        <ele>132.8</ele>
        <time>2020-09-26T12:45:10Z</time>
      </trkpt>
      <trkpt lat="48.35503" lon="2.11234">
        <ele>133.28</ele>
        <time>2020-09-26T12:45:11Z</time>
      </trkpt>
      <trkpt lat="48.35502" lon="2.11236">
        <ele>133.28</ele>
        <time>2020-09-26T12:45:12Z</time>
      </trkpt>
      <trkpt lat="48.35504" lon="2.11252">
        <ele>132.32</ele>
        <time>2020-09-26T12:45:22Z</time>
      </trkpt>
      <trkpt lat="48.35506" lon="2.11274">
        <ele>131.84</ele>
        <time>2020-09-26T12:45:35Z</time>
      </trkpt>
      <trkpt lat="48.35508" lon="2.11294">
        <ele>131.84</ele>
        <time>2020-09-26T12:45:47Z</time>
      </trkpt>
      <trkpt lat="48.35513" lon="2.11313">
        <ele>131.36</ele>
        <time>2020-09-26T12:45:56Z</time>
      </trkpt>
      <trkpt lat="48.35516" lon="2.11337">
        <ele>129.92</ele>
        <time>2020-09-26T12:46:11Z</time>
      </trkpt>
      <trkpt lat="48.35518" lon="2.11357">
        <ele>128.95</ele>
        <time>2020-09-26T12:46:22Z</time>
      </trkpt>
      <trkpt lat="48.35525" lon="2.11376">
        <ele>128.95</ele>
        <time>2020-09-26T12:46:31Z</time>
      </trkpt>
      <trkpt lat="48.35526" lon="2.11384">
        <ele>127.99</ele>
        <time>2020-09-26T12:46:37Z</time>
      </trkpt>
      <trkpt lat="48.35527" lon="2.11386">
        <ele>127.99</ele>
        <time>2020-09-26T12:46:38Z</time>
      </trkpt>
      <trkpt lat="48.35527" lon="2.11389">
        <ele>127.99</ele>
        <time>2020-09-26T12:46:39Z</time>
      </trkpt>
      <trkpt lat="48.35528" lon="2.11392">
        <ele>127.99</ele>
        <time>2020-09-26T12:46:40Z</time>
      </trkpt>
      <trkpt lat="48.35529" lon="2.11395">
        <ele>127.51</ele>
        <time>2020-09-26T12:46:41Z</time>
      </trkpt>
      <trkpt lat="48.35529" lon="2.11397">
        <ele>127.03</ele>
        <time>2020-09-26T12:46:42Z</time>
      </trkpt>
      <trkpt lat="48.35529" lon="2.11399">
        <ele>127.99</ele>
        <time>2020-09-26T12:46:43Z</time>
      </trkpt>
      <trkpt lat="48.3553" lon="2.11406">
        <ele>127.51</ele>
        <time>2020-09-26T12:46:49Z</time>
      </trkpt>
      <trkpt lat="48.35531" lon="2.11409">
        <ele>127.03</ele>
        <time>2020-09-26T12:46:50Z</time>
      </trkpt>
      <trkpt lat="48.35533" lon="2.11424">
        <ele>127.03</ele>
        <time>2020-09-26T12:46:59Z</time>
      </trkpt>
      <trkpt lat="48.35534" lon="2.11429">
        <ele>126.55</ele>
        <time>2020-09-26T12:47:02Z</time>
      </trkpt>
      <trkpt lat="48.35538" lon="2.11448">
        <ele>125.59</ele>
        <time>2020-09-26T12:47:12Z</time>
      </trkpt>
      <trkpt lat="48.35545" lon="2.11472">
        <ele>124.63</ele>
        <time>2020-09-26T12:47:24Z</time>
      </trkpt>
      <trkpt lat="48.35545" lon="2.11476">
        <ele>124.63</ele>
        <time>2020-09-26T12:47:27Z</time>
      </trkpt>
      <trkpt lat="48.35545" lon="2.11478">
        <ele>124.63</ele>
        <time>2020-09-26T12:47:28Z</time>
      </trkpt>
      <trkpt lat="48.35546" lon="2.1148">
        <ele>125.11</ele>
        <time>2020-09-26T12:47:29Z</time>
      </trkpt>
      <trkpt lat="48.35547" lon="2.11482">
        <ele>125.11</ele>
        <time>2020-09-26T12:47:30Z</time>
      </trkpt>
      <trkpt lat="48.35548" lon="2.11485">
        <ele>124.63</ele>
        <time>2020-09-26T12:47:31Z</time>
      </trkpt>
      <trkpt lat="48.35548" lon="2.11487">
        <ele>124.63</ele>
        <time>2020-09-26T12:47:32Z</time>
      </trkpt>
      <trkpt lat="48.35553" lon="2.11509">
        <ele>124.15</ele>
        <time>2020-09-26T12:47:44Z</time>
      </trkpt>
      <trkpt lat="48.35557" lon="2.11521">
        <ele>123.19</ele>
        <time>2020-09-26T12:47:53Z</time>
      </trkpt>
      <trkpt lat="48.35558" lon="2.11524">
        <ele>123.67</ele>
        <time>2020-09-26T12:47:54Z</time>
      </trkpt>
      <trkpt lat="48.35559" lon="2.11526">
        <ele>123.19</ele>
        <time>2020-09-26T12:47:55Z</time>
      </trkpt>
      <trkpt lat="48.35559" lon="2.11528">
        <ele>123.19</ele>
        <time>2020-09-26T12:47:56Z</time>
      </trkpt>
      <trkpt lat="48.35566" lon="2.11557">
        <ele>122.22</ele>
        <time>2020-09-26T12:48:14Z</time>
      </trkpt>
      <trkpt lat="48.35566" lon="2.11561">
        <ele>121.74</ele>
        <time>2020-09-26T12:48:17Z</time>
      </trkpt>
      <trkpt lat="48.35566" lon="2.11562">
        <ele>121.26</ele>
        <time>2020-09-26T12:48:18Z</time>
      </trkpt>
      <trkpt lat="48.35569" lon="2.11573">
        <ele>121.74</ele>
        <time>2020-09-26T12:48:28Z</time>
      </trkpt>
      <trkpt lat="48.3557" lon="2.11593">
        <ele>120.3</ele>
        <time>2020-09-26T12:48:37Z</time>
      </trkpt>
      <trkpt lat="48.3557" lon="2.11597">
        <ele>119.34</ele>
        <time>2020-09-26T12:48:42Z</time>
      </trkpt>
      <trkpt lat="48.3557" lon="2.116">
        <ele>119.82</ele>
        <time>2020-09-26T12:48:43Z</time>
      </trkpt>
      <trkpt lat="48.3557" lon="2.11604">
        <ele>119.34</ele>
        <time>2020-09-26T12:48:44Z</time>
      </trkpt>
      <trkpt lat="48.35571" lon="2.11607">
        <ele>119.82</ele>
        <time>2020-09-26T12:48:45Z</time>
      </trkpt>
      <trkpt lat="48.35571" lon="2.1161">
        <ele>118.86</ele>
        <time>2020-09-26T12:48:46Z</time>
      </trkpt>
      <trkpt lat="48.35571" lon="2.11613">
        <ele>119.34</ele>
        <time>2020-09-26T12:48:47Z</time>
      </trkpt>
      <trkpt lat="48.35571" lon="2.11615">
        <ele>118.86</ele>
        <time>2020-09-26T12:48:48Z</time>
      </trkpt>
      <trkpt lat="48.35574" lon="2.11634">
        <ele>118.86</ele>
        <time>2020-09-26T12:48:59Z</time>
      </trkpt>
      <trkpt lat="48.35575" lon="2.11637">
        <ele>118.86</ele>
        <time>2020-09-26T12:49:01Z</time>
      </trkpt>
      <trkpt lat="48.3558" lon="2.11663">
        <ele>117.42</ele>
        <time>2020-09-26T12:49:16Z</time>
      </trkpt>
      <trkpt lat="48.35584" lon="2.11684">
        <ele>115.98</ele>
        <time>2020-09-26T12:49:28Z</time>
      </trkpt>
      <trkpt lat="48.35592" lon="2.11714">
        <ele>114.53</ele>
        <time>2020-09-26T12:49:47Z</time>
      </trkpt>
      <trkpt lat="48.35601" lon="2.11739">
        <ele>113.09</ele>
        <time>2020-09-26T12:50:00Z</time>
      </trkpt>
      <trkpt lat="48.35607" lon="2.11761">
        <ele>112.13</ele>
        <time>2020-09-26T12:50:11Z</time>
      </trkpt>
      <trkpt lat="48.3561" lon="2.11776">
        <ele>111.17</ele>
        <time>2020-09-26T12:50:21Z</time>
      </trkpt>
      <trkpt lat="48.3562" lon="2.11798">
        <ele>109.73</ele>
        <time>2020-09-26T12:50:34Z</time>
      </trkpt>
      <trkpt lat="48.35629" lon="2.11817">
        <ele>108.77</ele>
        <time>2020-09-26T12:50:46Z</time>
      </trkpt>
      <trkpt lat="48.3564" lon="2.1183">
        <ele>106.84</ele>
        <time>2020-09-26T12:50:57Z</time>
      </trkpt>
      <trkpt lat="48.35649" lon="2.11837">
        <ele>106.84</ele>
        <time>2020-09-26T12:51:09Z</time>
      </trkpt>
      <trkpt lat="48.3565" lon="2.11838">
        <ele>106.36</ele>
        <time>2020-09-26T12:51:10Z</time>
      </trkpt>
      <trkpt lat="48.35651" lon="2.11839">
        <ele>105.88</ele>
        <time>2020-09-26T12:51:11Z</time>
      </trkpt>
      <trkpt lat="48.35669" lon="2.11857">
        <ele>104.44</ele>
        <time>2020-09-26T12:51:28Z</time>
      </trkpt>
      <trkpt lat="48.35669" lon="2.11858">
        <ele>103.96</ele>
        <time>2020-09-26T12:51:40Z</time>
      </trkpt>
      <trkpt lat="48.35674" lon="2.11861">
        <ele>103.48</ele>
        <time>2020-09-26T12:51:45Z</time>
      </trkpt>
      <trkpt lat="48.35675" lon="2.11863">
        <ele>103.48</ele>
        <time>2020-09-26T12:51:46Z</time>
      </trkpt>
      <trkpt lat="48.35677" lon="2.11864">
        <ele>103.48</ele>
        <time>2020-09-26T12:51:47Z</time>
      </trkpt>
      <trkpt lat="48.35679" lon="2.11865">
        <ele>103.48</ele>
        <time>2020-09-26T12:51:48Z</time>
      </trkpt>
      <trkpt lat="48.3568" lon="2.11866">
        <ele>103.48</ele>
        <time>2020-09-26T12:51:49Z</time>
      </trkpt>
      <trkpt lat="48.35682" lon="2.11866">
        <ele>103.48</ele>
        <time>2020-09-26T12:51:50Z</time>
      </trkpt>
      <trkpt lat="48.35684" lon="2.11866">
        <ele>103</ele>
        <time>2020-09-26T12:51:51Z</time>
      </trkpt>
      <trkpt lat="48.35685" lon="2.11867">
        <ele>103</ele>
        <time>2020-09-26T12:51:52Z</time>
      </trkpt>
      <trkpt lat="48.35686" lon="2.11868">
        <ele>103</ele>
        <time>2020-09-26T12:51:53Z</time>
      </trkpt>
      <trkpt lat="48.35702" lon="2.11885">
        <ele>101.08</ele>
        <time>2020-09-26T12:52:07Z</time>
      </trkpt>
      <trkpt lat="48.35711" lon="2.11896">
        <ele>99.15</ele>
        <time>2020-09-26T12:52:18Z</time>
      </trkpt>
      <trkpt lat="48.35719" lon="2.11912">
        <ele>97.23</ele>
        <time>2020-09-26T12:52:31Z</time>
      </trkpt>
      <trkpt lat="48.35721" lon="2.11913">
        <ele>97.71</ele>
        <time>2020-09-26T12:52:38Z</time>
      </trkpt>
      <trkpt lat="48.35722" lon="2.11915">
        <ele>97.23</ele>
        <time>2020-09-26T12:52:39Z</time>
      </trkpt>
      <trkpt lat="48.35724" lon="2.11915">
        <ele>98.67</ele>
        <time>2020-09-26T12:52:50Z</time>
      </trkpt>
      <trkpt lat="48.35728" lon="2.11925">
        <ele>96.75</ele>
        <time>2020-09-26T12:53:00Z</time>
      </trkpt>
      <trkpt lat="48.35739" lon="2.11943">
        <ele>94.83</ele>
        <time>2020-09-26T12:53:13Z</time>
      </trkpt>
      <trkpt lat="48.35742" lon="2.11944">
        <ele>94.35</ele>
        <time>2020-09-26T12:53:18Z</time>
      </trkpt>
      <trkpt lat="48.35743" lon="2.11946">
        <ele>94.35</ele>
        <time>2020-09-26T12:53:19Z</time>
      </trkpt>
      <trkpt lat="48.35749" lon="2.11955">
        <ele>93.39</ele>
        <time>2020-09-26T12:53:26Z</time>
      </trkpt>
      <trkpt lat="48.3575" lon="2.11956">
        <ele>93.39</ele>
        <time>2020-09-26T12:53:27Z</time>
      </trkpt>
      <trkpt lat="48.35759" lon="2.11972">
        <ele>91.94</ele>
        <time>2020-09-26T12:53:40Z</time>
      </trkpt>
      <trkpt lat="48.35769" lon="2.11988">
        <ele>91.94</ele>
        <time>2020-09-26T12:53:51Z</time>
      </trkpt>
      <trkpt lat="48.35771" lon="2.11992">
        <ele>90.98</ele>
        <time>2020-09-26T12:53:58Z</time>
      </trkpt>
      <trkpt lat="48.35773" lon="2.11993">
        <ele>90.98</ele>
        <time>2020-09-26T12:53:59Z</time>
      </trkpt>
      <trkpt lat="48.35774" lon="2.11994">
        <ele>90.98</ele>
        <time>2020-09-26T12:54:00Z</time>
      </trkpt>
      <trkpt lat="48.35785" lon="2.12012">
        <ele>89.54</ele>
        <time>2020-09-26T12:54:14Z</time>
      </trkpt>
      <trkpt lat="48.3579" lon="2.12019">
        <ele>90.5</ele>
        <time>2020-09-26T12:54:27Z</time>
      </trkpt>
      <trkpt lat="48.35795" lon="2.12035">
        <ele>88.58</ele>
        <time>2020-09-26T12:54:40Z</time>
      </trkpt>
      <trkpt lat="48.35797" lon="2.1204">
        <ele>87.14</ele>
        <time>2020-09-26T12:54:43Z</time>
      </trkpt>
      <trkpt lat="48.35804" lon="2.12059">
        <ele>87.62</ele>
        <time>2020-09-26T12:54:56Z</time>
      </trkpt>
      <trkpt lat="48.35803" lon="2.12062">
        <ele>87.62</ele>
        <time>2020-09-26T12:54:59Z</time>
      </trkpt>
      <trkpt lat="48.35803" lon="2.12063">
        <ele>87.14</ele>
        <time>2020-09-26T12:55:00Z</time>
      </trkpt>
      <trkpt lat="48.35805" lon="2.12071">
        <ele>87.14</ele>
        <time>2020-09-26T12:55:05Z</time>
      </trkpt>
      <trkpt lat="48.35805" lon="2.12073">
        <ele>86.66</ele>
        <time>2020-09-26T12:55:06Z</time>
      </trkpt>
      <trkpt lat="48.35808" lon="2.12095">
        <ele>85.69</ele>
        <time>2020-09-26T12:55:19Z</time>
      </trkpt>
      <trkpt lat="48.3581" lon="2.12105">
        <ele>85.21</ele>
        <time>2020-09-26T12:55:26Z</time>
      </trkpt>
      <trkpt lat="48.35811" lon="2.12107">
        <ele>84.73</ele>
        <time>2020-09-26T12:55:27Z</time>
      </trkpt>
      <trkpt lat="48.35812" lon="2.1211">
        <ele>84.73</ele>
        <time>2020-09-26T12:55:28Z</time>
      </trkpt>
      <trkpt lat="48.35813" lon="2.12112">
        <ele>85.69</ele>
        <time>2020-09-26T12:55:29Z</time>
      </trkpt>
      <trkpt lat="48.35814" lon="2.12114">
        <ele>85.21</ele>
        <time>2020-09-26T12:55:30Z</time>
      </trkpt>
      <trkpt lat="48.35825" lon="2.12127">
        <ele>85.21</ele>
        <time>2020-09-26T12:55:42Z</time>
      </trkpt>
      <trkpt lat="48.35843" lon="2.12147">
        <ele>83.77</ele>
        <time>2020-09-26T12:55:59Z</time>
      </trkpt>
      <trkpt lat="48.3585" lon="2.12158">
        <ele>82.81</ele>
        <time>2020-09-26T12:56:08Z</time>
      </trkpt>
      <trkpt lat="48.35857" lon="2.12177">
        <ele>83.29</ele>
        <time>2020-09-26T12:56:21Z</time>
      </trkpt>
      <trkpt lat="48.35855" lon="2.1219">
        <ele>81.37</ele>
        <time>2020-09-26T12:56:31Z</time>
      </trkpt>
      <trkpt lat="48.35852" lon="2.12193">
        <ele>81.85</ele>
        <time>2020-09-26T12:56:43Z</time>
      </trkpt>
      <trkpt lat="48.35852" lon="2.12189">
        <ele>82.81</ele>
        <time>2020-09-26T12:56:59Z</time>
      </trkpt>
      <trkpt lat="48.35853" lon="2.12188">
        <ele>82.33</ele>
        <time>2020-09-26T12:57:00Z</time>
      </trkpt>
      <trkpt lat="48.35859" lon="2.12191">
        <ele>82.33</ele>
        <time>2020-09-26T12:57:09Z</time>
      </trkpt>
      <trkpt lat="48.35865" lon="2.12195">
        <ele>83.77</ele>
        <time>2020-09-26T12:57:24Z</time>
      </trkpt>
      <trkpt lat="48.35866" lon="2.12193">
        <ele>83.29</ele>
        <time>2020-09-26T12:57:31Z</time>
      </trkpt>
      <trkpt lat="48.35867" lon="2.12192">
        <ele>83.29</ele>
        <time>2020-09-26T12:57:32Z</time>
      </trkpt>
      <trkpt lat="48.35869" lon="2.12192">
        <ele>83.29</ele>
        <time>2020-09-26T12:57:33Z</time>
      </trkpt>
      <trkpt lat="48.35881" lon="2.12191">
        <ele>82.33</ele>
        <time>2020-09-26T12:57:44Z</time>
      </trkpt>
      <trkpt lat="48.35882" lon="2.12191">
        <ele>82.33</ele>
        <time>2020-09-26T12:57:45Z</time>
      </trkpt>
      <trkpt lat="48.35883" lon="2.12191">
        <ele>82.33</ele>
        <time>2020-09-26T12:57:46Z</time>
      </trkpt>
      <trkpt lat="48.35884" lon="2.12191">
        <ele>82.33</ele>
        <time>2020-09-26T12:57:47Z</time>
      </trkpt>
      <trkpt lat="48.35899" lon="2.12185">
        <ele>83.77</ele>
        <time>2020-09-26T12:57:59Z</time>
      </trkpt>
      <trkpt lat="48.35913" lon="2.12175">
        <ele>83.77</ele>
        <time>2020-09-26T12:58:14Z</time>
      </trkpt>
      <trkpt lat="48.35928" lon="2.12162">
        <ele>82.81</ele>
        <time>2020-09-26T12:58:28Z</time>
      </trkpt>
      <trkpt lat="48.35944" lon="2.12154">
        <ele>83.29</ele>
        <time>2020-09-26T12:58:42Z</time>
      </trkpt>
      <trkpt lat="48.35961" lon="2.1214">
        <ele>83.77</ele>
        <time>2020-09-26T12:58:55Z</time>
      </trkpt>
      <trkpt lat="48.35972" lon="2.12139">
        <ele>84.25</ele>
        <time>2020-09-26T12:59:06Z</time>
      </trkpt>
      <trkpt lat="48.35972" lon="2.1214">
        <ele>84.25</ele>
        <time>2020-09-26T12:59:07Z</time>
      </trkpt>
      <trkpt lat="48.35984" lon="2.12148">
        <ele>83.29</ele>
        <time>2020-09-26T12:59:19Z</time>
      </trkpt>
      <trkpt lat="48.35994" lon="2.12156">
        <ele>82.81</ele>
        <time>2020-09-26T12:59:30Z</time>
      </trkpt>
      <trkpt lat="48.36006" lon="2.12166">
        <ele>82.81</ele>
        <time>2020-09-26T12:59:41Z</time>
      </trkpt>
      <trkpt lat="48.36011" lon="2.12181">
        <ele>82.81</ele>
        <time>2020-09-26T12:59:53Z</time>
      </trkpt>
      <trkpt lat="48.36022" lon="2.12214">
        <ele>82.33</ele>
        <time>2020-09-26T13:00:12Z</time>
      </trkpt>
      <trkpt lat="48.36021" lon="2.1222">
        <ele>81.85</ele>
        <time>2020-09-26T13:00:16Z</time>
      </trkpt>
      <trkpt lat="48.3602" lon="2.12223">
        <ele>81.85</ele>
        <time>2020-09-26T13:00:18Z</time>
      </trkpt>
      <trkpt lat="48.36023" lon="2.1223">
        <ele>81.37</ele>
        <time>2020-09-26T13:00:22Z</time>
      </trkpt>
      <trkpt lat="48.36025" lon="2.12233">
        <ele>80.89</ele>
        <time>2020-09-26T13:00:26Z</time>
      </trkpt>
      <trkpt lat="48.36027" lon="2.12234">
        <ele>81.37</ele>
        <time>2020-09-26T13:00:30Z</time>
      </trkpt>
      <trkpt lat="48.36041" lon="2.12241">
        <ele>81.37</ele>
        <time>2020-09-26T13:00:45Z</time>
      </trkpt>
      <trkpt lat="48.36045" lon="2.1224">
        <ele>81.37</ele>
        <time>2020-09-26T13:00:53Z</time>
      </trkpt>
      <trkpt lat="48.36053" lon="2.12242">
        <ele>80.89</ele>
        <time>2020-09-26T13:01:00Z</time>
      </trkpt>
      <trkpt lat="48.36059" lon="2.12246">
        <ele>81.85</ele>
        <time>2020-09-26T13:01:05Z</time>
      </trkpt>
      <trkpt lat="48.36061" lon="2.12248">
        <ele>81.85</ele>
        <time>2020-09-26T13:01:07Z</time>
      </trkpt>
      <trkpt lat="48.36069" lon="2.12257">
        <ele>81.37</ele>
        <time>2020-09-26T13:01:17Z</time>
      </trkpt>
      <trkpt lat="48.36074" lon="2.12261">
        <ele>80.89</ele>
        <time>2020-09-26T13:01:22Z</time>
      </trkpt>
      <trkpt lat="48.36076" lon="2.12266">
        <ele>81.37</ele>
        <time>2020-09-26T13:01:31Z</time>
      </trkpt>
      <trkpt lat="48.36079" lon="2.12274">
        <ele>81.37</ele>
        <time>2020-09-26T13:01:52Z</time>
      </trkpt>
      <trkpt lat="48.36087" lon="2.12286">
        <ele>81.85</ele>
        <time>2020-09-26T13:02:08Z</time>
      </trkpt>
      <trkpt lat="48.36099" lon="2.12289">
        <ele>82.33</ele>
        <time>2020-09-26T13:02:23Z</time>
      </trkpt>
      <trkpt lat="48.36101" lon="2.12293">
        <ele>82.33</ele>
        <time>2020-09-26T13:02:37Z</time>
      </trkpt>
      <trkpt lat="48.36097" lon="2.12295">
        <ele>81.37</ele>
        <time>2020-09-26T13:02:46Z</time>
      </trkpt>
      <trkpt lat="48.36079" lon="2.12312">
        <ele>81.85</ele>
        <time>2020-09-26T13:03:02Z</time>
      </trkpt>
      <trkpt lat="48.3607" lon="2.12323">
        <ele>80.89</ele>
        <time>2020-09-26T13:03:10Z</time>
      </trkpt>
      <trkpt lat="48.36068" lon="2.12323">
        <ele>80.89</ele>
        <time>2020-09-26T13:03:14Z</time>
      </trkpt>
      <trkpt lat="48.36063" lon="2.12317">
        <ele>80.41</ele>
        <time>2020-09-26T13:03:21Z</time>
      </trkpt>
      <trkpt lat="48.36059" lon="2.12316">
        <ele>81.37</ele>
        <time>2020-09-26T13:03:26Z</time>
      </trkpt>
      <trkpt lat="48.36042" lon="2.12321">
        <ele>81.37</ele>
        <time>2020-09-26T13:03:39Z</time>
      </trkpt>
      <trkpt lat="48.36028" lon="2.12329">
        <ele>81.37</ele>
        <time>2020-09-26T13:03:56Z</time>
      </trkpt>
      <trkpt lat="48.36008" lon="2.1234">
        <ele>81.37</ele>
        <time>2020-09-26T13:04:12Z</time>
      </trkpt>
      <trkpt lat="48.35993" lon="2.12355">
        <ele>81.85</ele>
        <time>2020-09-26T13:04:28Z</time>
      </trkpt>
      <trkpt lat="48.35975" lon="2.1237">
        <ele>82.33</ele>
        <time>2020-09-26T13:04:44Z</time>
      </trkpt>
      <trkpt lat="48.3596" lon="2.12387">
        <ele>82.33</ele>
        <time>2020-09-26T13:05:00Z</time>
      </trkpt>
      <trkpt lat="48.35948" lon="2.12402">
        <ele>82.33</ele>
        <time>2020-09-26T13:05:13Z</time>
      </trkpt>
      <trkpt lat="48.35948" lon="2.12407">
        <ele>82.33</ele>
        <time>2020-09-26T13:05:18Z</time>
      </trkpt>
      <trkpt lat="48.35951" lon="2.1241">
        <ele>82.33</ele>
        <time>2020-09-26T13:05:21Z</time>
      </trkpt>
      <trkpt lat="48.35957" lon="2.12428">
        <ele>81.85</ele>
        <time>2020-09-26T13:05:34Z</time>
      </trkpt>
      <trkpt lat="48.35957" lon="2.12429">
        <ele>81.85</ele>
        <time>2020-09-26T13:05:35Z</time>
      </trkpt>
      <trkpt lat="48.35974" lon="2.12443">
        <ele>81.85</ele>
        <time>2020-09-26T13:05:49Z</time>
      </trkpt>
      <trkpt lat="48.35977" lon="2.1245">
        <ele>81.37</ele>
        <time>2020-09-26T13:05:54Z</time>
      </trkpt>
      <trkpt lat="48.35979" lon="2.12452">
        <ele>81.37</ele>
        <time>2020-09-26T13:05:56Z</time>
      </trkpt>
      <trkpt lat="48.35983" lon="2.12459">
        <ele>82.81</ele>
        <time>2020-09-26T13:06:09Z</time>
      </trkpt>
      <trkpt lat="48.35983" lon="2.1246">
        <ele>81.85</ele>
        <time>2020-09-26T13:06:25Z</time>
      </trkpt>
      <trkpt lat="48.35981" lon="2.12462">
        <ele>81.37</ele>
        <time>2020-09-26T13:06:27Z</time>
      </trkpt>
      <trkpt lat="48.35978" lon="2.12465">
        <ele>81.37</ele>
        <time>2020-09-26T13:06:31Z</time>
      </trkpt>
      <trkpt lat="48.35972" lon="2.12473">
        <ele>82.33</ele>
        <time>2020-09-26T13:06:41Z</time>
      </trkpt>
      <trkpt lat="48.3597" lon="2.12477">
        <ele>82.33</ele>
        <time>2020-09-26T13:06:47Z</time>
      </trkpt>
      <trkpt lat="48.35958" lon="2.12488">
        <ele>81.85</ele>
        <time>2020-09-26T13:07:02Z</time>
      </trkpt>
      <trkpt lat="48.35942" lon="2.1251">
        <ele>81.85</ele>
        <time>2020-09-26T13:07:18Z</time>
      </trkpt>
      <trkpt lat="48.35937" lon="2.12529">
        <ele>81.85</ele>
        <time>2020-09-26T13:07:30Z</time>
      </trkpt>
      <trkpt lat="48.35929" lon="2.12563">
        <ele>81.85</ele>
        <time>2020-09-26T13:07:46Z</time>
      </trkpt>
      <trkpt lat="48.35924" lon="2.12573">
        <ele>81.85</ele>
        <time>2020-09-26T13:07:52Z</time>
      </trkpt>
      <trkpt lat="48.35928" lon="2.126">
        <ele>82.33</ele>
        <time>2020-09-26T13:08:07Z</time>
      </trkpt>
      <trkpt lat="48.35933" lon="2.12611">
        <ele>81.37</ele>
        <time>2020-09-26T13:08:16Z</time>
      </trkpt>
      <trkpt lat="48.35936" lon="2.1262">
        <ele>80.89</ele>
        <time>2020-09-26T13:08:30Z</time>
      </trkpt>
      <trkpt lat="48.35936" lon="2.12622">
        <ele>81.37</ele>
        <time>2020-09-26T13:08:41Z</time>
      </trkpt>
      <trkpt lat="48.35936" lon="2.12623">
        <ele>81.37</ele>
        <time>2020-09-26T13:08:42Z</time>
      </trkpt>
      <trkpt lat="48.35938" lon="2.1263">
        <ele>80.89</ele>
        <time>2020-09-26T13:08:52Z</time>
      </trkpt>
      <trkpt lat="48.35939" lon="2.12632">
        <ele>81.85</ele>
        <time>2020-09-26T13:09:07Z</time>
      </trkpt>
      <trkpt lat="48.35941" lon="2.12638">
        <ele>80.89</ele>
        <time>2020-09-26T13:09:19Z</time>
      </trkpt>
      <trkpt lat="48.35942" lon="2.12641">
        <ele>80.89</ele>
        <time>2020-09-26T13:09:21Z</time>
      </trkpt>
      <trkpt lat="48.35943" lon="2.12642">
        <ele>80.41</ele>
        <time>2020-09-26T13:09:22Z</time>
      </trkpt>
      <trkpt lat="48.35945" lon="2.12646">
        <ele>80.41</ele>
        <time>2020-09-26T13:09:26Z</time>
      </trkpt>
      <trkpt lat="48.35948" lon="2.12649">
        <ele>80.41</ele>
        <time>2020-09-26T13:09:31Z</time>
      </trkpt>
      <trkpt lat="48.35949" lon="2.1265">
        <ele>80.41</ele>
        <time>2020-09-26T13:09:32Z</time>
      </trkpt>
      <trkpt lat="48.35949" lon="2.12652">
        <ele>80.89</ele>
        <time>2020-09-26T13:09:33Z</time>
      </trkpt>
      <trkpt lat="48.35949" lon="2.12653">
        <ele>81.37</ele>
        <time>2020-09-26T13:09:34Z</time>
      </trkpt>
      <trkpt lat="48.3595" lon="2.12656">
        <ele>81.37</ele>
        <time>2020-09-26T13:09:36Z</time>
      </trkpt>
      <trkpt lat="48.35951" lon="2.12658">
        <ele>80.41</ele>
        <time>2020-09-26T13:09:38Z</time>
      </trkpt>
      <trkpt lat="48.35952" lon="2.1267">
        <ele>82.33</ele>
        <time>2020-09-26T13:09:50Z</time>
      </trkpt>
      <trkpt lat="48.35953" lon="2.12694">
        <ele>81.85</ele>
        <time>2020-09-26T13:10:05Z</time>
      </trkpt>
      <trkpt lat="48.35955" lon="2.12721">
        <ele>81.37</ele>
        <time>2020-09-26T13:10:21Z</time>
      </trkpt>
      <trkpt lat="48.35956" lon="2.1274">
        <ele>80.89</ele>
        <time>2020-09-26T13:10:34Z</time>
      </trkpt>
      <trkpt lat="48.35955" lon="2.12758">
        <ele>81.37</ele>
        <time>2020-09-26T13:10:46Z</time>
      </trkpt>
      <trkpt lat="48.35956" lon="2.12777">
        <ele>82.81</ele>
        <time>2020-09-26T13:10:58Z</time>
      </trkpt>
      <trkpt lat="48.35959" lon="2.12796">
        <ele>82.81</ele>
        <time>2020-09-26T13:11:09Z</time>
      </trkpt>
      <trkpt lat="48.35952" lon="2.12804">
        <ele>83.29</ele>
        <time>2020-09-26T13:11:19Z</time>
      </trkpt>
      <trkpt lat="48.35947" lon="2.12802">
        <ele>83.77</ele>
        <time>2020-09-26T13:11:24Z</time>
      </trkpt>
      <trkpt lat="48.35946" lon="2.12801">
        <ele>83.29</ele>
        <time>2020-09-26T13:11:25Z</time>
      </trkpt>
      <trkpt lat="48.35937" lon="2.12797">
        <ele>85.69</ele>
        <time>2020-09-26T13:11:36Z</time>
      </trkpt>
      <trkpt lat="48.35932" lon="2.12793">
        <ele>85.69</ele>
        <time>2020-09-26T13:11:41Z</time>
      </trkpt>
      <trkpt lat="48.3593" lon="2.12792">
        <ele>85.69</ele>
        <time>2020-09-26T13:11:42Z</time>
      </trkpt>
      <trkpt lat="48.35924" lon="2.12785">
        <ele>86.18</ele>
        <time>2020-09-26T13:11:48Z</time>
      </trkpt>
      <trkpt lat="48.3592" lon="2.1278">
        <ele>86.66</ele>
        <time>2020-09-26T13:11:53Z</time>
      </trkpt>
      <trkpt lat="48.35919" lon="2.12778">
        <ele>87.14</ele>
        <time>2020-09-26T13:11:54Z</time>
      </trkpt>
      <trkpt lat="48.35916" lon="2.12774">
        <ele>87.14</ele>
        <time>2020-09-26T13:11:59Z</time>
      </trkpt>
      <trkpt lat="48.35914" lon="2.12773">
        <ele>87.14</ele>
        <time>2020-09-26T13:12:00Z</time>
      </trkpt>
      <trkpt lat="48.35913" lon="2.12771">
        <ele>87.62</ele>
        <time>2020-09-26T13:12:01Z</time>
      </trkpt>
      <trkpt lat="48.35909" lon="2.12765">
        <ele>88.1</ele>
        <time>2020-09-26T13:12:07Z</time>
      </trkpt>
      <trkpt lat="48.35903" lon="2.12762">
        <ele>89.06</ele>
        <time>2020-09-26T13:12:13Z</time>
      </trkpt>
      <trkpt lat="48.35901" lon="2.12762">
        <ele>89.06</ele>
        <time>2020-09-26T13:12:14Z</time>
      </trkpt>
      <trkpt lat="48.35887" lon="2.12769">
        <ele>89.54</ele>
        <time>2020-09-26T13:12:27Z</time>
      </trkpt>
      <trkpt lat="48.35883" lon="2.12771">
        <ele>90.02</ele>
        <time>2020-09-26T13:12:38Z</time>
      </trkpt>
      <trkpt lat="48.35883" lon="2.12772">
        <ele>90.02</ele>
        <time>2020-09-26T13:12:44Z</time>
      </trkpt>
      <trkpt lat="48.3588" lon="2.1277">
        <ele>90.02</ele>
        <time>2020-09-26T13:12:54Z</time>
      </trkpt>
      <trkpt lat="48.35881" lon="2.12773">
        <ele>89.06</ele>
        <time>2020-09-26T13:13:05Z</time>
      </trkpt>
      <trkpt lat="48.35881" lon="2.12776">
        <ele>90.02</ele>
        <time>2020-09-26T13:13:20Z</time>
      </trkpt>
      <trkpt lat="48.35881" lon="2.12775">
        <ele>89.54</ele>
        <time>2020-09-26T13:13:22Z</time>
      </trkpt>
      <trkpt lat="48.3588" lon="2.12775">
        <ele>89.54</ele>
        <time>2020-09-26T13:13:23Z</time>
      </trkpt>
      <trkpt lat="48.35875" lon="2.12783">
        <ele>89.54</ele>
        <time>2020-09-26T13:13:31Z</time>
      </trkpt>
      <trkpt lat="48.35875" lon="2.12785">
        <ele>89.54</ele>
        <time>2020-09-26T13:13:32Z</time>
      </trkpt>
      <trkpt lat="48.35871" lon="2.12806">
        <ele>89.54</ele>
        <time>2020-09-26T13:13:46Z</time>
      </trkpt>
      <trkpt lat="48.35872" lon="2.1282">
        <ele>89.54</ele>
        <time>2020-09-26T13:13:58Z</time>
      </trkpt>
      <trkpt lat="48.35872" lon="2.12821">
        <ele>89.06</ele>
        <time>2020-09-26T13:13:59Z</time>
      </trkpt>
      <trkpt lat="48.35872" lon="2.12823">
        <ele>88.58</ele>
        <time>2020-09-26T13:14:00Z</time>
      </trkpt>
      <trkpt lat="48.35876" lon="2.12836">
        <ele>89.06</ele>
        <time>2020-09-26T13:14:10Z</time>
      </trkpt>
      <trkpt lat="48.35879" lon="2.12841">
        <ele>89.06</ele>
        <time>2020-09-26T13:14:14Z</time>
      </trkpt>
      <trkpt lat="48.35881" lon="2.12848">
        <ele>88.58</ele>
        <time>2020-09-26T13:14:19Z</time>
      </trkpt>
      <trkpt lat="48.35882" lon="2.12851">
        <ele>89.54</ele>
        <time>2020-09-26T13:14:22Z</time>
      </trkpt>
      <trkpt lat="48.35883" lon="2.12853">
        <ele>89.06</ele>
        <time>2020-09-26T13:14:23Z</time>
      </trkpt>
      <trkpt lat="48.35883" lon="2.12855">
        <ele>89.06</ele>
        <time>2020-09-26T13:14:24Z</time>
      </trkpt>
      <trkpt lat="48.35891" lon="2.12873">
        <ele>89.06</ele>
        <time>2020-09-26T13:14:35Z</time>
      </trkpt>
      <trkpt lat="48.35898" lon="2.1289">
        <ele>90.02</ele>
        <time>2020-09-26T13:14:47Z</time>
      </trkpt>
      <trkpt lat="48.35898" lon="2.12893">
        <ele>89.54</ele>
        <time>2020-09-26T13:14:48Z</time>
      </trkpt>
      <trkpt lat="48.35898" lon="2.12894">
        <ele>89.06</ele>
        <time>2020-09-26T13:14:49Z</time>
      </trkpt>
      <trkpt lat="48.359" lon="2.12901">
        <ele>90.02</ele>
        <time>2020-09-26T13:14:54Z</time>
      </trkpt>
      <trkpt lat="48.359" lon="2.12902">
        <ele>89.54</ele>
        <time>2020-09-26T13:14:55Z</time>
      </trkpt>
      <trkpt lat="48.35906" lon="2.12916">
        <ele>90.02</ele>
        <time>2020-09-26T13:15:07Z</time>
      </trkpt>
      <trkpt lat="48.3591" lon="2.1293">
        <ele>89.54</ele>
        <time>2020-09-26T13:15:16Z</time>
      </trkpt>
      <trkpt lat="48.35915" lon="2.12951">
        <ele>90.02</ele>
        <time>2020-09-26T13:15:29Z</time>
      </trkpt>
      <trkpt lat="48.35917" lon="2.12955">
        <ele>90.02</ele>
        <time>2020-09-26T13:15:31Z</time>
      </trkpt>
      <trkpt lat="48.35918" lon="2.12957">
        <ele>89.54</ele>
        <time>2020-09-26T13:15:32Z</time>
      </trkpt>
      <trkpt lat="48.35918" lon="2.1296">
        <ele>90.5</ele>
        <time>2020-09-26T13:15:33Z</time>
      </trkpt>
      <trkpt lat="48.35918" lon="2.12962">
        <ele>90.02</ele>
        <time>2020-09-26T13:15:34Z</time>
      </trkpt>
      <trkpt lat="48.3592" lon="2.1297">
        <ele>90.5</ele>
        <time>2020-09-26T13:15:40Z</time>
      </trkpt>
      <trkpt lat="48.35921" lon="2.12972">
        <ele>90.5</ele>
        <time>2020-09-26T13:15:41Z</time>
      </trkpt>
      <trkpt lat="48.35927" lon="2.12996">
        <ele>90.98</ele>
        <time>2020-09-26T13:15:55Z</time>
      </trkpt>
      <trkpt lat="48.35927" lon="2.13001">
        <ele>91.46</ele>
        <time>2020-09-26T13:15:59Z</time>
      </trkpt>
      <trkpt lat="48.35927" lon="2.13003">
        <ele>91.46</ele>
        <time>2020-09-26T13:16:00Z</time>
      </trkpt>
      <trkpt lat="48.35926" lon="2.13005">
        <ele>90.98</ele>
        <time>2020-09-26T13:16:01Z</time>
      </trkpt>
      <trkpt lat="48.35922" lon="2.13022">
        <ele>90.98</ele>
        <time>2020-09-26T13:16:13Z</time>
      </trkpt>
      <trkpt lat="48.35921" lon="2.13035">
        <ele>91.94</ele>
        <time>2020-09-26T13:16:22Z</time>
      </trkpt>
      <trkpt lat="48.3592" lon="2.13037">
        <ele>92.42</ele>
        <time>2020-09-26T13:16:23Z</time>
      </trkpt>
      <trkpt lat="48.3592" lon="2.13038">
        <ele>92.9</ele>
        <time>2020-09-26T13:16:24Z</time>
      </trkpt>
      <trkpt lat="48.35917" lon="2.1305">
        <ele>93.39</ele>
        <time>2020-09-26T13:16:35Z</time>
      </trkpt>
      <trkpt lat="48.35917" lon="2.13055">
        <ele>93.39</ele>
        <time>2020-09-26T13:16:38Z</time>
      </trkpt>
      <trkpt lat="48.35916" lon="2.13066">
        <ele>94.35</ele>
        <time>2020-09-26T13:16:46Z</time>
      </trkpt>
      <trkpt lat="48.35917" lon="2.13079">
        <ele>95.79</ele>
        <time>2020-09-26T13:16:55Z</time>
      </trkpt>
      <trkpt lat="48.35917" lon="2.13084">
        <ele>96.75</ele>
        <time>2020-09-26T13:16:59Z</time>
      </trkpt>
      <trkpt lat="48.35919" lon="2.13101">
        <ele>98.19</ele>
        <time>2020-09-26T13:17:11Z</time>
      </trkpt>
      <trkpt lat="48.35919" lon="2.13113">
        <ele>99.15</ele>
        <time>2020-09-26T13:17:21Z</time>
      </trkpt>
      <trkpt lat="48.3592" lon="2.1313">
        <ele>100.6</ele>
        <time>2020-09-26T13:17:33Z</time>
      </trkpt>
      <trkpt lat="48.35923" lon="2.13142">
        <ele>101.08</ele>
        <time>2020-09-26T13:17:41Z</time>
      </trkpt>
      <trkpt lat="48.35923" lon="2.13151">
        <ele>101.08</ele>
        <time>2020-09-26T13:17:51Z</time>
      </trkpt>
      <trkpt lat="48.35922" lon="2.13167">
        <ele>103</ele>
        <time>2020-09-26T13:18:04Z</time>
      </trkpt>
      <trkpt lat="48.35923" lon="2.13185">
        <ele>103.96</ele>
        <time>2020-09-26T13:18:17Z</time>
      </trkpt>
      <trkpt lat="48.35923" lon="2.13203">
        <ele>106.36</ele>
        <time>2020-09-26T13:18:30Z</time>
      </trkpt>
      <trkpt lat="48.35922" lon="2.13204">
        <ele>105.88</ele>
        <time>2020-09-26T13:18:31Z</time>
      </trkpt>
      <trkpt lat="48.35925" lon="2.13217">
        <ele>107.32</ele>
        <time>2020-09-26T13:18:40Z</time>
      </trkpt>
      <trkpt lat="48.35925" lon="2.13221">
        <ele>107.32</ele>
        <time>2020-09-26T13:18:42Z</time>
      </trkpt>
      <trkpt lat="48.35924" lon="2.13235">
        <ele>109.25</ele>
        <time>2020-09-26T13:18:52Z</time>
      </trkpt>
      <trkpt lat="48.35924" lon="2.13237">
        <ele>109.73</ele>
        <time>2020-09-26T13:18:53Z</time>
      </trkpt>
      <trkpt lat="48.35921" lon="2.1325">
        <ele>111.17</ele>
        <time>2020-09-26T13:19:03Z</time>
      </trkpt>
      <trkpt lat="48.35921" lon="2.13261">
        <ele>112.13</ele>
        <time>2020-09-26T13:19:09Z</time>
      </trkpt>
      <trkpt lat="48.35919" lon="2.1328">
        <ele>114.53</ele>
        <time>2020-09-26T13:19:24Z</time>
      </trkpt>
      <trkpt lat="48.35918" lon="2.13285">
        <ele>115.01</ele>
        <time>2020-09-26T13:19:27Z</time>
      </trkpt>
      <trkpt lat="48.35914" lon="2.13304">
        <ele>117.9</ele>
        <time>2020-09-26T13:19:40Z</time>
      </trkpt>
      <trkpt lat="48.35909" lon="2.13321">
        <ele>120.78</ele>
        <time>2020-09-26T13:19:54Z</time>
      </trkpt>
      <trkpt lat="48.35901" lon="2.13337">
        <ele>122.71</ele>
        <time>2020-09-26T13:20:07Z</time>
      </trkpt>
      <trkpt lat="48.35895" lon="2.13358">
        <ele>125.59</ele>
        <time>2020-09-26T13:20:21Z</time>
      </trkpt>
      <trkpt lat="48.3589" lon="2.13374">
        <ele>127.99</ele>
        <time>2020-09-26T13:20:32Z</time>
      </trkpt>
      <trkpt lat="48.35883" lon="2.13392">
        <ele>129.43</ele>
        <time>2020-09-26T13:20:44Z</time>
      </trkpt>
      <trkpt lat="48.35872" lon="2.1341">
        <ele>131.36</ele>
        <time>2020-09-26T13:20:55Z</time>
      </trkpt>
      <trkpt lat="48.35864" lon="2.13419">
        <ele>131.36</ele>
        <time>2020-09-26T13:21:07Z</time>
      </trkpt>
      <trkpt lat="48.35866" lon="2.13422">
        <ele>132.32</ele>
        <time>2020-09-26T13:21:21Z</time>
      </trkpt>
      <trkpt lat="48.35863" lon="2.13423">
        <ele>131.84</ele>
        <time>2020-09-26T13:21:33Z</time>
      </trkpt>
      <trkpt lat="48.35866" lon="2.13418">
        <ele>132.32</ele>
        <time>2020-09-26T13:21:45Z</time>
      </trkpt>
      <trkpt lat="48.35871" lon="2.1341">
        <ele>130.4</ele>
        <time>2020-09-26T13:21:52Z</time>
      </trkpt>
      <trkpt lat="48.3587" lon="2.13403">
        <ele>130.88</ele>
        <time>2020-09-26T13:22:07Z</time>
      </trkpt>
      <trkpt lat="48.35872" lon="2.13405">
        <ele>130.88</ele>
        <time>2020-09-26T13:22:47Z</time>
      </trkpt>
      <trkpt lat="48.35873" lon="2.13407">
        <ele>130.88</ele>
        <time>2020-09-26T13:22:48Z</time>
      </trkpt>
      <trkpt lat="48.35874" lon="2.13409">
        <ele>130.88</ele>
        <time>2020-09-26T13:22:49Z</time>
      </trkpt>
      <trkpt lat="48.35873" lon="2.13414">
        <ele>131.84</ele>
        <time>2020-09-26T13:22:52Z</time>
      </trkpt>
      <trkpt lat="48.35866" lon="2.13421">
        <ele>130.4</ele>
        <time>2020-09-26T13:23:06Z</time>
      </trkpt>
      <trkpt lat="48.35863" lon="2.13422">
        <ele>132.32</ele>
        <time>2020-09-26T13:23:36Z</time>
      </trkpt>
      <trkpt lat="48.35864" lon="2.13424">
        <ele>130.88</ele>
        <time>2020-09-26T13:23:49Z</time>
      </trkpt>
      <trkpt lat="48.35871" lon="2.13419">
        <ele>131.36</ele>
        <time>2020-09-26T13:24:18Z</time>
      </trkpt>
      <trkpt lat="48.35868" lon="2.1342">
        <ele>130.4</ele>
        <time>2020-09-26T13:24:42Z</time>
      </trkpt>
      <trkpt lat="48.35862" lon="2.13428">
        <ele>131.36</ele>
        <time>2020-09-26T13:25:05Z</time>
      </trkpt>
      <trkpt lat="48.35861" lon="2.13431">
        <ele>131.36</ele>
        <time>2020-09-26T13:25:08Z</time>
      </trkpt>
      <trkpt lat="48.35861" lon="2.13433">
        <ele>131.84</ele>
        <time>2020-09-26T13:25:09Z</time>
      </trkpt>
      <trkpt lat="48.3586" lon="2.13434">
        <ele>131.36</ele>
        <time>2020-09-26T13:25:10Z</time>
      </trkpt>
      <trkpt lat="48.3586" lon="2.13436">
        <ele>131.84</ele>
        <time>2020-09-26T13:25:11Z</time>
      </trkpt>
      <trkpt lat="48.35851" lon="2.13452">
        <ele>131.84</ele>
        <time>2020-09-26T13:25:25Z</time>
      </trkpt>
      <trkpt lat="48.35845" lon="2.13465">
        <ele>133.28</ele>
        <time>2020-09-26T13:25:34Z</time>
      </trkpt>
      <trkpt lat="48.35844" lon="2.13467">
        <ele>133.28</ele>
        <time>2020-09-26T13:25:35Z</time>
      </trkpt>
      <trkpt lat="48.35843" lon="2.13468">
        <ele>132.32</ele>
        <time>2020-09-26T13:25:36Z</time>
      </trkpt>
      <trkpt lat="48.35842" lon="2.1347">
        <ele>132.32</ele>
        <time>2020-09-26T13:25:37Z</time>
      </trkpt>
      <trkpt lat="48.35841" lon="2.13471">
        <ele>132.8</ele>
        <time>2020-09-26T13:25:38Z</time>
      </trkpt>
      <trkpt lat="48.35841" lon="2.13473">
        <ele>133.28</ele>
        <time>2020-09-26T13:25:39Z</time>
      </trkpt>
      <trkpt lat="48.35838" lon="2.13478">
        <ele>132.8</ele>
        <time>2020-09-26T13:25:44Z</time>
      </trkpt>
      <trkpt lat="48.35837" lon="2.1348">
        <ele>133.28</ele>
        <time>2020-09-26T13:25:45Z</time>
      </trkpt>
      <trkpt lat="48.35837" lon="2.13481">
        <ele>133.28</ele>
        <time>2020-09-26T13:25:46Z</time>
      </trkpt>
      <trkpt lat="48.35829" lon="2.135">
        <ele>135.2</ele>
        <time>2020-09-26T13:26:00Z</time>
      </trkpt>
      <trkpt lat="48.3582" lon="2.13524">
        <ele>137.13</ele>
        <time>2020-09-26T13:26:15Z</time>
      </trkpt>
      <trkpt lat="48.35814" lon="2.13543">
        <ele>137.13</ele>
        <time>2020-09-26T13:26:28Z</time>
      </trkpt>
      <trkpt lat="48.35813" lon="2.13545">
        <ele>137.61</ele>
        <time>2020-09-26T13:26:29Z</time>
      </trkpt>
      <trkpt lat="48.35813" lon="2.13546">
        <ele>137.61</ele>
        <time>2020-09-26T13:26:30Z</time>
      </trkpt>
      <trkpt lat="48.35813" lon="2.13548">
        <ele>137.61</ele>
        <time>2020-09-26T13:26:31Z</time>
      </trkpt>
      <trkpt lat="48.35813" lon="2.1355">
        <ele>137.61</ele>
        <time>2020-09-26T13:26:32Z</time>
      </trkpt>
      <trkpt lat="48.35812" lon="2.13552">
        <ele>137.13</ele>
        <time>2020-09-26T13:26:33Z</time>
      </trkpt>
      <trkpt lat="48.35812" lon="2.13555">
        <ele>137.61</ele>
        <time>2020-09-26T13:26:34Z</time>
      </trkpt>
      <trkpt lat="48.35812" lon="2.13556">
        <ele>137.13</ele>
        <time>2020-09-26T13:26:35Z</time>
      </trkpt>
      <trkpt lat="48.35812" lon="2.13557">
        <ele>137.61</ele>
        <time>2020-09-26T13:26:36Z</time>
      </trkpt>
      <trkpt lat="48.35812" lon="2.13559">
        <ele>137.61</ele>
        <time>2020-09-26T13:26:37Z</time>
      </trkpt>
      <trkpt lat="48.35811" lon="2.13561">
        <ele>138.09</ele>
        <time>2020-09-26T13:26:38Z</time>
      </trkpt>
      <trkpt lat="48.35807" lon="2.13578">
        <ele>138.09</ele>
        <time>2020-09-26T13:26:49Z</time>
      </trkpt>
      <trkpt lat="48.35803" lon="2.136">
        <ele>138.57</ele>
        <time>2020-09-26T13:27:01Z</time>
      </trkpt>
      <trkpt lat="48.358" lon="2.13608">
        <ele>138.57</ele>
        <time>2020-09-26T13:27:07Z</time>
      </trkpt>
      <trkpt lat="48.358" lon="2.1361">
        <ele>138.57</ele>
        <time>2020-09-26T13:27:08Z</time>
      </trkpt>
      <trkpt lat="48.358" lon="2.13612">
        <ele>138.09</ele>
        <time>2020-09-26T13:27:09Z</time>
      </trkpt>
      <trkpt lat="48.35799" lon="2.13614">
        <ele>137.61</ele>
        <time>2020-09-26T13:27:10Z</time>
      </trkpt>
      <trkpt lat="48.35793" lon="2.13634">
        <ele>139.05</ele>
        <time>2020-09-26T13:27:22Z</time>
      </trkpt>
      <trkpt lat="48.35787" lon="2.13654">
        <ele>139.05</ele>
        <time>2020-09-26T13:27:35Z</time>
      </trkpt>
      <trkpt lat="48.35779" lon="2.13674">
        <ele>138.57</ele>
        <time>2020-09-26T13:27:46Z</time>
      </trkpt>
      <trkpt lat="48.35774" lon="2.1369">
        <ele>139.05</ele>
        <time>2020-09-26T13:27:57Z</time>
      </trkpt>
      <trkpt lat="48.35766" lon="2.13709">
        <ele>140.01</ele>
        <time>2020-09-26T13:28:08Z</time>
      </trkpt>
      <trkpt lat="48.35763" lon="2.13714">
        <ele>140.01</ele>
        <time>2020-09-26T13:28:12Z</time>
      </trkpt>
      <trkpt lat="48.35762" lon="2.13715">
        <ele>140.01</ele>
        <time>2020-09-26T13:28:13Z</time>
      </trkpt>
      <trkpt lat="48.35754" lon="2.13731">
        <ele>138.57</ele>
        <time>2020-09-26T13:28:25Z</time>
      </trkpt>
      <trkpt lat="48.35745" lon="2.1375">
        <ele>139.05</ele>
        <time>2020-09-26T13:28:37Z</time>
      </trkpt>
      <trkpt lat="48.35735" lon="2.13765">
        <ele>138.09</ele>
        <time>2020-09-26T13:28:49Z</time>
      </trkpt>
      <trkpt lat="48.35728" lon="2.13777">
        <ele>138.57</ele>
        <time>2020-09-26T13:28:57Z</time>
      </trkpt>
      <trkpt lat="48.35719" lon="2.13793">
        <ele>138.57</ele>
        <time>2020-09-26T13:29:09Z</time>
      </trkpt>
      <trkpt lat="48.35709" lon="2.13811">
        <ele>138.09</ele>
        <time>2020-09-26T13:29:21Z</time>
      </trkpt>
      <trkpt lat="48.35701" lon="2.13829">
        <ele>137.13</ele>
        <time>2020-09-26T13:29:32Z</time>
      </trkpt>
      <trkpt lat="48.357" lon="2.13831">
        <ele>137.13</ele>
        <time>2020-09-26T13:29:34Z</time>
      </trkpt>
      <trkpt lat="48.35699" lon="2.13833">
        <ele>136.64</ele>
        <time>2020-09-26T13:29:35Z</time>
      </trkpt>
      <trkpt lat="48.35691" lon="2.13851">
        <ele>136.64</ele>
        <time>2020-09-26T13:29:47Z</time>
      </trkpt>
      <trkpt lat="48.35683" lon="2.13866">
        <ele>135.68</ele>
        <time>2020-09-26T13:29:57Z</time>
      </trkpt>
      <trkpt lat="48.35674" lon="2.13883">
        <ele>135.2</ele>
        <time>2020-09-26T13:30:09Z</time>
      </trkpt>
      <trkpt lat="48.35671" lon="2.13892">
        <ele>133.76</ele>
        <time>2020-09-26T13:30:14Z</time>
      </trkpt>
      <trkpt lat="48.3567" lon="2.13894">
        <ele>134.24</ele>
        <time>2020-09-26T13:30:15Z</time>
      </trkpt>
      <trkpt lat="48.35669" lon="2.13896">
        <ele>134.24</ele>
        <time>2020-09-26T13:30:16Z</time>
      </trkpt>
      <trkpt lat="48.35661" lon="2.13911">
        <ele>133.28</ele>
        <time>2020-09-26T13:30:27Z</time>
      </trkpt>
      <trkpt lat="48.35653" lon="2.13926">
        <ele>132.8</ele>
        <time>2020-09-26T13:30:39Z</time>
      </trkpt>
      <trkpt lat="48.35652" lon="2.13927">
        <ele>132.32</ele>
        <time>2020-09-26T13:30:41Z</time>
      </trkpt>
      <trkpt lat="48.35651" lon="2.13929">
        <ele>132.8</ele>
        <time>2020-09-26T13:30:42Z</time>
      </trkpt>
      <trkpt lat="48.3565" lon="2.13931">
        <ele>132.8</ele>
        <time>2020-09-26T13:30:43Z</time>
      </trkpt>
      <trkpt lat="48.35649" lon="2.13934">
        <ele>132.8</ele>
        <time>2020-09-26T13:30:44Z</time>
      </trkpt>
      <trkpt lat="48.35648" lon="2.13936">
        <ele>132.32</ele>
        <time>2020-09-26T13:30:45Z</time>
      </trkpt>
      <trkpt lat="48.35646" lon="2.1394">
        <ele>131.84</ele>
        <time>2020-09-26T13:30:51Z</time>
      </trkpt>
      <trkpt lat="48.35645" lon="2.13942">
        <ele>131.84</ele>
        <time>2020-09-26T13:30:52Z</time>
      </trkpt>
      <trkpt lat="48.35644" lon="2.13944">
        <ele>131.84</ele>
        <time>2020-09-26T13:30:53Z</time>
      </trkpt>
      <trkpt lat="48.35632" lon="2.13968">
        <ele>130.88</ele>
        <time>2020-09-26T13:31:07Z</time>
      </trkpt>
      <trkpt lat="48.3563" lon="2.13978">
        <ele>129.92</ele>
        <time>2020-09-26T13:31:14Z</time>
      </trkpt>
      <trkpt lat="48.35631" lon="2.1398">
        <ele>130.4</ele>
        <time>2020-09-26T13:31:15Z</time>
      </trkpt>
      <trkpt lat="48.35638" lon="2.13996">
        <ele>130.4</ele>
        <time>2020-09-26T13:31:25Z</time>
      </trkpt>
      <trkpt lat="48.35639" lon="2.13999">
        <ele>129.43</ele>
        <time>2020-09-26T13:31:27Z</time>
      </trkpt>
      <trkpt lat="48.3564" lon="2.14001">
        <ele>129.43</ele>
        <time>2020-09-26T13:31:28Z</time>
      </trkpt>
      <trkpt lat="48.35641" lon="2.14003">
        <ele>129.43</ele>
        <time>2020-09-26T13:31:29Z</time>
      </trkpt>
      <trkpt lat="48.35643" lon="2.14006">
        <ele>129.43</ele>
        <time>2020-09-26T13:31:31Z</time>
      </trkpt>
      <trkpt lat="48.35649" lon="2.14007">
        <ele>127.51</ele>
        <time>2020-09-26T13:31:37Z</time>
      </trkpt>
      <trkpt lat="48.3565" lon="2.14007">
        <ele>128.95</ele>
        <time>2020-09-26T13:31:38Z</time>
      </trkpt>
      <trkpt lat="48.35654" lon="2.14006">
        <ele>129.43</ele>
        <time>2020-09-26T13:31:42Z</time>
      </trkpt>
      <trkpt lat="48.35671" lon="2.14006">
        <ele>128.95</ele>
        <time>2020-09-26T13:31:55Z</time>
      </trkpt>
      <trkpt lat="48.35686" lon="2.14008">
        <ele>129.43</ele>
        <time>2020-09-26T13:32:10Z</time>
      </trkpt>
      <trkpt lat="48.35699" lon="2.14009">
        <ele>129.43</ele>
        <time>2020-09-26T13:32:20Z</time>
      </trkpt>
      <trkpt lat="48.35716" lon="2.14011">
        <ele>127.03</ele>
        <time>2020-09-26T13:32:35Z</time>
      </trkpt>
      <trkpt lat="48.35733" lon="2.14013">
        <ele>127.03</ele>
        <time>2020-09-26T13:32:48Z</time>
      </trkpt>
      <trkpt lat="48.35735" lon="2.14014">
        <ele>127.51</ele>
        <time>2020-09-26T13:32:50Z</time>
      </trkpt>
      <trkpt lat="48.35736" lon="2.14014">
        <ele>127.03</ele>
        <time>2020-09-26T13:32:51Z</time>
      </trkpt>
      <trkpt lat="48.3575" lon="2.14015">
        <ele>127.03</ele>
        <time>2020-09-26T13:33:03Z</time>
      </trkpt>
      <trkpt lat="48.35763" lon="2.14017">
        <ele>127.99</ele>
        <time>2020-09-26T13:33:13Z</time>
      </trkpt>
      <trkpt lat="48.35773" lon="2.14018">
        <ele>127.51</ele>
        <time>2020-09-26T13:33:22Z</time>
      </trkpt>
      <trkpt lat="48.35783" lon="2.1402">
        <ele>128.47</ele>
        <time>2020-09-26T13:33:32Z</time>
      </trkpt>
      <trkpt lat="48.35785" lon="2.14021">
        <ele>128.47</ele>
        <time>2020-09-26T13:33:33Z</time>
      </trkpt>
      <trkpt lat="48.35786" lon="2.14022">
        <ele>128.47</ele>
        <time>2020-09-26T13:33:34Z</time>
      </trkpt>
      <trkpt lat="48.35788" lon="2.14023">
        <ele>128.47</ele>
        <time>2020-09-26T13:33:35Z</time>
      </trkpt>
      <trkpt lat="48.35789" lon="2.14023">
        <ele>128.95</ele>
        <time>2020-09-26T13:33:36Z</time>
      </trkpt>
      <trkpt lat="48.35792" lon="2.14024">
        <ele>127.03</ele>
        <time>2020-09-26T13:33:39Z</time>
      </trkpt>
      <trkpt lat="48.35816" lon="2.14036">
        <ele>127.03</ele>
        <time>2020-09-26T13:33:59Z</time>
      </trkpt>
      <trkpt lat="48.35824" lon="2.14039">
        <ele>127.51</ele>
        <time>2020-09-26T13:34:05Z</time>
      </trkpt>
      <trkpt lat="48.35836" lon="2.14045">
        <ele>127.03</ele>
        <time>2020-09-26T13:34:16Z</time>
      </trkpt>
      <trkpt lat="48.35843" lon="2.14057">
        <ele>125.59</ele>
        <time>2020-09-26T13:34:30Z</time>
      </trkpt>
      <trkpt lat="48.35843" lon="2.14059">
        <ele>125.59</ele>
        <time>2020-09-26T13:34:31Z</time>
      </trkpt>
      <trkpt lat="48.35843" lon="2.14062">
        <ele>126.07</ele>
        <time>2020-09-26T13:34:44Z</time>
      </trkpt>
      <trkpt lat="48.35843" lon="2.14063">
        <ele>126.07</ele>
        <time>2020-09-26T13:34:47Z</time>
      </trkpt>
      <trkpt lat="48.35843" lon="2.14066">
        <ele>125.59</ele>
        <time>2020-09-26T13:34:49Z</time>
      </trkpt>
      <trkpt lat="48.35843" lon="2.14068">
        <ele>124.63</ele>
        <time>2020-09-26T13:34:50Z</time>
      </trkpt>
      <trkpt lat="48.35844" lon="2.1407">
        <ele>124.15</ele>
        <time>2020-09-26T13:34:53Z</time>
      </trkpt>
      <trkpt lat="48.35843" lon="2.14071">
        <ele>124.15</ele>
        <time>2020-09-26T13:34:54Z</time>
      </trkpt>
      <trkpt lat="48.35843" lon="2.14081">
        <ele>123.67</ele>
        <time>2020-09-26T13:35:04Z</time>
      </trkpt>
      <trkpt lat="48.35844" lon="2.14084">
        <ele>122.71</ele>
        <time>2020-09-26T13:35:07Z</time>
      </trkpt>
      <trkpt lat="48.35846" lon="2.14096">
        <ele>122.22</ele>
        <time>2020-09-26T13:35:17Z</time>
      </trkpt>
      <trkpt lat="48.35847" lon="2.14101">
        <ele>122.22</ele>
        <time>2020-09-26T13:35:20Z</time>
      </trkpt>
      <trkpt lat="48.35848" lon="2.1411">
        <ele>120.78</ele>
        <time>2020-09-26T13:35:27Z</time>
      </trkpt>
      <trkpt lat="48.35847" lon="2.14115">
        <ele>119.34</ele>
        <time>2020-09-26T13:35:30Z</time>
      </trkpt>
      <trkpt lat="48.35847" lon="2.14117">
        <ele>119.82</ele>
        <time>2020-09-26T13:35:31Z</time>
      </trkpt>
      <trkpt lat="48.35847" lon="2.14118">
        <ele>119.34</ele>
        <time>2020-09-26T13:35:32Z</time>
      </trkpt>
      <trkpt lat="48.35847" lon="2.1412">
        <ele>119.82</ele>
        <time>2020-09-26T13:35:33Z</time>
      </trkpt>
      <trkpt lat="48.35847" lon="2.14122">
        <ele>119.34</ele>
        <time>2020-09-26T13:35:34Z</time>
      </trkpt>
      <trkpt lat="48.35847" lon="2.14123">
        <ele>119.34</ele>
        <time>2020-09-26T13:35:35Z</time>
      </trkpt>
      <trkpt lat="48.35846" lon="2.14141">
        <ele>115.98</ele>
        <time>2020-09-26T13:35:47Z</time>
      </trkpt>
      <trkpt lat="48.35847" lon="2.14161">
        <ele>113.57</ele>
        <time>2020-09-26T13:36:00Z</time>
      </trkpt>
      <trkpt lat="48.35846" lon="2.14163">
        <ele>112.61</ele>
        <time>2020-09-26T13:36:02Z</time>
      </trkpt>
      <trkpt lat="48.35846" lon="2.14177">
        <ele>110.69</ele>
        <time>2020-09-26T13:36:15Z</time>
      </trkpt>
      <trkpt lat="48.35846" lon="2.14182">
        <ele>109.73</ele>
        <time>2020-09-26T13:36:19Z</time>
      </trkpt>
      <trkpt lat="48.35846" lon="2.14184">
        <ele>109.73</ele>
        <time>2020-09-26T13:36:20Z</time>
      </trkpt>
      <trkpt lat="48.35846" lon="2.14185">
        <ele>108.77</ele>
        <time>2020-09-26T13:36:21Z</time>
      </trkpt>
      <trkpt lat="48.35846" lon="2.14187">
        <ele>108.29</ele>
        <time>2020-09-26T13:36:22Z</time>
      </trkpt>
      <trkpt lat="48.35846" lon="2.14199">
        <ele>106.84</ele>
        <time>2020-09-26T13:36:33Z</time>
      </trkpt>
      <trkpt lat="48.35846" lon="2.14204">
        <ele>106.36</ele>
        <time>2020-09-26T13:36:36Z</time>
      </trkpt>
      <trkpt lat="48.35845" lon="2.14205">
        <ele>105.88</ele>
        <time>2020-09-26T13:36:37Z</time>
      </trkpt>
      <trkpt lat="48.35846" lon="2.1422">
        <ele>103.48</ele>
        <time>2020-09-26T13:36:50Z</time>
      </trkpt>
      <trkpt lat="48.35846" lon="2.14226">
        <ele>102.52</ele>
        <time>2020-09-26T13:37:00Z</time>
      </trkpt>
      <trkpt lat="48.35847" lon="2.14239">
        <ele>100.6</ele>
        <time>2020-09-26T13:37:15Z</time>
      </trkpt>
      <trkpt lat="48.35847" lon="2.14241">
        <ele>100.11</ele>
        <time>2020-09-26T13:37:17Z</time>
      </trkpt>
      <trkpt lat="48.35848" lon="2.14252">
        <ele>98.67</ele>
        <time>2020-09-26T13:37:29Z</time>
      </trkpt>
      <trkpt lat="48.35848" lon="2.14256">
        <ele>97.23</ele>
        <time>2020-09-26T13:37:35Z</time>
      </trkpt>
      <trkpt lat="48.35848" lon="2.14258">
        <ele>96.75</ele>
        <time>2020-09-26T13:37:36Z</time>
      </trkpt>
      <trkpt lat="48.35847" lon="2.14261">
        <ele>96.75</ele>
        <time>2020-09-26T13:37:37Z</time>
      </trkpt>
      <trkpt lat="48.35848" lon="2.14264">
        <ele>96.27</ele>
        <time>2020-09-26T13:37:39Z</time>
      </trkpt>
      <trkpt lat="48.35849" lon="2.14266">
        <ele>95.79</ele>
        <time>2020-09-26T13:37:40Z</time>
      </trkpt>
      <trkpt lat="48.35849" lon="2.14268">
        <ele>95.31</ele>
        <time>2020-09-26T13:37:41Z</time>
      </trkpt>
      <trkpt lat="48.35849" lon="2.1427">
        <ele>95.31</ele>
        <time>2020-09-26T13:37:42Z</time>
      </trkpt>
      <trkpt lat="48.35849" lon="2.14271">
        <ele>96.27</ele>
        <time>2020-09-26T13:37:45Z</time>
      </trkpt>
      <trkpt lat="48.35849" lon="2.14273">
        <ele>95.31</ele>
        <time>2020-09-26T13:37:48Z</time>
      </trkpt>
      <trkpt lat="48.3585" lon="2.14275">
        <ele>95.31</ele>
        <time>2020-09-26T13:37:49Z</time>
      </trkpt>
      <trkpt lat="48.3585" lon="2.14277">
        <ele>95.31</ele>
        <time>2020-09-26T13:37:50Z</time>
      </trkpt>
      <trkpt lat="48.35851" lon="2.14279">
        <ele>94.83</ele>
        <time>2020-09-26T13:37:51Z</time>
      </trkpt>
      <trkpt lat="48.35852" lon="2.14281">
        <ele>94.35</ele>
        <time>2020-09-26T13:37:52Z</time>
      </trkpt>
      <trkpt lat="48.35853" lon="2.14283">
        <ele>94.35</ele>
        <time>2020-09-26T13:37:53Z</time>
      </trkpt>
      <trkpt lat="48.35854" lon="2.14285">
        <ele>93.87</ele>
        <time>2020-09-26T13:37:54Z</time>
      </trkpt>
      <trkpt lat="48.35855" lon="2.14286">
        <ele>93.39</ele>
        <time>2020-09-26T13:37:55Z</time>
      </trkpt>
      <trkpt lat="48.35853" lon="2.14293">
        <ele>91.94</ele>
        <time>2020-09-26T13:38:03Z</time>
      </trkpt>
      <trkpt lat="48.35853" lon="2.14297">
        <ele>91.94</ele>
        <time>2020-09-26T13:38:10Z</time>
      </trkpt>
      <trkpt lat="48.3585" lon="2.14302">
        <ele>90.5</ele>
        <time>2020-09-26T13:38:24Z</time>
      </trkpt>
      <trkpt lat="48.35849" lon="2.14304">
        <ele>90.02</ele>
        <time>2020-09-26T13:38:26Z</time>
      </trkpt>
      <trkpt lat="48.3585" lon="2.14308">
        <ele>89.54</ele>
        <time>2020-09-26T13:38:28Z</time>
      </trkpt>
      <trkpt lat="48.35852" lon="2.14319">
        <ele>88.1</ele>
        <time>2020-09-26T13:38:34Z</time>
      </trkpt>
      <trkpt lat="48.35853" lon="2.14321">
        <ele>87.62</ele>
        <time>2020-09-26T13:38:35Z</time>
      </trkpt>
      <trkpt lat="48.35855" lon="2.14322">
        <ele>88.1</ele>
        <time>2020-09-26T13:38:36Z</time>
      </trkpt>
      <trkpt lat="48.35857" lon="2.14323">
        <ele>88.1</ele>
        <time>2020-09-26T13:38:37Z</time>
      </trkpt>
      <trkpt lat="48.35857" lon="2.14324">
        <ele>87.62</ele>
        <time>2020-09-26T13:38:38Z</time>
      </trkpt>
      <trkpt lat="48.3586" lon="2.14325">
        <ele>87.62</ele>
        <time>2020-09-26T13:38:44Z</time>
      </trkpt>
      <trkpt lat="48.35876" lon="2.14322">
        <ele>88.1</ele>
        <time>2020-09-26T13:38:59Z</time>
      </trkpt>
      <trkpt lat="48.35888" lon="2.14318">
        <ele>89.06</ele>
        <time>2020-09-26T13:39:10Z</time>
      </trkpt>
      <trkpt lat="48.35896" lon="2.14315">
        <ele>88.58</ele>
        <time>2020-09-26T13:39:20Z</time>
      </trkpt>
      <trkpt lat="48.35897" lon="2.14314">
        <ele>88.58</ele>
        <time>2020-09-26T13:39:21Z</time>
      </trkpt>
      <trkpt lat="48.35899" lon="2.14314">
        <ele>88.58</ele>
        <time>2020-09-26T13:39:22Z</time>
      </trkpt>
      <trkpt lat="48.359" lon="2.14312">
        <ele>89.06</ele>
        <time>2020-09-26T13:39:23Z</time>
      </trkpt>
      <trkpt lat="48.35902" lon="2.14311">
        <ele>89.06</ele>
        <time>2020-09-26T13:39:24Z</time>
      </trkpt>
      <trkpt lat="48.35903" lon="2.1431">
        <ele>88.58</ele>
        <time>2020-09-26T13:39:25Z</time>
      </trkpt>
      <trkpt lat="48.35904" lon="2.1431">
        <ele>88.1</ele>
        <time>2020-09-26T13:39:26Z</time>
      </trkpt>
      <trkpt lat="48.35908" lon="2.14309">
        <ele>88.58</ele>
        <time>2020-09-26T13:39:29Z</time>
      </trkpt>
      <trkpt lat="48.35926" lon="2.14305">
        <ele>88.1</ele>
        <time>2020-09-26T13:39:45Z</time>
      </trkpt>
      <trkpt lat="48.35942" lon="2.14303">
        <ele>88.58</ele>
        <time>2020-09-26T13:40:00Z</time>
      </trkpt>
      <trkpt lat="48.35952" lon="2.14301">
        <ele>87.62</ele>
        <time>2020-09-26T13:40:10Z</time>
      </trkpt>
      <trkpt lat="48.35953" lon="2.14301">
        <ele>87.62</ele>
        <time>2020-09-26T13:40:11Z</time>
      </trkpt>
      <trkpt lat="48.35968" lon="2.14295">
        <ele>87.62</ele>
        <time>2020-09-26T13:40:24Z</time>
      </trkpt>
      <trkpt lat="48.35981" lon="2.14292">
        <ele>87.62</ele>
        <time>2020-09-26T13:40:36Z</time>
      </trkpt>
      <trkpt lat="48.35982" lon="2.14291">
        <ele>88.58</ele>
        <time>2020-09-26T13:40:37Z</time>
      </trkpt>
      <trkpt lat="48.35984" lon="2.1429">
        <ele>88.58</ele>
        <time>2020-09-26T13:40:38Z</time>
      </trkpt>
      <trkpt lat="48.35986" lon="2.14288">
        <ele>88.58</ele>
        <time>2020-09-26T13:40:39Z</time>
      </trkpt>
      <trkpt lat="48.35987" lon="2.14287">
        <ele>88.58</ele>
        <time>2020-09-26T13:40:40Z</time>
      </trkpt>
      <trkpt lat="48.36001" lon="2.14285">
        <ele>87.62</ele>
        <time>2020-09-26T13:40:53Z</time>
      </trkpt>
      <trkpt lat="48.36018" lon="2.14276">
        <ele>88.1</ele>
        <time>2020-09-26T13:41:07Z</time>
      </trkpt>
      <trkpt lat="48.36026" lon="2.14275">
        <ele>88.1</ele>
        <time>2020-09-26T13:41:13Z</time>
      </trkpt>
      <trkpt lat="48.36029" lon="2.14273">
        <ele>87.62</ele>
        <time>2020-09-26T13:41:17Z</time>
      </trkpt>
      <trkpt lat="48.36031" lon="2.14273">
        <ele>87.62</ele>
        <time>2020-09-26T13:41:18Z</time>
      </trkpt>
      <trkpt lat="48.36033" lon="2.14273">
        <ele>88.1</ele>
        <time>2020-09-26T13:41:19Z</time>
      </trkpt>
      <trkpt lat="48.36034" lon="2.14273">
        <ele>88.58</ele>
        <time>2020-09-26T13:41:20Z</time>
      </trkpt>
      <trkpt lat="48.36035" lon="2.14273">
        <ele>88.58</ele>
        <time>2020-09-26T13:41:21Z</time>
      </trkpt>
      <trkpt lat="48.36037" lon="2.14273">
        <ele>88.1</ele>
        <time>2020-09-26T13:41:22Z</time>
      </trkpt>
      <trkpt lat="48.36052" lon="2.14272">
        <ele>87.62</ele>
        <time>2020-09-26T13:41:39Z</time>
      </trkpt>
      <trkpt lat="48.36066" lon="2.14275">
        <ele>87.14</ele>
        <time>2020-09-26T13:41:51Z</time>
      </trkpt>
      <trkpt lat="48.36078" lon="2.14277">
        <ele>87.14</ele>
        <time>2020-09-26T13:42:03Z</time>
      </trkpt>
      <trkpt lat="48.36096" lon="2.14284">
        <ele>87.14</ele>
        <time>2020-09-26T13:42:18Z</time>
      </trkpt>
      <trkpt lat="48.36101" lon="2.14282">
        <ele>87.14</ele>
        <time>2020-09-26T13:42:23Z</time>
      </trkpt>
      <trkpt lat="48.36103" lon="2.14281">
        <ele>86.66</ele>
        <time>2020-09-26T13:42:24Z</time>
      </trkpt>
      <trkpt lat="48.36104" lon="2.1428">
        <ele>87.14</ele>
        <time>2020-09-26T13:42:25Z</time>
      </trkpt>
      <trkpt lat="48.36118" lon="2.14276">
        <ele>86.66</ele>
        <time>2020-09-26T13:42:33Z</time>
      </trkpt>
      <trkpt lat="48.36119" lon="2.14276">
        <ele>87.14</ele>
        <time>2020-09-26T13:42:34Z</time>
      </trkpt>
      <trkpt lat="48.36138" lon="2.14271">
        <ele>86.66</ele>
        <time>2020-09-26T13:42:48Z</time>
      </trkpt>
      <trkpt lat="48.36145" lon="2.14267">
        <ele>86.18</ele>
        <time>2020-09-26T13:42:54Z</time>
      </trkpt>
      <trkpt lat="48.36149" lon="2.14264">
        <ele>86.18</ele>
        <time>2020-09-26T13:43:00Z</time>
      </trkpt>
      <trkpt lat="48.36152" lon="2.14266">
        <ele>85.69</ele>
        <time>2020-09-26T13:43:02Z</time>
      </trkpt>
      <trkpt lat="48.36153" lon="2.14269">
        <ele>84.25</ele>
        <time>2020-09-26T13:43:15Z</time>
      </trkpt>
      <trkpt lat="48.36153" lon="2.14269">
        <ele>84.25</ele>
        <time>2020-09-26T13:43:16Z</time>
      </trkpt>
      <trkpt lat="48.36154" lon="2.14283">
        <ele>83.29</ele>
        <time>2020-09-26T13:43:35Z</time>
      </trkpt>
      <trkpt lat="48.36155" lon="2.14288">
        <ele>83.29</ele>
        <time>2020-09-26T13:43:42Z</time>
      </trkpt>
      <trkpt lat="48.36158" lon="2.14297">
        <ele>82.33</ele>
        <time>2020-09-26T13:43:50Z</time>
      </trkpt>
      <trkpt lat="48.36161" lon="2.14315">
        <ele>80.89</ele>
        <time>2020-09-26T13:44:04Z</time>
      </trkpt>
      <trkpt lat="48.36163" lon="2.1434">
        <ele>79.45</ele>
        <time>2020-09-26T13:44:19Z</time>
      </trkpt>
      <trkpt lat="48.36166" lon="2.14367">
        <ele>78.48</ele>
        <time>2020-09-26T13:44:36Z</time>
      </trkpt>
      <trkpt lat="48.36165" lon="2.14377">
        <ele>78.48</ele>
        <time>2020-09-26T13:44:56Z</time>
      </trkpt>
      <trkpt lat="48.36165" lon="2.14378">
        <ele>78</ele>
        <time>2020-09-26T13:44:57Z</time>
      </trkpt>
      <trkpt lat="48.36165" lon="2.14396">
        <ele>77.52</ele>
        <time>2020-09-26T13:45:10Z</time>
      </trkpt>
      <trkpt lat="48.3617" lon="2.14417">
        <ele>78</ele>
        <time>2020-09-26T13:45:26Z</time>
      </trkpt>
      <trkpt lat="48.36174" lon="2.1443">
        <ele>78</ele>
        <time>2020-09-26T13:45:35Z</time>
      </trkpt>
      <trkpt lat="48.36176" lon="2.14443">
        <ele>77.52</ele>
        <time>2020-09-26T13:45:43Z</time>
      </trkpt>
      <trkpt lat="48.36176" lon="2.14446">
        <ele>77.52</ele>
        <time>2020-09-26T13:45:44Z</time>
      </trkpt>
      <trkpt lat="48.36181" lon="2.14464">
        <ele>78</ele>
        <time>2020-09-26T13:45:54Z</time>
      </trkpt>
      <trkpt lat="48.36181" lon="2.14466">
        <ele>77.52</ele>
        <time>2020-09-26T13:45:55Z</time>
      </trkpt>
      <trkpt lat="48.36182" lon="2.14468">
        <ele>78</ele>
        <time>2020-09-26T13:45:56Z</time>
      </trkpt>
      <trkpt lat="48.36185" lon="2.14489">
        <ele>77.04</ele>
        <time>2020-09-26T13:46:09Z</time>
      </trkpt>
      <trkpt lat="48.36187" lon="2.145">
        <ele>77.04</ele>
        <time>2020-09-26T13:46:16Z</time>
      </trkpt>
      <trkpt lat="48.36188" lon="2.14502">
        <ele>77.52</ele>
        <time>2020-09-26T13:46:17Z</time>
      </trkpt>
      <trkpt lat="48.36194" lon="2.14527">
        <ele>77.52</ele>
        <time>2020-09-26T13:46:32Z</time>
      </trkpt>
      <trkpt lat="48.36198" lon="2.14548">
        <ele>78</ele>
        <time>2020-09-26T13:46:49Z</time>
      </trkpt>
      <trkpt lat="48.36202" lon="2.14568">
        <ele>77.52</ele>
        <time>2020-09-26T13:47:01Z</time>
      </trkpt>
      <trkpt lat="48.36202" lon="2.14571">
        <ele>77.52</ele>
        <time>2020-09-26T13:47:02Z</time>
      </trkpt>
      <trkpt lat="48.36206" lon="2.14592">
        <ele>78.97</ele>
        <time>2020-09-26T13:47:17Z</time>
      </trkpt>
      <trkpt lat="48.36209" lon="2.14613">
        <ele>79.93</ele>
        <time>2020-09-26T13:47:28Z</time>
      </trkpt>
      <trkpt lat="48.36213" lon="2.14631">
        <ele>79.45</ele>
        <time>2020-09-26T13:47:40Z</time>
      </trkpt>
      <trkpt lat="48.36214" lon="2.14653">
        <ele>79.93</ele>
        <time>2020-09-26T13:47:54Z</time>
      </trkpt>
      <trkpt lat="48.36215" lon="2.14655">
        <ele>80.41</ele>
        <time>2020-09-26T13:47:58Z</time>
      </trkpt>
      <trkpt lat="48.36216" lon="2.14658">
        <ele>79.93</ele>
        <time>2020-09-26T13:47:59Z</time>
      </trkpt>
      <trkpt lat="48.36219" lon="2.14665">
        <ele>80.41</ele>
        <time>2020-09-26T13:48:04Z</time>
      </trkpt>
      <trkpt lat="48.3622" lon="2.14667">
        <ele>80.89</ele>
        <time>2020-09-26T13:48:05Z</time>
      </trkpt>
      <trkpt lat="48.36221" lon="2.14674">
        <ele>79.93</ele>
        <time>2020-09-26T13:48:11Z</time>
      </trkpt>
      <trkpt lat="48.36221" lon="2.14676">
        <ele>79.45</ele>
        <time>2020-09-26T13:48:12Z</time>
      </trkpt>
      <trkpt lat="48.36222" lon="2.14693">
        <ele>82.33</ele>
        <time>2020-09-26T13:48:25Z</time>
      </trkpt>
      <trkpt lat="48.36225" lon="2.147">
        <ele>82.81</ele>
        <time>2020-09-26T13:48:37Z</time>
      </trkpt>
      <trkpt lat="48.36225" lon="2.14702">
        <ele>82.81</ele>
        <time>2020-09-26T13:48:38Z</time>
      </trkpt>
      <trkpt lat="48.36225" lon="2.14704">
        <ele>82.81</ele>
        <time>2020-09-26T13:48:39Z</time>
      </trkpt>
      <trkpt lat="48.36228" lon="2.14717">
        <ele>83.29</ele>
        <time>2020-09-26T13:48:51Z</time>
      </trkpt>
      <trkpt lat="48.36232" lon="2.14742">
        <ele>85.21</ele>
        <time>2020-09-26T13:49:06Z</time>
      </trkpt>
      <trkpt lat="48.36237" lon="2.14762">
        <ele>87.14</ele>
        <time>2020-09-26T13:49:18Z</time>
      </trkpt>
      <trkpt lat="48.36238" lon="2.14764">
        <ele>87.14</ele>
        <time>2020-09-26T13:49:19Z</time>
      </trkpt>
      <trkpt lat="48.36245" lon="2.14779">
        <ele>88.58</ele>
        <time>2020-09-26T13:49:32Z</time>
      </trkpt>
      <trkpt lat="48.36251" lon="2.14795">
        <ele>89.06</ele>
        <time>2020-09-26T13:49:45Z</time>
      </trkpt>
      <trkpt lat="48.36256" lon="2.14803">
        <ele>90.02</ele>
        <time>2020-09-26T13:49:53Z</time>
      </trkpt>
      <trkpt lat="48.36257" lon="2.14806">
        <ele>90.02</ele>
        <time>2020-09-26T13:49:54Z</time>
      </trkpt>
      <trkpt lat="48.36258" lon="2.14813">
        <ele>90.5</ele>
        <time>2020-09-26T13:49:59Z</time>
      </trkpt>
      <trkpt lat="48.36259" lon="2.14815">
        <ele>90.5</ele>
        <time>2020-09-26T13:50:00Z</time>
      </trkpt>
      <trkpt lat="48.36264" lon="2.14831">
        <ele>91.46</ele>
        <time>2020-09-26T13:50:12Z</time>
      </trkpt>
      <trkpt lat="48.36266" lon="2.14844">
        <ele>93.39</ele>
        <time>2020-09-26T13:50:22Z</time>
      </trkpt>
      <trkpt lat="48.36269" lon="2.14851">
        <ele>93.39</ele>
        <time>2020-09-26T13:50:27Z</time>
      </trkpt>
      <trkpt lat="48.36273" lon="2.14863">
        <ele>95.31</ele>
        <time>2020-09-26T13:50:37Z</time>
      </trkpt>
      <trkpt lat="48.36277" lon="2.1487">
        <ele>95.31</ele>
        <time>2020-09-26T13:50:42Z</time>
      </trkpt>
      <trkpt lat="48.36278" lon="2.14881">
        <ele>96.27</ele>
        <time>2020-09-26T13:50:47Z</time>
      </trkpt>
      <trkpt lat="48.36278" lon="2.14883">
        <ele>96.27</ele>
        <time>2020-09-26T13:50:48Z</time>
      </trkpt>
      <trkpt lat="48.36279" lon="2.14885">
        <ele>96.27</ele>
        <time>2020-09-26T13:50:49Z</time>
      </trkpt>
      <trkpt lat="48.3628" lon="2.14888">
        <ele>96.27</ele>
        <time>2020-09-26T13:50:50Z</time>
      </trkpt>
      <trkpt lat="48.36284" lon="2.14896">
        <ele>97.23</ele>
        <time>2020-09-26T13:50:58Z</time>
      </trkpt>
      <trkpt lat="48.36285" lon="2.14898">
        <ele>97.23</ele>
        <time>2020-09-26T13:50:59Z</time>
      </trkpt>
      <trkpt lat="48.36285" lon="2.149">
        <ele>97.23</ele>
        <time>2020-09-26T13:51:00Z</time>
      </trkpt>
      <trkpt lat="48.36288" lon="2.1491">
        <ele>98.19</ele>
        <time>2020-09-26T13:51:10Z</time>
      </trkpt>
      <trkpt lat="48.36289" lon="2.14912">
        <ele>98.67</ele>
        <time>2020-09-26T13:51:11Z</time>
      </trkpt>
      <trkpt lat="48.3629" lon="2.14914">
        <ele>98.19</ele>
        <time>2020-09-26T13:51:12Z</time>
      </trkpt>
      <trkpt lat="48.36291" lon="2.14916">
        <ele>98.67</ele>
        <time>2020-09-26T13:51:13Z</time>
      </trkpt>
      <trkpt lat="48.36294" lon="2.14923">
        <ele>98.19</ele>
        <time>2020-09-26T13:51:18Z</time>
      </trkpt>
      <trkpt lat="48.36294" lon="2.1493">
        <ele>99.15</ele>
        <time>2020-09-26T13:51:22Z</time>
      </trkpt>
      <trkpt lat="48.36294" lon="2.14932">
        <ele>99.63</ele>
        <time>2020-09-26T13:51:23Z</time>
      </trkpt>
      <trkpt lat="48.36296" lon="2.1495">
        <ele>100.6</ele>
        <time>2020-09-26T13:51:35Z</time>
      </trkpt>
      <trkpt lat="48.363" lon="2.14959">
        <ele>102.52</ele>
        <time>2020-09-26T13:51:47Z</time>
      </trkpt>
      <trkpt lat="48.36301" lon="2.14961">
        <ele>102.52</ele>
        <time>2020-09-26T13:51:49Z</time>
      </trkpt>
      <trkpt lat="48.36302" lon="2.14963">
        <ele>103.48</ele>
        <time>2020-09-26T13:51:50Z</time>
      </trkpt>
      <trkpt lat="48.36302" lon="2.14965">
        <ele>103</ele>
        <time>2020-09-26T13:51:51Z</time>
      </trkpt>
      <trkpt lat="48.36307" lon="2.14976">
        <ele>104.92</ele>
        <time>2020-09-26T13:52:03Z</time>
      </trkpt>
      <trkpt lat="48.36308" lon="2.14994">
        <ele>108.29</ele>
        <time>2020-09-26T13:52:19Z</time>
      </trkpt>
      <trkpt lat="48.36312" lon="2.15011">
        <ele>108.29</ele>
        <time>2020-09-26T13:52:33Z</time>
      </trkpt>
      <trkpt lat="48.36318" lon="2.15007">
        <ele>110.69</ele>
        <time>2020-09-26T13:52:47Z</time>
      </trkpt>
      <trkpt lat="48.36319" lon="2.15005">
        <ele>110.21</ele>
        <time>2020-09-26T13:52:49Z</time>
      </trkpt>
      <trkpt lat="48.36324" lon="2.14996">
        <ele>111.65</ele>
        <time>2020-09-26T13:52:56Z</time>
      </trkpt>
      <trkpt lat="48.36331" lon="2.1498">
        <ele>112.61</ele>
        <time>2020-09-26T13:53:12Z</time>
      </trkpt>
      <trkpt lat="48.3634" lon="2.14957">
        <ele>113.09</ele>
        <time>2020-09-26T13:53:30Z</time>
      </trkpt>
      <trkpt lat="48.36343" lon="2.14951">
        <ele>114.05</ele>
        <time>2020-09-26T13:53:35Z</time>
      </trkpt>
      <trkpt lat="48.36345" lon="2.14942">
        <ele>114.53</ele>
        <time>2020-09-26T13:53:41Z</time>
      </trkpt>
      <trkpt lat="48.36352" lon="2.14915">
        <ele>115.98</ele>
        <time>2020-09-26T13:53:57Z</time>
      </trkpt>
      <trkpt lat="48.36354" lon="2.14902">
        <ele>115.98</ele>
        <time>2020-09-26T13:54:06Z</time>
      </trkpt>
      <trkpt lat="48.36358" lon="2.1488">
        <ele>114.53</ele>
        <time>2020-09-26T13:54:20Z</time>
      </trkpt>
      <trkpt lat="48.36364" lon="2.14871">
        <ele>115.98</ele>
        <time>2020-09-26T13:54:28Z</time>
      </trkpt>
      <trkpt lat="48.36373" lon="2.1487">
        <ele>115.98</ele>
        <time>2020-09-26T13:54:37Z</time>
      </trkpt>
      <trkpt lat="48.36379" lon="2.14874">
        <ele>117.9</ele>
        <time>2020-09-26T13:54:44Z</time>
      </trkpt>
      <trkpt lat="48.36387" lon="2.14878">
        <ele>119.82</ele>
        <time>2020-09-26T13:54:55Z</time>
      </trkpt>
      <trkpt lat="48.36404" lon="2.14874">
        <ele>119.82</ele>
        <time>2020-09-26T13:55:12Z</time>
      </trkpt>
      <trkpt lat="48.36411" lon="2.14888">
        <ele>122.71</ele>
        <time>2020-09-26T13:55:28Z</time>
      </trkpt>
      <trkpt lat="48.36423" lon="2.14895">
        <ele>124.63</ele>
        <time>2020-09-26T13:55:43Z</time>
      </trkpt>
      <trkpt lat="48.36431" lon="2.1491">
        <ele>127.51</ele>
        <time>2020-09-26T13:55:57Z</time>
      </trkpt>
      <trkpt lat="48.36434" lon="2.14917">
        <ele>129.43</ele>
        <time>2020-09-26T13:56:02Z</time>
      </trkpt>
      <trkpt lat="48.36446" lon="2.1493">
        <ele>131.36</ele>
        <time>2020-09-26T13:56:17Z</time>
      </trkpt>
      <trkpt lat="48.36456" lon="2.14944">
        <ele>132.32</ele>
        <time>2020-09-26T13:56:31Z</time>
      </trkpt>
      <trkpt lat="48.36458" lon="2.14943">
        <ele>131.84</ele>
        <time>2020-09-26T13:56:33Z</time>
      </trkpt>
      <trkpt lat="48.36462" lon="2.14937">
        <ele>131.36</ele>
        <time>2020-09-26T13:56:37Z</time>
      </trkpt>
      <trkpt lat="48.36478" lon="2.14929">
        <ele>132.32</ele>
        <time>2020-09-26T13:56:54Z</time>
      </trkpt>
      <trkpt lat="48.36484" lon="2.14928">
        <ele>131.84</ele>
        <time>2020-09-26T13:57:00Z</time>
      </trkpt>
      <trkpt lat="48.36492" lon="2.14924">
        <ele>131.36</ele>
        <time>2020-09-26T13:57:07Z</time>
      </trkpt>
      <trkpt lat="48.365" lon="2.1492">
        <ele>132.8</ele>
        <time>2020-09-26T13:57:15Z</time>
      </trkpt>
      <trkpt lat="48.36514" lon="2.14909">
        <ele>132.32</ele>
        <time>2020-09-26T13:57:27Z</time>
      </trkpt>
      <trkpt lat="48.36532" lon="2.14905">
        <ele>130.4</ele>
        <time>2020-09-26T13:57:44Z</time>
      </trkpt>
      <trkpt lat="48.36548" lon="2.14902">
        <ele>130.4</ele>
        <time>2020-09-26T13:57:56Z</time>
      </trkpt>
      <trkpt lat="48.36566" lon="2.14906">
        <ele>130.4</ele>
        <time>2020-09-26T13:58:12Z</time>
      </trkpt>
      <trkpt lat="48.36575" lon="2.14915">
        <ele>129.92</ele>
        <time>2020-09-26T13:58:21Z</time>
      </trkpt>
      <trkpt lat="48.36587" lon="2.14928">
        <ele>130.4</ele>
        <time>2020-09-26T13:58:34Z</time>
      </trkpt>
      <trkpt lat="48.366" lon="2.14944">
        <ele>130.4</ele>
        <time>2020-09-26T13:58:47Z</time>
      </trkpt>
      <trkpt lat="48.36604" lon="2.14965">
        <ele>131.36</ele>
        <time>2020-09-26T13:59:00Z</time>
      </trkpt>
      <trkpt lat="48.36609" lon="2.14991">
        <ele>132.8</ele>
        <time>2020-09-26T13:59:15Z</time>
      </trkpt>
      <trkpt lat="48.36616" lon="2.15018">
        <ele>132.32</ele>
        <time>2020-09-26T13:59:32Z</time>
      </trkpt>
      <trkpt lat="48.36618" lon="2.15019">
        <ele>132.32</ele>
        <time>2020-09-26T13:59:34Z</time>
      </trkpt>
      <trkpt lat="48.36629" lon="2.15031">
        <ele>132.8</ele>
        <time>2020-09-26T13:59:47Z</time>
      </trkpt>
      <trkpt lat="48.36644" lon="2.15037">
        <ele>130.88</ele>
        <time>2020-09-26T14:00:02Z</time>
      </trkpt>
      <trkpt lat="48.36647" lon="2.15036">
        <ele>130.4</ele>
        <time>2020-09-26T14:00:04Z</time>
      </trkpt>
      <trkpt lat="48.36655" lon="2.15041">
        <ele>131.36</ele>
        <time>2020-09-26T14:00:13Z</time>
      </trkpt>
      <trkpt lat="48.36672" lon="2.15055">
        <ele>129.92</ele>
        <time>2020-09-26T14:00:27Z</time>
      </trkpt>
      <trkpt lat="48.36685" lon="2.15063">
        <ele>130.4</ele>
        <time>2020-09-26T14:00:39Z</time>
      </trkpt>
      <trkpt lat="48.36692" lon="2.15074">
        <ele>129.92</ele>
        <time>2020-09-26T14:00:47Z</time>
      </trkpt>
      <trkpt lat="48.36699" lon="2.15091">
        <ele>129.92</ele>
        <time>2020-09-26T14:01:01Z</time>
      </trkpt>
      <trkpt lat="48.36697" lon="2.15109">
        <ele>130.88</ele>
        <time>2020-09-26T14:01:13Z</time>
      </trkpt>
      <trkpt lat="48.36696" lon="2.15111">
        <ele>131.36</ele>
        <time>2020-09-26T14:01:15Z</time>
      </trkpt>
      <trkpt lat="48.36688" lon="2.15132">
        <ele>132.8</ele>
        <time>2020-09-26T14:01:31Z</time>
      </trkpt>
      <trkpt lat="48.36687" lon="2.15135">
        <ele>132.32</ele>
        <time>2020-09-26T14:01:33Z</time>
      </trkpt>
      <trkpt lat="48.36676" lon="2.15158">
        <ele>133.28</ele>
        <time>2020-09-26T14:01:51Z</time>
      </trkpt>
      <trkpt lat="48.36675" lon="2.15162">
        <ele>132.8</ele>
        <time>2020-09-26T14:01:53Z</time>
      </trkpt>
      <trkpt lat="48.36672" lon="2.15166">
        <ele>132.8</ele>
        <time>2020-09-26T14:01:57Z</time>
      </trkpt>
      <trkpt lat="48.36661" lon="2.15185">
        <ele>133.76</ele>
        <time>2020-09-26T14:02:13Z</time>
      </trkpt>
      <trkpt lat="48.36661" lon="2.15201">
        <ele>133.28</ele>
        <time>2020-09-26T14:02:21Z</time>
      </trkpt>
      <trkpt lat="48.36661" lon="2.15226">
        <ele>133.76</ele>
        <time>2020-09-26T14:02:37Z</time>
      </trkpt>
      <trkpt lat="48.36663" lon="2.15233">
        <ele>133.76</ele>
        <time>2020-09-26T14:02:42Z</time>
      </trkpt>
      <trkpt lat="48.36665" lon="2.1524">
        <ele>133.28</ele>
        <time>2020-09-26T14:02:46Z</time>
      </trkpt>
      <trkpt lat="48.36668" lon="2.15269">
        <ele>133.28</ele>
        <time>2020-09-26T14:03:02Z</time>
      </trkpt>
      <trkpt lat="48.36676" lon="2.15293">
        <ele>134.24</ele>
        <time>2020-09-26T14:03:19Z</time>
      </trkpt>
      <trkpt lat="48.36685" lon="2.15321">
        <ele>133.76</ele>
        <time>2020-09-26T14:03:35Z</time>
      </trkpt>
      <trkpt lat="48.36685" lon="2.15322">
        <ele>133.28</ele>
        <time>2020-09-26T14:03:37Z</time>
      </trkpt>
      <trkpt lat="48.36704" lon="2.15337">
        <ele>134.24</ele>
        <time>2020-09-26T14:03:55Z</time>
      </trkpt>
      <trkpt lat="48.3672" lon="2.1534">
        <ele>133.28</ele>
        <time>2020-09-26T14:04:09Z</time>
      </trkpt>
      <trkpt lat="48.36725" lon="2.15334">
        <ele>132.8</ele>
        <time>2020-09-26T14:04:14Z</time>
      </trkpt>
      <trkpt lat="48.36735" lon="2.15317">
        <ele>132.8</ele>
        <time>2020-09-26T14:04:28Z</time>
      </trkpt>
      <trkpt lat="48.36744" lon="2.15314">
        <ele>131.36</ele>
        <time>2020-09-26T14:04:34Z</time>
      </trkpt>
      <trkpt lat="48.3675" lon="2.15317">
        <ele>131.36</ele>
        <time>2020-09-26T14:04:39Z</time>
      </trkpt>
      <trkpt lat="48.36757" lon="2.15324">
        <ele>130.88</ele>
        <time>2020-09-26T14:04:45Z</time>
      </trkpt>
      <trkpt lat="48.36766" lon="2.15327">
        <ele>130.88</ele>
        <time>2020-09-26T14:04:54Z</time>
      </trkpt>
      <trkpt lat="48.36774" lon="2.15334">
        <ele>130.88</ele>
        <time>2020-09-26T14:05:04Z</time>
      </trkpt>
      <trkpt lat="48.3679" lon="2.15343">
        <ele>130.88</ele>
        <time>2020-09-26T14:05:16Z</time>
      </trkpt>
      <trkpt lat="48.36795" lon="2.15345">
        <ele>131.84</ele>
        <time>2020-09-26T14:05:21Z</time>
      </trkpt>
      <trkpt lat="48.36807" lon="2.15344">
        <ele>131.36</ele>
        <time>2020-09-26T14:05:33Z</time>
      </trkpt>
      <trkpt lat="48.3681" lon="2.1533">
        <ele>128.95</ele>
        <time>2020-09-26T14:05:43Z</time>
      </trkpt>
      <trkpt lat="48.36819" lon="2.15298">
        <ele>126.07</ele>
        <time>2020-09-26T14:05:56Z</time>
      </trkpt>
      <trkpt lat="48.36825" lon="2.15284">
        <ele>124.63</ele>
        <time>2020-09-26T14:06:08Z</time>
      </trkpt>
      <trkpt lat="48.36831" lon="2.15266">
        <ele>122.71</ele>
        <time>2020-09-26T14:06:19Z</time>
      </trkpt>
      <trkpt lat="48.36831" lon="2.15265">
        <ele>122.22</ele>
        <time>2020-09-26T14:06:20Z</time>
      </trkpt>
      <trkpt lat="48.36832" lon="2.15264">
        <ele>121.74</ele>
        <time>2020-09-26T14:06:21Z</time>
      </trkpt>
      <trkpt lat="48.36833" lon="2.15262">
        <ele>121.74</ele>
        <time>2020-09-26T14:06:22Z</time>
      </trkpt>
      <trkpt lat="48.36834" lon="2.1526">
        <ele>121.74</ele>
        <time>2020-09-26T14:06:23Z</time>
      </trkpt>
      <trkpt lat="48.36836" lon="2.15258">
        <ele>121.74</ele>
        <time>2020-09-26T14:06:24Z</time>
      </trkpt>
      <trkpt lat="48.36837" lon="2.15257">
        <ele>121.74</ele>
        <time>2020-09-26T14:06:25Z</time>
      </trkpt>
      <trkpt lat="48.36841" lon="2.15249">
        <ele>120.3</ele>
        <time>2020-09-26T14:06:32Z</time>
      </trkpt>
      <trkpt lat="48.36847" lon="2.15236">
        <ele>119.34</ele>
        <time>2020-09-26T14:06:42Z</time>
      </trkpt>
      <trkpt lat="48.36848" lon="2.15233">
        <ele>119.34</ele>
        <time>2020-09-26T14:06:43Z</time>
      </trkpt>
      <trkpt lat="48.36848" lon="2.15226">
        <ele>119.82</ele>
        <time>2020-09-26T14:06:51Z</time>
      </trkpt>
      <trkpt lat="48.36851" lon="2.15221">
        <ele>118.86</ele>
        <time>2020-09-26T14:06:55Z</time>
      </trkpt>
      <trkpt lat="48.36857" lon="2.15209">
        <ele>117.9</ele>
        <time>2020-09-26T14:07:06Z</time>
      </trkpt>
      <trkpt lat="48.36864" lon="2.15206">
        <ele>116.94</ele>
        <time>2020-09-26T14:07:13Z</time>
      </trkpt>
      <trkpt lat="48.36876" lon="2.152">
        <ele>113.57</ele>
        <time>2020-09-26T14:07:23Z</time>
      </trkpt>
      <trkpt lat="48.36891" lon="2.152">
        <ele>112.61</ele>
        <time>2020-09-26T14:07:37Z</time>
      </trkpt>
      <trkpt lat="48.36907" lon="2.1521">
        <ele>111.17</ele>
        <time>2020-09-26T14:07:50Z</time>
      </trkpt>
      <trkpt lat="48.36914" lon="2.15214">
        <ele>110.21</ele>
        <time>2020-09-26T14:07:58Z</time>
      </trkpt>
      <trkpt lat="48.36923" lon="2.15216">
        <ele>108.29</ele>
        <time>2020-09-26T14:08:04Z</time>
      </trkpt>
      <trkpt lat="48.36937" lon="2.1523">
        <ele>106.36</ele>
        <time>2020-09-26T14:08:17Z</time>
      </trkpt>
      <trkpt lat="48.36949" lon="2.15235">
        <ele>105.4</ele>
        <time>2020-09-26T14:08:28Z</time>
      </trkpt>
      <trkpt lat="48.36956" lon="2.15241">
        <ele>103.96</ele>
        <time>2020-09-26T14:08:36Z</time>
      </trkpt>
      <trkpt lat="48.36958" lon="2.15241">
        <ele>103.96</ele>
        <time>2020-09-26T14:08:37Z</time>
      </trkpt>
      <trkpt lat="48.36964" lon="2.15247">
        <ele>103.48</ele>
        <time>2020-09-26T14:08:45Z</time>
      </trkpt>
      <trkpt lat="48.36973" lon="2.15253">
        <ele>101.08</ele>
        <time>2020-09-26T14:08:56Z</time>
      </trkpt>
      <trkpt lat="48.36985" lon="2.15257">
        <ele>100.11</ele>
        <time>2020-09-26T14:09:05Z</time>
      </trkpt>
      <trkpt lat="48.36986" lon="2.15259">
        <ele>100.6</ele>
        <time>2020-09-26T14:09:06Z</time>
      </trkpt>
      <trkpt lat="48.37001" lon="2.15266">
        <ele>98.67</ele>
        <time>2020-09-26T14:09:19Z</time>
      </trkpt>
      <trkpt lat="48.37003" lon="2.15267">
        <ele>98.19</ele>
        <time>2020-09-26T14:09:20Z</time>
      </trkpt>
      <trkpt lat="48.37016" lon="2.15275">
        <ele>96.75</ele>
        <time>2020-09-26T14:09:34Z</time>
      </trkpt>
      <trkpt lat="48.3703" lon="2.15277">
        <ele>94.83</ele>
        <time>2020-09-26T14:09:47Z</time>
      </trkpt>
      <trkpt lat="48.37032" lon="2.15274">
        <ele>94.83</ele>
        <time>2020-09-26T14:09:49Z</time>
      </trkpt>
      <trkpt lat="48.37033" lon="2.15271">
        <ele>94.35</ele>
        <time>2020-09-26T14:09:51Z</time>
      </trkpt>
      <trkpt lat="48.37031" lon="2.15261">
        <ele>93.39</ele>
        <time>2020-09-26T14:09:59Z</time>
      </trkpt>
      <trkpt lat="48.37031" lon="2.15259">
        <ele>93.39</ele>
        <time>2020-09-26T14:10:01Z</time>
      </trkpt>
      <trkpt lat="48.37022" lon="2.15245">
        <ele>93.39</ele>
        <time>2020-09-26T14:10:12Z</time>
      </trkpt>
      <trkpt lat="48.37021" lon="2.15239">
        <ele>91.46</ele>
        <time>2020-09-26T14:10:19Z</time>
      </trkpt>
      <trkpt lat="48.37024" lon="2.15235">
        <ele>91.46</ele>
        <time>2020-09-26T14:10:24Z</time>
      </trkpt>
      <trkpt lat="48.37021" lon="2.15231">
        <ele>91.46</ele>
        <time>2020-09-26T14:10:32Z</time>
      </trkpt>
      <trkpt lat="48.37028" lon="2.1523">
        <ele>90.5</ele>
        <time>2020-09-26T14:10:36Z</time>
      </trkpt>
      <trkpt lat="48.3703" lon="2.1523">
        <ele>90.5</ele>
        <time>2020-09-26T14:10:37Z</time>
      </trkpt>
      <trkpt lat="48.37032" lon="2.1523">
        <ele>90.98</ele>
        <time>2020-09-26T14:10:38Z</time>
      </trkpt>
      <trkpt lat="48.37033" lon="2.15229">
        <ele>90.5</ele>
        <time>2020-09-26T14:10:39Z</time>
      </trkpt>
      <trkpt lat="48.37034" lon="2.1523">
        <ele>90.98</ele>
        <time>2020-09-26T14:10:40Z</time>
      </trkpt>
      <trkpt lat="48.37034" lon="2.15231">
        <ele>90.5</ele>
        <time>2020-09-26T14:10:42Z</time>
      </trkpt>
      <trkpt lat="48.37035" lon="2.15232">
        <ele>90.5</ele>
        <time>2020-09-26T14:10:43Z</time>
      </trkpt>
      <trkpt lat="48.37036" lon="2.15233">
        <ele>90.5</ele>
        <time>2020-09-26T14:10:44Z</time>
      </trkpt>
      <trkpt lat="48.3705" lon="2.15242">
        <ele>89.06</ele>
        <time>2020-09-26T14:10:59Z</time>
      </trkpt>
      <trkpt lat="48.3706" lon="2.15252">
        <ele>89.54</ele>
        <time>2020-09-26T14:11:11Z</time>
      </trkpt>
      <trkpt lat="48.37067" lon="2.15258">
        <ele>89.06</ele>
        <time>2020-09-26T14:11:20Z</time>
      </trkpt>
      <trkpt lat="48.3707" lon="2.1526">
        <ele>89.06</ele>
        <time>2020-09-26T14:11:22Z</time>
      </trkpt>
      <trkpt lat="48.37071" lon="2.15261">
        <ele>89.06</ele>
        <time>2020-09-26T14:11:23Z</time>
      </trkpt>
      <trkpt lat="48.37078" lon="2.15265">
        <ele>87.62</ele>
        <time>2020-09-26T14:11:29Z</time>
      </trkpt>
      <trkpt lat="48.37086" lon="2.15271">
        <ele>89.06</ele>
        <time>2020-09-26T14:11:35Z</time>
      </trkpt>
      <trkpt lat="48.37098" lon="2.15278">
        <ele>88.1</ele>
        <time>2020-09-26T14:11:47Z</time>
      </trkpt>
      <trkpt lat="48.37108" lon="2.15285">
        <ele>87.62</ele>
        <time>2020-09-26T14:12:00Z</time>
      </trkpt>
      <trkpt lat="48.37127" lon="2.15292">
        <ele>88.1</ele>
        <time>2020-09-26T14:12:18Z</time>
      </trkpt>
      <trkpt lat="48.37139" lon="2.15297">
        <ele>88.1</ele>
        <time>2020-09-26T14:12:28Z</time>
      </trkpt>
      <trkpt lat="48.37146" lon="2.15303">
        <ele>88.58</ele>
        <time>2020-09-26T14:12:36Z</time>
      </trkpt>
      <trkpt lat="48.37164" lon="2.15311">
        <ele>88.58</ele>
        <time>2020-09-26T14:12:51Z</time>
      </trkpt>
      <trkpt lat="48.37167" lon="2.15314">
        <ele>89.54</ele>
        <time>2020-09-26T14:12:54Z</time>
      </trkpt>
      <trkpt lat="48.37168" lon="2.15314">
        <ele>89.06</ele>
        <time>2020-09-26T14:12:55Z</time>
      </trkpt>
      <trkpt lat="48.37169" lon="2.15315">
        <ele>89.06</ele>
        <time>2020-09-26T14:12:56Z</time>
      </trkpt>
      <trkpt lat="48.37182" lon="2.15322">
        <ele>90.02</ele>
        <time>2020-09-26T14:13:10Z</time>
      </trkpt>
      <trkpt lat="48.37193" lon="2.15328">
        <ele>89.54</ele>
        <time>2020-09-26T14:13:21Z</time>
      </trkpt>
      <trkpt lat="48.37202" lon="2.15333">
        <ele>90.02</ele>
        <time>2020-09-26T14:13:30Z</time>
      </trkpt>
      <trkpt lat="48.37223" lon="2.15342">
        <ele>89.54</ele>
        <time>2020-09-26T14:13:50Z</time>
      </trkpt>
      <trkpt lat="48.37244" lon="2.15347">
        <ele>89.54</ele>
        <time>2020-09-26T14:14:06Z</time>
      </trkpt>
      <trkpt lat="48.37254" lon="2.15351">
        <ele>90.02</ele>
        <time>2020-09-26T14:14:17Z</time>
      </trkpt>
      <trkpt lat="48.37264" lon="2.15356">
        <ele>90.02</ele>
        <time>2020-09-26T14:14:26Z</time>
      </trkpt>
      <trkpt lat="48.37277" lon="2.1536">
        <ele>90.02</ele>
        <time>2020-09-26T14:14:38Z</time>
      </trkpt>
      <trkpt lat="48.37291" lon="2.15364">
        <ele>90.02</ele>
        <time>2020-09-26T14:14:52Z</time>
      </trkpt>
      <trkpt lat="48.37296" lon="2.15365">
        <ele>90.5</ele>
        <time>2020-09-26T14:14:57Z</time>
      </trkpt>
      <trkpt lat="48.37298" lon="2.15366">
        <ele>89.54</ele>
        <time>2020-09-26T14:14:58Z</time>
      </trkpt>
      <trkpt lat="48.37299" lon="2.15367">
        <ele>90.02</ele>
        <time>2020-09-26T14:14:59Z</time>
      </trkpt>
      <trkpt lat="48.373" lon="2.15367">
        <ele>89.54</ele>
        <time>2020-09-26T14:15:00Z</time>
      </trkpt>
      <trkpt lat="48.37301" lon="2.15367">
        <ele>90.02</ele>
        <time>2020-09-26T14:15:01Z</time>
      </trkpt>
      <trkpt lat="48.37303" lon="2.15367">
        <ele>90.02</ele>
        <time>2020-09-26T14:15:02Z</time>
      </trkpt>
      <trkpt lat="48.3732" lon="2.15376">
        <ele>90.5</ele>
        <time>2020-09-26T14:15:17Z</time>
      </trkpt>
      <trkpt lat="48.37321" lon="2.15377">
        <ele>90.98</ele>
        <time>2020-09-26T14:15:18Z</time>
      </trkpt>
      <trkpt lat="48.37323" lon="2.15378">
        <ele>91.46</ele>
        <time>2020-09-26T14:15:19Z</time>
      </trkpt>
      <trkpt lat="48.37324" lon="2.15379">
        <ele>90.02</ele>
        <time>2020-09-26T14:15:20Z</time>
      </trkpt>
      <trkpt lat="48.37326" lon="2.15381">
        <ele>90.5</ele>
        <time>2020-09-26T14:15:21Z</time>
      </trkpt>
      <trkpt lat="48.37327" lon="2.15381">
        <ele>90.98</ele>
        <time>2020-09-26T14:15:22Z</time>
      </trkpt>
      <trkpt lat="48.3733" lon="2.15382">
        <ele>89.54</ele>
        <time>2020-09-26T14:15:25Z</time>
      </trkpt>
      <trkpt lat="48.37344" lon="2.15387">
        <ele>89.06</ele>
        <time>2020-09-26T14:15:37Z</time>
      </trkpt>
      <trkpt lat="48.37353" lon="2.1539">
        <ele>89.06</ele>
        <time>2020-09-26T14:15:47Z</time>
      </trkpt>
      <trkpt lat="48.37358" lon="2.15396">
        <ele>88.58</ele>
        <time>2020-09-26T14:15:53Z</time>
      </trkpt>
      <trkpt lat="48.3737" lon="2.15405">
        <ele>89.06</ele>
        <time>2020-09-26T14:16:06Z</time>
      </trkpt>
      <trkpt lat="48.37376" lon="2.15407">
        <ele>89.06</ele>
        <time>2020-09-26T14:16:12Z</time>
      </trkpt>
      <trkpt lat="48.37386" lon="2.1541">
        <ele>88.58</ele>
        <time>2020-09-26T14:16:25Z</time>
      </trkpt>
      <trkpt lat="48.37389" lon="2.1541">
        <ele>88.1</ele>
        <time>2020-09-26T14:16:29Z</time>
      </trkpt>
      <trkpt lat="48.374" lon="2.15416">
        <ele>88.58</ele>
        <time>2020-09-26T14:16:41Z</time>
      </trkpt>
      <trkpt lat="48.37412" lon="2.15421">
        <ele>88.58</ele>
        <time>2020-09-26T14:16:55Z</time>
      </trkpt>
      <trkpt lat="48.37426" lon="2.15431">
        <ele>87.62</ele>
        <time>2020-09-26T14:17:09Z</time>
      </trkpt>
      <trkpt lat="48.37437" lon="2.15434">
        <ele>90.02</ele>
        <time>2020-09-26T14:17:21Z</time>
      </trkpt>
      <trkpt lat="48.37451" lon="2.15443">
        <ele>88.58</ele>
        <time>2020-09-26T14:17:35Z</time>
      </trkpt>
      <trkpt lat="48.3747" lon="2.15447">
        <ele>87.14</ele>
        <time>2020-09-26T14:17:48Z</time>
      </trkpt>
      <trkpt lat="48.37482" lon="2.1545">
        <ele>85.69</ele>
        <time>2020-09-26T14:18:00Z</time>
      </trkpt>
      <trkpt lat="48.37483" lon="2.15449">
        <ele>86.18</ele>
        <time>2020-09-26T14:18:03Z</time>
      </trkpt>
      <trkpt lat="48.37483" lon="2.15447">
        <ele>87.14</ele>
        <time>2020-09-26T14:18:04Z</time>
      </trkpt>
      <trkpt lat="48.37484" lon="2.15447">
        <ele>86.66</ele>
        <time>2020-09-26T14:18:05Z</time>
      </trkpt>
      <trkpt lat="48.37486" lon="2.15449">
        <ele>86.18</ele>
        <time>2020-09-26T14:18:08Z</time>
      </trkpt>
      <trkpt lat="48.37489" lon="2.1545">
        <ele>86.18</ele>
        <time>2020-09-26T14:18:11Z</time>
      </trkpt>
      <trkpt lat="48.37498" lon="2.15454">
        <ele>84.73</ele>
        <time>2020-09-26T14:18:22Z</time>
      </trkpt>
      <trkpt lat="48.37499" lon="2.15452">
        <ele>86.66</ele>
        <time>2020-09-26T14:18:35Z</time>
      </trkpt>
      <trkpt lat="48.375" lon="2.15455">
        <ele>85.69</ele>
        <time>2020-09-26T14:18:54Z</time>
      </trkpt>
      <trkpt lat="48.37504" lon="2.15458">
        <ele>85.21</ele>
        <time>2020-09-26T14:18:58Z</time>
      </trkpt>
      <trkpt lat="48.37506" lon="2.15458">
        <ele>85.69</ele>
        <time>2020-09-26T14:18:59Z</time>
      </trkpt>
      <trkpt lat="48.37507" lon="2.15459">
        <ele>85.21</ele>
        <time>2020-09-26T14:19:02Z</time>
      </trkpt>
      <trkpt lat="48.37512" lon="2.15462">
        <ele>86.18</ele>
        <time>2020-09-26T14:19:09Z</time>
      </trkpt>
      <trkpt lat="48.37513" lon="2.15463">
        <ele>86.18</ele>
        <time>2020-09-26T14:19:10Z</time>
      </trkpt>
      <trkpt lat="48.37518" lon="2.15467">
        <ele>85.69</ele>
        <time>2020-09-26T14:19:15Z</time>
      </trkpt>
      <trkpt lat="48.37519" lon="2.15468">
        <ele>84.73</ele>
        <time>2020-09-26T14:19:16Z</time>
      </trkpt>
      <trkpt lat="48.3752" lon="2.15469">
        <ele>84.73</ele>
        <time>2020-09-26T14:19:17Z</time>
      </trkpt>
      <trkpt lat="48.37531" lon="2.15474">
        <ele>84.25</ele>
        <time>2020-09-26T14:19:33Z</time>
      </trkpt>
      <trkpt lat="48.37534" lon="2.15476">
        <ele>83.29</ele>
        <time>2020-09-26T14:19:47Z</time>
      </trkpt>
      <trkpt lat="48.37534" lon="2.15473">
        <ele>85.21</ele>
        <time>2020-09-26T14:19:55Z</time>
      </trkpt>
      <trkpt lat="48.37534" lon="2.15474">
        <ele>84.25</ele>
        <time>2020-09-26T14:20:07Z</time>
      </trkpt>
      <trkpt lat="48.37536" lon="2.15476">
        <ele>84.25</ele>
        <time>2020-09-26T14:20:15Z</time>
      </trkpt>
      <trkpt lat="48.37538" lon="2.15481">
        <ele>83.77</ele>
        <time>2020-09-26T14:20:19Z</time>
      </trkpt>
      <trkpt lat="48.3754" lon="2.15481">
        <ele>83.77</ele>
        <time>2020-09-26T14:20:21Z</time>
      </trkpt>
      <trkpt lat="48.37541" lon="2.15479">
        <ele>83.29</ele>
        <time>2020-09-26T14:20:22Z</time>
      </trkpt>
      <trkpt lat="48.37542" lon="2.15478">
        <ele>82.81</ele>
        <time>2020-09-26T14:20:23Z</time>
      </trkpt>
      <trkpt lat="48.37544" lon="2.15476">
        <ele>83.77</ele>
        <time>2020-09-26T14:20:24Z</time>
      </trkpt>
      <trkpt lat="48.37545" lon="2.15474">
        <ele>83.29</ele>
        <time>2020-09-26T14:20:25Z</time>
      </trkpt>
      <trkpt lat="48.37557" lon="2.1546">
        <ele>83.29</ele>
        <time>2020-09-26T14:20:40Z</time>
      </trkpt>
      <trkpt lat="48.3756" lon="2.15455">
        <ele>83.77</ele>
        <time>2020-09-26T14:20:45Z</time>
      </trkpt>
      <trkpt lat="48.37561" lon="2.15455">
        <ele>83.29</ele>
        <time>2020-09-26T14:20:46Z</time>
      </trkpt>
      <trkpt lat="48.37565" lon="2.15451">
        <ele>83.77</ele>
        <time>2020-09-26T14:20:50Z</time>
      </trkpt>
      <trkpt lat="48.37576" lon="2.15434">
        <ele>85.21</ele>
        <time>2020-09-26T14:21:05Z</time>
      </trkpt>
      <trkpt lat="48.37577" lon="2.15432">
        <ele>85.21</ele>
        <time>2020-09-26T14:21:06Z</time>
      </trkpt>
      <trkpt lat="48.37578" lon="2.15431">
        <ele>84.73</ele>
        <time>2020-09-26T14:21:07Z</time>
      </trkpt>
      <trkpt lat="48.37588" lon="2.15415">
        <ele>85.69</ele>
        <time>2020-09-26T14:21:21Z</time>
      </trkpt>
      <trkpt lat="48.37589" lon="2.15414">
        <ele>85.69</ele>
        <time>2020-09-26T14:21:22Z</time>
      </trkpt>
      <trkpt lat="48.37598" lon="2.15397">
        <ele>86.18</ele>
        <time>2020-09-26T14:21:36Z</time>
      </trkpt>
      <trkpt lat="48.37608" lon="2.15382">
        <ele>86.18</ele>
        <time>2020-09-26T14:21:46Z</time>
      </trkpt>
      <trkpt lat="48.37609" lon="2.1538">
        <ele>85.69</ele>
        <time>2020-09-26T14:21:47Z</time>
      </trkpt>
      <trkpt lat="48.3761" lon="2.15379">
        <ele>85.69</ele>
        <time>2020-09-26T14:21:48Z</time>
      </trkpt>
      <trkpt lat="48.37611" lon="2.15376">
        <ele>86.18</ele>
        <time>2020-09-26T14:21:50Z</time>
      </trkpt>
      <trkpt lat="48.37612" lon="2.15371">
        <ele>85.69</ele>
        <time>2020-09-26T14:22:04Z</time>
      </trkpt>
      <trkpt lat="48.37615" lon="2.15361">
        <ele>85.69</ele>
        <time>2020-09-26T14:22:14Z</time>
      </trkpt>
      <trkpt lat="48.37617" lon="2.15358">
        <ele>84.25</ele>
        <time>2020-09-26T14:22:18Z</time>
      </trkpt>
      <trkpt lat="48.37618" lon="2.15357">
        <ele>84.25</ele>
        <time>2020-09-26T14:22:19Z</time>
      </trkpt>
      <trkpt lat="48.37625" lon="2.15347">
        <ele>85.69</ele>
        <time>2020-09-26T14:22:29Z</time>
      </trkpt>
      <trkpt lat="48.37637" lon="2.15338">
        <ele>84.25</ele>
        <time>2020-09-26T14:22:43Z</time>
      </trkpt>
      <trkpt lat="48.37638" lon="2.15337">
        <ele>83.29</ele>
        <time>2020-09-26T14:22:44Z</time>
      </trkpt>
      <trkpt lat="48.37639" lon="2.15337">
        <ele>83.77</ele>
        <time>2020-09-26T14:22:45Z</time>
      </trkpt>
      <trkpt lat="48.37657" lon="2.15328">
        <ele>83.77</ele>
        <time>2020-09-26T14:22:59Z</time>
      </trkpt>
      <trkpt lat="48.37658" lon="2.15327">
        <ele>82.81</ele>
        <time>2020-09-26T14:23:01Z</time>
      </trkpt>
      <trkpt lat="48.37661" lon="2.15325">
        <ele>82.81</ele>
        <time>2020-09-26T14:23:04Z</time>
      </trkpt>
      <trkpt lat="48.37662" lon="2.15324">
        <ele>82.81</ele>
        <time>2020-09-26T14:23:05Z</time>
      </trkpt>
      <trkpt lat="48.37663" lon="2.15323">
        <ele>82.33</ele>
        <time>2020-09-26T14:23:06Z</time>
      </trkpt>
      <trkpt lat="48.37672" lon="2.15312">
        <ele>81.37</ele>
        <time>2020-09-26T14:23:16Z</time>
      </trkpt>
      <trkpt lat="48.37673" lon="2.1531">
        <ele>80.41</ele>
        <time>2020-09-26T14:23:17Z</time>
      </trkpt>
      <trkpt lat="48.37673" lon="2.15308">
        <ele>80.89</ele>
        <time>2020-09-26T14:23:18Z</time>
      </trkpt>
      <trkpt lat="48.37674" lon="2.15305">
        <ele>80.89</ele>
        <time>2020-09-26T14:23:19Z</time>
      </trkpt>
      <trkpt lat="48.37676" lon="2.15303">
        <ele>80.41</ele>
        <time>2020-09-26T14:23:20Z</time>
      </trkpt>
      <trkpt lat="48.37677" lon="2.153">
        <ele>80.41</ele>
        <time>2020-09-26T14:23:21Z</time>
      </trkpt>
      <trkpt lat="48.37677" lon="2.15297">
        <ele>80.41</ele>
        <time>2020-09-26T14:23:22Z</time>
      </trkpt>
      <trkpt lat="48.37678" lon="2.15295">
        <ele>80.41</ele>
        <time>2020-09-26T14:23:23Z</time>
      </trkpt>
      <trkpt lat="48.37675" lon="2.15278">
        <ele>78.97</ele>
        <time>2020-09-26T14:23:33Z</time>
      </trkpt>
      <trkpt lat="48.37675" lon="2.15276">
        <ele>78.97</ele>
        <time>2020-09-26T14:23:34Z</time>
      </trkpt>
      <trkpt lat="48.37675" lon="2.15273">
        <ele>78.97</ele>
        <time>2020-09-26T14:23:35Z</time>
      </trkpt>
      <trkpt lat="48.37674" lon="2.15266">
        <ele>79.45</ele>
        <time>2020-09-26T14:23:39Z</time>
      </trkpt>
      <trkpt lat="48.37675" lon="2.15263">
        <ele>78.48</ele>
        <time>2020-09-26T14:23:41Z</time>
      </trkpt>
      <trkpt lat="48.37678" lon="2.15243">
        <ele>77.52</ele>
        <time>2020-09-26T14:23:51Z</time>
      </trkpt>
      <trkpt lat="48.37678" lon="2.15242">
        <ele>78</ele>
        <time>2020-09-26T14:23:52Z</time>
      </trkpt>
      <trkpt lat="48.37679" lon="2.15238">
        <ele>77.04</ele>
        <time>2020-09-26T14:23:56Z</time>
      </trkpt>
      <trkpt lat="48.37679" lon="2.15219">
        <ele>77.04</ele>
        <time>2020-09-26T14:24:09Z</time>
      </trkpt>
      <trkpt lat="48.3768" lon="2.15197">
        <ele>76.08</ele>
        <time>2020-09-26T14:24:24Z</time>
      </trkpt>
      <trkpt lat="48.3768" lon="2.15172">
        <ele>75.12</ele>
        <time>2020-09-26T14:24:38Z</time>
      </trkpt>
      <trkpt lat="48.37679" lon="2.15172">
        <ele>76.56</ele>
        <time>2020-09-26T14:24:45Z</time>
      </trkpt>
      <trkpt lat="48.3768" lon="2.15169">
        <ele>75.6</ele>
        <time>2020-09-26T14:24:51Z</time>
      </trkpt>
      <trkpt lat="48.37681" lon="2.15167">
        <ele>75.12</ele>
        <time>2020-09-26T14:24:52Z</time>
      </trkpt>
      <trkpt lat="48.37682" lon="2.15165">
        <ele>75.6</ele>
        <time>2020-09-26T14:24:53Z</time>
      </trkpt>
      <trkpt lat="48.37683" lon="2.15159">
        <ele>75.6</ele>
        <time>2020-09-26T14:24:57Z</time>
      </trkpt>
      <trkpt lat="48.37683" lon="2.15157">
        <ele>75.12</ele>
        <time>2020-09-26T14:24:58Z</time>
      </trkpt>
      <trkpt lat="48.37684" lon="2.15156">
        <ele>75.6</ele>
        <time>2020-09-26T14:24:59Z</time>
      </trkpt>
      <trkpt lat="48.3769" lon="2.1514">
        <ele>74.64</ele>
        <time>2020-09-26T14:25:10Z</time>
      </trkpt>
      <trkpt lat="48.37691" lon="2.15139">
        <ele>74.64</ele>
        <time>2020-09-26T14:25:12Z</time>
      </trkpt>
      <trkpt lat="48.37691" lon="2.15138">
        <ele>75.12</ele>
        <time>2020-09-26T14:25:13Z</time>
      </trkpt>
      <trkpt lat="48.37692" lon="2.15135">
        <ele>75.12</ele>
        <time>2020-09-26T14:25:14Z</time>
      </trkpt>
      <trkpt lat="48.37701" lon="2.15121">
        <ele>75.12</ele>
        <time>2020-09-26T14:25:24Z</time>
      </trkpt>
      <trkpt lat="48.3771" lon="2.15105">
        <ele>75.12</ele>
        <time>2020-09-26T14:25:38Z</time>
      </trkpt>
      <trkpt lat="48.3772" lon="2.15093">
        <ele>74.64</ele>
        <time>2020-09-26T14:25:49Z</time>
      </trkpt>
      <trkpt lat="48.37729" lon="2.15081">
        <ele>74.16</ele>
        <time>2020-09-26T14:26:02Z</time>
      </trkpt>
      <trkpt lat="48.37738" lon="2.15065">
        <ele>74.16</ele>
        <time>2020-09-26T14:26:14Z</time>
      </trkpt>
      <trkpt lat="48.37745" lon="2.15041">
        <ele>74.16</ele>
        <time>2020-09-26T14:26:28Z</time>
      </trkpt>
      <trkpt lat="48.37749" lon="2.15026">
        <ele>74.16</ele>
        <time>2020-09-26T14:26:37Z</time>
      </trkpt>
      <trkpt lat="48.37749" lon="2.15024">
        <ele>74.16</ele>
        <time>2020-09-26T14:26:38Z</time>
      </trkpt>
      <trkpt lat="48.3775" lon="2.15022">
        <ele>74.64</ele>
        <time>2020-09-26T14:26:39Z</time>
      </trkpt>
      <trkpt lat="48.3775" lon="2.15019">
        <ele>74.16</ele>
        <time>2020-09-26T14:26:40Z</time>
      </trkpt>
      <trkpt lat="48.3775" lon="2.15016">
        <ele>74.16</ele>
        <time>2020-09-26T14:26:41Z</time>
      </trkpt>
      <trkpt lat="48.37751" lon="2.15014">
        <ele>74.16</ele>
        <time>2020-09-26T14:26:42Z</time>
      </trkpt>
      <trkpt lat="48.37753" lon="2.15005">
        <ele>73.68</ele>
        <time>2020-09-26T14:26:49Z</time>
      </trkpt>
      <trkpt lat="48.37753" lon="2.15003">
        <ele>74.16</ele>
        <time>2020-09-26T14:26:50Z</time>
      </trkpt>
      <trkpt lat="48.37754" lon="2.15001">
        <ele>73.68</ele>
        <time>2020-09-26T14:26:51Z</time>
      </trkpt>
      <trkpt lat="48.37754" lon="2.14981">
        <ele>75.12</ele>
        <time>2020-09-26T14:27:03Z</time>
      </trkpt>
      <trkpt lat="48.37749" lon="2.14957">
        <ele>74.64</ele>
        <time>2020-09-26T14:27:19Z</time>
      </trkpt>
      <trkpt lat="48.37751" lon="2.14934">
        <ele>75.6</ele>
        <time>2020-09-26T14:27:35Z</time>
      </trkpt>
      <trkpt lat="48.37751" lon="2.1491">
        <ele>76.08</ele>
        <time>2020-09-26T14:27:50Z</time>
      </trkpt>
      <trkpt lat="48.37749" lon="2.14896">
        <ele>75.6</ele>
        <time>2020-09-26T14:27:58Z</time>
      </trkpt>
      <trkpt lat="48.37751" lon="2.14874">
        <ele>75.6</ele>
        <time>2020-09-26T14:28:13Z</time>
      </trkpt>
      <trkpt lat="48.37751" lon="2.14872">
        <ele>76.56</ele>
        <time>2020-09-26T14:28:14Z</time>
      </trkpt>
      <trkpt lat="48.37752" lon="2.1487">
        <ele>76.56</ele>
        <time>2020-09-26T14:28:15Z</time>
      </trkpt>
      <trkpt lat="48.37754" lon="2.14853">
        <ele>76.56</ele>
        <time>2020-09-26T14:28:28Z</time>
      </trkpt>
      <trkpt lat="48.37757" lon="2.14835">
        <ele>78.97</ele>
        <time>2020-09-26T14:28:39Z</time>
      </trkpt>
      <trkpt lat="48.37757" lon="2.14834">
        <ele>78.48</ele>
        <time>2020-09-26T14:28:40Z</time>
      </trkpt>
      <trkpt lat="48.37758" lon="2.1483">
        <ele>78</ele>
        <time>2020-09-26T14:28:43Z</time>
      </trkpt>
      <trkpt lat="48.37758" lon="2.14828">
        <ele>77.52</ele>
        <time>2020-09-26T14:28:44Z</time>
      </trkpt>
      <trkpt lat="48.37758" lon="2.14826">
        <ele>78</ele>
        <time>2020-09-26T14:28:45Z</time>
      </trkpt>
      <trkpt lat="48.37761" lon="2.14806">
        <ele>78</ele>
        <time>2020-09-26T14:28:58Z</time>
      </trkpt>
      <trkpt lat="48.37763" lon="2.14792">
        <ele>78</ele>
        <time>2020-09-26T14:29:08Z</time>
      </trkpt>
      <trkpt lat="48.37775" lon="2.1478">
        <ele>78</ele>
        <time>2020-09-26T14:29:20Z</time>
      </trkpt>
      <trkpt lat="48.37778" lon="2.14779">
        <ele>78.48</ele>
        <time>2020-09-26T14:29:23Z</time>
      </trkpt>
      <trkpt lat="48.3778" lon="2.14777">
        <ele>78.48</ele>
        <time>2020-09-26T14:29:25Z</time>
      </trkpt>
      <trkpt lat="48.3779" lon="2.14769">
        <ele>79.45</ele>
        <time>2020-09-26T14:29:36Z</time>
      </trkpt>
      <trkpt lat="48.37791" lon="2.14768">
        <ele>79.45</ele>
        <time>2020-09-26T14:29:37Z</time>
      </trkpt>
      <trkpt lat="48.37792" lon="2.14767">
        <ele>80.41</ele>
        <time>2020-09-26T14:29:38Z</time>
      </trkpt>
      <trkpt lat="48.37804" lon="2.14754">
        <ele>79.45</ele>
        <time>2020-09-26T14:29:52Z</time>
      </trkpt>
      <trkpt lat="48.37814" lon="2.14749">
        <ele>79.45</ele>
        <time>2020-09-26T14:30:05Z</time>
      </trkpt>
      <trkpt lat="48.37817" lon="2.14746">
        <ele>79.93</ele>
        <time>2020-09-26T14:30:15Z</time>
      </trkpt>
      <trkpt lat="48.37818" lon="2.14742">
        <ele>78.97</ele>
        <time>2020-09-26T14:30:24Z</time>
      </trkpt>
      <trkpt lat="48.3782" lon="2.1474">
        <ele>78</ele>
        <time>2020-09-26T14:30:26Z</time>
      </trkpt>
      <trkpt lat="48.3782" lon="2.14738">
        <ele>78.97</ele>
        <time>2020-09-26T14:30:27Z</time>
      </trkpt>
      <trkpt lat="48.37821" lon="2.14736">
        <ele>78.97</ele>
        <time>2020-09-26T14:30:28Z</time>
      </trkpt>
      <trkpt lat="48.37823" lon="2.14732">
        <ele>79.93</ele>
        <time>2020-09-26T14:30:31Z</time>
      </trkpt>
      <trkpt lat="48.37822" lon="2.1473">
        <ele>79.93</ele>
        <time>2020-09-26T14:30:35Z</time>
      </trkpt>
      <trkpt lat="48.37821" lon="2.14726">
        <ele>80.41</ele>
        <time>2020-09-26T14:30:36Z</time>
      </trkpt>
      <trkpt lat="48.3782" lon="2.14723">
        <ele>79.93</ele>
        <time>2020-09-26T14:30:37Z</time>
      </trkpt>
      <trkpt lat="48.37817" lon="2.14712">
        <ele>80.89</ele>
        <time>2020-09-26T14:30:46Z</time>
      </trkpt>
      <trkpt lat="48.37817" lon="2.14701">
        <ele>80.89</ele>
        <time>2020-09-26T14:30:55Z</time>
      </trkpt>
      <trkpt lat="48.37817" lon="2.14697">
        <ele>81.37</ele>
        <time>2020-09-26T14:30:59Z</time>
      </trkpt>
      <trkpt lat="48.37817" lon="2.14694">
        <ele>80.41</ele>
        <time>2020-09-26T14:31:01Z</time>
      </trkpt>
      <trkpt lat="48.37815" lon="2.14686">
        <ele>81.37</ele>
        <time>2020-09-26T14:31:06Z</time>
      </trkpt>
      <trkpt lat="48.37815" lon="2.14684">
        <ele>80.89</ele>
        <time>2020-09-26T14:31:07Z</time>
      </trkpt>
      <trkpt lat="48.37815" lon="2.14683">
        <ele>81.37</ele>
        <time>2020-09-26T14:31:08Z</time>
      </trkpt>
      <trkpt lat="48.37812" lon="2.14664">
        <ele>82.81</ele>
        <time>2020-09-26T14:31:22Z</time>
      </trkpt>
      <trkpt lat="48.37812" lon="2.14652">
        <ele>83.77</ele>
        <time>2020-09-26T14:31:30Z</time>
      </trkpt>
      <trkpt lat="48.37808" lon="2.14634">
        <ele>83.29</ele>
        <time>2020-09-26T14:31:41Z</time>
      </trkpt>
      <trkpt lat="48.37805" lon="2.14614">
        <ele>84.73</ele>
        <time>2020-09-26T14:31:53Z</time>
      </trkpt>
      <trkpt lat="48.37803" lon="2.14601">
        <ele>85.21</ele>
        <time>2020-09-26T14:32:02Z</time>
      </trkpt>
      <trkpt lat="48.37803" lon="2.14599">
        <ele>85.21</ele>
        <time>2020-09-26T14:32:03Z</time>
      </trkpt>
      <trkpt lat="48.37803" lon="2.14596">
        <ele>85.21</ele>
        <time>2020-09-26T14:32:04Z</time>
      </trkpt>
      <trkpt lat="48.37803" lon="2.14595">
        <ele>85.21</ele>
        <time>2020-09-26T14:32:05Z</time>
      </trkpt>
      <trkpt lat="48.37802" lon="2.14585">
        <ele>86.18</ele>
        <time>2020-09-26T14:32:11Z</time>
      </trkpt>
      <trkpt lat="48.37801" lon="2.14564">
        <ele>86.66</ele>
        <time>2020-09-26T14:32:24Z</time>
      </trkpt>
      <trkpt lat="48.37806" lon="2.14559">
        <ele>87.62</ele>
        <time>2020-09-26T14:32:32Z</time>
      </trkpt>
      <trkpt lat="48.37809" lon="2.14557">
        <ele>87.14</ele>
        <time>2020-09-26T14:32:45Z</time>
      </trkpt>
      <trkpt lat="48.3781" lon="2.14556">
        <ele>87.62</ele>
        <time>2020-09-26T14:32:57Z</time>
      </trkpt>
      <trkpt lat="48.3781" lon="2.14555">
        <ele>87.62</ele>
        <time>2020-09-26T14:33:14Z</time>
      </trkpt>
      <trkpt lat="48.3781" lon="2.14547">
        <ele>88.1</ele>
        <time>2020-09-26T14:33:27Z</time>
      </trkpt>
      <trkpt lat="48.37816" lon="2.14547">
        <ele>87.62</ele>
        <time>2020-09-26T14:33:33Z</time>
      </trkpt>
      <trkpt lat="48.37817" lon="2.14544">
        <ele>88.1</ele>
        <time>2020-09-26T14:33:38Z</time>
      </trkpt>
      <trkpt lat="48.37817" lon="2.14542">
        <ele>88.1</ele>
        <time>2020-09-26T14:33:39Z</time>
      </trkpt>
      <trkpt lat="48.37816" lon="2.1454">
        <ele>88.1</ele>
        <time>2020-09-26T14:33:40Z</time>
      </trkpt>
      <trkpt lat="48.37816" lon="2.14538">
        <ele>89.06</ele>
        <time>2020-09-26T14:33:43Z</time>
      </trkpt>
      <trkpt lat="48.37809" lon="2.14528">
        <ele>90.5</ele>
        <time>2020-09-26T14:33:57Z</time>
      </trkpt>
      <trkpt lat="48.37805" lon="2.14531">
        <ele>90.98</ele>
        <time>2020-09-26T14:34:03Z</time>
      </trkpt>
      <trkpt lat="48.37791" lon="2.1454">
        <ele>90.98</ele>
        <time>2020-09-26T14:34:16Z</time>
      </trkpt>
      <trkpt lat="48.37785" lon="2.14538">
        <ele>91.94</ele>
        <time>2020-09-26T14:34:26Z</time>
      </trkpt>
      <trkpt lat="48.3778" lon="2.1453">
        <ele>92.42</ele>
        <time>2020-09-26T14:34:40Z</time>
      </trkpt>
      <trkpt lat="48.37779" lon="2.14533">
        <ele>91.94</ele>
        <time>2020-09-26T14:34:54Z</time>
      </trkpt>
      <trkpt lat="48.37778" lon="2.14536">
        <ele>91.94</ele>
        <time>2020-09-26T14:35:07Z</time>
      </trkpt>
      <trkpt lat="48.37776" lon="2.14524">
        <ele>91.94</ele>
        <time>2020-09-26T14:35:23Z</time>
      </trkpt>
      <trkpt lat="48.37776" lon="2.14521">
        <ele>90.02</ele>
        <time>2020-09-26T14:35:27Z</time>
      </trkpt>
      <trkpt lat="48.37775" lon="2.14521">
        <ele>91.94</ele>
        <time>2020-09-26T14:35:29Z</time>
      </trkpt>
      <trkpt lat="48.3777" lon="2.1452">
        <ele>91.46</ele>
        <time>2020-09-26T14:35:56Z</time>
      </trkpt>
      <trkpt lat="48.37768" lon="2.1452">
        <ele>91.94</ele>
        <time>2020-09-26T14:36:26Z</time>
      </trkpt>
      <trkpt lat="48.37772" lon="2.14508">
        <ele>92.9</ele>
        <time>2020-09-26T14:36:38Z</time>
      </trkpt>
      <trkpt lat="48.37774" lon="2.14497">
        <ele>95.31</ele>
        <time>2020-09-26T14:36:51Z</time>
      </trkpt>
      <trkpt lat="48.37774" lon="2.14493">
        <ele>95.79</ele>
        <time>2020-09-26T14:37:07Z</time>
      </trkpt>
      <trkpt lat="48.37774" lon="2.1449">
        <ele>95.79</ele>
        <time>2020-09-26T14:37:18Z</time>
      </trkpt>
      <trkpt lat="48.37784" lon="2.14475">
        <ele>96.27</ele>
        <time>2020-09-26T14:37:32Z</time>
      </trkpt>
      <trkpt lat="48.37786" lon="2.14472">
        <ele>96.27</ele>
        <time>2020-09-26T14:37:48Z</time>
      </trkpt>
      <trkpt lat="48.37791" lon="2.14467">
        <ele>95.31</ele>
        <time>2020-09-26T14:37:53Z</time>
      </trkpt>
      <trkpt lat="48.37792" lon="2.14464">
        <ele>95.79</ele>
        <time>2020-09-26T14:37:55Z</time>
      </trkpt>
      <trkpt lat="48.37797" lon="2.14457">
        <ele>96.27</ele>
        <time>2020-09-26T14:38:02Z</time>
      </trkpt>
      <trkpt lat="48.3781" lon="2.14442">
        <ele>95.79</ele>
        <time>2020-09-26T14:38:18Z</time>
      </trkpt>
      <trkpt lat="48.37826" lon="2.14429">
        <ele>96.75</ele>
        <time>2020-09-26T14:38:34Z</time>
      </trkpt>
      <trkpt lat="48.37838" lon="2.1442">
        <ele>96.27</ele>
        <time>2020-09-26T14:38:47Z</time>
      </trkpt>
      <trkpt lat="48.37842" lon="2.14416">
        <ele>96.75</ele>
        <time>2020-09-26T14:38:52Z</time>
      </trkpt>
      <trkpt lat="48.37845" lon="2.14403">
        <ele>97.23</ele>
        <time>2020-09-26T14:39:04Z</time>
      </trkpt>
      <trkpt lat="48.37847" lon="2.14398">
        <ele>99.15</ele>
        <time>2020-09-26T14:39:12Z</time>
      </trkpt>
      <trkpt lat="48.37851" lon="2.14386">
        <ele>100.11</ele>
        <time>2020-09-26T14:39:22Z</time>
      </trkpt>
      <trkpt lat="48.37852" lon="2.1438">
        <ele>101.56</ele>
        <time>2020-09-26T14:39:28Z</time>
      </trkpt>
      <trkpt lat="48.37854" lon="2.14374">
        <ele>101.56</ele>
        <time>2020-09-26T14:39:33Z</time>
      </trkpt>
      <trkpt lat="48.37868" lon="2.14358">
        <ele>102.04</ele>
        <time>2020-09-26T14:39:49Z</time>
      </trkpt>
      <trkpt lat="48.37878" lon="2.14345">
        <ele>103.48</ele>
        <time>2020-09-26T14:40:04Z</time>
      </trkpt>
      <trkpt lat="48.37883" lon="2.14338">
        <ele>103.96</ele>
        <time>2020-09-26T14:40:20Z</time>
      </trkpt>
      <trkpt lat="48.37893" lon="2.14324">
        <ele>105.88</ele>
        <time>2020-09-26T14:40:33Z</time>
      </trkpt>
      <trkpt lat="48.37901" lon="2.14312">
        <ele>107.81</ele>
        <time>2020-09-26T14:40:46Z</time>
      </trkpt>
      <trkpt lat="48.37905" lon="2.14303">
        <ele>109.73</ele>
        <time>2020-09-26T14:40:57Z</time>
      </trkpt>
      <trkpt lat="48.37906" lon="2.14284">
        <ele>112.61</ele>
        <time>2020-09-26T14:41:14Z</time>
      </trkpt>
      <trkpt lat="48.37905" lon="2.14275">
        <ele>116.46</ele>
        <time>2020-09-26T14:41:24Z</time>
      </trkpt>
      <trkpt lat="48.37905" lon="2.14273">
        <ele>116.94</ele>
        <time>2020-09-26T14:41:28Z</time>
      </trkpt>
      <trkpt lat="48.37906" lon="2.1426">
        <ele>119.82</ele>
        <time>2020-09-26T14:41:40Z</time>
      </trkpt>
      <trkpt lat="48.37907" lon="2.1425">
        <ele>121.74</ele>
        <time>2020-09-26T14:41:55Z</time>
      </trkpt>
      <trkpt lat="48.37915" lon="2.14241">
        <ele>123.67</ele>
        <time>2020-09-26T14:42:08Z</time>
      </trkpt>
      <trkpt lat="48.37923" lon="2.14223">
        <ele>125.59</ele>
        <time>2020-09-26T14:42:24Z</time>
      </trkpt>
      <trkpt lat="48.37926" lon="2.14213">
        <ele>127.51</ele>
        <time>2020-09-26T14:42:33Z</time>
      </trkpt>
      <trkpt lat="48.37925" lon="2.14206">
        <ele>128.95</ele>
        <time>2020-09-26T14:42:46Z</time>
      </trkpt>
      <trkpt lat="48.37926" lon="2.14198">
        <ele>128.95</ele>
        <time>2020-09-26T14:43:01Z</time>
      </trkpt>
      <trkpt lat="48.3793" lon="2.14182">
        <ele>130.88</ele>
        <time>2020-09-26T14:43:16Z</time>
      </trkpt>
      <trkpt lat="48.37935" lon="2.14168">
        <ele>132.8</ele>
        <time>2020-09-26T14:43:30Z</time>
      </trkpt>
      <trkpt lat="48.37939" lon="2.14151">
        <ele>133.76</ele>
        <time>2020-09-26T14:43:40Z</time>
      </trkpt>
      <trkpt lat="48.37943" lon="2.1413">
        <ele>134.72</ele>
        <time>2020-09-26T14:43:54Z</time>
      </trkpt>
      <trkpt lat="48.37945" lon="2.1411">
        <ele>136.64</ele>
        <time>2020-09-26T14:44:05Z</time>
      </trkpt>
      <trkpt lat="48.37946" lon="2.14097">
        <ele>138.09</ele>
        <time>2020-09-26T14:44:17Z</time>
      </trkpt>
      <trkpt lat="48.37944" lon="2.14103">
        <ele>137.13</ele>
        <time>2020-09-26T14:44:28Z</time>
      </trkpt>
      <trkpt lat="48.37945" lon="2.14101">
        <ele>137.13</ele>
        <time>2020-09-26T14:44:36Z</time>
      </trkpt>
      <trkpt lat="48.37947" lon="2.14102">
        <ele>137.13</ele>
        <time>2020-09-26T14:44:46Z</time>
      </trkpt>
      <trkpt lat="48.37951" lon="2.14099">
        <ele>137.61</ele>
        <time>2020-09-26T14:45:02Z</time>
      </trkpt>
      <trkpt lat="48.37951" lon="2.14098">
        <ele>137.61</ele>
        <time>2020-09-26T14:45:03Z</time>
      </trkpt>
      <trkpt lat="48.3795" lon="2.14097">
        <ele>137.61</ele>
        <time>2020-09-26T14:45:06Z</time>
      </trkpt>
      <trkpt lat="48.37953" lon="2.14086">
        <ele>137.13</ele>
        <time>2020-09-26T14:45:14Z</time>
      </trkpt>
      <trkpt lat="48.37954" lon="2.1408">
        <ele>137.61</ele>
        <time>2020-09-26T14:45:25Z</time>
      </trkpt>
      <trkpt lat="48.37951" lon="2.14074">
        <ele>137.13</ele>
        <time>2020-09-26T14:45:37Z</time>
      </trkpt>
      <trkpt lat="48.37952" lon="2.14069">
        <ele>137.61</ele>
        <time>2020-09-26T14:45:46Z</time>
      </trkpt>
      <trkpt lat="48.37954" lon="2.14069">
        <ele>137.13</ele>
        <time>2020-09-26T14:45:58Z</time>
      </trkpt>
      <trkpt lat="48.37959" lon="2.14066">
        <ele>137.61</ele>
        <time>2020-09-26T14:46:09Z</time>
      </trkpt>
      <trkpt lat="48.37968" lon="2.14056">
        <ele>138.09</ele>
        <time>2020-09-26T14:46:22Z</time>
      </trkpt>
      <trkpt lat="48.37969" lon="2.14054">
        <ele>136.64</ele>
        <time>2020-09-26T14:46:25Z</time>
      </trkpt>
      <trkpt lat="48.37981" lon="2.14037">
        <ele>138.09</ele>
        <time>2020-09-26T14:46:40Z</time>
      </trkpt>
      <trkpt lat="48.37993" lon="2.14028">
        <ele>138.09</ele>
        <time>2020-09-26T14:46:51Z</time>
      </trkpt>
      <trkpt lat="48.38009" lon="2.14016">
        <ele>137.13</ele>
        <time>2020-09-26T14:47:07Z</time>
      </trkpt>
      <trkpt lat="48.3802" lon="2.14007">
        <ele>137.61</ele>
        <time>2020-09-26T14:47:20Z</time>
      </trkpt>
      <trkpt lat="48.38024" lon="2.14003">
        <ele>138.09</ele>
        <time>2020-09-26T14:47:24Z</time>
      </trkpt>
      <trkpt lat="48.38036" lon="2.13988">
        <ele>138.09</ele>
        <time>2020-09-26T14:47:39Z</time>
      </trkpt>
      <trkpt lat="48.38044" lon="2.13975">
        <ele>138.57</ele>
        <time>2020-09-26T14:47:52Z</time>
      </trkpt>
      <trkpt lat="48.3805" lon="2.13961">
        <ele>138.57</ele>
        <time>2020-09-26T14:48:11Z</time>
      </trkpt>
      <trkpt lat="48.38057" lon="2.13939">
        <ele>138.09</ele>
        <time>2020-09-26T14:48:24Z</time>
      </trkpt>
      <trkpt lat="48.38064" lon="2.13914">
        <ele>138.57</ele>
        <time>2020-09-26T14:48:38Z</time>
      </trkpt>
      <trkpt lat="48.38069" lon="2.13896">
        <ele>138.57</ele>
        <time>2020-09-26T14:48:51Z</time>
      </trkpt>
      <trkpt lat="48.38071" lon="2.13875">
        <ele>138.09</ele>
        <time>2020-09-26T14:49:04Z</time>
      </trkpt>
      <trkpt lat="48.38075" lon="2.13863">
        <ele>138.09</ele>
        <time>2020-09-26T14:49:11Z</time>
      </trkpt>
      <trkpt lat="48.38083" lon="2.13852">
        <ele>137.13</ele>
        <time>2020-09-26T14:49:22Z</time>
      </trkpt>
      <trkpt lat="48.38089" lon="2.13847">
        <ele>136.64</ele>
        <time>2020-09-26T14:49:28Z</time>
      </trkpt>
      <trkpt lat="48.38098" lon="2.13839">
        <ele>135.68</ele>
        <time>2020-09-26T14:49:39Z</time>
      </trkpt>
      <trkpt lat="48.38112" lon="2.13835">
        <ele>135.2</ele>
        <time>2020-09-26T14:49:51Z</time>
      </trkpt>
      <trkpt lat="48.38124" lon="2.1383">
        <ele>133.28</ele>
        <time>2020-09-26T14:50:02Z</time>
      </trkpt>
      <trkpt lat="48.38126" lon="2.13827">
        <ele>133.28</ele>
        <time>2020-09-26T14:50:03Z</time>
      </trkpt>
      <trkpt lat="48.38135" lon="2.13817">
        <ele>131.36</ele>
        <time>2020-09-26T14:50:14Z</time>
      </trkpt>
      <trkpt lat="48.38145" lon="2.13809">
        <ele>130.4</ele>
        <time>2020-09-26T14:50:23Z</time>
      </trkpt>
      <trkpt lat="48.38146" lon="2.13808">
        <ele>130.4</ele>
        <time>2020-09-26T14:50:24Z</time>
      </trkpt>
      <trkpt lat="48.38148" lon="2.13808">
        <ele>129.92</ele>
        <time>2020-09-26T14:50:25Z</time>
      </trkpt>
      <trkpt lat="48.3815" lon="2.13808">
        <ele>129.92</ele>
        <time>2020-09-26T14:50:26Z</time>
      </trkpt>
      <trkpt lat="48.38153" lon="2.13808">
        <ele>130.4</ele>
        <time>2020-09-26T14:50:27Z</time>
      </trkpt>
      <trkpt lat="48.38154" lon="2.13806">
        <ele>129.92</ele>
        <time>2020-09-26T14:50:28Z</time>
      </trkpt>
      <trkpt lat="48.38164" lon="2.13797">
        <ele>128.47</ele>
        <time>2020-09-26T14:50:39Z</time>
      </trkpt>
      <trkpt lat="48.38166" lon="2.13797">
        <ele>128.47</ele>
        <time>2020-09-26T14:50:40Z</time>
      </trkpt>
      <trkpt lat="48.38168" lon="2.13797">
        <ele>128.47</ele>
        <time>2020-09-26T14:50:41Z</time>
      </trkpt>
      <trkpt lat="48.3817" lon="2.13797">
        <ele>127.99</ele>
        <time>2020-09-26T14:50:42Z</time>
      </trkpt>
      <trkpt lat="48.38172" lon="2.13797">
        <ele>127.99</ele>
        <time>2020-09-26T14:50:43Z</time>
      </trkpt>
      <trkpt lat="48.3818" lon="2.13802">
        <ele>127.03</ele>
        <time>2020-09-26T14:50:53Z</time>
      </trkpt>
      <trkpt lat="48.38181" lon="2.13803">
        <ele>127.03</ele>
        <time>2020-09-26T14:50:54Z</time>
      </trkpt>
      <trkpt lat="48.38189" lon="2.13823">
        <ele>126.07</ele>
        <time>2020-09-26T14:51:08Z</time>
      </trkpt>
      <trkpt lat="48.38199" lon="2.13845">
        <ele>125.59</ele>
        <time>2020-09-26T14:51:24Z</time>
      </trkpt>
      <trkpt lat="48.38201" lon="2.13848">
        <ele>125.59</ele>
        <time>2020-09-26T14:51:27Z</time>
      </trkpt>
      <trkpt lat="48.38202" lon="2.1385">
        <ele>125.59</ele>
        <time>2020-09-26T14:51:28Z</time>
      </trkpt>
      <trkpt lat="48.38204" lon="2.13851">
        <ele>125.11</ele>
        <time>2020-09-26T14:51:29Z</time>
      </trkpt>
      <trkpt lat="48.38209" lon="2.1386">
        <ele>125.59</ele>
        <time>2020-09-26T14:51:35Z</time>
      </trkpt>
      <trkpt lat="48.3821" lon="2.13861">
        <ele>125.11</ele>
        <time>2020-09-26T14:51:36Z</time>
      </trkpt>
      <trkpt lat="48.3821" lon="2.13863">
        <ele>125.59</ele>
        <time>2020-09-26T14:51:37Z</time>
      </trkpt>
      <trkpt lat="48.3822" lon="2.13877">
        <ele>124.15</ele>
        <time>2020-09-26T14:51:50Z</time>
      </trkpt>
      <trkpt lat="48.38229" lon="2.13894">
        <ele>122.22</ele>
        <time>2020-09-26T14:52:00Z</time>
      </trkpt>
      <trkpt lat="48.3823" lon="2.13895">
        <ele>122.22</ele>
        <time>2020-09-26T14:52:01Z</time>
      </trkpt>
      <trkpt lat="48.38231" lon="2.13897">
        <ele>121.26</ele>
        <time>2020-09-26T14:52:02Z</time>
      </trkpt>
      <trkpt lat="48.3823" lon="2.13904">
        <ele>120.78</ele>
        <time>2020-09-26T14:52:08Z</time>
      </trkpt>
      <trkpt lat="48.38231" lon="2.13905">
        <ele>121.26</ele>
        <time>2020-09-26T14:52:09Z</time>
      </trkpt>
      <trkpt lat="48.38232" lon="2.13906">
        <ele>120.78</ele>
        <time>2020-09-26T14:52:10Z</time>
      </trkpt>
      <trkpt lat="48.38232" lon="2.13908">
        <ele>119.82</ele>
        <time>2020-09-26T14:52:11Z</time>
      </trkpt>
      <trkpt lat="48.38233" lon="2.1391">
        <ele>120.3</ele>
        <time>2020-09-26T14:52:12Z</time>
      </trkpt>
      <trkpt lat="48.38234" lon="2.13912">
        <ele>119.82</ele>
        <time>2020-09-26T14:52:13Z</time>
      </trkpt>
      <trkpt lat="48.38235" lon="2.13914">
        <ele>119.82</ele>
        <time>2020-09-26T14:52:14Z</time>
      </trkpt>
      <trkpt lat="48.3824" lon="2.13922">
        <ele>117.9</ele>
        <time>2020-09-26T14:52:26Z</time>
      </trkpt>
      <trkpt lat="48.38246" lon="2.13924">
        <ele>116.94</ele>
        <time>2020-09-26T14:52:36Z</time>
      </trkpt>
      <trkpt lat="48.38247" lon="2.13924">
        <ele>117.42</ele>
        <time>2020-09-26T14:52:37Z</time>
      </trkpt>
      <trkpt lat="48.38252" lon="2.13919">
        <ele>115.98</ele>
        <time>2020-09-26T14:52:44Z</time>
      </trkpt>
      <trkpt lat="48.38252" lon="2.13917">
        <ele>115.5</ele>
        <time>2020-09-26T14:52:45Z</time>
      </trkpt>
      <trkpt lat="48.38253" lon="2.13915">
        <ele>115.01</ele>
        <time>2020-09-26T14:52:46Z</time>
      </trkpt>
      <trkpt lat="48.38254" lon="2.13913">
        <ele>115.5</ele>
        <time>2020-09-26T14:52:47Z</time>
      </trkpt>
      <trkpt lat="48.38255" lon="2.1391">
        <ele>115.01</ele>
        <time>2020-09-26T14:52:48Z</time>
      </trkpt>
      <trkpt lat="48.38259" lon="2.13899">
        <ele>112.61</ele>
        <time>2020-09-26T14:52:59Z</time>
      </trkpt>
      <trkpt lat="48.38259" lon="2.13896">
        <ele>112.13</ele>
        <time>2020-09-26T14:53:00Z</time>
      </trkpt>
      <trkpt lat="48.38261" lon="2.13893">
        <ele>112.13</ele>
        <time>2020-09-26T14:53:03Z</time>
      </trkpt>
      <trkpt lat="48.38262" lon="2.1389">
        <ele>111.17</ele>
        <time>2020-09-26T14:53:04Z</time>
      </trkpt>
      <trkpt lat="48.38263" lon="2.13888">
        <ele>111.17</ele>
        <time>2020-09-26T14:53:05Z</time>
      </trkpt>
      <trkpt lat="48.38264" lon="2.13885">
        <ele>110.69</ele>
        <time>2020-09-26T14:53:06Z</time>
      </trkpt>
      <trkpt lat="48.38265" lon="2.13882">
        <ele>110.69</ele>
        <time>2020-09-26T14:53:07Z</time>
      </trkpt>
      <trkpt lat="48.38266" lon="2.13879">
        <ele>110.69</ele>
        <time>2020-09-26T14:53:08Z</time>
      </trkpt>
      <trkpt lat="48.38266" lon="2.13866">
        <ele>108.77</ele>
        <time>2020-09-26T14:53:18Z</time>
      </trkpt>
      <trkpt lat="48.38265" lon="2.13864">
        <ele>108.29</ele>
        <time>2020-09-26T14:53:19Z</time>
      </trkpt>
      <trkpt lat="48.38264" lon="2.13861">
        <ele>107.81</ele>
        <time>2020-09-26T14:53:20Z</time>
      </trkpt>
      <trkpt lat="48.38263" lon="2.13859">
        <ele>107.81</ele>
        <time>2020-09-26T14:53:21Z</time>
      </trkpt>
      <trkpt lat="48.38262" lon="2.13856">
        <ele>107.81</ele>
        <time>2020-09-26T14:53:22Z</time>
      </trkpt>
      <trkpt lat="48.38261" lon="2.13854">
        <ele>107.81</ele>
        <time>2020-09-26T14:53:23Z</time>
      </trkpt>
      <trkpt lat="48.38262" lon="2.13841">
        <ele>106.84</ele>
        <time>2020-09-26T14:53:32Z</time>
      </trkpt>
      <trkpt lat="48.38267" lon="2.13823">
        <ele>104.92</ele>
        <time>2020-09-26T14:53:42Z</time>
      </trkpt>
      <trkpt lat="48.38271" lon="2.13817">
        <ele>104.44</ele>
        <time>2020-09-26T14:53:51Z</time>
      </trkpt>
      <trkpt lat="48.38276" lon="2.13804">
        <ele>103.48</ele>
        <time>2020-09-26T14:54:05Z</time>
      </trkpt>
      <trkpt lat="48.38273" lon="2.13794">
        <ele>103</ele>
        <time>2020-09-26T14:54:17Z</time>
      </trkpt>
      <trkpt lat="48.38272" lon="2.13792">
        <ele>103.48</ele>
        <time>2020-09-26T14:54:19Z</time>
      </trkpt>
      <trkpt lat="48.38262" lon="2.1378">
        <ele>104.44</ele>
        <time>2020-09-26T14:54:31Z</time>
      </trkpt>
      <trkpt lat="48.38259" lon="2.13776">
        <ele>104.92</ele>
        <time>2020-09-26T14:54:36Z</time>
      </trkpt>
      <trkpt lat="48.38258" lon="2.13775">
        <ele>104.92</ele>
        <time>2020-09-26T14:54:37Z</time>
      </trkpt>
      <trkpt lat="48.3825" lon="2.13766">
        <ele>106.36</ele>
        <time>2020-09-26T14:54:48Z</time>
      </trkpt>
      <trkpt lat="48.38245" lon="2.13758">
        <ele>107.32</ele>
        <time>2020-09-26T14:54:54Z</time>
      </trkpt>
      <trkpt lat="48.38242" lon="2.13753">
        <ele>107.81</ele>
        <time>2020-09-26T14:55:01Z</time>
      </trkpt>
      <trkpt lat="48.38239" lon="2.13747">
        <ele>108.29</ele>
        <time>2020-09-26T14:55:06Z</time>
      </trkpt>
      <trkpt lat="48.38236" lon="2.13734">
        <ele>109.25</ele>
        <time>2020-09-26T14:55:17Z</time>
      </trkpt>
      <trkpt lat="48.38237" lon="2.13723">
        <ele>111.65</ele>
        <time>2020-09-26T14:55:28Z</time>
      </trkpt>
      <trkpt lat="48.38231" lon="2.13707">
        <ele>112.13</ele>
        <time>2020-09-26T14:55:42Z</time>
      </trkpt>
      <trkpt lat="48.3823" lon="2.13704">
        <ele>113.57</ele>
        <time>2020-09-26T14:55:45Z</time>
      </trkpt>
      <trkpt lat="48.38232" lon="2.1369">
        <ele>115.5</ele>
        <time>2020-09-26T14:55:58Z</time>
      </trkpt>
      <trkpt lat="48.38242" lon="2.13686">
        <ele>117.42</ele>
        <time>2020-09-26T14:56:13Z</time>
      </trkpt>
      <trkpt lat="48.38252" lon="2.13681">
        <ele>118.86</ele>
        <time>2020-09-26T14:56:28Z</time>
      </trkpt>
      <trkpt lat="48.38264" lon="2.13673">
        <ele>120.78</ele>
        <time>2020-09-26T14:56:41Z</time>
      </trkpt>
      <trkpt lat="48.38277" lon="2.13664">
        <ele>122.22</ele>
        <time>2020-09-26T14:56:55Z</time>
      </trkpt>
      <trkpt lat="48.38283" lon="2.13659">
        <ele>124.15</ele>
        <time>2020-09-26T14:57:04Z</time>
      </trkpt>
      <trkpt lat="48.38285" lon="2.13659">
        <ele>122.22</ele>
        <time>2020-09-26T14:57:24Z</time>
      </trkpt>
      <trkpt lat="48.38286" lon="2.13656">
        <ele>122.22</ele>
        <time>2020-09-26T14:57:54Z</time>
      </trkpt>
      <trkpt lat="48.38285" lon="2.13657">
        <ele>123.67</ele>
        <time>2020-09-26T14:58:33Z</time>
      </trkpt>
      <trkpt lat="48.38287" lon="2.13655">
        <ele>124.15</ele>
        <time>2020-09-26T14:58:35Z</time>
      </trkpt>
      <trkpt lat="48.38299" lon="2.1363">
        <ele>126.55</ele>
        <time>2020-09-26T14:58:53Z</time>
      </trkpt>
      <trkpt lat="48.38336" lon="2.13542">
        <ele>146.26</ele>
        <time>2020-09-26T15:00:43Z</time>
      </trkpt>
      <trkpt lat="48.38336" lon="2.13541">
        <ele>147.7</ele>
        <time>2020-09-26T15:00:44Z</time>
      </trkpt>
      <trkpt lat="48.38338" lon="2.13534">
        <ele>146.26</ele>
        <time>2020-09-26T15:00:47Z</time>
      </trkpt>
      <trkpt lat="48.38338" lon="2.13533">
        <ele>146.26</ele>
        <time>2020-09-26T15:00:48Z</time>
      </trkpt>
      <trkpt lat="48.38344" lon="2.13525">
        <ele>143.85</ele>
        <time>2020-09-26T15:00:55Z</time>
      </trkpt>
      <trkpt lat="48.38349" lon="2.13514">
        <ele>140.01</ele>
        <time>2020-09-26T15:01:03Z</time>
      </trkpt>
      <trkpt lat="48.38351" lon="2.13512">
        <ele>143.85</ele>
        <time>2020-09-26T15:01:05Z</time>
      </trkpt>
      <trkpt lat="48.38353" lon="2.1351">
        <ele>139.05</ele>
        <time>2020-09-26T15:01:07Z</time>
      </trkpt>
      <trkpt lat="48.38355" lon="2.13508">
        <ele>142.41</ele>
        <time>2020-09-26T15:01:09Z</time>
      </trkpt>
      <trkpt lat="48.38356" lon="2.13506">
        <ele>142.41</ele>
        <time>2020-09-26T15:01:10Z</time>
      </trkpt>
      <trkpt lat="48.38358" lon="2.13501">
        <ele>140.01</ele>
        <time>2020-09-26T15:01:14Z</time>
      </trkpt>
      <trkpt lat="48.38365" lon="2.13491">
        <ele>137.61</ele>
        <time>2020-09-26T15:01:22Z</time>
      </trkpt>
      <trkpt lat="48.38369" lon="2.13483">
        <ele>133.76</ele>
        <time>2020-09-26T15:01:28Z</time>
      </trkpt>
      <trkpt lat="48.3837" lon="2.13481">
        <ele>134.24</ele>
        <time>2020-09-26T15:01:29Z</time>
      </trkpt>
      <trkpt lat="48.38382" lon="2.13463">
        <ele>133.28</ele>
        <time>2020-09-26T15:01:44Z</time>
      </trkpt>
      <trkpt lat="48.38385" lon="2.1346">
        <ele>136.64</ele>
        <time>2020-09-26T15:01:47Z</time>
      </trkpt>
      <trkpt lat="48.38388" lon="2.13456">
        <ele>137.61</ele>
        <time>2020-09-26T15:01:49Z</time>
      </trkpt>
      <trkpt lat="48.38397" lon="2.1344">
        <ele>133.76</ele>
        <time>2020-09-26T15:02:00Z</time>
      </trkpt>
      <trkpt lat="48.38398" lon="2.13439">
        <ele>137.13</ele>
        <time>2020-09-26T15:02:01Z</time>
      </trkpt>
      <trkpt lat="48.384" lon="2.13435">
        <ele>138.09</ele>
        <time>2020-09-26T15:02:03Z</time>
      </trkpt>
      <trkpt lat="48.38404" lon="2.13428">
        <ele>138.57</ele>
        <time>2020-09-26T15:02:07Z</time>
      </trkpt>
      <trkpt lat="48.38417" lon="2.134">
        <ele>140.01</ele>
        <time>2020-09-26T15:02:20Z</time>
      </trkpt>
      <trkpt lat="48.38427" lon="2.13379">
        <ele>138.09</ele>
        <time>2020-09-26T15:02:32Z</time>
      </trkpt>
      <trkpt lat="48.38428" lon="2.13381">
        <ele>140.01</ele>
        <time>2020-09-26T15:02:35Z</time>
      </trkpt>
      <trkpt lat="48.38429" lon="2.1338">
        <ele>140.49</ele>
        <time>2020-09-26T15:02:36Z</time>
      </trkpt>
      <trkpt lat="48.3843" lon="2.13379">
        <ele>139.05</ele>
        <time>2020-09-26T15:02:37Z</time>
      </trkpt>
      <trkpt lat="48.38431" lon="2.13378">
        <ele>139.05</ele>
        <time>2020-09-26T15:02:38Z</time>
      </trkpt>
      <trkpt lat="48.38431" lon="2.13378">
        <ele>140.97</ele>
        <time>2020-09-26T15:02:41Z</time>
      </trkpt>
      <trkpt lat="48.3843" lon="2.13383">
        <ele>140.01</ele>
        <time>2020-09-26T15:03:04Z</time>
      </trkpt>
      <trkpt lat="48.3843" lon="2.13382">
        <ele>139.53</ele>
        <time>2020-09-26T15:03:22Z</time>
      </trkpt>
      <trkpt lat="48.38432" lon="2.13379">
        <ele>140.49</ele>
        <time>2020-09-26T15:03:32Z</time>
      </trkpt>
      <trkpt lat="48.38433" lon="2.13378">
        <ele>140.01</ele>
        <time>2020-09-26T15:03:33Z</time>
      </trkpt>
      <trkpt lat="48.38435" lon="2.13376">
        <ele>140.49</ele>
        <time>2020-09-26T15:03:35Z</time>
      </trkpt>
      <trkpt lat="48.38437" lon="2.1337">
        <ele>140.97</ele>
        <time>2020-09-26T15:03:44Z</time>
      </trkpt>
      <trkpt lat="48.38438" lon="2.13369">
        <ele>141.45</ele>
        <time>2020-09-26T15:03:45Z</time>
      </trkpt>
      <trkpt lat="48.38439" lon="2.13368">
        <ele>140.97</ele>
        <time>2020-09-26T15:03:46Z</time>
      </trkpt>
      <trkpt lat="48.3844" lon="2.13367">
        <ele>140.97</ele>
        <time>2020-09-26T15:03:47Z</time>
      </trkpt>
      <trkpt lat="48.38441" lon="2.13366">
        <ele>140.01</ele>
        <time>2020-09-26T15:03:48Z</time>
      </trkpt>
      <trkpt lat="48.38444" lon="2.13364">
        <ele>142.89</ele>
        <time>2020-09-26T15:03:53Z</time>
      </trkpt>
      <trkpt lat="48.38446" lon="2.13362">
        <ele>140.49</ele>
        <time>2020-09-26T15:03:55Z</time>
      </trkpt>
      <trkpt lat="48.3845" lon="2.13357">
        <ele>139.05</ele>
        <time>2020-09-26T15:03:59Z</time>
      </trkpt>
      <trkpt lat="48.3845" lon="2.13356">
        <ele>139.53</ele>
        <time>2020-09-26T15:04:00Z</time>
      </trkpt>
      <trkpt lat="48.38451" lon="2.13355">
        <ele>139.53</ele>
        <time>2020-09-26T15:04:01Z</time>
      </trkpt>
      <trkpt lat="48.38456" lon="2.13351">
        <ele>139.53</ele>
        <time>2020-09-26T15:04:06Z</time>
      </trkpt>
      <trkpt lat="48.38458" lon="2.13347">
        <ele>139.05</ele>
        <time>2020-09-26T15:04:09Z</time>
      </trkpt>
      <trkpt lat="48.38459" lon="2.13346">
        <ele>139.53</ele>
        <time>2020-09-26T15:04:10Z</time>
      </trkpt>
      <trkpt lat="48.3846" lon="2.13344">
        <ele>139.53</ele>
        <time>2020-09-26T15:04:11Z</time>
      </trkpt>
      <trkpt lat="48.38461" lon="2.13343">
        <ele>140.01</ele>
        <time>2020-09-26T15:04:12Z</time>
      </trkpt>
      <trkpt lat="48.38462" lon="2.13343">
        <ele>140.49</ele>
        <time>2020-09-26T15:04:13Z</time>
      </trkpt>
      <trkpt lat="48.38463" lon="2.13342">
        <ele>140.01</ele>
        <time>2020-09-26T15:04:14Z</time>
      </trkpt>
      <trkpt lat="48.38464" lon="2.13341">
        <ele>139.53</ele>
        <time>2020-09-26T15:04:15Z</time>
      </trkpt>
      <trkpt lat="48.38465" lon="2.1334">
        <ele>140.97</ele>
        <time>2020-09-26T15:04:16Z</time>
      </trkpt>
      <trkpt lat="48.38466" lon="2.13339">
        <ele>140.97</ele>
        <time>2020-09-26T15:04:17Z</time>
      </trkpt>
      <trkpt lat="48.38467" lon="2.13338">
        <ele>141.45</ele>
        <time>2020-09-26T15:04:18Z</time>
      </trkpt>
      <trkpt lat="48.38468" lon="2.13337">
        <ele>141.45</ele>
        <time>2020-09-26T15:04:19Z</time>
      </trkpt>
      <trkpt lat="48.38472" lon="2.13331">
        <ele>142.41</ele>
        <time>2020-09-26T15:04:24Z</time>
      </trkpt>
      <trkpt lat="48.38483" lon="2.13321">
        <ele>143.85</ele>
        <time>2020-09-26T15:04:36Z</time>
      </trkpt>
      <trkpt lat="48.38484" lon="2.1332">
        <ele>143.37</ele>
        <time>2020-09-26T15:04:37Z</time>
      </trkpt>
      <trkpt lat="48.38485" lon="2.13319">
        <ele>143.85</ele>
        <time>2020-09-26T15:04:38Z</time>
      </trkpt>
      <trkpt lat="48.38497" lon="2.13307">
        <ele>144.34</ele>
        <time>2020-09-26T15:04:49Z</time>
      </trkpt>
      <trkpt lat="48.38511" lon="2.13293">
        <ele>144.34</ele>
        <time>2020-09-26T15:05:03Z</time>
      </trkpt>
      <trkpt lat="48.38513" lon="2.13292">
        <ele>146.26</ele>
        <time>2020-09-26T15:05:06Z</time>
      </trkpt>
      <trkpt lat="48.38513" lon="2.13291">
        <ele>145.3</ele>
        <time>2020-09-26T15:05:07Z</time>
      </trkpt>
      <trkpt lat="48.38515" lon="2.1329">
        <ele>142.89</ele>
        <time>2020-09-26T15:05:08Z</time>
      </trkpt>
      <trkpt lat="48.38516" lon="2.13289">
        <ele>141.93</ele>
        <time>2020-09-26T15:05:09Z</time>
      </trkpt>
      <trkpt lat="48.3852" lon="2.13287">
        <ele>144.34</ele>
        <time>2020-09-26T15:05:12Z</time>
      </trkpt>
      <trkpt lat="48.38526" lon="2.13282">
        <ele>146.26</ele>
        <time>2020-09-26T15:05:18Z</time>
      </trkpt>
      <trkpt lat="48.3853" lon="2.13285">
        <ele>144.82</ele>
        <time>2020-09-26T15:05:24Z</time>
      </trkpt>
      <trkpt lat="48.38531" lon="2.13285">
        <ele>144.82</ele>
        <time>2020-09-26T15:05:25Z</time>
      </trkpt>
      <trkpt lat="48.38533" lon="2.13284">
        <ele>144.82</ele>
        <time>2020-09-26T15:05:26Z</time>
      </trkpt>
      <trkpt lat="48.38536" lon="2.13282">
        <ele>145.3</ele>
        <time>2020-09-26T15:05:27Z</time>
      </trkpt>
      <trkpt lat="48.38538" lon="2.1328">
        <ele>144.34</ele>
        <time>2020-09-26T15:05:28Z</time>
      </trkpt>
      <trkpt lat="48.3854" lon="2.13279">
        <ele>145.3</ele>
        <time>2020-09-26T15:05:29Z</time>
      </trkpt>
      <trkpt lat="48.38542" lon="2.13278">
        <ele>144.82</ele>
        <time>2020-09-26T15:05:30Z</time>
      </trkpt>
      <trkpt lat="48.38544" lon="2.13277">
        <ele>145.3</ele>
        <time>2020-09-26T15:05:31Z</time>
      </trkpt>
      <trkpt lat="48.38546" lon="2.13276">
        <ele>145.78</ele>
        <time>2020-09-26T15:05:32Z</time>
      </trkpt>
      <trkpt lat="48.38547" lon="2.13276">
        <ele>145.3</ele>
        <time>2020-09-26T15:05:33Z</time>
      </trkpt>
      <trkpt lat="48.38554" lon="2.13275">
        <ele>145.78</ele>
        <time>2020-09-26T15:05:42Z</time>
      </trkpt>
      <trkpt lat="48.38571" lon="2.13268">
        <ele>146.26</ele>
        <time>2020-09-26T15:05:53Z</time>
      </trkpt>
      <trkpt lat="48.38571" lon="2.1327">
        <ele>145.78</ele>
        <time>2020-09-26T15:05:56Z</time>
      </trkpt>
      <trkpt lat="48.38574" lon="2.13272">
        <ele>147.22</ele>
        <time>2020-09-26T15:06:00Z</time>
      </trkpt>
      <trkpt lat="48.38576" lon="2.13271">
        <ele>146.26</ele>
        <time>2020-09-26T15:06:01Z</time>
      </trkpt>
      <trkpt lat="48.38577" lon="2.1327">
        <ele>146.26</ele>
        <time>2020-09-26T15:06:02Z</time>
      </trkpt>
      <trkpt lat="48.38579" lon="2.1327">
        <ele>145.78</ele>
        <time>2020-09-26T15:06:03Z</time>
      </trkpt>
      <trkpt lat="48.38581" lon="2.13269">
        <ele>145.78</ele>
        <time>2020-09-26T15:06:04Z</time>
      </trkpt>
      <trkpt lat="48.38583" lon="2.13269">
        <ele>146.74</ele>
        <time>2020-09-26T15:06:05Z</time>
      </trkpt>
      <trkpt lat="48.38598" lon="2.13266">
        <ele>146.74</ele>
        <time>2020-09-26T15:06:18Z</time>
      </trkpt>
      <trkpt lat="48.38604" lon="2.13268">
        <ele>146.26</ele>
        <time>2020-09-26T15:06:27Z</time>
      </trkpt>
      <trkpt lat="48.38606" lon="2.13267">
        <ele>145.78</ele>
        <time>2020-09-26T15:06:29Z</time>
      </trkpt>
      <trkpt lat="48.38608" lon="2.13267">
        <ele>146.74</ele>
        <time>2020-09-26T15:06:30Z</time>
      </trkpt>
      <trkpt lat="48.38611" lon="2.13266">
        <ele>146.74</ele>
        <time>2020-09-26T15:06:31Z</time>
      </trkpt>
      <trkpt lat="48.38628" lon="2.13261">
        <ele>146.74</ele>
        <time>2020-09-26T15:06:43Z</time>
      </trkpt>
      <trkpt lat="48.38629" lon="2.13261">
        <ele>146.74</ele>
        <time>2020-09-26T15:06:44Z</time>
      </trkpt>
      <trkpt lat="48.38631" lon="2.13261">
        <ele>147.7</ele>
        <time>2020-09-26T15:06:46Z</time>
      </trkpt>
      <trkpt lat="48.38633" lon="2.13261">
        <ele>147.22</ele>
        <time>2020-09-26T15:06:47Z</time>
      </trkpt>
      <trkpt lat="48.38634" lon="2.13261">
        <ele>147.22</ele>
        <time>2020-09-26T15:06:48Z</time>
      </trkpt>
      <trkpt lat="48.38636" lon="2.1326">
        <ele>147.22</ele>
        <time>2020-09-26T15:06:49Z</time>
      </trkpt>
      <trkpt lat="48.38637" lon="2.13258">
        <ele>148.18</ele>
        <time>2020-09-26T15:06:50Z</time>
      </trkpt>
      <trkpt lat="48.38639" lon="2.13257">
        <ele>147.22</ele>
        <time>2020-09-26T15:06:51Z</time>
      </trkpt>
      <trkpt lat="48.38641" lon="2.13257">
        <ele>147.7</ele>
        <time>2020-09-26T15:06:52Z</time>
      </trkpt>
      <trkpt lat="48.38643" lon="2.13257">
        <ele>147.7</ele>
        <time>2020-09-26T15:06:53Z</time>
      </trkpt>
      <trkpt lat="48.38644" lon="2.13258">
        <ele>147.22</ele>
        <time>2020-09-26T15:06:54Z</time>
      </trkpt>
      <trkpt lat="48.38645" lon="2.1326">
        <ele>147.22</ele>
        <time>2020-09-26T15:06:55Z</time>
      </trkpt>
      <trkpt lat="48.38646" lon="2.13261">
        <ele>148.18</ele>
        <time>2020-09-26T15:06:56Z</time>
      </trkpt>
      <trkpt lat="48.38649" lon="2.13257">
        <ele>146.74</ele>
        <time>2020-09-26T15:07:01Z</time>
      </trkpt>
      <trkpt lat="48.3865" lon="2.13256">
        <ele>146.26</ele>
        <time>2020-09-26T15:07:02Z</time>
      </trkpt>
      <trkpt lat="48.38652" lon="2.13255">
        <ele>145.78</ele>
        <time>2020-09-26T15:07:03Z</time>
      </trkpt>
      <trkpt lat="48.38653" lon="2.13254">
        <ele>146.26</ele>
        <time>2020-09-26T15:07:04Z</time>
      </trkpt>
      <trkpt lat="48.38655" lon="2.13253">
        <ele>146.26</ele>
        <time>2020-09-26T15:07:05Z</time>
      </trkpt>
      <trkpt lat="48.38656" lon="2.13252">
        <ele>145.3</ele>
        <time>2020-09-26T15:07:06Z</time>
      </trkpt>
      <trkpt lat="48.38657" lon="2.13251">
        <ele>146.74</ele>
        <time>2020-09-26T15:07:07Z</time>
      </trkpt>
      <trkpt lat="48.38677" lon="2.13241">
        <ele>146.74</ele>
        <time>2020-09-26T15:07:21Z</time>
      </trkpt>
      <trkpt lat="48.38689" lon="2.13233">
        <ele>147.7</ele>
        <time>2020-09-26T15:07:33Z</time>
      </trkpt>
      <trkpt lat="48.38696" lon="2.13229">
        <ele>149.14</ele>
        <time>2020-09-26T15:07:39Z</time>
      </trkpt>
      <trkpt lat="48.38701" lon="2.13225">
        <ele>143.37</ele>
        <time>2020-09-26T15:07:43Z</time>
      </trkpt>
      <trkpt lat="48.38702" lon="2.13224">
        <ele>143.37</ele>
        <time>2020-09-26T15:07:44Z</time>
      </trkpt>
      <trkpt lat="48.38707" lon="2.1322">
        <ele>147.22</ele>
        <time>2020-09-26T15:07:49Z</time>
      </trkpt>
      <trkpt lat="48.38708" lon="2.13219">
        <ele>147.22</ele>
        <time>2020-09-26T15:07:50Z</time>
      </trkpt>
      <trkpt lat="48.38711" lon="2.13216">
        <ele>144.82</ele>
        <time>2020-09-26T15:07:53Z</time>
      </trkpt>
      <trkpt lat="48.38712" lon="2.13215">
        <ele>145.3</ele>
        <time>2020-09-26T15:07:54Z</time>
      </trkpt>
      <trkpt lat="48.38725" lon="2.13201">
        <ele>146.74</ele>
        <time>2020-09-26T15:08:05Z</time>
      </trkpt>
      <trkpt lat="48.3873" lon="2.13197">
        <ele>144.82</ele>
        <time>2020-09-26T15:08:10Z</time>
      </trkpt>
      <trkpt lat="48.38732" lon="2.13193">
        <ele>146.74</ele>
        <time>2020-09-26T15:08:12Z</time>
      </trkpt>
      <trkpt lat="48.38738" lon="2.13186">
        <ele>145.78</ele>
        <time>2020-09-26T15:08:19Z</time>
      </trkpt>
      <trkpt lat="48.38739" lon="2.13186">
        <ele>145.3</ele>
        <time>2020-09-26T15:08:20Z</time>
      </trkpt>
      <trkpt lat="48.38744" lon="2.13178">
        <ele>144.34</ele>
        <time>2020-09-26T15:08:26Z</time>
      </trkpt>
      <trkpt lat="48.38752" lon="2.1317">
        <ele>143.85</ele>
        <time>2020-09-26T15:08:34Z</time>
      </trkpt>
      <trkpt lat="48.38753" lon="2.13169">
        <ele>143.85</ele>
        <time>2020-09-26T15:08:35Z</time>
      </trkpt>
      <trkpt lat="48.38754" lon="2.13167">
        <ele>144.34</ele>
        <time>2020-09-26T15:08:36Z</time>
      </trkpt>
      <trkpt lat="48.38755" lon="2.13166">
        <ele>143.37</ele>
        <time>2020-09-26T15:08:37Z</time>
      </trkpt>
      <trkpt lat="48.38756" lon="2.13165">
        <ele>143.37</ele>
        <time>2020-09-26T15:08:38Z</time>
      </trkpt>
      <trkpt lat="48.38757" lon="2.13163">
        <ele>143.85</ele>
        <time>2020-09-26T15:08:39Z</time>
      </trkpt>
      <trkpt lat="48.38757" lon="2.13162">
        <ele>144.34</ele>
        <time>2020-09-26T15:08:40Z</time>
      </trkpt>
      <trkpt lat="48.38762" lon="2.13158">
        <ele>146.26</ele>
        <time>2020-09-26T15:08:45Z</time>
      </trkpt>
      <trkpt lat="48.38766" lon="2.13152">
        <ele>142.89</ele>
        <time>2020-09-26T15:08:49Z</time>
      </trkpt>
      <trkpt lat="48.38768" lon="2.13151">
        <ele>142.89</ele>
        <time>2020-09-26T15:08:50Z</time>
      </trkpt>
      <trkpt lat="48.38773" lon="2.13144">
        <ele>143.37</ele>
        <time>2020-09-26T15:08:57Z</time>
      </trkpt>
      <trkpt lat="48.38775" lon="2.13144">
        <ele>145.3</ele>
        <time>2020-09-26T15:08:58Z</time>
      </trkpt>
      <trkpt lat="48.38776" lon="2.13143">
        <ele>144.82</ele>
        <time>2020-09-26T15:08:59Z</time>
      </trkpt>
      <trkpt lat="48.38786" lon="2.13143">
        <ele>147.22</ele>
        <time>2020-09-26T15:09:06Z</time>
      </trkpt>
      <trkpt lat="48.38791" lon="2.13144">
        <ele>146.26</ele>
        <time>2020-09-26T15:09:11Z</time>
      </trkpt>
      <trkpt lat="48.38805" lon="2.13142">
        <ele>145.78</ele>
        <time>2020-09-26T15:09:22Z</time>
      </trkpt>
      <trkpt lat="48.38809" lon="2.13143">
        <ele>143.85</ele>
        <time>2020-09-26T15:09:25Z</time>
      </trkpt>
      <trkpt lat="48.38814" lon="2.13144">
        <ele>145.3</ele>
        <time>2020-09-26T15:09:30Z</time>
      </trkpt>
      <trkpt lat="48.38815" lon="2.13145">
        <ele>144.82</ele>
        <time>2020-09-26T15:09:32Z</time>
      </trkpt>
      <trkpt lat="48.38828" lon="2.13144">
        <ele>144.34</ele>
        <time>2020-09-26T15:09:40Z</time>
      </trkpt>
      <trkpt lat="48.3883" lon="2.13145">
        <ele>143.85</ele>
        <time>2020-09-26T15:09:44Z</time>
      </trkpt>
      <trkpt lat="48.38837" lon="2.13142">
        <ele>143.37</ele>
        <time>2020-09-26T15:09:49Z</time>
      </trkpt>
      <trkpt lat="48.38853" lon="2.13142">
        <ele>142.89</ele>
        <time>2020-09-26T15:10:03Z</time>
      </trkpt>
      <trkpt lat="48.3886" lon="2.13139">
        <ele>142.89</ele>
        <time>2020-09-26T15:10:15Z</time>
      </trkpt>
      <trkpt lat="48.38866" lon="2.13141">
        <ele>142.89</ele>
        <time>2020-09-26T15:10:27Z</time>
      </trkpt>
      <trkpt lat="48.38869" lon="2.13141">
        <ele>141.93</ele>
        <time>2020-09-26T15:10:42Z</time>
      </trkpt>
      <trkpt lat="48.38878" lon="2.13142">
        <ele>142.41</ele>
        <time>2020-09-26T15:10:56Z</time>
      </trkpt>
      <trkpt lat="48.3888" lon="2.13141">
        <ele>142.41</ele>
        <time>2020-09-26T15:11:06Z</time>
      </trkpt>
      <trkpt lat="48.3888" lon="2.1314">
        <ele>142.41</ele>
        <time>2020-09-26T15:11:16Z</time>
      </trkpt>
      <trkpt lat="48.3888" lon="2.1314">
        <ele>144.34</ele>
        <time>2020-09-26T15:11:23Z</time>
      </trkpt>
      <trkpt lat="48.3888" lon="2.1314">
        <ele>143.37</ele>
        <time>2020-09-26T15:11:25Z</time>
      </trkpt>
      <trkpt lat="48.3888" lon="2.1314">
        <ele>142.41</ele>
        <time>2020-09-26T15:11:38Z</time>
      </trkpt>
      <trkpt lat="48.38881" lon="2.13142">
        <ele>141.93</ele>
        <time>2020-09-26T15:11:40Z</time>
      </trkpt>
      <trkpt lat="48.38881" lon="2.13138">
        <ele>141.93</ele>
        <time>2020-09-26T15:11:42Z</time>
      </trkpt>
      <trkpt lat="48.38897" lon="2.13141">
        <ele>141.45</ele>
        <time>2020-09-26T15:11:54Z</time>
      </trkpt>
      <trkpt lat="48.38908" lon="2.13142">
        <ele>140.49</ele>
        <time>2020-09-26T15:12:05Z</time>
      </trkpt>
      <trkpt lat="48.38922" lon="2.13141">
        <ele>140.97</ele>
        <time>2020-09-26T15:12:18Z</time>
      </trkpt>
      <trkpt lat="48.38939" lon="2.13143">
        <ele>139.53</ele>
        <time>2020-09-26T15:12:31Z</time>
      </trkpt>
      <trkpt lat="48.3894" lon="2.13144">
        <ele>140.49</ele>
        <time>2020-09-26T15:12:33Z</time>
      </trkpt>
      <trkpt lat="48.38944" lon="2.13143">
        <ele>140.97</ele>
        <time>2020-09-26T15:12:38Z</time>
      </trkpt>
      <trkpt lat="48.38954" lon="2.13143">
        <ele>137.61</ele>
        <time>2020-09-26T15:12:45Z</time>
      </trkpt>
      <trkpt lat="48.38955" lon="2.13143">
        <ele>138.09</ele>
        <time>2020-09-26T15:12:46Z</time>
      </trkpt>
      <trkpt lat="48.38956" lon="2.13144">
        <ele>139.05</ele>
        <time>2020-09-26T15:12:48Z</time>
      </trkpt>
      <trkpt lat="48.38968" lon="2.13146">
        <ele>138.57</ele>
        <time>2020-09-26T15:13:00Z</time>
      </trkpt>
      <trkpt lat="48.38976" lon="2.13146">
        <ele>138.57</ele>
        <time>2020-09-26T15:13:07Z</time>
      </trkpt>
      <trkpt lat="48.38994" lon="2.13146">
        <ele>138.57</ele>
        <time>2020-09-26T15:13:22Z</time>
      </trkpt>
      <trkpt lat="48.39005" lon="2.13147">
        <ele>138.09</ele>
        <time>2020-09-26T15:13:31Z</time>
      </trkpt>
      <trkpt lat="48.39021" lon="2.13148">
        <ele>138.09</ele>
        <time>2020-09-26T15:13:45Z</time>
      </trkpt>
      <trkpt lat="48.39037" lon="2.13148">
        <ele>136.64</ele>
        <time>2020-09-26T15:13:58Z</time>
      </trkpt>
      <trkpt lat="48.39038" lon="2.13148">
        <ele>136.64</ele>
        <time>2020-09-26T15:13:59Z</time>
      </trkpt>
      <trkpt lat="48.39051" lon="2.13149">
        <ele>135.68</ele>
        <time>2020-09-26T15:14:10Z</time>
      </trkpt>
      <trkpt lat="48.39072" lon="2.13151">
        <ele>136.16</ele>
        <time>2020-09-26T15:14:28Z</time>
      </trkpt>
      <trkpt lat="48.39073" lon="2.13151">
        <ele>135.68</ele>
        <time>2020-09-26T15:14:29Z</time>
      </trkpt>
      <trkpt lat="48.39078" lon="2.13151">
        <ele>132.8</ele>
        <time>2020-09-26T15:14:33Z</time>
      </trkpt>
      <trkpt lat="48.39093" lon="2.13152">
        <ele>132.8</ele>
        <time>2020-09-26T15:14:47Z</time>
      </trkpt>
      <trkpt lat="48.39096" lon="2.13153">
        <ele>131.36</ele>
        <time>2020-09-26T15:14:50Z</time>
      </trkpt>
      <trkpt lat="48.39102" lon="2.13156">
        <ele>131.36</ele>
        <time>2020-09-26T15:14:58Z</time>
      </trkpt>
      <trkpt lat="48.3911" lon="2.13158">
        <ele>130.4</ele>
        <time>2020-09-26T15:15:04Z</time>
      </trkpt>
      <trkpt lat="48.3912" lon="2.13159">
        <ele>131.36</ele>
        <time>2020-09-26T15:15:13Z</time>
      </trkpt>
      <trkpt lat="48.39122" lon="2.13161">
        <ele>130.4</ele>
        <time>2020-09-26T15:15:16Z</time>
      </trkpt>
      <trkpt lat="48.39135" lon="2.13159">
        <ele>127.99</ele>
        <time>2020-09-26T15:15:27Z</time>
      </trkpt>
      <trkpt lat="48.3914" lon="2.13161">
        <ele>129.43</ele>
        <time>2020-09-26T15:15:36Z</time>
      </trkpt>
      <trkpt lat="48.39156" lon="2.13164">
        <ele>128.95</ele>
        <time>2020-09-26T15:15:48Z</time>
      </trkpt>
      <trkpt lat="48.39169" lon="2.13166">
        <ele>127.51</ele>
        <time>2020-09-26T15:15:58Z</time>
      </trkpt>
      <trkpt lat="48.39175" lon="2.13167">
        <ele>126.07</ele>
        <time>2020-09-26T15:16:04Z</time>
      </trkpt>
      <trkpt lat="48.39189" lon="2.13168">
        <ele>125.11</ele>
        <time>2020-09-26T15:16:15Z</time>
      </trkpt>
      <trkpt lat="48.39203" lon="2.13167">
        <ele>124.15</ele>
        <time>2020-09-26T15:16:26Z</time>
      </trkpt>
      <trkpt lat="48.39215" lon="2.13168">
        <ele>122.22</ele>
        <time>2020-09-26T15:16:36Z</time>
      </trkpt>
      <trkpt lat="48.39224" lon="2.13167">
        <ele>121.26</ele>
        <time>2020-09-26T15:16:41Z</time>
      </trkpt>
      <trkpt lat="48.39237" lon="2.13167">
        <ele>119.34</ele>
        <time>2020-09-26T15:16:51Z</time>
      </trkpt>
      <trkpt lat="48.39247" lon="2.13169">
        <ele>117.9</ele>
        <time>2020-09-26T15:17:00Z</time>
      </trkpt>
      <trkpt lat="48.3926" lon="2.13168">
        <ele>116.46</ele>
        <time>2020-09-26T15:17:10Z</time>
      </trkpt>
      <trkpt lat="48.39267" lon="2.13168">
        <ele>115.98</ele>
        <time>2020-09-26T15:17:19Z</time>
      </trkpt>
      <trkpt lat="48.39268" lon="2.13175">
        <ele>116.3</ele>
      </trkpt>
      <trkpt lat="48.39271" lon="2.13179">
        <ele>116.4</ele>
      </trkpt>
      <trkpt lat="48.39273" lon="2.13187">
        <ele>116.5</ele>
      </trkpt>
      <trkpt lat="48.39276" lon="2.13198">
        <ele>116.5</ele>
      </trkpt>
      <trkpt lat="48.39277" lon="2.13203">
        <ele>116.6</ele>
      </trkpt>
      <trkpt lat="48.39281" lon="2.13212">
        <ele>116.6</ele>
      </trkpt>
      <trkpt lat="48.39284" lon="2.13219">
        <ele>117</ele>
      </trkpt>
      <trkpt lat="48.39287" lon="2.13227">
        <ele>116.6</ele>
      </trkpt>
      <trkpt lat="48.39292" lon="2.1324">
        <ele>116.5</ele>
      </trkpt>
      <trkpt lat="48.39297" lon="2.1325">
        <ele>113.57</ele>
        <time>2020-09-26T15:18:37Z</time>
      </trkpt>
      <trkpt lat="48.39296" lon="2.13254">
        <ele>113.09</ele>
        <time>2020-09-26T15:18:41Z</time>
      </trkpt>
      <trkpt lat="48.39297" lon="2.13265">
        <ele>113.57</ele>
        <time>2020-09-26T15:18:46Z</time>
      </trkpt>
      <trkpt lat="48.39301" lon="2.1328">
        <ele>115.01</ele>
        <time>2020-09-26T15:19:01Z</time>
      </trkpt>
      <trkpt lat="48.39309" lon="2.13293">
        <ele>114.53</ele>
        <time>2020-09-26T15:19:14Z</time>
      </trkpt>
      <trkpt lat="48.39315" lon="2.13309">
        <ele>114.05</ele>
        <time>2020-09-26T15:19:27Z</time>
      </trkpt>
      <trkpt lat="48.39321" lon="2.13328">
        <ele>114.05</ele>
        <time>2020-09-26T15:19:42Z</time>
      </trkpt>
      <trkpt lat="48.39328" lon="2.13345">
        <ele>115.98</ele>
        <time>2020-09-26T15:19:56Z</time>
      </trkpt>
      <trkpt lat="48.39333" lon="2.13357">
        <ele>115.01</ele>
        <time>2020-09-26T15:20:10Z</time>
      </trkpt>
      <trkpt lat="48.39341" lon="2.13369">
        <ele>114.53</ele>
        <time>2020-09-26T15:20:18Z</time>
      </trkpt>
      <trkpt lat="48.39351" lon="2.13383">
        <ele>113.09</ele>
        <time>2020-09-26T15:20:33Z</time>
      </trkpt>
      <trkpt lat="48.39356" lon="2.1339">
        <ele>112.13</ele>
        <time>2020-09-26T15:20:39Z</time>
      </trkpt>
      <trkpt lat="48.39364" lon="2.13408">
        <ele>111.65</ele>
        <time>2020-09-26T15:20:54Z</time>
      </trkpt>
      <trkpt lat="48.3937" lon="2.13415">
        <ele>112.13</ele>
        <time>2020-09-26T15:21:13Z</time>
      </trkpt>
      <trkpt lat="48.39369" lon="2.13418">
        <ele>111.17</ele>
        <time>2020-09-26T15:21:29Z</time>
      </trkpt>
      <trkpt lat="48.39369" lon="2.13419">
        <ele>111.17</ele>
        <time>2020-09-26T15:22:05Z</time>
      </trkpt>
      <trkpt lat="48.3937" lon="2.1342">
        <ele>110.69</ele>
        <time>2020-09-26T15:22:40Z</time>
      </trkpt>
      <trkpt lat="48.39373" lon="2.13414">
        <ele>111.17</ele>
        <time>2020-09-26T15:23:14Z</time>
      </trkpt>
      <trkpt lat="48.3937" lon="2.13413">
        <ele>112.61</ele>
        <time>2020-09-26T15:23:43Z</time>
      </trkpt>
      <trkpt lat="48.39369" lon="2.1341">
        <ele>112.61</ele>
        <time>2020-09-26T15:24:16Z</time>
      </trkpt>
      <trkpt lat="48.39371" lon="2.1341">
        <ele>112.61</ele>
        <time>2020-09-26T15:24:47Z</time>
      </trkpt>
      <trkpt lat="48.39368" lon="2.13408">
        <ele>113.09</ele>
        <time>2020-09-26T15:25:19Z</time>
      </trkpt>
      <trkpt lat="48.39373" lon="2.13415">
        <ele>113.09</ele>
        <time>2020-09-26T15:25:40Z</time>
      </trkpt>
      <trkpt lat="48.39372" lon="2.13415">
        <ele>112.13</ele>
        <time>2020-09-26T15:26:07Z</time>
      </trkpt>
      <trkpt lat="48.39379" lon="2.13417">
        <ele>113.09</ele>
        <time>2020-09-26T15:26:35Z</time>
      </trkpt>
      <trkpt lat="48.39373" lon="2.13418">
        <ele>112.13</ele>
        <time>2020-09-26T15:27:01Z</time>
      </trkpt>
      <trkpt lat="48.39375" lon="2.13419">
        <ele>113.57</ele>
        <time>2020-09-26T15:27:24Z</time>
      </trkpt>
      <trkpt lat="48.39378" lon="2.13434">
        <ele>112.61</ele>
        <time>2020-09-26T15:27:40Z</time>
      </trkpt>
      <trkpt lat="48.39386" lon="2.13453">
        <ele>112.13</ele>
        <time>2020-09-26T15:27:56Z</time>
      </trkpt>
      <trkpt lat="48.39395" lon="2.13473">
        <ele>111.65</ele>
        <time>2020-09-26T15:28:10Z</time>
      </trkpt>
      <trkpt lat="48.39403" lon="2.1349">
        <ele>110.21</ele>
        <time>2020-09-26T15:28:22Z</time>
      </trkpt>
      <trkpt lat="48.39411" lon="2.13512">
        <ele>108.77</ele>
        <time>2020-09-26T15:28:35Z</time>
      </trkpt>
      <trkpt lat="48.39418" lon="2.13537">
        <ele>107.32</ele>
        <time>2020-09-26T15:28:51Z</time>
      </trkpt>
      <trkpt lat="48.39424" lon="2.13553">
        <ele>107.32</ele>
        <time>2020-09-26T15:29:01Z</time>
      </trkpt>
      <trkpt lat="48.39429" lon="2.1358">
        <ele>106.36</ele>
        <time>2020-09-26T15:29:16Z</time>
      </trkpt>
      <trkpt lat="48.39433" lon="2.13601">
        <ele>105.88</ele>
        <time>2020-09-26T15:29:28Z</time>
      </trkpt>
      <trkpt lat="48.39435" lon="2.13612">
        <ele>104.44</ele>
        <time>2020-09-26T15:29:39Z</time>
      </trkpt>
      <trkpt lat="48.39435" lon="2.13612">
        <ele>103.96</ele>
        <time>2020-09-26T15:29:40Z</time>
      </trkpt>
      <trkpt lat="48.39438" lon="2.13639">
        <ele>103</ele>
        <time>2020-09-26T15:29:56Z</time>
      </trkpt>
      <trkpt lat="48.39438" lon="2.13642">
        <ele>102.52</ele>
        <time>2020-09-26T15:29:58Z</time>
      </trkpt>
      <trkpt lat="48.39441" lon="2.13656">
        <ele>100.6</ele>
        <time>2020-09-26T15:30:05Z</time>
      </trkpt>
      <trkpt lat="48.39441" lon="2.13658">
        <ele>104.44</ele>
        <time>2020-09-26T15:30:06Z</time>
      </trkpt>
      <trkpt lat="48.39442" lon="2.13674">
        <ele>102.04</ele>
        <time>2020-09-26T15:30:13Z</time>
      </trkpt>
      <trkpt lat="48.39443" lon="2.13684">
        <ele>101.56</ele>
        <time>2020-09-26T15:30:17Z</time>
      </trkpt>
      <trkpt lat="48.39444" lon="2.13686">
        <ele>102.04</ele>
        <time>2020-09-26T15:30:18Z</time>
      </trkpt>
      <trkpt lat="48.39447" lon="2.13705">
        <ele>100.6</ele>
        <time>2020-09-26T15:30:30Z</time>
      </trkpt>
      <trkpt lat="48.39452" lon="2.13728">
        <ele>100.11</ele>
        <time>2020-09-26T15:30:43Z</time>
      </trkpt>
      <trkpt lat="48.39453" lon="2.1373">
        <ele>100.11</ele>
        <time>2020-09-26T15:30:44Z</time>
      </trkpt>
      <trkpt lat="48.39454" lon="2.13732">
        <ele>99.63</ele>
        <time>2020-09-26T15:30:45Z</time>
      </trkpt>
      <trkpt lat="48.39454" lon="2.13734">
        <ele>99.63</ele>
        <time>2020-09-26T15:30:46Z</time>
      </trkpt>
      <trkpt lat="48.39455" lon="2.13736">
        <ele>99.63</ele>
        <time>2020-09-26T15:30:47Z</time>
      </trkpt>
      <trkpt lat="48.39456" lon="2.13739">
        <ele>99.15</ele>
        <time>2020-09-26T15:30:48Z</time>
      </trkpt>
      <trkpt lat="48.39456" lon="2.13742">
        <ele>99.15</ele>
        <time>2020-09-26T15:30:49Z</time>
      </trkpt>
      <trkpt lat="48.3946" lon="2.13758">
        <ele>98.19</ele>
        <time>2020-09-26T15:31:00Z</time>
      </trkpt>
      <trkpt lat="48.39463" lon="2.1378">
        <ele>97.71</ele>
        <time>2020-09-26T15:31:12Z</time>
      </trkpt>
      <trkpt lat="48.39465" lon="2.1379">
        <ele>97.23</ele>
        <time>2020-09-26T15:31:18Z</time>
      </trkpt>
      <trkpt lat="48.39467" lon="2.13795">
        <ele>97.23</ele>
        <time>2020-09-26T15:31:21Z</time>
      </trkpt>
      <trkpt lat="48.3947" lon="2.138">
        <ele>97.23</ele>
        <time>2020-09-26T15:31:25Z</time>
      </trkpt>
      <trkpt lat="48.3947" lon="2.13802">
        <ele>97.71</ele>
        <time>2020-09-26T15:31:26Z</time>
      </trkpt>
      <trkpt lat="48.39476" lon="2.13812">
        <ele>96.75</ele>
        <time>2020-09-26T15:31:33Z</time>
      </trkpt>
      <trkpt lat="48.39477" lon="2.13814">
        <ele>97.23</ele>
        <time>2020-09-26T15:31:34Z</time>
      </trkpt>
      <trkpt lat="48.39479" lon="2.13816">
        <ele>97.23</ele>
        <time>2020-09-26T15:31:35Z</time>
      </trkpt>
      <trkpt lat="48.3948" lon="2.13818">
        <ele>96.75</ele>
        <time>2020-09-26T15:31:36Z</time>
      </trkpt>
      <trkpt lat="48.39481" lon="2.1382">
        <ele>96.27</ele>
        <time>2020-09-26T15:31:37Z</time>
      </trkpt>
      <trkpt lat="48.39481" lon="2.13822">
        <ele>96.75</ele>
        <time>2020-09-26T15:31:38Z</time>
      </trkpt>
      <trkpt lat="48.39483" lon="2.1383">
        <ele>96.27</ele>
        <time>2020-09-26T15:31:44Z</time>
      </trkpt>
      <trkpt lat="48.39484" lon="2.13832">
        <ele>96.27</ele>
        <time>2020-09-26T15:31:45Z</time>
      </trkpt>
      <trkpt lat="48.39485" lon="2.13834">
        <ele>96.27</ele>
        <time>2020-09-26T15:31:46Z</time>
      </trkpt>
      <trkpt lat="48.39486" lon="2.13836">
        <ele>96.27</ele>
        <time>2020-09-26T15:31:47Z</time>
      </trkpt>
      <trkpt lat="48.39487" lon="2.13837">
        <ele>96.27</ele>
        <time>2020-09-26T15:31:48Z</time>
      </trkpt>
      <trkpt lat="48.39498" lon="2.13853">
        <ele>95.79</ele>
        <time>2020-09-26T15:32:01Z</time>
      </trkpt>
      <trkpt lat="48.39502" lon="2.13869">
        <ele>96.27</ele>
        <time>2020-09-26T15:32:13Z</time>
      </trkpt>
      <trkpt lat="48.39505" lon="2.13876">
        <ele>96.27</ele>
        <time>2020-09-26T15:32:18Z</time>
      </trkpt>
      <trkpt lat="48.39514" lon="2.13893">
        <ele>95.31</ele>
        <time>2020-09-26T15:32:32Z</time>
      </trkpt>
      <trkpt lat="48.39519" lon="2.13911">
        <ele>94.83</ele>
        <time>2020-09-26T15:32:45Z</time>
      </trkpt>
      <trkpt lat="48.39526" lon="2.13934">
        <ele>94.35</ele>
        <time>2020-09-26T15:32:58Z</time>
      </trkpt>
      <trkpt lat="48.39531" lon="2.13964">
        <ele>93.39</ele>
        <time>2020-09-26T15:33:13Z</time>
      </trkpt>
      <trkpt lat="48.39532" lon="2.13989">
        <ele>92.9</ele>
        <time>2020-09-26T15:33:26Z</time>
      </trkpt>
      <trkpt lat="48.39533" lon="2.13996">
        <ele>91.46</ele>
        <time>2020-09-26T15:33:29Z</time>
      </trkpt>
      <trkpt lat="48.3954" lon="2.14018">
        <ele>90.02</ele>
        <time>2020-09-26T15:33:38Z</time>
      </trkpt>
      <trkpt lat="48.39545" lon="2.14038">
        <ele>89.54</ele>
        <time>2020-09-26T15:33:50Z</time>
      </trkpt>
      <trkpt lat="48.39544" lon="2.14054">
        <ele>88.58</ele>
        <time>2020-09-26T15:34:03Z</time>
      </trkpt>
      <trkpt lat="48.39545" lon="2.14057">
        <ele>88.1</ele>
        <time>2020-09-26T15:34:04Z</time>
      </trkpt>
      <trkpt lat="48.39545" lon="2.14059">
        <ele>88.1</ele>
        <time>2020-09-26T15:34:05Z</time>
      </trkpt>
      <trkpt lat="48.39545" lon="2.14062">
        <ele>87.62</ele>
        <time>2020-09-26T15:34:06Z</time>
      </trkpt>
      <trkpt lat="48.3955" lon="2.14082">
        <ele>86.66</ele>
        <time>2020-09-26T15:34:17Z</time>
      </trkpt>
      <trkpt lat="48.39554" lon="2.14106">
        <ele>85.69</ele>
        <time>2020-09-26T15:34:29Z</time>
      </trkpt>
      <trkpt lat="48.39553" lon="2.14118">
        <ele>84.25</ele>
        <time>2020-09-26T15:34:38Z</time>
      </trkpt>
      <trkpt lat="48.39553" lon="2.1412">
        <ele>83.77</ele>
        <time>2020-09-26T15:34:39Z</time>
      </trkpt>
      <trkpt lat="48.39554" lon="2.14122">
        <ele>83.29</ele>
        <time>2020-09-26T15:34:40Z</time>
      </trkpt>
      <trkpt lat="48.39554" lon="2.14124">
        <ele>83.77</ele>
        <time>2020-09-26T15:34:41Z</time>
      </trkpt>
      <trkpt lat="48.39553" lon="2.14127">
        <ele>82.81</ele>
        <time>2020-09-26T15:34:42Z</time>
      </trkpt>
      <trkpt lat="48.3955" lon="2.14143">
        <ele>82.81</ele>
        <time>2020-09-26T15:34:52Z</time>
      </trkpt>
      <trkpt lat="48.39549" lon="2.14146">
        <ele>82.81</ele>
        <time>2020-09-26T15:34:53Z</time>
      </trkpt>
      <trkpt lat="48.39544" lon="2.14167">
        <ele>80.41</ele>
        <time>2020-09-26T15:35:07Z</time>
      </trkpt>
      <trkpt lat="48.39545" lon="2.14169">
        <ele>79.93</ele>
        <time>2020-09-26T15:35:08Z</time>
      </trkpt>
      <trkpt lat="48.39546" lon="2.14172">
        <ele>79.93</ele>
        <time>2020-09-26T15:35:09Z</time>
      </trkpt>
      <trkpt lat="48.39552" lon="2.14181">
        <ele>79.45</ele>
        <time>2020-09-26T15:35:19Z</time>
      </trkpt>
      <trkpt lat="48.39557" lon="2.14189">
        <ele>77.52</ele>
        <time>2020-09-26T15:35:28Z</time>
      </trkpt>
      <trkpt lat="48.39563" lon="2.14191">
        <ele>77.04</ele>
        <time>2020-09-26T15:35:36Z</time>
      </trkpt>
      <trkpt lat="48.39564" lon="2.1419">
        <ele>77.04</ele>
        <time>2020-09-26T15:35:37Z</time>
      </trkpt>
      <trkpt lat="48.39566" lon="2.14191">
        <ele>76.56</ele>
        <time>2020-09-26T15:35:38Z</time>
      </trkpt>
      <trkpt lat="48.39567" lon="2.14191">
        <ele>76.56</ele>
        <time>2020-09-26T15:35:39Z</time>
      </trkpt>
      <trkpt lat="48.39569" lon="2.14192">
        <ele>76.08</ele>
        <time>2020-09-26T15:35:40Z</time>
      </trkpt>
      <trkpt lat="48.39575" lon="2.14196">
        <ele>76.56</ele>
        <time>2020-09-26T15:35:48Z</time>
      </trkpt>
      <trkpt lat="48.39576" lon="2.14198">
        <ele>76.08</ele>
        <time>2020-09-26T15:36:01Z</time>
      </trkpt>
      <trkpt lat="48.39572" lon="2.14204">
        <ele>76.08</ele>
        <time>2020-09-26T15:36:26Z</time>
      </trkpt>
      <trkpt lat="48.39576" lon="2.14199">
        <ele>76.08</ele>
        <time>2020-09-26T15:36:59Z</time>
      </trkpt>
      <trkpt lat="48.39575" lon="2.14197">
        <ele>75.6</ele>
        <time>2020-09-26T15:37:23Z</time>
      </trkpt>
      <trkpt lat="48.39578" lon="2.142">
        <ele>76.56</ele>
        <time>2020-09-26T15:37:48Z</time>
      </trkpt>
      <trkpt lat="48.39582" lon="2.14201">
        <ele>76.08</ele>
        <time>2020-09-26T15:38:01Z</time>
      </trkpt>
      <trkpt lat="48.39583" lon="2.14202">
        <ele>76.08</ele>
        <time>2020-09-26T15:38:02Z</time>
      </trkpt>
      <trkpt lat="48.39586" lon="2.14208">
        <ele>75.12</ele>
        <time>2020-09-26T15:38:08Z</time>
      </trkpt>
      <trkpt lat="48.39586" lon="2.1421">
        <ele>75.12</ele>
        <time>2020-09-26T15:38:09Z</time>
      </trkpt>
      <trkpt lat="48.39586" lon="2.14212">
        <ele>75.6</ele>
        <time>2020-09-26T15:38:10Z</time>
      </trkpt>
      <trkpt lat="48.39586" lon="2.14218">
        <ele>74.64</ele>
        <time>2020-09-26T15:38:14Z</time>
      </trkpt>
      <trkpt lat="48.39585" lon="2.14222">
        <ele>75.12</ele>
        <time>2020-09-26T15:38:17Z</time>
      </trkpt>
      <trkpt lat="48.39584" lon="2.14246">
        <ele>73.2</ele>
        <time>2020-09-26T15:38:31Z</time>
      </trkpt>
      <trkpt lat="48.39585" lon="2.14277">
        <ele>73.68</ele>
        <time>2020-09-26T15:38:49Z</time>
      </trkpt>
      <trkpt lat="48.39585" lon="2.14281">
        <ele>73.2</ele>
        <time>2020-09-26T15:38:53Z</time>
      </trkpt>
      <trkpt lat="48.39586" lon="2.14284">
        <ele>73.68</ele>
        <time>2020-09-26T15:38:55Z</time>
      </trkpt>
      <trkpt lat="48.39585" lon="2.14296">
        <ele>73.2</ele>
        <time>2020-09-26T15:39:02Z</time>
      </trkpt>
      <trkpt lat="48.39585" lon="2.14313">
        <ele>73.2</ele>
        <time>2020-09-26T15:39:14Z</time>
      </trkpt>
      <trkpt lat="48.39584" lon="2.14319">
        <ele>73.2</ele>
        <time>2020-09-26T15:39:23Z</time>
      </trkpt>
      <trkpt lat="48.39585" lon="2.14318">
        <ele>72.72</ele>
        <time>2020-09-26T15:39:41Z</time>
      </trkpt>
      <trkpt lat="48.39586" lon="2.14324">
        <ele>73.2</ele>
        <time>2020-09-26T15:39:52Z</time>
      </trkpt>
      <trkpt lat="48.39586" lon="2.14322">
        <ele>74.16</ele>
        <time>2020-09-26T15:40:09Z</time>
      </trkpt>
      <trkpt lat="48.39586" lon="2.14318">
        <ele>74.16</ele>
        <time>2020-09-26T15:40:25Z</time>
      </trkpt>
      <trkpt lat="48.39587" lon="2.14327">
        <ele>73.2</ele>
        <time>2020-09-26T15:40:41Z</time>
      </trkpt>
      <trkpt lat="48.39589" lon="2.14325">
        <ele>72.72</ele>
        <time>2020-09-26T15:40:53Z</time>
      </trkpt>
      <trkpt lat="48.39582" lon="2.14325">
        <ele>72.72</ele>
        <time>2020-09-26T15:41:08Z</time>
      </trkpt>
      <trkpt lat="48.39581" lon="2.1432">
        <ele>74.16</ele>
        <time>2020-09-26T15:41:25Z</time>
      </trkpt>
      <trkpt lat="48.39587" lon="2.14333">
        <ele>73.2</ele>
        <time>2020-09-26T15:41:49Z</time>
      </trkpt>
      <trkpt lat="48.39603" lon="2.14338">
        <ele>71.27</ele>
        <time>2020-09-26T15:42:03Z</time>
      </trkpt>
      <trkpt lat="48.39606" lon="2.14338">
        <ele>72.24</ele>
        <time>2020-09-26T15:42:05Z</time>
      </trkpt>
      <trkpt lat="48.39613" lon="2.1434">
        <ele>72.72</ele>
        <time>2020-09-26T15:42:12Z</time>
      </trkpt>
      <trkpt lat="48.39616" lon="2.14342">
        <ele>73.2</ele>
        <time>2020-09-26T15:42:15Z</time>
      </trkpt>
      <trkpt lat="48.39622" lon="2.14343">
        <ele>73.68</ele>
        <time>2020-09-26T15:42:28Z</time>
      </trkpt>
      <trkpt lat="48.39628" lon="2.1434">
        <ele>73.68</ele>
        <time>2020-09-26T15:42:51Z</time>
      </trkpt>
      <trkpt lat="48.39616" lon="2.14353">
        <ele>72.72</ele>
        <time>2020-09-26T15:43:09Z</time>
      </trkpt>
      <trkpt lat="48.39616" lon="2.14359">
        <ele>73.2</ele>
        <time>2020-09-26T15:43:19Z</time>
      </trkpt>
      <trkpt lat="48.39614" lon="2.14388">
        <ele>73.2</ele>
        <time>2020-09-26T15:43:35Z</time>
      </trkpt>
      <trkpt lat="48.39609" lon="2.14395">
        <ele>73.68</ele>
        <time>2020-09-26T15:43:44Z</time>
      </trkpt>
      <trkpt lat="48.39604" lon="2.14409">
        <ele>72.72</ele>
        <time>2020-09-26T15:43:58Z</time>
      </trkpt>
      <trkpt lat="48.39606" lon="2.14404">
        <ele>72.72</ele>
        <time>2020-09-26T15:44:08Z</time>
      </trkpt>
      <trkpt lat="48.39612" lon="2.14396">
        <ele>73.2</ele>
        <time>2020-09-26T15:44:15Z</time>
      </trkpt>
      <trkpt lat="48.39622" lon="2.14397">
        <ele>74.16</ele>
        <time>2020-09-26T15:44:28Z</time>
      </trkpt>
      <trkpt lat="48.3964" lon="2.144">
        <ele>75.12</ele>
        <time>2020-09-26T15:44:44Z</time>
      </trkpt>
      <trkpt lat="48.39658" lon="2.14405">
        <ele>74.16</ele>
        <time>2020-09-26T15:45:00Z</time>
      </trkpt>
      <trkpt lat="48.39678" lon="2.14407">
        <ele>74.64</ele>
        <time>2020-09-26T15:45:15Z</time>
      </trkpt>
      <trkpt lat="48.39697" lon="2.14405">
        <ele>74.64</ele>
        <time>2020-09-26T15:45:29Z</time>
      </trkpt>
      <trkpt lat="48.39703" lon="2.14403">
        <ele>74.64</ele>
        <time>2020-09-26T15:45:36Z</time>
      </trkpt>
      <trkpt lat="48.39706" lon="2.14402">
        <ele>74.64</ele>
        <time>2020-09-26T15:45:38Z</time>
      </trkpt>
      <trkpt lat="48.39707" lon="2.14402">
        <ele>75.12</ele>
        <time>2020-09-26T15:45:39Z</time>
      </trkpt>
      <trkpt lat="48.39725" lon="2.14398">
        <ele>75.12</ele>
        <time>2020-09-26T15:45:53Z</time>
      </trkpt>
      <trkpt lat="48.39741" lon="2.14395">
        <ele>75.12</ele>
        <time>2020-09-26T15:46:06Z</time>
      </trkpt>
      <trkpt lat="48.39743" lon="2.14394">
        <ele>75.6</ele>
        <time>2020-09-26T15:46:08Z</time>
      </trkpt>
      <trkpt lat="48.39744" lon="2.14393">
        <ele>75.12</ele>
        <time>2020-09-26T15:46:09Z</time>
      </trkpt>
      <trkpt lat="48.39758" lon="2.14388">
        <ele>77.52</ele>
        <time>2020-09-26T15:46:20Z</time>
      </trkpt>
      <trkpt lat="48.39779" lon="2.14382">
        <ele>76.08</ele>
        <time>2020-09-26T15:46:37Z</time>
      </trkpt>
      <trkpt lat="48.39782" lon="2.14382">
        <ele>76.56</ele>
        <time>2020-09-26T15:46:39Z</time>
      </trkpt>
      <trkpt lat="48.39784" lon="2.14382">
        <ele>76.56</ele>
        <time>2020-09-26T15:46:40Z</time>
      </trkpt>
      <trkpt lat="48.39793" lon="2.14379">
        <ele>74.64</ele>
        <time>2020-09-26T15:46:48Z</time>
      </trkpt>
      <trkpt lat="48.39794" lon="2.14379">
        <ele>78</ele>
        <time>2020-09-26T15:46:49Z</time>
      </trkpt>
      <trkpt lat="48.39795" lon="2.14379">
        <ele>77.04</ele>
        <time>2020-09-26T15:46:50Z</time>
      </trkpt>
      <trkpt lat="48.39798" lon="2.14377">
        <ele>77.04</ele>
        <time>2020-09-26T15:46:53Z</time>
      </trkpt>
      <trkpt lat="48.39799" lon="2.14375">
        <ele>77.52</ele>
        <time>2020-09-26T15:46:54Z</time>
      </trkpt>
      <trkpt lat="48.398" lon="2.14374">
        <ele>77.52</ele>
        <time>2020-09-26T15:46:55Z</time>
      </trkpt>
      <trkpt lat="48.39803" lon="2.14372">
        <ele>77.04</ele>
        <time>2020-09-26T15:46:58Z</time>
      </trkpt>
      <trkpt lat="48.39812" lon="2.14373">
        <ele>77.04</ele>
        <time>2020-09-26T15:47:07Z</time>
      </trkpt>
      <trkpt lat="48.3982" lon="2.14392">
        <ele>75.12</ele>
        <time>2020-09-26T15:47:18Z</time>
      </trkpt>
      <trkpt lat="48.39821" lon="2.14401">
        <ele>74.16</ele>
        <time>2020-09-26T15:47:25Z</time>
      </trkpt>
      <trkpt lat="48.39821" lon="2.14404">
        <ele>75.12</ele>
        <time>2020-09-26T15:47:27Z</time>
      </trkpt>
      <trkpt lat="48.39821" lon="2.14406">
        <ele>74.16</ele>
        <time>2020-09-26T15:47:29Z</time>
      </trkpt>
      <trkpt lat="48.39821" lon="2.14408">
        <ele>74.16</ele>
        <time>2020-09-26T15:47:30Z</time>
      </trkpt>
      <trkpt lat="48.39822" lon="2.1441">
        <ele>74.16</ele>
        <time>2020-09-26T15:47:31Z</time>
      </trkpt>
      <trkpt lat="48.39823" lon="2.14412">
        <ele>74.16</ele>
        <time>2020-09-26T15:47:32Z</time>
      </trkpt>
      <trkpt lat="48.39824" lon="2.14413">
        <ele>73.68</ele>
        <time>2020-09-26T15:47:33Z</time>
      </trkpt>
      <trkpt lat="48.39838" lon="2.14419">
        <ele>73.68</ele>
        <time>2020-09-26T15:47:46Z</time>
      </trkpt>
      <trkpt lat="48.39841" lon="2.14424">
        <ele>73.68</ele>
        <time>2020-09-26T15:47:49Z</time>
      </trkpt>
      <trkpt lat="48.39842" lon="2.14426">
        <ele>73.68</ele>
        <time>2020-09-26T15:47:50Z</time>
      </trkpt>
      <trkpt lat="48.39843" lon="2.14428">
        <ele>73.68</ele>
        <time>2020-09-26T15:47:51Z</time>
      </trkpt>
      <trkpt lat="48.39845" lon="2.1443">
        <ele>73.2</ele>
        <time>2020-09-26T15:47:52Z</time>
      </trkpt>
      <trkpt lat="48.39846" lon="2.14433">
        <ele>73.2</ele>
        <time>2020-09-26T15:47:53Z</time>
      </trkpt>
      <trkpt lat="48.39847" lon="2.14441">
        <ele>72.72</ele>
        <time>2020-09-26T15:47:57Z</time>
      </trkpt>
      <trkpt lat="48.39846" lon="2.14448">
        <ele>72.24</ele>
        <time>2020-09-26T15:48:02Z</time>
      </trkpt>
      <trkpt lat="48.39846" lon="2.14452">
        <ele>72.24</ele>
        <time>2020-09-26T15:48:12Z</time>
      </trkpt>
      <trkpt lat="48.39848" lon="2.14454">
        <ele>73.2</ele>
        <time>2020-09-26T15:48:27Z</time>
      </trkpt>
      <trkpt lat="48.39852" lon="2.14465">
        <ele>72.72</ele>
        <time>2020-09-26T15:48:40Z</time>
      </trkpt>
      <trkpt lat="48.39854" lon="2.14471">
        <ele>71.76</ele>
        <time>2020-09-26T15:48:45Z</time>
      </trkpt>
      <trkpt lat="48.39861" lon="2.14491">
        <ele>71.27</ele>
        <time>2020-09-26T15:48:56Z</time>
      </trkpt>
      <trkpt lat="48.39869" lon="2.14513">
        <ele>72.24</ele>
        <time>2020-09-26T15:49:09Z</time>
      </trkpt>
      <trkpt lat="48.39876" lon="2.14534">
        <ele>72.24</ele>
        <time>2020-09-26T15:49:24Z</time>
      </trkpt>
      <trkpt lat="48.39887" lon="2.14555">
        <ele>72.24</ele>
        <time>2020-09-26T15:49:39Z</time>
      </trkpt>
      <trkpt lat="48.39894" lon="2.14577">
        <ele>71.76</ele>
        <time>2020-09-26T15:49:52Z</time>
      </trkpt>
      <trkpt lat="48.39897" lon="2.14587">
        <ele>71.76</ele>
        <time>2020-09-26T15:50:04Z</time>
      </trkpt>
      <trkpt lat="48.39898" lon="2.14592">
        <ele>72.24</ele>
        <time>2020-09-26T15:50:07Z</time>
      </trkpt>
      <trkpt lat="48.39906" lon="2.14612">
        <ele>72.24</ele>
        <time>2020-09-26T15:50:22Z</time>
      </trkpt>
      <trkpt lat="48.39907" lon="2.14614">
        <ele>72.24</ele>
        <time>2020-09-26T15:50:23Z</time>
      </trkpt>
      <trkpt lat="48.39908" lon="2.14615">
        <ele>72.24</ele>
        <time>2020-09-26T15:50:24Z</time>
      </trkpt>
      <trkpt lat="48.39909" lon="2.14615">
        <ele>72.24</ele>
        <time>2020-09-26T15:50:25Z</time>
      </trkpt>
      <trkpt lat="48.39909" lon="2.14616">
        <ele>72.24</ele>
        <time>2020-09-26T15:50:26Z</time>
      </trkpt>
      <trkpt lat="48.39923" lon="2.14621">
        <ele>71.76</ele>
        <time>2020-09-26T15:50:40Z</time>
      </trkpt>
      <trkpt lat="48.39939" lon="2.14625">
        <ele>71.76</ele>
        <time>2020-09-26T15:50:53Z</time>
      </trkpt>
      <trkpt lat="48.39949" lon="2.14626">
        <ele>71.76</ele>
        <time>2020-09-26T15:51:01Z</time>
      </trkpt>
      <trkpt lat="48.39961" lon="2.14629">
        <ele>71.76</ele>
        <time>2020-09-26T15:51:09Z</time>
      </trkpt>
      <trkpt lat="48.39966" lon="2.14632">
        <ele>72.24</ele>
        <time>2020-09-26T15:51:16Z</time>
      </trkpt>
      <trkpt lat="48.39979" lon="2.14636">
        <ele>72.24</ele>
        <time>2020-09-26T15:51:28Z</time>
      </trkpt>
      <trkpt lat="48.4" lon="2.14633">
        <ele>71.76</ele>
        <time>2020-09-26T15:51:44Z</time>
      </trkpt>
      <trkpt lat="48.40015" lon="2.14632">
        <ele>71.76</ele>
        <time>2020-09-26T15:51:57Z</time>
      </trkpt>
      <trkpt lat="48.40018" lon="2.14632">
        <ele>72.24</ele>
        <time>2020-09-26T15:51:59Z</time>
      </trkpt>
      <trkpt lat="48.4002" lon="2.14632">
        <ele>71.27</ele>
        <time>2020-09-26T15:52:00Z</time>
      </trkpt>
      <trkpt lat="48.40034" lon="2.14628">
        <ele>71.27</ele>
        <time>2020-09-26T15:52:13Z</time>
      </trkpt>
      <trkpt lat="48.40053" lon="2.14628">
        <ele>72.72</ele>
        <time>2020-09-26T15:52:27Z</time>
      </trkpt>
      <trkpt lat="48.40069" lon="2.14632">
        <ele>71.76</ele>
        <time>2020-09-26T15:52:41Z</time>
      </trkpt>
      <trkpt lat="48.40071" lon="2.14633">
        <ele>72.24</ele>
        <time>2020-09-26T15:52:44Z</time>
      </trkpt>
      <trkpt lat="48.40078" lon="2.14636">
        <ele>72.24</ele>
        <time>2020-09-26T15:52:56Z</time>
      </trkpt>
      <trkpt lat="48.4008" lon="2.14634">
        <ele>72.24</ele>
        <time>2020-09-26T15:53:13Z</time>
      </trkpt>
      <trkpt lat="48.40087" lon="2.14641">
        <ele>71.76</ele>
        <time>2020-09-26T15:53:29Z</time>
      </trkpt>
      <trkpt lat="48.40096" lon="2.14662">
        <ele>71.76</ele>
        <time>2020-09-26T15:53:44Z</time>
      </trkpt>
      <trkpt lat="48.401" lon="2.14675">
        <ele>72.24</ele>
        <time>2020-09-26T15:53:54Z</time>
      </trkpt>
      <trkpt lat="48.401" lon="2.14676">
        <ele>71.76</ele>
        <time>2020-09-26T15:53:55Z</time>
      </trkpt>
      <trkpt lat="48.40101" lon="2.14678">
        <ele>71.27</ele>
        <time>2020-09-26T15:53:56Z</time>
      </trkpt>
      <trkpt lat="48.40102" lon="2.1468">
        <ele>71.27</ele>
        <time>2020-09-26T15:53:57Z</time>
      </trkpt>
      <trkpt lat="48.4011" lon="2.14692">
        <ele>71.27</ele>
        <time>2020-09-26T15:54:06Z</time>
      </trkpt>
      <trkpt lat="48.40111" lon="2.14693">
        <ele>71.27</ele>
        <time>2020-09-26T15:54:07Z</time>
      </trkpt>
      <trkpt lat="48.40112" lon="2.14695">
        <ele>71.27</ele>
        <time>2020-09-26T15:54:08Z</time>
      </trkpt>
      <trkpt lat="48.40113" lon="2.14697">
        <ele>71.27</ele>
        <time>2020-09-26T15:54:09Z</time>
      </trkpt>
      <trkpt lat="48.40113" lon="2.14699">
        <ele>71.27</ele>
        <time>2020-09-26T15:54:10Z</time>
      </trkpt>
      <trkpt lat="48.40116" lon="2.14706">
        <ele>71.76</ele>
        <time>2020-09-26T15:54:15Z</time>
      </trkpt>
      <trkpt lat="48.40119" lon="2.14707">
        <ele>70.79</ele>
        <time>2020-09-26T15:54:17Z</time>
      </trkpt>
      <trkpt lat="48.4012" lon="2.14708">
        <ele>71.27</ele>
        <time>2020-09-26T15:54:18Z</time>
      </trkpt>
      <trkpt lat="48.40121" lon="2.14708">
        <ele>71.27</ele>
        <time>2020-09-26T15:54:19Z</time>
      </trkpt>
      <trkpt lat="48.40122" lon="2.14709">
        <ele>71.27</ele>
        <time>2020-09-26T15:54:20Z</time>
      </trkpt>
      <trkpt lat="48.40124" lon="2.14711">
        <ele>71.27</ele>
        <time>2020-09-26T15:54:21Z</time>
      </trkpt>
      <trkpt lat="48.40125" lon="2.14712">
        <ele>70.79</ele>
        <time>2020-09-26T15:54:22Z</time>
      </trkpt>
      <trkpt lat="48.40128" lon="2.14713">
        <ele>71.27</ele>
        <time>2020-09-26T15:54:25Z</time>
      </trkpt>
      <trkpt lat="48.4013" lon="2.14713">
        <ele>71.27</ele>
        <time>2020-09-26T15:54:26Z</time>
      </trkpt>
      <trkpt lat="48.40131" lon="2.14713">
        <ele>71.76</ele>
        <time>2020-09-26T15:54:27Z</time>
      </trkpt>
      <trkpt lat="48.40142" lon="2.14715">
        <ele>72.24</ele>
        <time>2020-09-26T15:54:38Z</time>
      </trkpt>
      <trkpt lat="48.40156" lon="2.14717">
        <ele>72.24</ele>
        <time>2020-09-26T15:54:50Z</time>
      </trkpt>
      <trkpt lat="48.40168" lon="2.14717">
        <ele>72.24</ele>
        <time>2020-09-26T15:55:00Z</time>
      </trkpt>
      <trkpt lat="48.40169" lon="2.14717">
        <ele>72.24</ele>
        <time>2020-09-26T15:55:01Z</time>
      </trkpt>
      <trkpt lat="48.40171" lon="2.14717">
        <ele>72.72</ele>
        <time>2020-09-26T15:55:02Z</time>
      </trkpt>
      <trkpt lat="48.40172" lon="2.14718">
        <ele>72.24</ele>
        <time>2020-09-26T15:55:03Z</time>
      </trkpt>
      <trkpt lat="48.40174" lon="2.14718">
        <ele>71.76</ele>
        <time>2020-09-26T15:55:04Z</time>
      </trkpt>
      <trkpt lat="48.40177" lon="2.14719">
        <ele>73.2</ele>
        <time>2020-09-26T15:55:07Z</time>
      </trkpt>
      <trkpt lat="48.40193" lon="2.14721">
        <ele>74.16</ele>
        <time>2020-09-26T15:55:22Z</time>
      </trkpt>
      <trkpt lat="48.40194" lon="2.14721">
        <ele>73.2</ele>
        <time>2020-09-26T15:55:23Z</time>
      </trkpt>
      <trkpt lat="48.40195" lon="2.14722">
        <ele>73.2</ele>
        <time>2020-09-26T15:55:24Z</time>
      </trkpt>
      <trkpt lat="48.40197" lon="2.14722">
        <ele>72.72</ele>
        <time>2020-09-26T15:55:25Z</time>
      </trkpt>
      <trkpt lat="48.40199" lon="2.14722">
        <ele>72.72</ele>
        <time>2020-09-26T15:55:26Z</time>
      </trkpt>
      <trkpt lat="48.40201" lon="2.14721">
        <ele>73.68</ele>
        <time>2020-09-26T15:55:27Z</time>
      </trkpt>
      <trkpt lat="48.40203" lon="2.14721">
        <ele>73.68</ele>
        <time>2020-09-26T15:55:28Z</time>
      </trkpt>
      <trkpt lat="48.40219" lon="2.14721">
        <ele>73.68</ele>
        <time>2020-09-26T15:55:39Z</time>
      </trkpt>
      <trkpt lat="48.40232" lon="2.14723">
        <ele>73.2</ele>
        <time>2020-09-26T15:55:53Z</time>
      </trkpt>
      <trkpt lat="48.40242" lon="2.14722">
        <ele>74.16</ele>
        <time>2020-09-26T15:56:02Z</time>
      </trkpt>
      <trkpt lat="48.40243" lon="2.14722">
        <ele>74.16</ele>
        <time>2020-09-26T15:56:03Z</time>
      </trkpt>
      <trkpt lat="48.40256" lon="2.14716">
        <ele>73.2</ele>
        <time>2020-09-26T15:56:16Z</time>
      </trkpt>
      <trkpt lat="48.40269" lon="2.14712">
        <ele>73.68</ele>
        <time>2020-09-26T15:56:27Z</time>
      </trkpt>
      <trkpt lat="48.40282" lon="2.14711">
        <ele>74.16</ele>
        <time>2020-09-26T15:56:38Z</time>
      </trkpt>
      <trkpt lat="48.403" lon="2.14714">
        <ele>73.2</ele>
        <time>2020-09-26T15:56:53Z</time>
      </trkpt>
      <trkpt lat="48.40317" lon="2.14717">
        <ele>73.2</ele>
        <time>2020-09-26T15:57:07Z</time>
      </trkpt>
      <trkpt lat="48.40322" lon="2.14718">
        <ele>72.24</ele>
        <time>2020-09-26T15:57:11Z</time>
      </trkpt>
      <trkpt lat="48.40324" lon="2.14718">
        <ele>73.68</ele>
        <time>2020-09-26T15:57:12Z</time>
      </trkpt>
      <trkpt lat="48.40325" lon="2.14719">
        <ele>73.2</ele>
        <time>2020-09-26T15:57:13Z</time>
      </trkpt>
      <trkpt lat="48.40326" lon="2.1472">
        <ele>74.16</ele>
        <time>2020-09-26T15:57:14Z</time>
      </trkpt>
      <trkpt lat="48.40328" lon="2.1472">
        <ele>73.2</ele>
        <time>2020-09-26T15:57:15Z</time>
      </trkpt>
      <trkpt lat="48.40345" lon="2.14725">
        <ele>73.68</ele>
        <time>2020-09-26T15:57:31Z</time>
      </trkpt>
      <trkpt lat="48.40359" lon="2.14728">
        <ele>72.72</ele>
        <time>2020-09-26T15:57:42Z</time>
      </trkpt>
      <trkpt lat="48.40369" lon="2.14727">
        <ele>72.72</ele>
        <time>2020-09-26T15:57:51Z</time>
      </trkpt>
      <trkpt lat="48.40369" lon="2.14726">
        <ele>72.72</ele>
        <time>2020-09-26T15:57:52Z</time>
      </trkpt>
      <trkpt lat="48.40373" lon="2.14706">
        <ele>72.72</ele>
        <time>2020-09-26T15:58:04Z</time>
      </trkpt>
      <trkpt lat="48.40375" lon="2.14694">
        <ele>72.24</ele>
        <time>2020-09-26T15:58:11Z</time>
      </trkpt>
      <trkpt lat="48.40377" lon="2.14669">
        <ele>72.24</ele>
        <time>2020-09-26T15:58:23Z</time>
      </trkpt>
      <trkpt lat="48.40377" lon="2.14663">
        <ele>72.72</ele>
        <time>2020-09-26T15:58:27Z</time>
      </trkpt>
      <trkpt lat="48.4037" lon="2.14643">
        <ele>71.27</ele>
        <time>2020-09-26T15:58:39Z</time>
      </trkpt>
      <trkpt lat="48.40369" lon="2.14642">
        <ele>71.76</ele>
        <time>2020-09-26T15:58:40Z</time>
      </trkpt>
      <trkpt lat="48.40369" lon="2.1464">
        <ele>71.76</ele>
        <time>2020-09-26T15:58:41Z</time>
      </trkpt>
      <trkpt lat="48.40368" lon="2.14638">
        <ele>72.24</ele>
        <time>2020-09-26T15:58:42Z</time>
      </trkpt>
      <trkpt lat="48.40367" lon="2.14637">
        <ele>72.24</ele>
        <time>2020-09-26T15:58:43Z</time>
      </trkpt>
      <trkpt lat="48.40354" lon="2.14626">
        <ele>72.24</ele>
        <time>2020-09-26T15:58:56Z</time>
      </trkpt>
      <trkpt lat="48.40352" lon="2.14625">
        <ele>71.76</ele>
        <time>2020-09-26T15:58:58Z</time>
      </trkpt>
      <trkpt lat="48.40351" lon="2.14623">
        <ele>71.76</ele>
        <time>2020-09-26T15:58:59Z</time>
      </trkpt>
      <trkpt lat="48.4035" lon="2.14622">
        <ele>72.24</ele>
        <time>2020-09-26T15:59:00Z</time>
      </trkpt>
      <trkpt lat="48.4034" lon="2.1461">
        <ele>72.24</ele>
        <time>2020-09-26T15:59:11Z</time>
      </trkpt>
      <trkpt lat="48.40339" lon="2.14608">
        <ele>72.24</ele>
        <time>2020-09-26T15:59:12Z</time>
      </trkpt>
      <trkpt lat="48.40337" lon="2.14585">
        <ele>72.24</ele>
        <time>2020-09-26T15:59:25Z</time>
      </trkpt>
      <trkpt lat="48.40337" lon="2.14584">
        <ele>72.24</ele>
        <time>2020-09-26T15:59:26Z</time>
      </trkpt>
      <trkpt lat="48.4034" lon="2.14556">
        <ele>71.76</ele>
        <time>2020-09-26T15:59:41Z</time>
      </trkpt>
      <trkpt lat="48.40348" lon="2.14547">
        <ele>71.27</ele>
        <time>2020-09-26T15:59:54Z</time>
      </trkpt>
      <trkpt lat="48.40363" lon="2.14525">
        <ele>71.76</ele>
        <time>2020-09-26T16:00:11Z</time>
      </trkpt>
      <trkpt lat="48.40373" lon="2.14512">
        <ele>71.27</ele>
        <time>2020-09-26T16:00:23Z</time>
      </trkpt>
      <trkpt lat="48.40389" lon="2.14491">
        <ele>71.76</ele>
        <time>2020-09-26T16:00:39Z</time>
      </trkpt>
      <trkpt lat="48.40396" lon="2.14479">
        <ele>70.79</ele>
        <time>2020-09-26T16:00:51Z</time>
      </trkpt>
      <trkpt lat="48.40398" lon="2.14477">
        <ele>70.79</ele>
        <time>2020-09-26T16:00:53Z</time>
      </trkpt>
      <trkpt lat="48.40399" lon="2.14475">
        <ele>70.31</ele>
        <time>2020-09-26T16:00:54Z</time>
      </trkpt>
      <trkpt lat="48.40401" lon="2.14473">
        <ele>70.79</ele>
        <time>2020-09-26T16:00:55Z</time>
      </trkpt>
      <trkpt lat="48.40413" lon="2.14453">
        <ele>71.27</ele>
        <time>2020-09-26T16:01:09Z</time>
      </trkpt>
      <trkpt lat="48.40425" lon="2.1443">
        <ele>71.27</ele>
        <time>2020-09-26T16:01:23Z</time>
      </trkpt>
      <trkpt lat="48.40435" lon="2.14413">
        <ele>71.27</ele>
        <time>2020-09-26T16:01:35Z</time>
      </trkpt>
      <trkpt lat="48.40445" lon="2.14398">
        <ele>70.79</ele>
        <time>2020-09-26T16:01:46Z</time>
      </trkpt>
      <trkpt lat="48.40445" lon="2.14397">
        <ele>71.27</ele>
        <time>2020-09-26T16:01:47Z</time>
      </trkpt>
      <trkpt lat="48.40455" lon="2.14379">
        <ele>71.27</ele>
        <time>2020-09-26T16:01:59Z</time>
      </trkpt>
      <trkpt lat="48.40455" lon="2.14378">
        <ele>71.27</ele>
        <time>2020-09-26T16:02:00Z</time>
      </trkpt>
      <trkpt lat="48.40463" lon="2.14364">
        <ele>71.27</ele>
        <time>2020-09-26T16:02:12Z</time>
      </trkpt>
      <trkpt lat="48.40473" lon="2.14343">
        <ele>71.27</ele>
        <time>2020-09-26T16:02:26Z</time>
      </trkpt>
      <trkpt lat="48.40482" lon="2.14326">
        <ele>71.76</ele>
        <time>2020-09-26T16:02:38Z</time>
      </trkpt>
      <trkpt lat="48.40492" lon="2.14308">
        <ele>72.24</ele>
        <time>2020-09-26T16:02:51Z</time>
      </trkpt>
      <trkpt lat="48.40498" lon="2.14299">
        <ele>72.72</ele>
        <time>2020-09-26T16:03:01Z</time>
      </trkpt>
      <trkpt lat="48.40499" lon="2.14299">
        <ele>72.72</ele>
        <time>2020-09-26T16:03:02Z</time>
      </trkpt>
      <trkpt lat="48.40501" lon="2.14299">
        <ele>72.72</ele>
        <time>2020-09-26T16:03:03Z</time>
      </trkpt>
      <trkpt lat="48.40514" lon="2.14298">
        <ele>74.16</ele>
        <time>2020-09-26T16:03:16Z</time>
      </trkpt>
      <trkpt lat="48.40531" lon="2.14294">
        <ele>74.16</ele>
        <time>2020-09-26T16:03:30Z</time>
      </trkpt>
      <trkpt lat="48.40547" lon="2.14291">
        <ele>74.16</ele>
        <time>2020-09-26T16:03:44Z</time>
      </trkpt>
      <trkpt lat="48.40566" lon="2.1429">
        <ele>75.12</ele>
        <time>2020-09-26T16:03:59Z</time>
      </trkpt>
      <trkpt lat="48.40571" lon="2.14288">
        <ele>75.12</ele>
        <time>2020-09-26T16:04:04Z</time>
      </trkpt>
      <trkpt lat="48.40573" lon="2.14287">
        <ele>75.12</ele>
        <time>2020-09-26T16:04:05Z</time>
      </trkpt>
      <trkpt lat="48.40588" lon="2.14281">
        <ele>74.64</ele>
        <time>2020-09-26T16:04:19Z</time>
      </trkpt>
      <trkpt lat="48.40589" lon="2.14282">
        <ele>74.64</ele>
        <time>2020-09-26T16:04:25Z</time>
      </trkpt>
      <trkpt lat="48.40591" lon="2.14282">
        <ele>74.16</ele>
        <time>2020-09-26T16:04:28Z</time>
      </trkpt>
      <trkpt lat="48.4061" lon="2.14288">
        <ele>74.16</ele>
        <time>2020-09-26T16:04:45Z</time>
      </trkpt>
      <trkpt lat="48.40628" lon="2.14287">
        <ele>74.16</ele>
        <time>2020-09-26T16:04:57Z</time>
      </trkpt>
      <trkpt lat="48.40638" lon="2.14289">
        <ele>73.68</ele>
        <time>2020-09-26T16:05:08Z</time>
      </trkpt>
      <trkpt lat="48.40639" lon="2.1429">
        <ele>73.2</ele>
        <time>2020-09-26T16:05:09Z</time>
      </trkpt>
      <trkpt lat="48.40641" lon="2.1429">
        <ele>73.2</ele>
        <time>2020-09-26T16:05:10Z</time>
      </trkpt>
      <trkpt lat="48.40642" lon="2.14291">
        <ele>73.2</ele>
        <time>2020-09-26T16:05:11Z</time>
      </trkpt>
      <trkpt lat="48.40643" lon="2.14291">
        <ele>73.2</ele>
        <time>2020-09-26T16:05:12Z</time>
      </trkpt>
      <trkpt lat="48.40653" lon="2.14292">
        <ele>72.72</ele>
        <time>2020-09-26T16:05:21Z</time>
      </trkpt>
      <trkpt lat="48.40667" lon="2.14296">
        <ele>72.72</ele>
        <time>2020-09-26T16:05:33Z</time>
      </trkpt>
      <trkpt lat="48.40669" lon="2.14294">
        <ele>73.2</ele>
        <time>2020-09-26T16:05:34Z</time>
      </trkpt>
      <trkpt lat="48.40671" lon="2.14294">
        <ele>72.72</ele>
        <time>2020-09-26T16:05:35Z</time>
      </trkpt>
      <trkpt lat="48.40673" lon="2.14294">
        <ele>72.72</ele>
        <time>2020-09-26T16:05:36Z</time>
      </trkpt>
      <trkpt lat="48.40674" lon="2.14294">
        <ele>72.72</ele>
        <time>2020-09-26T16:05:37Z</time>
      </trkpt>
      <trkpt lat="48.40675" lon="2.14294">
        <ele>72.72</ele>
        <time>2020-09-26T16:05:38Z</time>
      </trkpt>
      <trkpt lat="48.40684" lon="2.14295">
        <ele>72.72</ele>
        <time>2020-09-26T16:05:46Z</time>
      </trkpt>
      <trkpt lat="48.40686" lon="2.14294">
        <ele>72.72</ele>
        <time>2020-09-26T16:05:47Z</time>
      </trkpt>
      <trkpt lat="48.40698" lon="2.14294">
        <ele>72.72</ele>
        <time>2020-09-26T16:05:57Z</time>
      </trkpt>
      <trkpt lat="48.40702" lon="2.14296">
        <ele>72.24</ele>
        <time>2020-09-26T16:06:00Z</time>
      </trkpt>
      <trkpt lat="48.40703" lon="2.14297">
        <ele>72.72</ele>
        <time>2020-09-26T16:06:01Z</time>
      </trkpt>
      <trkpt lat="48.40705" lon="2.14296">
        <ele>72.72</ele>
        <time>2020-09-26T16:06:02Z</time>
      </trkpt>
      <trkpt lat="48.40707" lon="2.14297">
        <ele>72.24</ele>
        <time>2020-09-26T16:06:03Z</time>
      </trkpt>
      <trkpt lat="48.40709" lon="2.14297">
        <ele>72.72</ele>
        <time>2020-09-26T16:06:04Z</time>
      </trkpt>
      <trkpt lat="48.40716" lon="2.14299">
        <ele>73.2</ele>
        <time>2020-09-26T16:06:12Z</time>
      </trkpt>
      <trkpt lat="48.40717" lon="2.14299">
        <ele>72.72</ele>
        <time>2020-09-26T16:06:13Z</time>
      </trkpt>
      <trkpt lat="48.40719" lon="2.14298">
        <ele>72.72</ele>
        <time>2020-09-26T16:06:14Z</time>
      </trkpt>
      <trkpt lat="48.4072" lon="2.14297">
        <ele>72.24</ele>
        <time>2020-09-26T16:06:15Z</time>
      </trkpt>
      <trkpt lat="48.40722" lon="2.14296">
        <ele>72.72</ele>
        <time>2020-09-26T16:06:16Z</time>
      </trkpt>
      <trkpt lat="48.40723" lon="2.14297">
        <ele>72.72</ele>
        <time>2020-09-26T16:06:17Z</time>
      </trkpt>
      <trkpt lat="48.40724" lon="2.14298">
        <ele>72.72</ele>
        <time>2020-09-26T16:06:18Z</time>
      </trkpt>
      <trkpt lat="48.40732" lon="2.14302">
        <ele>72.72</ele>
        <time>2020-09-26T16:06:25Z</time>
      </trkpt>
      <trkpt lat="48.40748" lon="2.14299">
        <ele>73.2</ele>
        <time>2020-09-26T16:06:36Z</time>
      </trkpt>
      <trkpt lat="48.40764" lon="2.14297">
        <ele>72.24</ele>
        <time>2020-09-26T16:06:48Z</time>
      </trkpt>
      <trkpt lat="48.40778" lon="2.14297">
        <ele>72.72</ele>
        <time>2020-09-26T16:07:00Z</time>
      </trkpt>
      <trkpt lat="48.40782" lon="2.14297">
        <ele>73.2</ele>
        <time>2020-09-26T16:07:03Z</time>
      </trkpt>
      <trkpt lat="48.40785" lon="2.14298">
        <ele>73.2</ele>
        <time>2020-09-26T16:07:05Z</time>
      </trkpt>
      <trkpt lat="48.40786" lon="2.14298">
        <ele>73.68</ele>
        <time>2020-09-26T16:07:06Z</time>
      </trkpt>
      <trkpt lat="48.40788" lon="2.14298">
        <ele>74.16</ele>
        <time>2020-09-26T16:07:07Z</time>
      </trkpt>
      <trkpt lat="48.40798" lon="2.14302">
        <ele>72.72</ele>
        <time>2020-09-26T16:07:17Z</time>
      </trkpt>
      <trkpt lat="48.40802" lon="2.14303">
        <ele>73.2</ele>
        <time>2020-09-26T16:07:20Z</time>
      </trkpt>
      <trkpt lat="48.40807" lon="2.143">
        <ele>71.76</ele>
        <time>2020-09-26T16:07:30Z</time>
      </trkpt>
      <trkpt lat="48.40809" lon="2.143">
        <ele>74.16</ele>
        <time>2020-09-26T16:07:31Z</time>
      </trkpt>
      <trkpt lat="48.40823" lon="2.14307">
        <ele>73.68</ele>
        <time>2020-09-26T16:07:44Z</time>
      </trkpt>
      <trkpt lat="48.40839" lon="2.14318">
        <ele>73.2</ele>
        <time>2020-09-26T16:07:58Z</time>
      </trkpt>
      <trkpt lat="48.40851" lon="2.14326">
        <ele>72.24</ele>
        <time>2020-09-26T16:08:11Z</time>
      </trkpt>
      <trkpt lat="48.40871" lon="2.14334">
        <ele>73.2</ele>
        <time>2020-09-26T16:08:25Z</time>
      </trkpt>
      <trkpt lat="48.40882" lon="2.14341">
        <ele>72.72</ele>
        <time>2020-09-26T16:08:34Z</time>
      </trkpt>
      <trkpt lat="48.40898" lon="2.14344">
        <ele>72.72</ele>
        <time>2020-09-26T16:08:45Z</time>
      </trkpt>
      <trkpt lat="48.40913" lon="2.14348">
        <ele>73.2</ele>
        <time>2020-09-26T16:08:59Z</time>
      </trkpt>
      <trkpt lat="48.40933" lon="2.14357">
        <ele>72.72</ele>
        <time>2020-09-26T16:09:15Z</time>
      </trkpt>
      <trkpt lat="48.4094" lon="2.14356">
        <ele>72.72</ele>
        <time>2020-09-26T16:09:21Z</time>
      </trkpt>
      <trkpt lat="48.40943" lon="2.14357">
        <ele>73.2</ele>
        <time>2020-09-26T16:09:23Z</time>
      </trkpt>
      <trkpt lat="48.40961" lon="2.14363">
        <ele>72.72</ele>
        <time>2020-09-26T16:09:37Z</time>
      </trkpt>
      <trkpt lat="48.40964" lon="2.14364">
        <ele>72.72</ele>
        <time>2020-09-26T16:09:39Z</time>
      </trkpt>
      <trkpt lat="48.40978" lon="2.14369">
        <ele>72.72</ele>
        <time>2020-09-26T16:09:51Z</time>
      </trkpt>
      <trkpt lat="48.40985" lon="2.1437">
        <ele>72.72</ele>
        <time>2020-09-26T16:09:57Z</time>
      </trkpt>
      <trkpt lat="48.40987" lon="2.1437">
        <ele>73.2</ele>
        <time>2020-09-26T16:09:58Z</time>
      </trkpt>
      <trkpt lat="48.40988" lon="2.1437">
        <ele>72.72</ele>
        <time>2020-09-26T16:09:59Z</time>
      </trkpt>
      <trkpt lat="48.4099" lon="2.14371">
        <ele>72.72</ele>
        <time>2020-09-26T16:10:00Z</time>
      </trkpt>
      <trkpt lat="48.40991" lon="2.14372">
        <ele>72.72</ele>
        <time>2020-09-26T16:10:01Z</time>
      </trkpt>
      <trkpt lat="48.40993" lon="2.14373">
        <ele>72.72</ele>
        <time>2020-09-26T16:10:02Z</time>
      </trkpt>
      <trkpt lat="48.41011" lon="2.1438">
        <ele>73.2</ele>
        <time>2020-09-26T16:10:16Z</time>
      </trkpt>
      <trkpt lat="48.41021" lon="2.14394">
        <ele>72.72</ele>
        <time>2020-09-26T16:10:28Z</time>
      </trkpt>
      <trkpt lat="48.4102" lon="2.14412">
        <ele>72.24</ele>
        <time>2020-09-26T16:10:34Z</time>
      </trkpt>
      <trkpt lat="48.41024" lon="2.14418">
        <ele>72.24</ele>
        <time>2020-09-26T16:10:40Z</time>
      </trkpt>
      <trkpt lat="48.41037" lon="2.14423">
        <ele>72.72</ele>
        <time>2020-09-26T16:10:54Z</time>
      </trkpt>
    </trkseg>
  </trk>
</gpx>